<?xml version='1.0' encoding='UTF-8'?><gpx version="1.1" creator="JPX - https://github.com/jenetics/jpx" xmlns="http://www.topografix.com/GPX/1/1"><trk><trkseg><trkpt lat="45.3264661" lon="8.8666932"><ele>104.0</ele><time>2026-04-05T13:46:30.311Z</time></trkpt><trkpt lat="45.3268051" lon="8.8667379"><ele>104.0</ele><time>2026-04-05T13:46:33.781Z</time></trkpt><trkpt lat="45.3267226" lon="8.8666492"><ele>104.0</ele><time>2026-04-05T13:46:37.281Z</time></trkpt><trkpt lat="45.3267889" lon="8.8667174"><ele>103.99999999999999</ele><time>2026-04-05T13:47:35.282Z</time></trkpt><trkpt lat="45.3268736" lon="8.8667604"><ele>104.0</ele><time>2026-04-05T13:47:38.281Z</time></trkpt><trkpt lat="45.3269383" lon="8.8666703"><ele>104.0</ele><time>2026-04-05T13:47:40.282Z</time></trkpt><trkpt lat="45.326968" lon="8.8665863"><ele>104.0</ele><time>2026-04-05T13:47:41.281Z</time></trkpt><trkpt lat="45.326989" lon="8.8664719"><ele>103.99999999999999</ele><time>2026-04-05T13:47:42.282Z</time></trkpt><trkpt lat="45.327006" lon="8.8663487"><ele>104.0</ele><time>2026-04-05T13:47:43.281Z</time></trkpt><trkpt lat="45.3270172" lon="8.8662363"><ele>103.99999999999999</ele><time>2026-04-05T13:47:44.282Z</time></trkpt><trkpt lat="45.3270294" lon="8.8661301"><ele>104.0</ele><time>2026-04-05T13:47:45.282Z</time></trkpt><trkpt lat="45.3270439" lon="8.8660313"><ele>104.0</ele><time>2026-04-05T13:47:46.281Z</time></trkpt><trkpt lat="45.3270662" lon="8.8659405"><ele>104.0</ele><time>2026-04-05T13:47:47.281Z</time></trkpt><trkpt lat="45.3270983" lon="8.8658632"><ele>103.99999999999999</ele><time>2026-04-05T13:47:48.282Z</time></trkpt><trkpt lat="45.3271863" lon="8.8657646"><ele>104.0</ele><time>2026-04-05T13:47:50.282Z</time></trkpt><trkpt lat="45.3272549" lon="8.8657563"><ele>103.80000000000001</ele><time>2026-04-05T13:47:51.282Z</time></trkpt><trkpt lat="45.3273344" lon="8.8657698"><ele>103.60000000000001</ele><time>2026-04-05T13:47:52.281Z</time></trkpt><trkpt lat="45.3274256" lon="8.8657901"><ele>103.4</ele><time>2026-04-05T13:47:53.281Z</time></trkpt><trkpt lat="45.3275223" lon="8.8658154"><ele>103.2</ele><time>2026-04-05T13:47:54.282Z</time></trkpt><trkpt lat="45.3276234" lon="8.8658405"><ele>103.0</ele><time>2026-04-05T13:47:55.281Z</time></trkpt><trkpt lat="45.3277315" lon="8.8658643"><ele>103.0</ele><time>2026-04-05T13:47:56.281Z</time></trkpt><trkpt lat="45.3278381" lon="8.8658853"><ele>103.0</ele><time>2026-04-05T13:47:57.282Z</time></trkpt><trkpt lat="45.3279423" lon="8.8659099"><ele>103.0</ele><time>2026-04-05T13:47:58.282Z</time></trkpt><trkpt lat="45.3280455" lon="8.8659341"><ele>103.0</ele><time>2026-04-05T13:47:59.282Z</time></trkpt><trkpt lat="45.3281433" lon="8.8659563"><ele>103.0</ele><time>2026-04-05T13:48:00.281Z</time></trkpt><trkpt lat="45.3282371" lon="8.8659736"><ele>103.2</ele><time>2026-04-05T13:48:01.282Z</time></trkpt><trkpt lat="45.3283299" lon="8.8659915"><ele>103.4</ele><time>2026-04-05T13:48:02.282Z</time></trkpt><trkpt lat="45.328423" lon="8.8660095"><ele>103.60000000000001</ele><time>2026-04-05T13:48:03.281Z</time></trkpt><trkpt lat="45.3285215" lon="8.8660291"><ele>103.80000000000001</ele><time>2026-04-05T13:48:04.282Z</time></trkpt><trkpt lat="45.3286232" lon="8.866053"><ele>104.0</ele><time>2026-04-05T13:48:05.281Z</time></trkpt><trkpt lat="45.3287347" lon="8.8660741"><ele>104.0</ele><time>2026-04-05T13:48:06.282Z</time></trkpt><trkpt lat="45.328847" lon="8.8660931"><ele>104.0</ele><time>2026-04-05T13:48:07.282Z</time></trkpt><trkpt lat="45.328955" lon="8.8661121"><ele>104.0</ele><time>2026-04-05T13:48:08.281Z</time></trkpt><trkpt lat="45.329059" lon="8.8661316"><ele>104.0</ele><time>2026-04-05T13:48:09.282Z</time></trkpt><trkpt lat="45.3291552" lon="8.8661485"><ele>104.0</ele><time>2026-04-05T13:48:10.282Z</time></trkpt><trkpt lat="45.3292424" lon="8.8661635"><ele>103.83333333333333</ele><time>2026-04-05T13:48:11.282Z</time></trkpt><trkpt lat="45.3293199" lon="8.8661757"><ele>103.66666666666666</ele><time>2026-04-05T13:48:12.281Z</time></trkpt><trkpt lat="45.3293927" lon="8.866187"><ele>103.5</ele><time>2026-04-05T13:48:13.281Z</time></trkpt><trkpt lat="45.3294607" lon="8.8661991"><ele>103.33333333333334</ele><time>2026-04-05T13:48:14.282Z</time></trkpt><trkpt lat="45.3295744" lon="8.8662149"><ele>103.16666666666667</ele><time>2026-04-05T13:48:16.281Z</time></trkpt><trkpt lat="45.3296631" lon="8.8662495"><ele>103.0</ele><time>2026-04-05T13:48:18.282Z</time></trkpt><trkpt lat="45.3297212" lon="8.8663525"><ele>103.00000000000001</ele><time>2026-04-05T13:48:20.281Z</time></trkpt><trkpt lat="45.3297366" lon="8.8665287"><ele>103.0</ele><time>2026-04-05T13:48:22.282Z</time></trkpt><trkpt lat="45.3297326" lon="8.8666339"><ele>103.0</ele><time>2026-04-05T13:48:23.282Z</time></trkpt><trkpt lat="45.3297261" lon="8.8667418"><ele>103.0</ele><time>2026-04-05T13:48:24.282Z</time></trkpt><trkpt lat="45.3297173" lon="8.8668551"><ele>103.00000000000001</ele><time>2026-04-05T13:48:25.282Z</time></trkpt><trkpt lat="45.3297067" lon="8.8669697"><ele>103.0</ele><time>2026-04-05T13:48:26.281Z</time></trkpt><trkpt lat="45.3296958" lon="8.8670742"><ele>103.2</ele><time>2026-04-05T13:48:27.282Z</time></trkpt><trkpt lat="45.3296911" lon="8.8671691"><ele>103.4</ele><time>2026-04-05T13:48:28.282Z</time></trkpt><trkpt lat="45.3297115" lon="8.8673217"><ele>103.60000000000001</ele><time>2026-04-05T13:48:30.281Z</time></trkpt><trkpt lat="45.3297741" lon="8.867467"><ele>103.80000000000001</ele><time>2026-04-05T13:48:32.282Z</time></trkpt><trkpt lat="45.3298087" lon="8.8676301"><ele>104.0</ele><time>2026-04-05T13:48:34.282Z</time></trkpt><trkpt lat="45.3297911" lon="8.8677781"><ele>103.99999999999999</ele><time>2026-04-05T13:48:36.282Z</time></trkpt><trkpt lat="45.3297665" lon="8.8679085"><ele>104.0</ele><time>2026-04-05T13:48:38.281Z</time></trkpt><trkpt lat="45.3297638" lon="8.8680052"><ele>104.0</ele><time>2026-04-05T13:48:40.281Z</time></trkpt><trkpt lat="45.3298617" lon="8.8679833"><ele>104.0</ele><time>2026-04-05T13:48:42.281Z</time></trkpt><trkpt lat="45.3299433" lon="8.8679567"><ele>103.99999999999999</ele><time>2026-04-05T13:48:43.282Z</time></trkpt><trkpt lat="45.3300183" lon="8.8679633"><ele>104.0</ele><time>2026-04-05T13:48:44.282Z</time></trkpt><trkpt lat="45.330105" lon="8.8679783"><ele>104.0</ele><time>2026-04-05T13:48:45.282Z</time></trkpt><trkpt lat="45.3302" lon="8.8679967"><ele>104.0</ele><time>2026-04-05T13:48:46.281Z</time></trkpt><trkpt lat="45.3303017" lon="8.8680233"><ele>104.0</ele><time>2026-04-05T13:48:47.282Z</time></trkpt><trkpt lat="45.3304117" lon="8.8680567"><ele>104.0</ele><time>2026-04-05T13:48:48.282Z</time></trkpt><trkpt lat="45.3305233" lon="8.86809"><ele>104.0</ele><time>2026-04-05T13:48:49.281Z</time></trkpt><trkpt lat="45.330635" lon="8.8681317"><ele>104.25</ele><time>2026-04-05T13:48:50.282Z</time></trkpt><trkpt lat="45.3307483" lon="8.868185"><ele>104.5</ele><time>2026-04-05T13:48:51.282Z</time></trkpt><trkpt lat="45.3308683" lon="8.86824"><ele>104.75</ele><time>2026-04-05T13:48:52.281Z</time></trkpt><trkpt lat="45.3309833" lon="8.8682933"><ele>105.0</ele><time>2026-04-05T13:48:53.282Z</time></trkpt><trkpt lat="45.331095" lon="8.8683433"><ele>105.0</ele><time>2026-04-05T13:48:54.282Z</time></trkpt><trkpt lat="45.3312067" lon="8.8683867"><ele>105.0</ele><time>2026-04-05T13:48:55.281Z</time></trkpt><trkpt lat="45.3313167" lon="8.8684217"><ele>105.0</ele><time>2026-04-05T13:48:56.282Z</time></trkpt><trkpt lat="45.33142" lon="8.8684517"><ele>105.0</ele><time>2026-04-05T13:48:57.281Z</time></trkpt><trkpt lat="45.33152" lon="8.8684733"><ele>105.0</ele><time>2026-04-05T13:48:58.282Z</time></trkpt><trkpt lat="45.3316167" lon="8.8684917"><ele>104.4</ele><time>2026-04-05T13:48:59.281Z</time></trkpt><trkpt lat="45.3317117" lon="8.8685067"><ele>103.8</ele><time>2026-04-05T13:49:00.281Z</time></trkpt><trkpt lat="45.3318067" lon="8.86852"><ele>103.19999999999999</ele><time>2026-04-05T13:49:01.282Z</time></trkpt><trkpt lat="45.3319033" lon="8.8685333"><ele>102.6</ele><time>2026-04-05T13:49:02.281Z</time></trkpt><trkpt lat="45.3320017" lon="8.868545"><ele>102.0</ele><time>2026-04-05T13:49:03.282Z</time></trkpt><trkpt lat="45.3321" lon="8.8685533"><ele>102.0</ele><time>2026-04-05T13:49:04.282Z</time></trkpt><trkpt lat="45.3322033" lon="8.86856"><ele>102.0</ele><time>2026-04-05T13:49:05.281Z</time></trkpt><trkpt lat="45.3323117" lon="8.8685633"><ele>102.0</ele><time>2026-04-05T13:49:06.282Z</time></trkpt><trkpt lat="45.3324217" lon="8.8685733"><ele>102.0</ele><time>2026-04-05T13:49:07.281Z</time></trkpt><trkpt lat="45.3325317" lon="8.8685783"><ele>102.0</ele><time>2026-04-05T13:49:08.282Z</time></trkpt><trkpt lat="45.3326283" lon="8.8685833"><ele>102.0</ele><time>2026-04-05T13:49:09.281Z</time></trkpt><trkpt lat="45.3327133" lon="8.8685883"><ele>102.0</ele><time>2026-04-05T13:49:10.282Z</time></trkpt><trkpt lat="45.3327883" lon="8.8685917"><ele>102.0</ele><time>2026-04-05T13:49:11.281Z</time></trkpt><trkpt lat="45.3328667" lon="8.8686"><ele>102.0</ele><time>2026-04-05T13:49:12.282Z</time></trkpt><trkpt lat="45.33294" lon="8.8686117"><ele>102.0</ele><time>2026-04-05T13:49:13.282Z</time></trkpt><trkpt lat="45.333005" lon="8.86863"><ele>102.0</ele><time>2026-04-05T13:49:14.281Z</time></trkpt><trkpt lat="45.333095" lon="8.868665"><ele>102.0</ele><time>2026-04-05T13:49:16.281Z</time></trkpt><trkpt lat="45.3330183" lon="8.86864"><ele>102.0</ele><time>2026-04-05T13:49:29.282Z</time></trkpt><trkpt lat="45.332895" lon="8.8686117"><ele>102.0</ele><time>2026-04-05T13:49:31.282Z</time></trkpt><trkpt lat="45.332825" lon="8.868605"><ele>102.0</ele><time>2026-04-05T13:49:32.281Z</time></trkpt><trkpt lat="45.3327567" lon="8.8686"><ele>102.0</ele><time>2026-04-05T13:49:33.282Z</time></trkpt><trkpt lat="45.332645" lon="8.8685717"><ele>102.0</ele><time>2026-04-05T13:49:35.282Z</time></trkpt><trkpt lat="45.3325717" lon="8.868475"><ele>102.0</ele><time>2026-04-05T13:49:37.282Z</time></trkpt><trkpt lat="45.33252" lon="8.868315"><ele>102.0</ele><time>2026-04-05T13:49:39.282Z</time></trkpt><trkpt lat="45.332495" lon="8.8682167"><ele>102.0</ele><time>2026-04-05T13:49:40.282Z</time></trkpt><trkpt lat="45.3324683" lon="8.868105"><ele>102.0</ele><time>2026-04-05T13:49:41.281Z</time></trkpt><trkpt lat="45.33244" lon="8.8679833"><ele>102.6</ele><time>2026-04-05T13:49:42.281Z</time></trkpt><trkpt lat="45.3324067" lon="8.8678517"><ele>103.19999999999999</ele><time>2026-04-05T13:49:43.281Z</time></trkpt><trkpt lat="45.3323733" lon="8.8677167"><ele>103.8</ele><time>2026-04-05T13:49:44.281Z</time></trkpt><trkpt lat="45.3323367" lon="8.8675817"><ele>104.4</ele><time>2026-04-05T13:49:45.281Z</time></trkpt><trkpt lat="45.3323083" lon="8.867435"><ele>105.0</ele><time>2026-04-05T13:49:46.282Z</time></trkpt><trkpt lat="45.33228" lon="8.867285"><ele>105.0</ele><time>2026-04-05T13:49:47.282Z</time></trkpt><trkpt lat="45.3322567" lon="8.8671383"><ele>105.0</ele><time>2026-04-05T13:49:48.281Z</time></trkpt><trkpt lat="45.332235" lon="8.8669983"><ele>105.0</ele><time>2026-04-05T13:49:49.282Z</time></trkpt><trkpt lat="45.3322133" lon="8.866865"><ele>105.0</ele><time>2026-04-05T13:49:50.281Z</time></trkpt><trkpt lat="45.3321933" lon="8.8667367"><ele>105.0</ele><time>2026-04-05T13:49:51.282Z</time></trkpt><trkpt lat="45.3321733" lon="8.8666133"><ele>105.16666666666667</ele><time>2026-04-05T13:49:52.282Z</time></trkpt><trkpt lat="45.332155" lon="8.866495"><ele>105.33333333333334</ele><time>2026-04-05T13:49:53.281Z</time></trkpt><trkpt lat="45.3321383" lon="8.86638"><ele>105.5</ele><time>2026-04-05T13:49:54.281Z</time></trkpt><trkpt lat="45.3321233" lon="8.866265"><ele>105.66666666666667</ele><time>2026-04-05T13:49:55.281Z</time></trkpt><trkpt lat="45.3321067" lon="8.86615"><ele>105.83333333333334</ele><time>2026-04-05T13:49:56.281Z</time></trkpt><trkpt lat="45.3320917" lon="8.8660367"><ele>106.0</ele><time>2026-04-05T13:49:57.281Z</time></trkpt><trkpt lat="45.3320717" lon="8.86593"><ele>106.00000000000001</ele><time>2026-04-05T13:49:58.282Z</time></trkpt><trkpt lat="45.3320517" lon="8.8658267"><ele>106.0</ele><time>2026-04-05T13:49:59.281Z</time></trkpt><trkpt lat="45.3320333" lon="8.8657317"><ele>106.0</ele><time>2026-04-05T13:50:00.282Z</time></trkpt><trkpt lat="45.3320167" lon="8.86564"><ele>106.0</ele><time>2026-04-05T13:50:01.282Z</time></trkpt><trkpt lat="45.3319917" lon="8.8654833"><ele>106.00000000000001</ele><time>2026-04-05T13:50:03.282Z</time></trkpt><trkpt lat="45.332005" lon="8.865365"><ele>106.0</ele><time>2026-04-05T13:50:05.281Z</time></trkpt><trkpt lat="45.332105" lon="8.865305"><ele>106.0</ele><time>2026-04-05T13:50:07.282Z</time></trkpt><trkpt lat="45.3321783" lon="8.8652667"><ele>106.0</ele><time>2026-04-05T13:50:08.282Z</time></trkpt><trkpt lat="45.332265" lon="8.8652233"><ele>106.0</ele><time>2026-04-05T13:50:09.282Z</time></trkpt><trkpt lat="45.3323617" lon="8.8651767"><ele>106.0</ele><time>2026-04-05T13:50:10.282Z</time></trkpt><trkpt lat="45.332465" lon="8.8651233"><ele>106.0</ele><time>2026-04-05T13:50:11.281Z</time></trkpt><trkpt lat="45.3325767" lon="8.8650717"><ele>105.75</ele><time>2026-04-05T13:50:12.281Z</time></trkpt><trkpt lat="45.3326917" lon="8.8650167"><ele>105.5</ele><time>2026-04-05T13:50:13.281Z</time></trkpt><trkpt lat="45.332805" lon="8.8649617"><ele>105.25</ele><time>2026-04-05T13:50:14.282Z</time></trkpt><trkpt lat="45.3329217" lon="8.8649067"><ele>105.0</ele><time>2026-04-05T13:50:15.281Z</time></trkpt><trkpt lat="45.3330417" lon="8.864855"><ele>104.6</ele><time>2026-04-05T13:50:16.282Z</time></trkpt><trkpt lat="45.3331583" lon="8.86482"><ele>104.2</ele><time>2026-04-05T13:50:17.282Z</time></trkpt><trkpt lat="45.3332683" lon="8.8647967"><ele>103.80000000000001</ele><time>2026-04-05T13:50:18.281Z</time></trkpt><trkpt lat="45.3333733" lon="8.8647817"><ele>103.4</ele><time>2026-04-05T13:50:19.281Z</time></trkpt><trkpt lat="45.3334767" lon="8.8647683"><ele>103.0</ele><time>2026-04-05T13:50:20.281Z</time></trkpt><trkpt lat="45.3335767" lon="8.8647533"><ele>103.0</ele><time>2026-04-05T13:50:21.281Z</time></trkpt><trkpt lat="45.333675" lon="8.8647367"><ele>103.0</ele><time>2026-04-05T13:50:22.281Z</time></trkpt><trkpt lat="45.3337717" lon="8.8647217"><ele>103.0</ele><time>2026-04-05T13:50:23.282Z</time></trkpt><trkpt lat="45.33387" lon="8.864705"><ele>103.0</ele><time>2026-04-05T13:50:24.281Z</time></trkpt><trkpt lat="45.3339667" lon="8.8646933"><ele>103.0</ele><time>2026-04-05T13:50:25.282Z</time></trkpt><trkpt lat="45.3340667" lon="8.8646783"><ele>103.0</ele><time>2026-04-05T13:50:26.282Z</time></trkpt><trkpt lat="45.3341667" lon="8.8646633"><ele>103.0</ele><time>2026-04-05T13:50:27.281Z</time></trkpt><trkpt lat="45.334265" lon="8.8646517"><ele>103.0</ele><time>2026-04-05T13:50:28.281Z</time></trkpt><trkpt lat="45.3343583" lon="8.86464"><ele>103.0</ele><time>2026-04-05T13:50:29.281Z</time></trkpt><trkpt lat="45.3344417" lon="8.8646267"><ele>103.0</ele><time>2026-04-05T13:50:30.282Z</time></trkpt><trkpt lat="45.33452" lon="8.86461"><ele>103.00000000000001</ele><time>2026-04-05T13:50:31.282Z</time></trkpt><trkpt lat="45.3345917" lon="8.8645917"><ele>103.0</ele><time>2026-04-05T13:50:32.282Z</time></trkpt><trkpt lat="45.3346583" lon="8.86457"><ele>103.0</ele><time>2026-04-05T13:50:33.282Z</time></trkpt><trkpt lat="45.3347217" lon="8.864545"><ele>103.0</ele><time>2026-04-05T13:50:34.281Z</time></trkpt><trkpt lat="45.3347883" lon="8.8645283"><ele>103.00000000000001</ele><time>2026-04-05T13:50:35.282Z</time></trkpt><trkpt lat="45.3349117" lon="8.8645117"><ele>103.0</ele><time>2026-04-05T13:50:37.281Z</time></trkpt><trkpt lat="45.33502" lon="8.8644967"><ele>103.16666666666667</ele><time>2026-04-05T13:50:39.282Z</time></trkpt><trkpt lat="45.3351483" lon="8.8644983"><ele>103.33333333333334</ele><time>2026-04-05T13:50:41.281Z</time></trkpt><trkpt lat="45.3352217" lon="8.8645183"><ele>103.5</ele><time>2026-04-05T13:50:42.281Z</time></trkpt><trkpt lat="45.3353" lon="8.8645333"><ele>103.66666666666666</ele><time>2026-04-05T13:50:43.282Z</time></trkpt><trkpt lat="45.33538" lon="8.8645233"><ele>103.83333333333333</ele><time>2026-04-05T13:50:44.281Z</time></trkpt><trkpt lat="45.3354483" lon="8.86448"><ele>104.0</ele><time>2026-04-05T13:50:45.281Z</time></trkpt><trkpt lat="45.3355083" lon="8.8644183"><ele>104.0</ele><time>2026-04-05T13:50:46.281Z</time></trkpt><trkpt lat="45.3355683" lon="8.8643533"><ele>104.0</ele><time>2026-04-05T13:50:47.282Z</time></trkpt><trkpt lat="45.3356283" lon="8.8643"><ele>104.0</ele><time>2026-04-05T13:50:48.281Z</time></trkpt><trkpt lat="45.3357417" lon="8.8642433"><ele>104.0</ele><time>2026-04-05T13:50:50.281Z</time></trkpt><trkpt lat="45.3358183" lon="8.8641633"><ele>104.0</ele><time>2026-04-05T13:50:52.282Z</time></trkpt><trkpt lat="45.3358183" lon="8.8640183"><ele>104.0</ele><time>2026-04-05T13:50:54.281Z</time></trkpt><trkpt lat="45.33575" lon="8.863895"><ele>104.0</ele><time>2026-04-05T13:50:56.281Z</time></trkpt><trkpt lat="45.335625" lon="8.8638133"><ele>104.0</ele><time>2026-04-05T13:50:58.281Z</time></trkpt><trkpt lat="45.3355483" lon="8.8637783"><ele>104.0</ele><time>2026-04-05T13:50:59.282Z</time></trkpt><trkpt lat="45.33547" lon="8.8637433"><ele>104.0</ele><time>2026-04-05T13:51:00.282Z</time></trkpt><trkpt lat="45.3353983" lon="8.8637"><ele>104.2</ele><time>2026-04-05T13:51:01.282Z</time></trkpt><trkpt lat="45.3353383" lon="8.86363"><ele>104.4</ele><time>2026-04-05T13:51:02.282Z</time></trkpt><trkpt lat="45.3353017" lon="8.863525"><ele>104.6</ele><time>2026-04-05T13:51:03.281Z</time></trkpt><trkpt lat="45.3352733" lon="8.8634"><ele>104.8</ele><time>2026-04-05T13:51:04.281Z</time></trkpt><trkpt lat="45.3352483" lon="8.863265"><ele>105.0</ele><time>2026-04-05T13:51:05.282Z</time></trkpt><trkpt lat="45.335215" lon="8.8631167"><ele>105.0</ele><time>2026-04-05T13:51:06.282Z</time></trkpt><trkpt lat="45.3351783" lon="8.86296"><ele>105.0</ele><time>2026-04-05T13:51:07.281Z</time></trkpt><trkpt lat="45.3351417" lon="8.8628067"><ele>105.0</ele><time>2026-04-05T13:51:08.281Z</time></trkpt><trkpt lat="45.335105" lon="8.862655"><ele>105.0</ele><time>2026-04-05T13:51:09.282Z</time></trkpt><trkpt lat="45.3350717" lon="8.8624917"><ele>104.8</ele><time>2026-04-05T13:51:10.282Z</time></trkpt><trkpt lat="45.3350417" lon="8.8623367"><ele>104.6</ele><time>2026-04-05T13:51:11.282Z</time></trkpt><trkpt lat="45.3350183" lon="8.8622"><ele>104.4</ele><time>2026-04-05T13:51:12.282Z</time></trkpt><trkpt lat="45.3349933" lon="8.8620633"><ele>104.2</ele><time>2026-04-05T13:51:13.282Z</time></trkpt><trkpt lat="45.3349733" lon="8.861935"><ele>104.0</ele><time>2026-04-05T13:51:14.282Z</time></trkpt><trkpt lat="45.334955" lon="8.861805"><ele>103.80000000000001</ele><time>2026-04-05T13:51:15.282Z</time></trkpt><trkpt lat="45.3349383" lon="8.8616767"><ele>103.60000000000001</ele><time>2026-04-05T13:51:16.282Z</time></trkpt><trkpt lat="45.33492" lon="8.8615517"><ele>103.4</ele><time>2026-04-05T13:51:17.281Z</time></trkpt><trkpt lat="45.3349" lon="8.8614283"><ele>103.2</ele><time>2026-04-05T13:51:18.282Z</time></trkpt><trkpt lat="45.3348833" lon="8.8613017"><ele>103.0</ele><time>2026-04-05T13:51:19.281Z</time></trkpt><trkpt lat="45.3348667" lon="8.8611733"><ele>103.00000000000001</ele><time>2026-04-05T13:51:20.281Z</time></trkpt><trkpt lat="45.3348517" lon="8.861045"><ele>103.0</ele><time>2026-04-05T13:51:21.282Z</time></trkpt><trkpt lat="45.3348383" lon="8.860915"><ele>103.0</ele><time>2026-04-05T13:51:22.282Z</time></trkpt><trkpt lat="45.3348283" lon="8.8607883"><ele>103.0</ele><time>2026-04-05T13:51:23.282Z</time></trkpt><trkpt lat="45.3348167" lon="8.8606667"><ele>103.00000000000001</ele><time>2026-04-05T13:51:24.282Z</time></trkpt><trkpt lat="45.334805" lon="8.8605533"><ele>103.0</ele><time>2026-04-05T13:51:25.282Z</time></trkpt><trkpt lat="45.3347967" lon="8.8604583"><ele>103.5</ele><time>2026-04-05T13:51:26.282Z</time></trkpt><trkpt lat="45.3348033" lon="8.86032"><ele>104.0</ele><time>2026-04-05T13:51:28.281Z</time></trkpt><trkpt lat="45.334835" lon="8.86024"><ele>104.5</ele><time>2026-04-05T13:51:30.282Z</time></trkpt><trkpt lat="45.3349717" lon="8.8601533"><ele>105.0</ele><time>2026-04-05T13:52:51.281Z</time></trkpt><trkpt lat="45.3351083" lon="8.86012"><ele>105.0</ele><time>2026-04-05T13:52:53.282Z</time></trkpt><trkpt lat="45.3355767" lon="8.860155"><ele>105.25</ele><time>2026-04-05T13:52:54.579Z</time></trkpt><trkpt lat="45.3354267" lon="8.860035"><ele>105.5</ele><time>2026-04-05T13:52:56.794Z</time></trkpt><trkpt lat="45.3355833" lon="8.8600517"><ele>105.75</ele><time>2026-04-05T13:52:57.794Z</time></trkpt><trkpt lat="45.3356867" lon="8.860055"><ele>106.0</ele><time>2026-04-05T13:52:59.294Z</time></trkpt><trkpt lat="45.3357683" lon="8.8600617"><ele>106.0</ele><time>2026-04-05T13:53:00.294Z</time></trkpt><trkpt lat="45.3358517" lon="8.86007"><ele>106.0</ele><time>2026-04-05T13:53:01.294Z</time></trkpt><trkpt lat="45.335945" lon="8.86008"><ele>106.0</ele><time>2026-04-05T13:53:02.293Z</time></trkpt><trkpt lat="45.336035" lon="8.86009"><ele>106.0</ele><time>2026-04-05T13:53:03.294Z</time></trkpt><trkpt lat="45.3361367" lon="8.8601167"><ele>106.0</ele><time>2026-04-05T13:53:04.293Z</time></trkpt><trkpt lat="45.3362183" lon="8.86013"><ele>105.83333333333334</ele><time>2026-04-05T13:53:05.293Z</time></trkpt><trkpt lat="45.336295" lon="8.860155"><ele>105.66666666666667</ele><time>2026-04-05T13:53:06.293Z</time></trkpt><trkpt lat="45.336375" lon="8.86017"><ele>105.5</ele><time>2026-04-05T13:53:07.294Z</time></trkpt><trkpt lat="45.3364533" lon="8.860195"><ele>105.33333333333334</ele><time>2026-04-05T13:53:08.294Z</time></trkpt><trkpt lat="45.336535" lon="8.8602133"><ele>105.16666666666667</ele><time>2026-04-05T13:53:09.294Z</time></trkpt><trkpt lat="45.3366133" lon="8.86023"><ele>105.0</ele><time>2026-04-05T13:53:10.293Z</time></trkpt><trkpt lat="45.3366917" lon="8.86024"><ele>105.5</ele><time>2026-04-05T13:53:11.294Z</time></trkpt><trkpt lat="45.3367717" lon="8.8602467"><ele>106.0</ele><time>2026-04-05T13:53:12.293Z</time></trkpt><trkpt lat="45.3368533" lon="8.860255"><ele>106.5</ele><time>2026-04-05T13:53:13.294Z</time></trkpt><trkpt lat="45.3369283" lon="8.86027"><ele>107.0</ele><time>2026-04-05T13:53:14.294Z</time></trkpt><trkpt lat="45.337" lon="8.8602767"><ele>107.5</ele><time>2026-04-05T13:53:15.294Z</time></trkpt><trkpt lat="45.337065" lon="8.860275"><ele>108.0</ele><time>2026-04-05T13:53:16.294Z</time></trkpt><trkpt lat="45.3371867" lon="8.86024"><ele>108.16666666666667</ele><time>2026-04-05T13:53:18.293Z</time></trkpt><trkpt lat="45.3372517" lon="8.8602067"><ele>108.33333333333334</ele><time>2026-04-05T13:53:19.294Z</time></trkpt><trkpt lat="45.337325" lon="8.8601767"><ele>108.5</ele><time>2026-04-05T13:53:20.293Z</time></trkpt><trkpt lat="45.3373983" lon="8.8601417"><ele>108.66666666666667</ele><time>2026-04-05T13:53:21.294Z</time></trkpt><trkpt lat="45.3374783" lon="8.8601"><ele>108.83333333333334</ele><time>2026-04-05T13:53:22.293Z</time></trkpt><trkpt lat="45.33756" lon="8.8600617"><ele>109.0</ele><time>2026-04-05T13:53:23.293Z</time></trkpt><trkpt lat="45.3376383" lon="8.860025"><ele>109.00000000000001</ele><time>2026-04-05T13:53:24.294Z</time></trkpt><trkpt lat="45.3377117" lon="8.8599933"><ele>109.0</ele><time>2026-04-05T13:53:25.294Z</time></trkpt><trkpt lat="45.33778" lon="8.8599633"><ele>109.0</ele><time>2026-04-05T13:53:26.294Z</time></trkpt><trkpt lat="45.3378417" lon="8.8599433"><ele>109.0</ele><time>2026-04-05T13:53:27.293Z</time></trkpt><trkpt lat="45.3379583" lon="8.85991"><ele>109.00000000000001</ele><time>2026-04-05T13:53:29.293Z</time></trkpt><trkpt lat="45.338065" lon="8.8598533"><ele>109.0</ele><time>2026-04-05T13:53:31.294Z</time></trkpt><trkpt lat="45.338195" lon="8.85978"><ele>109.00000000000001</ele><time>2026-04-05T13:53:33.293Z</time></trkpt><trkpt lat="45.3382683" lon="8.8597433"><ele>109.0</ele><time>2026-04-05T13:53:34.293Z</time></trkpt><trkpt lat="45.3383467" lon="8.8597083"><ele>109.0</ele><time>2026-04-05T13:53:35.293Z</time></trkpt><trkpt lat="45.3384233" lon="8.8596717"><ele>109.0</ele><time>2026-04-05T13:53:36.294Z</time></trkpt><trkpt lat="45.3384967" lon="8.8596367"><ele>109.00000000000001</ele><time>2026-04-05T13:53:37.294Z</time></trkpt><trkpt lat="45.3385683" lon="8.85961"><ele>109.0</ele><time>2026-04-05T13:53:38.294Z</time></trkpt><trkpt lat="45.3386433" lon="8.8595817"><ele>109.0</ele><time>2026-04-05T13:53:39.293Z</time></trkpt><trkpt lat="45.3387167" lon="8.8595533"><ele>109.0</ele><time>2026-04-05T13:53:40.294Z</time></trkpt><trkpt lat="45.3387883" lon="8.8595233"><ele>109.0</ele><time>2026-04-05T13:53:41.293Z</time></trkpt><trkpt lat="45.338855" lon="8.8594983"><ele>109.0</ele><time>2026-04-05T13:53:42.294Z</time></trkpt><trkpt lat="45.3389183" lon="8.8594767"><ele>109.0</ele><time>2026-04-05T13:53:43.293Z</time></trkpt><trkpt lat="45.33898" lon="8.8594567"><ele>109.0</ele><time>2026-04-05T13:53:44.294Z</time></trkpt><trkpt lat="45.339045" lon="8.8594383"><ele>109.0</ele><time>2026-04-05T13:53:45.294Z</time></trkpt><trkpt lat="45.339115" lon="8.8594217"><ele>108.66666666666667</ele><time>2026-04-05T13:53:46.294Z</time></trkpt><trkpt lat="45.3391833" lon="8.8594067"><ele>108.33333333333334</ele><time>2026-04-05T13:53:47.293Z</time></trkpt><trkpt lat="45.3392917" lon="8.85938"><ele>108.0</ele><time>2026-04-05T13:53:49.293Z</time></trkpt><trkpt lat="45.3393683" lon="8.8593567"><ele>107.66666666666666</ele><time>2026-04-05T13:53:51.293Z</time></trkpt><trkpt lat="45.3394133" lon="8.85928"><ele>107.33333333333333</ele><time>2026-04-05T13:53:53.294Z</time></trkpt><trkpt lat="45.339415" lon="8.8591333"><ele>107.0</ele><time>2026-04-05T13:53:55.293Z</time></trkpt><trkpt lat="45.339415" lon="8.8590333"><ele>106.99999999999999</ele><time>2026-04-05T13:53:56.293Z</time></trkpt><trkpt lat="45.3394067" lon="8.85893"><ele>107.0</ele><time>2026-04-05T13:53:57.294Z</time></trkpt><trkpt lat="45.3394017" lon="8.8588183"><ele>107.0</ele><time>2026-04-05T13:53:58.293Z</time></trkpt><trkpt lat="45.3393917" lon="8.8587"><ele>107.0</ele><time>2026-04-05T13:53:59.293Z</time></trkpt><trkpt lat="45.3393833" lon="8.8585867"><ele>106.99999999999999</ele><time>2026-04-05T13:54:00.293Z</time></trkpt><trkpt lat="45.3393767" lon="8.8584783"><ele>107.0</ele><time>2026-04-05T13:54:01.294Z</time></trkpt><trkpt lat="45.3393667" lon="8.8583883"><ele>107.39999999999999</ele><time>2026-04-05T13:54:02.293Z</time></trkpt><trkpt lat="45.339355" lon="8.8583"><ele>107.79999999999998</ele><time>2026-04-05T13:54:03.294Z</time></trkpt><trkpt lat="45.3393383" lon="8.8581317"><ele>108.2</ele><time>2026-04-05T13:54:05.294Z</time></trkpt><trkpt lat="45.3393183" lon="8.85796"><ele>108.6</ele><time>2026-04-05T13:54:07.294Z</time></trkpt><trkpt lat="45.3392867" lon="8.8577967"><ele>109.0</ele><time>2026-04-05T13:54:09.294Z</time></trkpt><trkpt lat="45.339195" lon="8.8576917"><ele>109.00000000000001</ele><time>2026-04-05T13:54:11.294Z</time></trkpt><trkpt lat="45.3391367" lon="8.857655"><ele>109.0</ele><time>2026-04-05T13:54:12.293Z</time></trkpt><trkpt lat="45.3390683" lon="8.857615"><ele>109.0</ele><time>2026-04-05T13:54:13.293Z</time></trkpt><trkpt lat="45.338995" lon="8.85757"><ele>109.0</ele><time>2026-04-05T13:54:14.294Z</time></trkpt><trkpt lat="45.338915" lon="8.8575183"><ele>109.00000000000001</ele><time>2026-04-05T13:54:15.294Z</time></trkpt><trkpt lat="45.3388283" lon="8.857465"><ele>109.0</ele><time>2026-04-05T13:54:16.294Z</time></trkpt><trkpt lat="45.3387383" lon="8.8574133"><ele>109.2</ele><time>2026-04-05T13:54:17.294Z</time></trkpt><trkpt lat="45.3386483" lon="8.8573667"><ele>109.4</ele><time>2026-04-05T13:54:18.294Z</time></trkpt><trkpt lat="45.3385617" lon="8.8573217"><ele>109.6</ele><time>2026-04-05T13:54:19.293Z</time></trkpt><trkpt lat="45.3384733" lon="8.85728"><ele>109.8</ele><time>2026-04-05T13:54:20.293Z</time></trkpt><trkpt lat="45.3383867" lon="8.857245"><ele>110.0</ele><time>2026-04-05T13:54:21.294Z</time></trkpt><trkpt lat="45.3382983" lon="8.8572083"><ele>110.0</ele><time>2026-04-05T13:54:22.294Z</time></trkpt><trkpt lat="45.3382033" lon="8.8571583"><ele>110.0</ele><time>2026-04-05T13:54:23.294Z</time></trkpt><trkpt lat="45.3381083" lon="8.8571"><ele>110.0</ele><time>2026-04-05T13:54:24.294Z</time></trkpt><trkpt lat="45.3380133" lon="8.8570317"><ele>110.0</ele><time>2026-04-05T13:54:25.294Z</time></trkpt><trkpt lat="45.337925" lon="8.856965"><ele>110.0</ele><time>2026-04-05T13:54:26.293Z</time></trkpt><trkpt lat="45.337845" lon="8.8569"><ele>109.71428571428571</ele><time>2026-04-05T13:54:27.293Z</time></trkpt><trkpt lat="45.3377733" lon="8.8568383"><ele>109.42857142857143</ele><time>2026-04-05T13:54:28.293Z</time></trkpt><trkpt lat="45.3377067" lon="8.8567783"><ele>109.14285714285714</ele><time>2026-04-05T13:54:29.294Z</time></trkpt><trkpt lat="45.337645" lon="8.8567217"><ele>108.85714285714286</ele><time>2026-04-05T13:54:30.294Z</time></trkpt><trkpt lat="45.337585" lon="8.8566667"><ele>108.57142857142857</ele><time>2026-04-05T13:54:31.293Z</time></trkpt><trkpt lat="45.337525" lon="8.8566133"><ele>108.28571428571428</ele><time>2026-04-05T13:54:32.294Z</time></trkpt><trkpt lat="45.3374683" lon="8.856565"><ele>108.0</ele><time>2026-04-05T13:54:33.294Z</time></trkpt><trkpt lat="45.3373567" lon="8.8564883"><ele>107.83333333333333</ele><time>2026-04-05T13:54:35.293Z</time></trkpt><trkpt lat="45.3372917" lon="8.8564583"><ele>107.66666666666666</ele><time>2026-04-05T13:54:36.293Z</time></trkpt><trkpt lat="45.3372233" lon="8.8564267"><ele>107.5</ele><time>2026-04-05T13:54:37.293Z</time></trkpt><trkpt lat="45.33714" lon="8.8563983"><ele>107.33333333333333</ele><time>2026-04-05T13:54:38.294Z</time></trkpt><trkpt lat="45.3370533" lon="8.85635"><ele>107.16666666666666</ele><time>2026-04-05T13:54:39.293Z</time></trkpt><trkpt lat="45.3369717" lon="8.856295"><ele>107.0</ele><time>2026-04-05T13:54:40.294Z</time></trkpt><trkpt lat="45.33689" lon="8.856245"><ele>106.8</ele><time>2026-04-05T13:54:41.294Z</time></trkpt><trkpt lat="45.33681" lon="8.8561883"><ele>106.6</ele><time>2026-04-05T13:54:42.294Z</time></trkpt><trkpt lat="45.3367267" lon="8.8561283"><ele>106.39999999999999</ele><time>2026-04-05T13:54:43.294Z</time></trkpt><trkpt lat="45.3366417" lon="8.8560567"><ele>106.19999999999999</ele><time>2026-04-05T13:54:44.294Z</time></trkpt><trkpt lat="45.3365533" lon="8.8559717"><ele>106.0</ele><time>2026-04-05T13:54:45.293Z</time></trkpt><trkpt lat="45.3364633" lon="8.85588"><ele>106.19999999999999</ele><time>2026-04-05T13:54:46.293Z</time></trkpt><trkpt lat="45.3363767" lon="8.855785"><ele>106.39999999999999</ele><time>2026-04-05T13:54:47.293Z</time></trkpt><trkpt lat="45.3362933" lon="8.85569"><ele>106.6</ele><time>2026-04-05T13:54:48.294Z</time></trkpt><trkpt lat="45.3362117" lon="8.8556033"><ele>106.8</ele><time>2026-04-05T13:54:49.294Z</time></trkpt><trkpt lat="45.3361317" lon="8.85552"><ele>107.0</ele><time>2026-04-05T13:54:50.294Z</time></trkpt><trkpt lat="45.336055" lon="8.8554333"><ele>106.99999999999999</ele><time>2026-04-05T13:54:51.293Z</time></trkpt><trkpt lat="45.3359817" lon="8.855345"><ele>107.0</ele><time>2026-04-05T13:54:52.294Z</time></trkpt><trkpt lat="45.3359117" lon="8.8552683"><ele>107.0</ele><time>2026-04-05T13:54:53.294Z</time></trkpt><trkpt lat="45.335845" lon="8.8551983"><ele>107.0</ele><time>2026-04-05T13:54:54.293Z</time></trkpt><trkpt lat="45.335785" lon="8.855135"><ele>106.99999999999999</ele><time>2026-04-05T13:54:55.294Z</time></trkpt><trkpt lat="45.3357267" lon="8.85502"><ele>107.0</ele><time>2026-04-05T13:54:57.294Z</time></trkpt><trkpt lat="45.3357233" lon="8.8549167"><ele>107.19999999999999</ele><time>2026-04-05T13:54:59.293Z</time></trkpt><trkpt lat="45.3357983" lon="8.8548467"><ele>107.39999999999999</ele><time>2026-04-05T13:55:01.293Z</time></trkpt><trkpt lat="45.3359267" lon="8.85481"><ele>107.60000000000001</ele><time>2026-04-05T13:55:03.293Z</time></trkpt><trkpt lat="45.33601" lon="8.85478"><ele>107.80000000000001</ele><time>2026-04-05T13:55:04.293Z</time></trkpt><trkpt lat="45.3360883" lon="8.8547483"><ele>108.0</ele><time>2026-04-05T13:55:05.293Z</time></trkpt><trkpt lat="45.3361733" lon="8.85472"><ele>108.0</ele><time>2026-04-05T13:55:06.293Z</time></trkpt><trkpt lat="45.33626" lon="8.854685"><ele>108.0</ele><time>2026-04-05T13:55:07.294Z</time></trkpt><trkpt lat="45.336345" lon="8.8546467"><ele>108.0</ele><time>2026-04-05T13:55:08.294Z</time></trkpt><trkpt lat="45.3364217" lon="8.8546133"><ele>108.0</ele><time>2026-04-05T13:55:09.293Z</time></trkpt><trkpt lat="45.3364967" lon="8.8545783"><ele>108.0</ele><time>2026-04-05T13:55:10.294Z</time></trkpt><trkpt lat="45.3365683" lon="8.85454"><ele>108.0</ele><time>2026-04-05T13:55:11.294Z</time></trkpt><trkpt lat="45.33664" lon="8.8545"><ele>107.80000000000001</ele><time>2026-04-05T13:55:12.293Z</time></trkpt><trkpt lat="45.3367183" lon="8.8544583"><ele>107.60000000000001</ele><time>2026-04-05T13:55:13.294Z</time></trkpt><trkpt lat="45.3368033" lon="8.8544133"><ele>107.39999999999999</ele><time>2026-04-05T13:55:14.294Z</time></trkpt><trkpt lat="45.3368933" lon="8.8543667"><ele>107.19999999999999</ele><time>2026-04-05T13:55:15.294Z</time></trkpt><trkpt lat="45.3369933" lon="8.8543133"><ele>107.0</ele><time>2026-04-05T13:55:16.294Z</time></trkpt><trkpt lat="45.3371017" lon="8.854255"><ele>107.0</ele><time>2026-04-05T13:55:17.293Z</time></trkpt><trkpt lat="45.337215" lon="8.8541933"><ele>107.0</ele><time>2026-04-05T13:55:18.294Z</time></trkpt><trkpt lat="45.3373333" lon="8.85413"><ele>107.0</ele><time>2026-04-05T13:55:19.293Z</time></trkpt><trkpt lat="45.3374483" lon="8.8540717"><ele>107.0</ele><time>2026-04-05T13:55:20.293Z</time></trkpt><trkpt lat="45.3375583" lon="8.8540133"><ele>106.8</ele><time>2026-04-05T13:55:21.294Z</time></trkpt><trkpt lat="45.3376633" lon="8.8539633"><ele>106.6</ele><time>2026-04-05T13:55:22.294Z</time></trkpt><trkpt lat="45.337765" lon="8.8539167"><ele>106.39999999999999</ele><time>2026-04-05T13:55:23.294Z</time></trkpt><trkpt lat="45.3378717" lon="8.8538783"><ele>106.19999999999999</ele><time>2026-04-05T13:55:24.294Z</time></trkpt><trkpt lat="45.3379817" lon="8.8538533"><ele>106.0</ele><time>2026-04-05T13:55:25.293Z</time></trkpt><trkpt lat="45.3380983" lon="8.8538317"><ele>107.0</ele><time>2026-04-05T13:55:26.294Z</time></trkpt><trkpt lat="45.3382183" lon="8.8538217"><ele>108.0</ele><time>2026-04-05T13:55:27.294Z</time></trkpt><trkpt lat="45.3383367" lon="8.8538233"><ele>109.0</ele><time>2026-04-05T13:55:28.293Z</time></trkpt><trkpt lat="45.3384583" lon="8.8538367"><ele>110.0</ele><time>2026-04-05T13:55:29.294Z</time></trkpt><trkpt lat="45.33858" lon="8.85385"><ele>110.0</ele><time>2026-04-05T13:55:30.294Z</time></trkpt><trkpt lat="45.3386983" lon="8.8538633"><ele>110.0</ele><time>2026-04-05T13:55:31.294Z</time></trkpt><trkpt lat="45.3388083" lon="8.85388"><ele>110.0</ele><time>2026-04-05T13:55:32.294Z</time></trkpt><trkpt lat="45.338915" lon="8.8538917"><ele>110.0</ele><time>2026-04-05T13:55:33.293Z</time></trkpt><trkpt lat="45.3390133" lon="8.8539033"><ele>110.0</ele><time>2026-04-05T13:55:34.294Z</time></trkpt><trkpt lat="45.3391067" lon="8.8539133"><ele>109.8</ele><time>2026-04-05T13:55:35.293Z</time></trkpt><trkpt lat="45.3392033" lon="8.8539233"><ele>109.6</ele><time>2026-04-05T13:55:36.293Z</time></trkpt><trkpt lat="45.3392983" lon="8.8539317"><ele>109.4</ele><time>2026-04-05T13:55:37.293Z</time></trkpt><trkpt lat="45.3393967" lon="8.8539417"><ele>109.2</ele><time>2026-04-05T13:55:38.293Z</time></trkpt><trkpt lat="45.3394933" lon="8.8539533"><ele>109.0</ele><time>2026-04-05T13:55:39.293Z</time></trkpt><trkpt lat="45.3395933" lon="8.8539667"><ele>109.0</ele><time>2026-04-05T13:55:40.293Z</time></trkpt><trkpt lat="45.339695" lon="8.8539833"><ele>109.0</ele><time>2026-04-05T13:55:41.293Z</time></trkpt><trkpt lat="45.3397983" lon="8.854005"><ele>109.0</ele><time>2026-04-05T13:55:42.294Z</time></trkpt><trkpt lat="45.339905" lon="8.854025"><ele>109.0</ele><time>2026-04-05T13:55:43.294Z</time></trkpt><trkpt lat="45.3400083" lon="8.8540433"><ele>109.0</ele><time>2026-04-05T13:55:44.294Z</time></trkpt><trkpt lat="45.3401117" lon="8.8540533"><ele>109.0</ele><time>2026-04-05T13:55:45.293Z</time></trkpt><trkpt lat="45.34022" lon="8.854055"><ele>109.0</ele><time>2026-04-05T13:55:46.293Z</time></trkpt><trkpt lat="45.34033" lon="8.854035"><ele>109.0</ele><time>2026-04-05T13:55:47.294Z</time></trkpt><trkpt lat="45.340445" lon="8.8539983"><ele>109.0</ele><time>2026-04-05T13:55:48.294Z</time></trkpt><trkpt lat="45.3405617" lon="8.85395"><ele>109.0</ele><time>2026-04-05T13:55:49.294Z</time></trkpt><trkpt lat="45.3406783" lon="8.8539"><ele>109.0</ele><time>2026-04-05T13:55:50.294Z</time></trkpt><trkpt lat="45.3408" lon="8.853845"><ele>109.0</ele><time>2026-04-05T13:55:51.293Z</time></trkpt><trkpt lat="45.3409217" lon="8.8537867"><ele>109.0</ele><time>2026-04-05T13:55:52.293Z</time></trkpt><trkpt lat="45.3410417" lon="8.8537183"><ele>109.0</ele><time>2026-04-05T13:55:53.293Z</time></trkpt><trkpt lat="45.34116" lon="8.8536533"><ele>109.0</ele><time>2026-04-05T13:55:54.293Z</time></trkpt><trkpt lat="45.3412717" lon="8.8535867"><ele>109.0</ele><time>2026-04-05T13:55:55.293Z</time></trkpt><trkpt lat="45.3413783" lon="8.8535233"><ele>109.0</ele><time>2026-04-05T13:55:56.294Z</time></trkpt><trkpt lat="45.341485" lon="8.853465"><ele>109.25</ele><time>2026-04-05T13:55:57.294Z</time></trkpt><trkpt lat="45.3415917" lon="8.8534067"><ele>109.5</ele><time>2026-04-05T13:55:58.294Z</time></trkpt><trkpt lat="45.3417017" lon="8.85334"><ele>109.75</ele><time>2026-04-05T13:55:59.293Z</time></trkpt><trkpt lat="45.3418117" lon="8.8532767"><ele>110.0</ele><time>2026-04-05T13:56:00.294Z</time></trkpt><trkpt lat="45.3419233" lon="8.853215"><ele>110.0</ele><time>2026-04-05T13:56:01.294Z</time></trkpt><trkpt lat="45.3420333" lon="8.8531533"><ele>110.0</ele><time>2026-04-05T13:56:02.294Z</time></trkpt><trkpt lat="45.3421367" lon="8.8531"><ele>110.0</ele><time>2026-04-05T13:56:03.293Z</time></trkpt><trkpt lat="45.3422367" lon="8.8530467"><ele>110.0</ele><time>2026-04-05T13:56:04.293Z</time></trkpt><trkpt lat="45.342335" lon="8.852995"><ele>110.0</ele><time>2026-04-05T13:56:05.294Z</time></trkpt><trkpt lat="45.34243" lon="8.852945"><ele>109.6</ele><time>2026-04-05T13:56:06.294Z</time></trkpt><trkpt lat="45.3425267" lon="8.8528983"><ele>109.2</ele><time>2026-04-05T13:56:07.293Z</time></trkpt><trkpt lat="45.342625" lon="8.8528517"><ele>108.80000000000001</ele><time>2026-04-05T13:56:08.293Z</time></trkpt><trkpt lat="45.342725" lon="8.8528083"><ele>108.4</ele><time>2026-04-05T13:56:09.294Z</time></trkpt><trkpt lat="45.3428283" lon="8.85277"><ele>108.0</ele><time>2026-04-05T13:56:10.294Z</time></trkpt><trkpt lat="45.34293" lon="8.8527367"><ele>108.0</ele><time>2026-04-05T13:56:11.294Z</time></trkpt><trkpt lat="45.3430267" lon="8.8527067"><ele>108.00000000000001</ele><time>2026-04-05T13:56:12.294Z</time></trkpt><trkpt lat="45.3431183" lon="8.8526633"><ele>108.00000000000001</ele><time>2026-04-05T13:56:13.294Z</time></trkpt><trkpt lat="45.3432033" lon="8.85261"><ele>108.0</ele><time>2026-04-05T13:56:14.293Z</time></trkpt><trkpt lat="45.3432833" lon="8.8525483"><ele>108.0</ele><time>2026-04-05T13:56:15.294Z</time></trkpt><trkpt lat="45.343355" lon="8.852475"><ele>108.0</ele><time>2026-04-05T13:56:16.293Z</time></trkpt><trkpt lat="45.3434283" lon="8.8524167"><ele>108.00000000000001</ele><time>2026-04-05T13:56:17.294Z</time></trkpt><trkpt lat="45.3435033" lon="8.85234"><ele>108.00000000000001</ele><time>2026-04-05T13:56:18.293Z</time></trkpt><trkpt lat="45.3435767" lon="8.8522567"><ele>108.0</ele><time>2026-04-05T13:56:19.293Z</time></trkpt><trkpt lat="45.3436567" lon="8.85217"><ele>108.0</ele><time>2026-04-05T13:56:20.293Z</time></trkpt><trkpt lat="45.3437433" lon="8.8520733"><ele>108.0</ele><time>2026-04-05T13:56:21.293Z</time></trkpt><trkpt lat="45.3438333" lon="8.8519683"><ele>108.0</ele><time>2026-04-05T13:56:22.293Z</time></trkpt><trkpt lat="45.3439267" lon="8.85187"><ele>108.0</ele><time>2026-04-05T13:56:23.294Z</time></trkpt><trkpt lat="45.34402" lon="8.8517733"><ele>108.0</ele><time>2026-04-05T13:56:24.294Z</time></trkpt><trkpt lat="45.3441117" lon="8.8516867"><ele>107.80000000000001</ele><time>2026-04-05T13:56:25.294Z</time></trkpt><trkpt lat="45.3442" lon="8.8516233"><ele>107.60000000000001</ele><time>2026-04-05T13:56:26.293Z</time></trkpt><trkpt lat="45.34429" lon="8.85157"><ele>107.39999999999999</ele><time>2026-04-05T13:56:27.293Z</time></trkpt><trkpt lat="45.3443833" lon="8.851515"><ele>107.19999999999999</ele><time>2026-04-05T13:56:28.294Z</time></trkpt><trkpt lat="45.3444767" lon="8.851455"><ele>107.0</ele><time>2026-04-05T13:56:29.294Z</time></trkpt><trkpt lat="45.344575" lon="8.8513967"><ele>107.0</ele><time>2026-04-05T13:56:30.294Z</time></trkpt><trkpt lat="45.344675" lon="8.851335"><ele>107.0</ele><time>2026-04-05T13:56:31.293Z</time></trkpt><trkpt lat="45.3447817" lon="8.851275"><ele>107.0</ele><time>2026-04-05T13:56:32.293Z</time></trkpt><trkpt lat="45.34489" lon="8.8512133"><ele>107.0</ele><time>2026-04-05T13:56:33.294Z</time></trkpt><trkpt lat="45.3449933" lon="8.8511533"><ele>107.25</ele><time>2026-04-05T13:56:34.294Z</time></trkpt><trkpt lat="45.3450933" lon="8.8510967"><ele>107.5</ele><time>2026-04-05T13:56:35.294Z</time></trkpt><trkpt lat="45.345195" lon="8.8510383"><ele>107.75</ele><time>2026-04-05T13:56:36.294Z</time></trkpt><trkpt lat="45.3453017" lon="8.850975"><ele>108.0</ele><time>2026-04-05T13:56:37.294Z</time></trkpt><trkpt lat="45.3454133" lon="8.85091"><ele>108.0</ele><time>2026-04-05T13:56:38.293Z</time></trkpt><trkpt lat="45.3455267" lon="8.8508433"><ele>108.0</ele><time>2026-04-05T13:56:39.294Z</time></trkpt><trkpt lat="45.34564" lon="8.8507767"><ele>108.0</ele><time>2026-04-05T13:56:40.293Z</time></trkpt><trkpt lat="45.345755" lon="8.85071"><ele>108.0</ele><time>2026-04-05T13:56:41.293Z</time></trkpt><trkpt lat="45.3458683" lon="8.8506417"><ele>108.25</ele><time>2026-04-05T13:56:42.294Z</time></trkpt><trkpt lat="45.3459783" lon="8.8505767"><ele>108.5</ele><time>2026-04-05T13:56:43.292Z</time></trkpt><trkpt lat="45.346085" lon="8.85051"><ele>108.75</ele><time>2026-04-05T13:56:44.292Z</time></trkpt><trkpt lat="45.3461883" lon="8.8504467"><ele>109.0</ele><time>2026-04-05T13:56:45.292Z</time></trkpt><trkpt lat="45.34629" lon="8.8503867"><ele>109.0</ele><time>2026-04-05T13:56:46.293Z</time></trkpt><trkpt lat="45.34639" lon="8.8503283"><ele>109.0</ele><time>2026-04-05T13:56:47.292Z</time></trkpt><trkpt lat="45.3464883" lon="8.85027"><ele>109.0</ele><time>2026-04-05T13:56:48.293Z</time></trkpt><trkpt lat="45.3465833" lon="8.85021"><ele>109.0</ele><time>2026-04-05T13:56:49.293Z</time></trkpt><trkpt lat="45.34668" lon="8.8501517"><ele>109.0</ele><time>2026-04-05T13:56:50.293Z</time></trkpt><trkpt lat="45.3467783" lon="8.850095"><ele>109.0</ele><time>2026-04-05T13:56:51.292Z</time></trkpt><trkpt lat="45.3468783" lon="8.8500383"><ele>109.0</ele><time>2026-04-05T13:56:52.293Z</time></trkpt><trkpt lat="45.34698" lon="8.8499767"><ele>109.0</ele><time>2026-04-05T13:56:53.292Z</time></trkpt><trkpt lat="45.3470817" lon="8.849915"><ele>109.0</ele><time>2026-04-05T13:56:54.293Z</time></trkpt><trkpt lat="45.3471767" lon="8.8498583"><ele>109.0</ele><time>2026-04-05T13:56:55.293Z</time></trkpt><trkpt lat="45.3472683" lon="8.8498033"><ele>108.6</ele><time>2026-04-05T13:56:56.292Z</time></trkpt><trkpt lat="45.3473567" lon="8.84975"><ele>108.2</ele><time>2026-04-05T13:56:57.292Z</time></trkpt><trkpt lat="45.3474467" lon="8.8496917"><ele>107.79999999999998</ele><time>2026-04-05T13:56:58.293Z</time></trkpt><trkpt lat="45.347545" lon="8.8496267"><ele>107.39999999999999</ele><time>2026-04-05T13:56:59.293Z</time></trkpt><trkpt lat="45.34765" lon="8.8495617"><ele>107.0</ele><time>2026-04-05T13:57:00.293Z</time></trkpt><trkpt lat="45.34776" lon="8.8495017"><ele>107.0</ele><time>2026-04-05T13:57:01.293Z</time></trkpt><trkpt lat="45.347865" lon="8.849445"><ele>106.99999999999999</ele><time>2026-04-05T13:57:02.292Z</time></trkpt><trkpt lat="45.347965" lon="8.8493983"><ele>106.99999999999999</ele><time>2026-04-05T13:57:03.293Z</time></trkpt><trkpt lat="45.3480583" lon="8.8493517"><ele>107.0</ele><time>2026-04-05T13:57:04.293Z</time></trkpt><trkpt lat="45.3481483" lon="8.8492983"><ele>107.0</ele><time>2026-04-05T13:57:05.293Z</time></trkpt><trkpt lat="45.348235" lon="8.849245"><ele>107.8</ele><time>2026-04-05T13:57:06.292Z</time></trkpt><trkpt lat="45.34832" lon="8.8492"><ele>108.6</ele><time>2026-04-05T13:57:07.293Z</time></trkpt><trkpt lat="45.3484" lon="8.849145"><ele>109.39999999999999</ele><time>2026-04-05T13:57:08.293Z</time></trkpt><trkpt lat="45.348485" lon="8.8491017"><ele>110.19999999999999</ele><time>2026-04-05T13:57:09.293Z</time></trkpt><trkpt lat="45.34857" lon="8.8490517"><ele>111.0</ele><time>2026-04-05T13:57:10.293Z</time></trkpt><trkpt lat="45.3486533" lon="8.84901"><ele>111.0</ele><time>2026-04-05T13:57:11.292Z</time></trkpt><trkpt lat="45.3487383" lon="8.84896"><ele>111.0</ele><time>2026-04-05T13:57:12.292Z</time></trkpt><trkpt lat="45.3488283" lon="8.8489083"><ele>111.0</ele><time>2026-04-05T13:57:13.292Z</time></trkpt><trkpt lat="45.3489133" lon="8.8488533"><ele>111.0</ele><time>2026-04-05T13:57:14.292Z</time></trkpt><trkpt lat="45.3489967" lon="8.8488067"><ele>111.0</ele><time>2026-04-05T13:57:15.293Z</time></trkpt><trkpt lat="45.34908" lon="8.848765"><ele>110.83333333333333</ele><time>2026-04-05T13:57:16.293Z</time></trkpt><trkpt lat="45.349165" lon="8.8487233"><ele>110.66666666666666</ele><time>2026-04-05T13:57:17.293Z</time></trkpt><trkpt lat="45.3492483" lon="8.8486833"><ele>110.5</ele><time>2026-04-05T13:57:18.293Z</time></trkpt><trkpt lat="45.349335" lon="8.8486267"><ele>110.33333333333333</ele><time>2026-04-05T13:57:19.293Z</time></trkpt><trkpt lat="45.3494167" lon="8.84858"><ele>110.16666666666666</ele><time>2026-04-05T13:57:20.293Z</time></trkpt><trkpt lat="45.349495" lon="8.8485267"><ele>110.0</ele><time>2026-04-05T13:57:21.292Z</time></trkpt><trkpt lat="45.3495767" lon="8.8484833"><ele>109.99999999999999</ele><time>2026-04-05T13:57:22.292Z</time></trkpt><trkpt lat="45.3496517" lon="8.8484467"><ele>110.0</ele><time>2026-04-05T13:57:23.293Z</time></trkpt><trkpt lat="45.34973" lon="8.84839"><ele>110.0</ele><time>2026-04-05T13:57:24.292Z</time></trkpt><trkpt lat="45.3498117" lon="8.8483433"><ele>110.0</ele><time>2026-04-05T13:57:25.293Z</time></trkpt><trkpt lat="45.3498933" lon="8.8482967"><ele>109.99999999999999</ele><time>2026-04-05T13:57:26.292Z</time></trkpt><trkpt lat="45.3499683" lon="8.8482483"><ele>110.0</ele><time>2026-04-05T13:57:27.292Z</time></trkpt><trkpt lat="45.3500333" lon="8.848205"><ele>109.83333333333333</ele><time>2026-04-05T13:57:28.292Z</time></trkpt><trkpt lat="45.350085" lon="8.8481467"><ele>109.66666666666666</ele><time>2026-04-05T13:57:29.292Z</time></trkpt><trkpt lat="45.3501333" lon="8.848065"><ele>109.5</ele><time>2026-04-05T13:57:30.292Z</time></trkpt><trkpt lat="45.3501733" lon="8.8479633"><ele>109.33333333333334</ele><time>2026-04-05T13:57:31.292Z</time></trkpt><trkpt lat="45.35021" lon="8.8478483"><ele>109.16666666666667</ele><time>2026-04-05T13:57:32.292Z</time></trkpt><trkpt lat="45.350245" lon="8.847735"><ele>109.0</ele><time>2026-04-05T13:57:33.292Z</time></trkpt><trkpt lat="45.3502767" lon="8.847635"><ele>108.80000000000001</ele><time>2026-04-05T13:57:34.293Z</time></trkpt><trkpt lat="45.35031" lon="8.8475383"><ele>108.60000000000001</ele><time>2026-04-05T13:57:35.292Z</time></trkpt><trkpt lat="45.350355" lon="8.8473817"><ele>108.4</ele><time>2026-04-05T13:57:37.293Z</time></trkpt><trkpt lat="45.3503417" lon="8.847195"><ele>108.2</ele><time>2026-04-05T13:57:39.292Z</time></trkpt><trkpt lat="45.3503183" lon="8.8470817"><ele>108.0</ele><time>2026-04-05T13:57:40.292Z</time></trkpt><trkpt lat="45.3502867" lon="8.8469667"><ele>108.0</ele><time>2026-04-05T13:57:41.293Z</time></trkpt><trkpt lat="45.3502517" lon="8.84684"><ele>108.00000000000001</ele><time>2026-04-05T13:57:42.293Z</time></trkpt><trkpt lat="45.3502167" lon="8.8467033"><ele>108.00000000000001</ele><time>2026-04-05T13:57:43.293Z</time></trkpt><trkpt lat="45.3501767" lon="8.8465667"><ele>108.0</ele><time>2026-04-05T13:57:44.293Z</time></trkpt><trkpt lat="45.3501333" lon="8.84642"><ele>108.0</ele><time>2026-04-05T13:57:45.293Z</time></trkpt><trkpt lat="45.350085" lon="8.846265"><ele>108.0</ele><time>2026-04-05T13:57:46.293Z</time></trkpt><trkpt lat="45.3500433" lon="8.8461183"><ele>108.00000000000001</ele><time>2026-04-05T13:57:47.293Z</time></trkpt><trkpt lat="45.3500017" lon="8.845975"><ele>108.00000000000001</ele><time>2026-04-05T13:57:48.292Z</time></trkpt><trkpt lat="45.3499617" lon="8.8458467"><ele>108.0</ele><time>2026-04-05T13:57:49.292Z</time></trkpt><trkpt lat="45.3499217" lon="8.84572"><ele>108.0</ele><time>2026-04-05T13:57:50.293Z</time></trkpt><trkpt lat="45.3498883" lon="8.8455967"><ele>108.0</ele><time>2026-04-05T13:57:51.293Z</time></trkpt><trkpt lat="45.349855" lon="8.84548"><ele>108.0</ele><time>2026-04-05T13:57:52.292Z</time></trkpt><trkpt lat="45.3498217" lon="8.845375"><ele>108.0</ele><time>2026-04-05T13:57:53.292Z</time></trkpt><trkpt lat="45.3497917" lon="8.8452783"><ele>108.0</ele><time>2026-04-05T13:57:54.293Z</time></trkpt><trkpt lat="45.3497667" lon="8.8451933"><ele>108.0</ele><time>2026-04-05T13:57:55.293Z</time></trkpt><trkpt lat="45.3497183" lon="8.8450367"><ele>108.0</ele><time>2026-04-05T13:57:57.293Z</time></trkpt><trkpt lat="45.3496717" lon="8.8449067"><ele>108.2</ele><time>2026-04-05T13:57:59.293Z</time></trkpt><trkpt lat="45.3496367" lon="8.8448083"><ele>108.4</ele><time>2026-04-05T13:58:02.293Z</time></trkpt><trkpt lat="45.349665" lon="8.8446717"><ele>108.60000000000001</ele><time>2026-04-05T13:58:46.293Z</time></trkpt><trkpt lat="45.3497867" lon="8.8445667"><ele>108.80000000000001</ele><time>2026-04-05T13:58:48.292Z</time></trkpt><trkpt lat="45.349865" lon="8.8445017"><ele>109.0</ele><time>2026-04-05T13:58:49.293Z</time></trkpt><trkpt lat="45.3499483" lon="8.8444283"><ele>109.0</ele><time>2026-04-05T13:58:50.293Z</time></trkpt><trkpt lat="45.3500417" lon="8.844355"><ele>109.0</ele><time>2026-04-05T13:58:51.293Z</time></trkpt><trkpt lat="45.35014" lon="8.8442783"><ele>109.0</ele><time>2026-04-05T13:58:52.293Z</time></trkpt><trkpt lat="45.3502433" lon="8.8441983"><ele>109.0</ele><time>2026-04-05T13:58:53.292Z</time></trkpt><trkpt lat="45.3503467" lon="8.8441167"><ele>109.0</ele><time>2026-04-05T13:58:54.292Z</time></trkpt><trkpt lat="45.3504517" lon="8.8440317"><ele>109.0</ele><time>2026-04-05T13:58:55.293Z</time></trkpt><trkpt lat="45.3505583" lon="8.8439433"><ele>109.0</ele><time>2026-04-05T13:58:56.293Z</time></trkpt><trkpt lat="45.3506717" lon="8.84385"><ele>109.0</ele><time>2026-04-05T13:58:57.293Z</time></trkpt><trkpt lat="45.3507817" lon="8.8437533"><ele>108.75</ele><time>2026-04-05T13:58:58.293Z</time></trkpt><trkpt lat="45.35089" lon="8.8436617"><ele>108.5</ele><time>2026-04-05T13:58:59.293Z</time></trkpt><trkpt lat="45.35099" lon="8.8435717"><ele>108.25</ele><time>2026-04-05T13:59:00.292Z</time></trkpt><trkpt lat="45.351085" lon="8.8434883"><ele>108.0</ele><time>2026-04-05T13:59:01.293Z</time></trkpt><trkpt lat="45.3511767" lon="8.84341"><ele>108.0</ele><time>2026-04-05T13:59:02.293Z</time></trkpt><trkpt lat="45.3512667" lon="8.8433367"><ele>108.00000000000001</ele><time>2026-04-05T13:59:03.293Z</time></trkpt><trkpt lat="45.351355" lon="8.8432617"><ele>108.00000000000001</ele><time>2026-04-05T13:59:04.293Z</time></trkpt><trkpt lat="45.351445" lon="8.8431867"><ele>108.0</ele><time>2026-04-05T13:59:05.292Z</time></trkpt><trkpt lat="45.3515383" lon="8.8431117"><ele>108.0</ele><time>2026-04-05T13:59:06.293Z</time></trkpt><trkpt lat="45.3516317" lon="8.8430333"><ele>108.0</ele><time>2026-04-05T13:59:07.293Z</time></trkpt><trkpt lat="45.3517283" lon="8.8429533"><ele>108.00000000000001</ele><time>2026-04-05T13:59:08.293Z</time></trkpt><trkpt lat="45.3518233" lon="8.8428733"><ele>108.00000000000001</ele><time>2026-04-05T13:59:09.293Z</time></trkpt><trkpt lat="45.351915" lon="8.8428"><ele>108.0</ele><time>2026-04-05T13:59:10.292Z</time></trkpt><trkpt lat="45.3520017" lon="8.84273"><ele>108.0</ele><time>2026-04-05T13:59:11.292Z</time></trkpt><trkpt lat="45.3520883" lon="8.8426617"><ele>108.2</ele><time>2026-04-05T13:59:12.292Z</time></trkpt><trkpt lat="45.3521733" lon="8.8425917"><ele>108.4</ele><time>2026-04-05T13:59:13.292Z</time></trkpt><trkpt lat="45.3522567" lon="8.8425217"><ele>108.60000000000001</ele><time>2026-04-05T13:59:14.293Z</time></trkpt><trkpt lat="45.3523367" lon="8.8424583"><ele>108.80000000000001</ele><time>2026-04-05T13:59:15.293Z</time></trkpt><trkpt lat="45.352415" lon="8.842395"><ele>109.0</ele><time>2026-04-05T13:59:16.293Z</time></trkpt><trkpt lat="45.3524917" lon="8.8423317"><ele>109.0</ele><time>2026-04-05T13:59:17.292Z</time></trkpt><trkpt lat="45.3525717" lon="8.8422667"><ele>109.0</ele><time>2026-04-05T13:59:18.293Z</time></trkpt><trkpt lat="45.3526517" lon="8.8422"><ele>109.0</ele><time>2026-04-05T13:59:19.292Z</time></trkpt><trkpt lat="45.3527317" lon="8.8421317"><ele>109.0</ele><time>2026-04-05T13:59:20.293Z</time></trkpt><trkpt lat="45.352815" lon="8.8420617"><ele>109.0</ele><time>2026-04-05T13:59:21.293Z</time></trkpt><trkpt lat="45.3529" lon="8.8419917"><ele>109.0</ele><time>2026-04-05T13:59:22.293Z</time></trkpt><trkpt lat="45.3529883" lon="8.8419217"><ele>109.0</ele><time>2026-04-05T13:59:23.292Z</time></trkpt><trkpt lat="45.3530783" lon="8.8418483"><ele>109.0</ele><time>2026-04-05T13:59:24.293Z</time></trkpt><trkpt lat="45.3531683" lon="8.8417717"><ele>109.0</ele><time>2026-04-05T13:59:25.292Z</time></trkpt><trkpt lat="45.3532583" lon="8.8416917"><ele>109.0</ele><time>2026-04-05T13:59:26.293Z</time></trkpt><trkpt lat="45.3533483" lon="8.8416133"><ele>108.80000000000001</ele><time>2026-04-05T13:59:27.293Z</time></trkpt><trkpt lat="45.35344" lon="8.8415367"><ele>108.60000000000001</ele><time>2026-04-05T13:59:28.292Z</time></trkpt><trkpt lat="45.353525" lon="8.8414683"><ele>108.4</ele><time>2026-04-05T13:59:29.293Z</time></trkpt><trkpt lat="45.3536033" lon="8.8414083"><ele>108.2</ele><time>2026-04-05T13:59:30.292Z</time></trkpt><trkpt lat="45.353675" lon="8.84135"><ele>108.0</ele><time>2026-04-05T13:59:31.293Z</time></trkpt><trkpt lat="45.353745" lon="8.8412933"><ele>108.0</ele><time>2026-04-05T13:59:32.292Z</time></trkpt><trkpt lat="45.3538133" lon="8.8412383"><ele>108.0</ele><time>2026-04-05T13:59:33.293Z</time></trkpt><trkpt lat="45.35388" lon="8.841185"><ele>108.0</ele><time>2026-04-05T13:59:34.293Z</time></trkpt><trkpt lat="45.3539517" lon="8.8411317"><ele>108.0</ele><time>2026-04-05T13:59:35.292Z</time></trkpt><trkpt lat="45.3540267" lon="8.8410867"><ele>108.0</ele><time>2026-04-05T13:59:36.292Z</time></trkpt><trkpt lat="45.3541067" lon="8.8410383"><ele>108.0</ele><time>2026-04-05T13:59:37.293Z</time></trkpt><trkpt lat="45.3541917" lon="8.8409917"><ele>108.2</ele><time>2026-04-05T13:59:38.292Z</time></trkpt><trkpt lat="45.3542833" lon="8.8409383"><ele>108.4</ele><time>2026-04-05T13:59:39.292Z</time></trkpt><trkpt lat="45.3543817" lon="8.8408833"><ele>108.60000000000001</ele><time>2026-04-05T13:59:40.293Z</time></trkpt><trkpt lat="45.3544817" lon="8.8408267"><ele>108.80000000000001</ele><time>2026-04-05T13:59:41.292Z</time></trkpt><trkpt lat="45.3545783" lon="8.84077"><ele>109.0</ele><time>2026-04-05T13:59:42.293Z</time></trkpt><trkpt lat="45.3546717" lon="8.84071"><ele>108.83333333333334</ele><time>2026-04-05T13:59:43.292Z</time></trkpt><trkpt lat="45.3547583" lon="8.840655"><ele>108.66666666666667</ele><time>2026-04-05T13:59:44.293Z</time></trkpt><trkpt lat="45.3548383" lon="8.8406067"><ele>108.5</ele><time>2026-04-05T13:59:45.292Z</time></trkpt><trkpt lat="45.35491" lon="8.840555"><ele>108.33333333333334</ele><time>2026-04-05T13:59:46.293Z</time></trkpt><trkpt lat="45.35498" lon="8.840505"><ele>108.16666666666667</ele><time>2026-04-05T13:59:47.293Z</time></trkpt><trkpt lat="45.35505" lon="8.8404483"><ele>108.0</ele><time>2026-04-05T13:59:48.293Z</time></trkpt><trkpt lat="45.3551167" lon="8.840385"><ele>108.0</ele><time>2026-04-05T13:59:49.293Z</time></trkpt><trkpt lat="45.3551817" lon="8.8403183"><ele>108.0</ele><time>2026-04-05T13:59:50.293Z</time></trkpt><trkpt lat="45.35525" lon="8.8402467"><ele>108.0</ele><time>2026-04-05T13:59:51.292Z</time></trkpt><trkpt lat="45.35532" lon="8.8401767"><ele>108.0</ele><time>2026-04-05T13:59:52.293Z</time></trkpt><trkpt lat="45.3553917" lon="8.8401117"><ele>108.0</ele><time>2026-04-05T13:59:53.293Z</time></trkpt><trkpt lat="45.3554667" lon="8.8400517"><ele>108.0</ele><time>2026-04-05T13:59:54.293Z</time></trkpt><trkpt lat="45.355545" lon="8.840005"><ele>107.60000000000001</ele><time>2026-04-05T13:59:55.292Z</time></trkpt><trkpt lat="45.3556233" lon="8.8399583"><ele>107.20000000000002</ele><time>2026-04-05T13:59:56.293Z</time></trkpt><trkpt lat="45.35579" lon="8.8398583"><ele>106.8</ele><time>2026-04-05T13:59:58.293Z</time></trkpt><trkpt lat="45.3558733" lon="8.8398"><ele>106.4</ele><time>2026-04-05T13:59:59.293Z</time></trkpt><trkpt lat="45.3559533" lon="8.8397533"><ele>106.0</ele><time>2026-04-05T14:00:00.293Z</time></trkpt><trkpt lat="45.356035" lon="8.839705"><ele>106.00000000000001</ele><time>2026-04-05T14:00:01.293Z</time></trkpt><trkpt lat="45.35612" lon="8.83966"><ele>106.0</ele><time>2026-04-05T14:00:02.292Z</time></trkpt><trkpt lat="45.356205" lon="8.8396133"><ele>106.0</ele><time>2026-04-05T14:00:03.292Z</time></trkpt><trkpt lat="45.3562883" lon="8.83957"><ele>106.0</ele><time>2026-04-05T14:00:04.293Z</time></trkpt><trkpt lat="45.35636" lon="8.8395267"><ele>106.00000000000001</ele><time>2026-04-05T14:00:05.293Z</time></trkpt><trkpt lat="45.3564283" lon="8.8394767"><ele>106.0</ele><time>2026-04-05T14:00:06.293Z</time></trkpt><trkpt lat="45.35649" lon="8.8394283"><ele>106.16666666666667</ele><time>2026-04-05T14:00:07.293Z</time></trkpt><trkpt lat="45.356545" lon="8.8393783"><ele>106.33333333333334</ele><time>2026-04-05T14:00:08.293Z</time></trkpt><trkpt lat="45.3566183" lon="8.8392533"><ele>106.5</ele><time>2026-04-05T14:00:10.293Z</time></trkpt><trkpt lat="45.3566467" lon="8.8390817"><ele>106.66666666666666</ele><time>2026-04-05T14:00:12.292Z</time></trkpt><trkpt lat="45.356645" lon="8.83898"><ele>106.83333333333333</ele><time>2026-04-05T14:00:13.293Z</time></trkpt><trkpt lat="45.3566317" lon="8.83888"><ele>107.0</ele><time>2026-04-05T14:00:14.293Z</time></trkpt><trkpt lat="45.356615" lon="8.83879"><ele>107.00000000000001</ele><time>2026-04-05T14:00:15.292Z</time></trkpt><trkpt lat="45.3565983" lon="8.8387017"><ele>107.0</ele><time>2026-04-05T14:00:16.293Z</time></trkpt><trkpt lat="45.3565817" lon="8.838615"><ele>107.0</ele><time>2026-04-05T14:00:17.293Z</time></trkpt><trkpt lat="45.356565" lon="8.8385283"><ele>107.0</ele><time>2026-04-05T14:00:18.292Z</time></trkpt><trkpt lat="45.3565467" lon="8.8384383"><ele>107.0</ele><time>2026-04-05T14:00:19.292Z</time></trkpt><trkpt lat="45.3565233" lon="8.83834"><ele>107.00000000000001</ele><time>2026-04-05T14:00:20.293Z</time></trkpt><trkpt lat="45.3564983" lon="8.8382333"><ele>107.0</ele><time>2026-04-05T14:00:21.293Z</time></trkpt><trkpt lat="45.3564783" lon="8.8381217"><ele>107.39999999999999</ele><time>2026-04-05T14:00:22.293Z</time></trkpt><trkpt lat="45.35647" lon="8.8380183"><ele>107.79999999999998</ele><time>2026-04-05T14:00:23.293Z</time></trkpt><trkpt lat="45.3564767" lon="8.8379217"><ele>108.2</ele><time>2026-04-05T14:00:24.293Z</time></trkpt><trkpt lat="45.356535" lon="8.837785"><ele>108.6</ele><time>2026-04-05T14:00:26.292Z</time></trkpt><trkpt lat="45.3566283" lon="8.8377267"><ele>109.0</ele><time>2026-04-05T14:00:28.292Z</time></trkpt><trkpt lat="45.3567483" lon="8.8376633"><ele>109.00000000000001</ele><time>2026-04-05T14:00:30.293Z</time></trkpt><trkpt lat="45.35682" lon="8.837635"><ele>109.0</ele><time>2026-04-05T14:00:31.293Z</time></trkpt><trkpt lat="45.356895" lon="8.8376033"><ele>109.0</ele><time>2026-04-05T14:00:32.292Z</time></trkpt><trkpt lat="45.3569783" lon="8.837565"><ele>109.0</ele><time>2026-04-05T14:00:33.293Z</time></trkpt><trkpt lat="45.35707" lon="8.8375183"><ele>109.00000000000001</ele><time>2026-04-05T14:00:34.293Z</time></trkpt><trkpt lat="45.357165" lon="8.8374683"><ele>109.0</ele><time>2026-04-05T14:00:35.293Z</time></trkpt><trkpt lat="45.3572617" lon="8.8374183"><ele>109.2</ele><time>2026-04-05T14:00:36.293Z</time></trkpt><trkpt lat="45.357355" lon="8.8373733"><ele>109.4</ele><time>2026-04-05T14:00:37.293Z</time></trkpt><trkpt lat="45.3574433" lon="8.8373267"><ele>109.6</ele><time>2026-04-05T14:00:38.293Z</time></trkpt><trkpt lat="45.3575283" lon="8.83728"><ele>109.8</ele><time>2026-04-05T14:00:39.293Z</time></trkpt><trkpt lat="45.3576117" lon="8.8372367"><ele>110.0</ele><time>2026-04-05T14:00:40.292Z</time></trkpt><trkpt lat="45.3576967" lon="8.8371933"><ele>109.99999999999999</ele><time>2026-04-05T14:00:41.293Z</time></trkpt><trkpt lat="45.3577783" lon="8.8371533"><ele>110.0</ele><time>2026-04-05T14:00:42.293Z</time></trkpt><trkpt lat="45.3578567" lon="8.8371133"><ele>110.0</ele><time>2026-04-05T14:00:43.293Z</time></trkpt><trkpt lat="45.35793" lon="8.837075"><ele>110.0</ele><time>2026-04-05T14:00:44.292Z</time></trkpt><trkpt lat="45.3579967" lon="8.8370367"><ele>109.99999999999999</ele><time>2026-04-05T14:00:45.293Z</time></trkpt><trkpt lat="45.358065" lon="8.8369983"><ele>110.0</ele><time>2026-04-05T14:00:46.293Z</time></trkpt><trkpt lat="45.3581367" lon="8.83696"><ele>109.83333333333333</ele><time>2026-04-05T14:00:47.293Z</time></trkpt><trkpt lat="45.3582083" lon="8.836925"><ele>109.66666666666666</ele><time>2026-04-05T14:00:48.292Z</time></trkpt><trkpt lat="45.3582767" lon="8.8368883"><ele>109.5</ele><time>2026-04-05T14:00:49.293Z</time></trkpt><trkpt lat="45.35834" lon="8.836855"><ele>109.33333333333334</ele><time>2026-04-05T14:00:50.292Z</time></trkpt><trkpt lat="45.3584017" lon="8.836825"><ele>109.16666666666667</ele><time>2026-04-05T14:00:51.293Z</time></trkpt><trkpt lat="45.35851" lon="8.83677"><ele>109.0</ele><time>2026-04-05T14:00:53.293Z</time></trkpt><trkpt lat="45.3585983" lon="8.83673"><ele>109.00000000000001</ele><time>2026-04-05T14:00:55.292Z</time></trkpt><trkpt lat="45.3586683" lon="8.8367017"><ele>109.0</ele><time>2026-04-05T14:00:58.292Z</time></trkpt><trkpt lat="45.35873" lon="8.8366667"><ele>109.0</ele><time>2026-04-05T14:01:21.292Z</time></trkpt><trkpt lat="45.35884" lon="8.8365967"><ele>109.0</ele><time>2026-04-05T14:01:23.292Z</time></trkpt><trkpt lat="45.3589117" lon="8.8365533"><ele>109.00000000000001</ele><time>2026-04-05T14:01:24.293Z</time></trkpt><trkpt lat="45.358985" lon="8.83651"><ele>109.0</ele><time>2026-04-05T14:01:25.292Z</time></trkpt><trkpt lat="45.3590617" lon="8.8364633"><ele>109.00000000000001</ele><time>2026-04-05T14:01:26.293Z</time></trkpt><trkpt lat="45.3591417" lon="8.83642"><ele>109.0</ele><time>2026-04-05T14:01:27.292Z</time></trkpt><trkpt lat="45.359215" lon="8.83638"><ele>109.0</ele><time>2026-04-05T14:01:28.292Z</time></trkpt><trkpt lat="45.3592833" lon="8.8363417"><ele>109.0</ele><time>2026-04-05T14:01:29.293Z</time></trkpt><trkpt lat="45.3593467" lon="8.8363083"><ele>109.00000000000001</ele><time>2026-04-05T14:01:30.293Z</time></trkpt><trkpt lat="45.3594533" lon="8.8362567"><ele>109.0</ele><time>2026-04-05T14:01:32.292Z</time></trkpt><trkpt lat="45.359515" lon="8.83622"><ele>109.00000000000001</ele><time>2026-04-05T14:01:34.292Z</time></trkpt><trkpt lat="45.3595017" lon="8.836095"><ele>109.0</ele><time>2026-04-05T14:01:37.292Z</time></trkpt><trkpt lat="45.3594733" lon="8.8360083"><ele>109.0</ele><time>2026-04-05T14:01:38.293Z</time></trkpt><trkpt lat="45.35944" lon="8.8359033"><ele>109.0</ele><time>2026-04-05T14:01:39.292Z</time></trkpt><trkpt lat="45.359405" lon="8.8357883"><ele>109.00000000000001</ele><time>2026-04-05T14:01:40.292Z</time></trkpt><trkpt lat="45.3593683" lon="8.8356633"><ele>109.0</ele><time>2026-04-05T14:01:41.293Z</time></trkpt><trkpt lat="45.3593333" lon="8.8355383"><ele>109.16666666666667</ele><time>2026-04-05T14:01:42.293Z</time></trkpt><trkpt lat="45.3592933" lon="8.835405"><ele>109.33333333333334</ele><time>2026-04-05T14:01:43.292Z</time></trkpt><trkpt lat="45.3592567" lon="8.8352733"><ele>109.5</ele><time>2026-04-05T14:01:44.292Z</time></trkpt><trkpt lat="45.3592217" lon="8.835155"><ele>109.66666666666666</ele><time>2026-04-05T14:01:45.293Z</time></trkpt><trkpt lat="45.3591917" lon="8.8350517"><ele>109.83333333333333</ele><time>2026-04-05T14:01:46.292Z</time></trkpt><trkpt lat="45.3591633" lon="8.8349633"><ele>110.0</ele><time>2026-04-05T14:01:47.293Z</time></trkpt><trkpt lat="45.3591367" lon="8.8348767"><ele>109.99999999999999</ele><time>2026-04-05T14:01:48.293Z</time></trkpt><trkpt lat="45.3590883" lon="8.8347167"><ele>110.0</ele><time>2026-04-05T14:01:50.293Z</time></trkpt><trkpt lat="45.35905" lon="8.8345783"><ele>110.0</ele><time>2026-04-05T14:01:52.292Z</time></trkpt><trkpt lat="45.3590667" lon="8.8344733"><ele>110.0</ele><time>2026-04-05T14:01:54.292Z</time></trkpt><trkpt lat="45.359135" lon="8.8344267"><ele>109.99999999999999</ele><time>2026-04-05T14:01:56.292Z</time></trkpt><trkpt lat="45.3591983" lon="8.834405"><ele>110.0</ele><time>2026-04-05T14:01:58.292Z</time></trkpt><trkpt lat="45.359265" lon="8.8343533"><ele>110.0</ele><time>2026-04-05T14:02:00.292Z</time></trkpt><trkpt lat="45.3592917" lon="8.83424"><ele>110.0</ele><time>2026-04-05T14:02:02.293Z</time></trkpt><trkpt lat="45.3592417" lon="8.8340817"><ele>110.0</ele><time>2026-04-05T14:02:04.293Z</time></trkpt><trkpt lat="45.3592083" lon="8.83398"><ele>110.0</ele><time>2026-04-05T14:02:05.293Z</time></trkpt><trkpt lat="45.3591733" lon="8.8338717"><ele>110.0</ele><time>2026-04-05T14:02:06.293Z</time></trkpt><trkpt lat="45.359135" lon="8.8337483"><ele>110.0</ele><time>2026-04-05T14:02:07.293Z</time></trkpt><trkpt lat="45.359095" lon="8.8336217"><ele>110.0</ele><time>2026-04-05T14:02:08.292Z</time></trkpt><trkpt lat="45.3590567" lon="8.8334983"><ele>110.0</ele><time>2026-04-05T14:02:09.292Z</time></trkpt><trkpt lat="45.35902" lon="8.8333683"><ele>110.0</ele><time>2026-04-05T14:02:10.292Z</time></trkpt><trkpt lat="45.3589817" lon="8.833235"><ele>110.0</ele><time>2026-04-05T14:02:11.293Z</time></trkpt><trkpt lat="45.3589433" lon="8.8331017"><ele>110.0</ele><time>2026-04-05T14:02:12.293Z</time></trkpt><trkpt lat="45.358905" lon="8.8329617"><ele>110.0</ele><time>2026-04-05T14:02:13.293Z</time></trkpt><trkpt lat="45.3588683" lon="8.8328183"><ele>110.0</ele><time>2026-04-05T14:02:14.293Z</time></trkpt><trkpt lat="45.3588317" lon="8.8326783"><ele>110.0</ele><time>2026-04-05T14:02:15.292Z</time></trkpt><trkpt lat="45.358795" lon="8.8325467"><ele>110.0</ele><time>2026-04-05T14:02:16.293Z</time></trkpt><trkpt lat="45.358755" lon="8.8324267"><ele>109.99999999999999</ele><time>2026-04-05T14:02:17.293Z</time></trkpt><trkpt lat="45.3587183" lon="8.8323133"><ele>110.0</ele><time>2026-04-05T14:02:18.292Z</time></trkpt><trkpt lat="45.3586883" lon="8.8322"><ele>110.0</ele><time>2026-04-05T14:02:19.292Z</time></trkpt><trkpt lat="45.3586533" lon="8.8320883"><ele>110.0</ele><time>2026-04-05T14:02:20.292Z</time></trkpt><trkpt lat="45.35862" lon="8.8319617"><ele>109.99999999999999</ele><time>2026-04-05T14:02:21.292Z</time></trkpt><trkpt lat="45.3585917" lon="8.831845"><ele>110.0</ele><time>2026-04-05T14:02:22.293Z</time></trkpt><trkpt lat="45.3585617" lon="8.8317217"><ele>109.99999999999999</ele><time>2026-04-05T14:02:23.292Z</time></trkpt><trkpt lat="45.3585333" lon="8.831615"><ele>110.0</ele><time>2026-04-05T14:02:24.293Z</time></trkpt><trkpt lat="45.3585017" lon="8.83151"><ele>110.0</ele><time>2026-04-05T14:02:25.293Z</time></trkpt><trkpt lat="45.3584733" lon="8.8313933"><ele>110.0</ele><time>2026-04-05T14:02:26.293Z</time></trkpt><trkpt lat="45.3584383" lon="8.831275"><ele>109.99999999999999</ele><time>2026-04-05T14:02:27.293Z</time></trkpt><trkpt lat="45.358405" lon="8.8311617"><ele>110.0</ele><time>2026-04-05T14:02:28.293Z</time></trkpt><trkpt lat="45.3583767" lon="8.8310433"><ele>109.99999999999999</ele><time>2026-04-05T14:02:29.293Z</time></trkpt><trkpt lat="45.35835" lon="8.8309317"><ele>110.0</ele><time>2026-04-05T14:02:30.293Z</time></trkpt><trkpt lat="45.3583183" lon="8.8308133"><ele>110.0</ele><time>2026-04-05T14:02:31.293Z</time></trkpt><trkpt lat="45.3582867" lon="8.8306933"><ele>110.0</ele><time>2026-04-05T14:02:32.292Z</time></trkpt><trkpt lat="45.3582567" lon="8.83058"><ele>109.99999999999999</ele><time>2026-04-05T14:02:33.293Z</time></trkpt><trkpt lat="45.3582233" lon="8.8304583"><ele>110.0</ele><time>2026-04-05T14:02:34.293Z</time></trkpt><trkpt lat="45.3581917" lon="8.8303317"><ele>109.99999999999999</ele><time>2026-04-05T14:02:35.292Z</time></trkpt><trkpt lat="45.3581583" lon="8.8302017"><ele>110.0</ele><time>2026-04-05T14:02:36.292Z</time></trkpt><trkpt lat="45.3581167" lon="8.830085"><ele>110.0</ele><time>2026-04-05T14:02:37.293Z</time></trkpt><trkpt lat="45.3580867" lon="8.8299717"><ele>110.0</ele><time>2026-04-05T14:02:38.292Z</time></trkpt><trkpt lat="45.3580567" lon="8.829865"><ele>109.99999999999999</ele><time>2026-04-05T14:02:39.293Z</time></trkpt><trkpt lat="45.358025" lon="8.829765"><ele>110.0</ele><time>2026-04-05T14:02:40.293Z</time></trkpt><trkpt lat="45.3579967" lon="8.8296667"><ele>110.16666666666666</ele><time>2026-04-05T14:02:41.293Z</time></trkpt><trkpt lat="45.357975" lon="8.8295783"><ele>110.33333333333333</ele><time>2026-04-05T14:02:42.293Z</time></trkpt><trkpt lat="45.3579583" lon="8.8294333"><ele>110.5</ele><time>2026-04-05T14:02:44.293Z</time></trkpt><trkpt lat="45.3579917" lon="8.8293233"><ele>110.66666666666666</ele><time>2026-04-05T14:02:46.292Z</time></trkpt><trkpt lat="45.3580867" lon="8.8292433"><ele>110.83333333333333</ele><time>2026-04-05T14:02:48.293Z</time></trkpt><trkpt lat="45.3581467" lon="8.829205"><ele>111.0</ele><time>2026-04-05T14:02:49.293Z</time></trkpt><trkpt lat="45.3582133" lon="8.8291667"><ele>110.6</ele><time>2026-04-05T14:02:50.292Z</time></trkpt><trkpt lat="45.3582883" lon="8.8291267"><ele>110.19999999999999</ele><time>2026-04-05T14:02:51.293Z</time></trkpt><trkpt lat="45.3583733" lon="8.829085"><ele>109.80000000000001</ele><time>2026-04-05T14:02:52.293Z</time></trkpt><trkpt lat="45.358465" lon="8.8290433"><ele>109.4</ele><time>2026-04-05T14:02:53.292Z</time></trkpt><trkpt lat="45.3585583" lon="8.8289983"><ele>109.0</ele><time>2026-04-05T14:02:54.292Z</time></trkpt><trkpt lat="45.3586517" lon="8.8289517"><ele>109.0</ele><time>2026-04-05T14:02:55.292Z</time></trkpt><trkpt lat="45.3587483" lon="8.828905"><ele>109.0</ele><time>2026-04-05T14:02:56.293Z</time></trkpt><trkpt lat="45.35884" lon="8.8288583"><ele>109.0</ele><time>2026-04-05T14:02:57.292Z</time></trkpt><trkpt lat="45.35893" lon="8.8288167"><ele>109.0</ele><time>2026-04-05T14:02:58.293Z</time></trkpt><trkpt lat="45.359015" lon="8.828775"><ele>109.0</ele><time>2026-04-05T14:02:59.293Z</time></trkpt><trkpt lat="45.3590983" lon="8.8287333"><ele>109.33333333333334</ele><time>2026-04-05T14:03:00.293Z</time></trkpt><trkpt lat="45.35918" lon="8.8286933"><ele>109.66666666666667</ele><time>2026-04-05T14:03:01.293Z</time></trkpt><trkpt lat="45.3592583" lon="8.8286533"><ele>110.0</ele><time>2026-04-05T14:03:02.292Z</time></trkpt><trkpt lat="45.3593333" lon="8.828615"><ele>110.33333333333334</ele><time>2026-04-05T14:03:03.293Z</time></trkpt><trkpt lat="45.3594017" lon="8.8285783"><ele>110.66666666666667</ele><time>2026-04-05T14:03:04.293Z</time></trkpt><trkpt lat="45.3594633" lon="8.8285467"><ele>111.0</ele><time>2026-04-05T14:03:05.293Z</time></trkpt><trkpt lat="45.359575" lon="8.8284933"><ele>110.83333333333333</ele><time>2026-04-05T14:03:07.292Z</time></trkpt><trkpt lat="45.359675" lon="8.8284583"><ele>110.66666666666666</ele><time>2026-04-05T14:03:09.293Z</time></trkpt><trkpt lat="45.3597833" lon="8.8284083"><ele>110.5</ele><time>2026-04-05T14:03:11.293Z</time></trkpt><trkpt lat="45.3598483" lon="8.8283783"><ele>110.33333333333333</ele><time>2026-04-05T14:03:12.292Z</time></trkpt><trkpt lat="45.3599117" lon="8.8283483"><ele>110.16666666666666</ele><time>2026-04-05T14:03:13.293Z</time></trkpt><trkpt lat="45.3599717" lon="8.8283167"><ele>110.0</ele><time>2026-04-05T14:03:14.293Z</time></trkpt><trkpt lat="45.3600317" lon="8.8282833"><ele>109.83333333333333</ele><time>2026-04-05T14:03:15.292Z</time></trkpt><trkpt lat="45.3601" lon="8.828245"><ele>109.66666666666666</ele><time>2026-04-05T14:03:16.293Z</time></trkpt><trkpt lat="45.3601767" lon="8.8282"><ele>109.5</ele><time>2026-04-05T14:03:17.292Z</time></trkpt><trkpt lat="45.36026" lon="8.82815"><ele>109.33333333333334</ele><time>2026-04-05T14:03:18.292Z</time></trkpt><trkpt lat="45.3603483" lon="8.828095"><ele>109.16666666666667</ele><time>2026-04-05T14:03:19.292Z</time></trkpt><trkpt lat="45.36044" lon="8.82804"><ele>109.0</ele><time>2026-04-05T14:03:20.292Z</time></trkpt><trkpt lat="45.36053" lon="8.82799"><ele>109.16666666666667</ele><time>2026-04-05T14:03:21.293Z</time></trkpt><trkpt lat="45.3606133" lon="8.8279417"><ele>109.33333333333334</ele><time>2026-04-05T14:03:22.293Z</time></trkpt><trkpt lat="45.3606933" lon="8.827895"><ele>109.5</ele><time>2026-04-05T14:03:23.293Z</time></trkpt><trkpt lat="45.3607683" lon="8.8278517"><ele>109.66666666666666</ele><time>2026-04-05T14:03:24.293Z</time></trkpt><trkpt lat="45.360845" lon="8.8278083"><ele>109.83333333333333</ele><time>2026-04-05T14:03:25.293Z</time></trkpt><trkpt lat="45.3609183" lon="8.8277683"><ele>110.0</ele><time>2026-04-05T14:03:26.292Z</time></trkpt><trkpt lat="45.3609917" lon="8.8277283"><ele>109.99999999999999</ele><time>2026-04-05T14:03:27.293Z</time></trkpt><trkpt lat="45.361065" lon="8.82769"><ele>110.0</ele><time>2026-04-05T14:03:28.293Z</time></trkpt><trkpt lat="45.3611367" lon="8.8276517"><ele>110.0</ele><time>2026-04-05T14:03:29.293Z</time></trkpt><trkpt lat="45.3612083" lon="8.8276183"><ele>110.0</ele><time>2026-04-05T14:03:30.293Z</time></trkpt><trkpt lat="45.3612833" lon="8.827585"><ele>109.99999999999999</ele><time>2026-04-05T14:03:31.292Z</time></trkpt><trkpt lat="45.36136" lon="8.8275433"><ele>110.0</ele><time>2026-04-05T14:03:32.292Z</time></trkpt><trkpt lat="45.3614367" lon="8.8275033"><ele>110.49999999999999</ele><time>2026-04-05T14:03:33.293Z</time></trkpt><trkpt lat="45.361515" lon="8.8274583"><ele>111.0</ele><time>2026-04-05T14:03:34.293Z</time></trkpt><trkpt lat="45.3615917" lon="8.8274167"><ele>111.5</ele><time>2026-04-05T14:03:35.293Z</time></trkpt><trkpt lat="45.3616683" lon="8.8273767"><ele>112.0</ele><time>2026-04-05T14:03:36.292Z</time></trkpt><trkpt lat="45.3617483" lon="8.8273317"><ele>112.49999999999999</ele><time>2026-04-05T14:03:37.293Z</time></trkpt><trkpt lat="45.3618267" lon="8.827285"><ele>113.0</ele><time>2026-04-05T14:03:38.293Z</time></trkpt><trkpt lat="45.3619067" lon="8.8272417"><ele>112.99999999999999</ele><time>2026-04-05T14:03:39.293Z</time></trkpt><trkpt lat="45.361985" lon="8.8271967"><ele>113.0</ele><time>2026-04-05T14:03:40.293Z</time></trkpt><trkpt lat="45.3620633" lon="8.827155"><ele>113.0</ele><time>2026-04-05T14:03:41.293Z</time></trkpt><trkpt lat="45.36214" lon="8.827115"><ele>113.0</ele><time>2026-04-05T14:03:42.292Z</time></trkpt><trkpt lat="45.3622183" lon="8.8270717"><ele>112.99999999999999</ele><time>2026-04-05T14:03:43.293Z</time></trkpt><trkpt lat="45.3622983" lon="8.8270283"><ele>113.0</ele><time>2026-04-05T14:03:44.292Z</time></trkpt><trkpt lat="45.3623783" lon="8.826985"><ele>112.99999999999999</ele><time>2026-04-05T14:03:45.292Z</time></trkpt><trkpt lat="45.36246" lon="8.82694"><ele>113.0</ele><time>2026-04-05T14:03:46.293Z</time></trkpt><trkpt lat="45.3625417" lon="8.8268967"><ele>113.0</ele><time>2026-04-05T14:03:47.293Z</time></trkpt><trkpt lat="45.3626267" lon="8.82685"><ele>113.0</ele><time>2026-04-05T14:03:48.292Z</time></trkpt><trkpt lat="45.3627083" lon="8.8268033"><ele>112.99999999999999</ele><time>2026-04-05T14:03:49.292Z</time></trkpt><trkpt lat="45.362785" lon="8.8267583"><ele>113.0</ele><time>2026-04-05T14:03:50.292Z</time></trkpt><trkpt lat="45.362855" lon="8.8267133"><ele>113.0</ele><time>2026-04-05T14:03:51.292Z</time></trkpt><trkpt lat="45.3629233" lon="8.826665"><ele>113.0</ele><time>2026-04-05T14:03:52.293Z</time></trkpt><trkpt lat="45.36299" lon="8.8266217"><ele>113.0</ele><time>2026-04-05T14:03:53.292Z</time></trkpt><trkpt lat="45.3630517" lon="8.8265767"><ele>113.0</ele><time>2026-04-05T14:03:54.293Z</time></trkpt><trkpt lat="45.363115" lon="8.8265317"><ele>113.0</ele><time>2026-04-05T14:03:55.292Z</time></trkpt><trkpt lat="45.3631767" lon="8.8264867"><ele>113.0</ele><time>2026-04-05T14:03:56.292Z</time></trkpt><trkpt lat="45.3632367" lon="8.8264467"><ele>113.0</ele><time>2026-04-05T14:03:57.292Z</time></trkpt><trkpt lat="45.3633367" lon="8.82639"><ele>112.83333333333333</ele><time>2026-04-05T14:03:59.292Z</time></trkpt><trkpt lat="45.3634033" lon="8.8263267"><ele>112.66666666666666</ele><time>2026-04-05T14:04:01.293Z</time></trkpt><trkpt lat="45.3634133" lon="8.82621"><ele>112.5</ele><time>2026-04-05T14:04:03.293Z</time></trkpt><trkpt lat="45.363365" lon="8.8260433"><ele>112.33333333333334</ele><time>2026-04-05T14:04:05.292Z</time></trkpt><trkpt lat="45.3633367" lon="8.82595"><ele>112.16666666666667</ele><time>2026-04-05T14:04:06.293Z</time></trkpt><trkpt lat="45.3633117" lon="8.8258583"><ele>112.0</ele><time>2026-04-05T14:04:07.292Z</time></trkpt><trkpt lat="45.3632867" lon="8.825775"><ele>111.83333333333334</ele><time>2026-04-05T14:04:08.292Z</time></trkpt><trkpt lat="45.3632667" lon="8.82564"><ele>111.66666666666667</ele><time>2026-04-05T14:04:10.293Z</time></trkpt><trkpt lat="45.3633233" lon="8.8255333"><ele>111.5</ele><time>2026-04-05T14:04:12.292Z</time></trkpt><trkpt lat="45.3633817" lon="8.825485"><ele>111.33333333333334</ele><time>2026-04-05T14:04:13.293Z</time></trkpt><trkpt lat="45.363455" lon="8.825435"><ele>111.16666666666667</ele><time>2026-04-05T14:04:14.293Z</time></trkpt><trkpt lat="45.3635483" lon="8.8253917"><ele>111.0</ele><time>2026-04-05T14:04:15.293Z</time></trkpt><trkpt lat="45.36364" lon="8.8253333"><ele>111.0</ele><time>2026-04-05T14:04:16.293Z</time></trkpt><trkpt lat="45.3637367" lon="8.8252783"><ele>111.0</ele><time>2026-04-05T14:04:17.292Z</time></trkpt><trkpt lat="45.3638367" lon="8.8252283"><ele>111.0</ele><time>2026-04-05T14:04:18.293Z</time></trkpt><trkpt lat="45.3639367" lon="8.8251767"><ele>111.0</ele><time>2026-04-05T14:04:19.292Z</time></trkpt><trkpt lat="45.3640317" lon="8.82512"><ele>111.0</ele><time>2026-04-05T14:04:20.293Z</time></trkpt><trkpt lat="45.36413" lon="8.825065"><ele>111.19999999999999</ele><time>2026-04-05T14:04:21.292Z</time></trkpt><trkpt lat="45.3642233" lon="8.8250067"><ele>111.39999999999999</ele><time>2026-04-05T14:04:22.293Z</time></trkpt><trkpt lat="45.3643033" lon="8.824955"><ele>111.6</ele><time>2026-04-05T14:04:23.293Z</time></trkpt><trkpt lat="45.36439" lon="8.8249017"><ele>111.8</ele><time>2026-04-05T14:04:24.293Z</time></trkpt><trkpt lat="45.3644717" lon="8.8248533"><ele>112.0</ele><time>2026-04-05T14:04:25.293Z</time></trkpt><trkpt lat="45.3645533" lon="8.8248033"><ele>112.00000000000001</ele><time>2026-04-05T14:04:26.293Z</time></trkpt><trkpt lat="45.3646333" lon="8.8247517"><ele>112.0</ele><time>2026-04-05T14:04:27.293Z</time></trkpt><trkpt lat="45.3647117" lon="8.8247033"><ele>112.0</ele><time>2026-04-05T14:04:28.293Z</time></trkpt><trkpt lat="45.3647917" lon="8.8246567"><ele>112.0</ele><time>2026-04-05T14:04:29.292Z</time></trkpt><trkpt lat="45.3648733" lon="8.82461"><ele>112.00000000000001</ele><time>2026-04-05T14:04:30.292Z</time></trkpt><trkpt lat="45.3649583" lon="8.8245533"><ele>112.0</ele><time>2026-04-05T14:04:31.293Z</time></trkpt><trkpt lat="45.3650417" lon="8.8245"><ele>111.8</ele><time>2026-04-05T14:04:32.292Z</time></trkpt><trkpt lat="45.3651283" lon="8.8244433"><ele>111.6</ele><time>2026-04-05T14:04:33.292Z</time></trkpt><trkpt lat="45.3652183" lon="8.8243883"><ele>111.39999999999999</ele><time>2026-04-05T14:04:34.293Z</time></trkpt><trkpt lat="45.3653067" lon="8.824335"><ele>111.19999999999999</ele><time>2026-04-05T14:04:35.293Z</time></trkpt><trkpt lat="45.3653883" lon="8.824285"><ele>111.0</ele><time>2026-04-05T14:04:36.293Z</time></trkpt><trkpt lat="45.365465" lon="8.8242367"><ele>111.0</ele><time>2026-04-05T14:04:37.292Z</time></trkpt><trkpt lat="45.3655383" lon="8.8241933"><ele>111.0</ele><time>2026-04-05T14:04:38.293Z</time></trkpt><trkpt lat="45.3656117" lon="8.82415"><ele>111.0</ele><time>2026-04-05T14:04:39.292Z</time></trkpt><trkpt lat="45.365685" lon="8.8241067"><ele>111.0</ele><time>2026-04-05T14:04:40.293Z</time></trkpt><trkpt lat="45.3657583" lon="8.8240617"><ele>111.0</ele><time>2026-04-05T14:04:41.293Z</time></trkpt><trkpt lat="45.3658333" lon="8.8240133"><ele>111.0</ele><time>2026-04-05T14:04:42.292Z</time></trkpt><trkpt lat="45.3659083" lon="8.8239667"><ele>111.0</ele><time>2026-04-05T14:04:43.292Z</time></trkpt><trkpt lat="45.3659833" lon="8.8239233"><ele>111.0</ele><time>2026-04-05T14:04:44.293Z</time></trkpt><trkpt lat="45.36605" lon="8.82388"><ele>111.0</ele><time>2026-04-05T14:04:45.292Z</time></trkpt><trkpt lat="45.3661217" lon="8.823835"><ele>111.0</ele><time>2026-04-05T14:04:46.293Z</time></trkpt><trkpt lat="45.3661883" lon="8.823795"><ele>111.0</ele><time>2026-04-05T14:04:47.292Z</time></trkpt><trkpt lat="45.3662517" lon="8.82376"><ele>111.0</ele><time>2026-04-05T14:04:48.293Z</time></trkpt><trkpt lat="45.3663083" lon="8.82372"><ele>111.0</ele><time>2026-04-05T14:04:49.293Z</time></trkpt><trkpt lat="45.3664083" lon="8.823665"><ele>111.19999999999999</ele><time>2026-04-05T14:04:51.293Z</time></trkpt><trkpt lat="45.3664867" lon="8.82361"><ele>111.39999999999999</ele><time>2026-04-05T14:04:53.293Z</time></trkpt><trkpt lat="45.3664967" lon="8.823455"><ele>111.6</ele><time>2026-04-05T14:04:56.293Z</time></trkpt><trkpt lat="45.3664683" lon="8.82336"><ele>111.8</ele><time>2026-04-05T14:04:57.292Z</time></trkpt><trkpt lat="45.3664383" lon="8.8232417"><ele>112.0</ele><time>2026-04-05T14:04:58.293Z</time></trkpt><trkpt lat="45.36641" lon="8.823105"><ele>112.0</ele><time>2026-04-05T14:04:59.293Z</time></trkpt><trkpt lat="45.3663817" lon="8.8229633"><ele>111.99999999999999</ele><time>2026-04-05T14:05:00.293Z</time></trkpt><trkpt lat="45.3663517" lon="8.8228233"><ele>111.99999999999999</ele><time>2026-04-05T14:05:01.293Z</time></trkpt><trkpt lat="45.3663167" lon="8.82268"><ele>112.0</ele><time>2026-04-05T14:05:02.292Z</time></trkpt><trkpt lat="45.366285" lon="8.822525"><ele>112.0</ele><time>2026-04-05T14:05:03.293Z</time></trkpt><trkpt lat="45.36625" lon="8.8223667"><ele>112.0</ele><time>2026-04-05T14:05:04.292Z</time></trkpt><trkpt lat="45.3662117" lon="8.8222117"><ele>112.0</ele><time>2026-04-05T14:05:05.292Z</time></trkpt><trkpt lat="45.3661733" lon="8.82205"><ele>112.0</ele><time>2026-04-05T14:05:06.292Z</time></trkpt><trkpt lat="45.3661367" lon="8.8218783"><ele>112.0</ele><time>2026-04-05T14:05:07.293Z</time></trkpt><trkpt lat="45.3661" lon="8.82171"><ele>112.0</ele><time>2026-04-05T14:05:08.293Z</time></trkpt><trkpt lat="45.3660633" lon="8.8215533"><ele>112.0</ele><time>2026-04-05T14:05:09.293Z</time></trkpt><trkpt lat="45.3660217" lon="8.8213817"><ele>112.0</ele><time>2026-04-05T14:05:10.293Z</time></trkpt><trkpt lat="45.3659833" lon="8.8212167"><ele>112.0</ele><time>2026-04-05T14:05:11.292Z</time></trkpt><trkpt lat="45.36595" lon="8.82106"><ele>112.19999999999999</ele><time>2026-04-05T14:05:12.293Z</time></trkpt><trkpt lat="45.3659167" lon="8.8209133"><ele>112.39999999999999</ele><time>2026-04-05T14:05:13.293Z</time></trkpt><trkpt lat="45.365885" lon="8.8207717"><ele>112.60000000000001</ele><time>2026-04-05T14:05:14.293Z</time></trkpt><trkpt lat="45.3658517" lon="8.820625"><ele>112.80000000000001</ele><time>2026-04-05T14:05:15.292Z</time></trkpt><trkpt lat="45.3658217" lon="8.820495"><ele>113.0</ele><time>2026-04-05T14:05:16.293Z</time></trkpt><trkpt lat="45.3657917" lon="8.8203533"><ele>113.0</ele><time>2026-04-05T14:05:17.293Z</time></trkpt><trkpt lat="45.3657583" lon="8.8202083"><ele>113.0</ele><time>2026-04-05T14:05:18.293Z</time></trkpt><trkpt lat="45.3657217" lon="8.8200583"><ele>113.0</ele><time>2026-04-05T14:05:19.293Z</time></trkpt><trkpt lat="45.36569" lon="8.8198933"><ele>113.0</ele><time>2026-04-05T14:05:20.292Z</time></trkpt><trkpt lat="45.3656533" lon="8.8197383"><ele>113.0</ele><time>2026-04-05T14:05:21.292Z</time></trkpt><trkpt lat="45.3656217" lon="8.819595"><ele>113.0</ele><time>2026-04-05T14:05:22.293Z</time></trkpt><trkpt lat="45.365585" lon="8.8194383"><ele>113.0</ele><time>2026-04-05T14:05:23.292Z</time></trkpt><trkpt lat="45.36555" lon="8.8192833"><ele>113.0</ele><time>2026-04-05T14:05:24.292Z</time></trkpt><trkpt lat="45.3655167" lon="8.8191267"><ele>113.0</ele><time>2026-04-05T14:05:25.293Z</time></trkpt><trkpt lat="45.3654817" lon="8.8189683"><ele>113.00000000000001</ele><time>2026-04-05T14:05:26.293Z</time></trkpt><trkpt lat="45.36545" lon="8.8188217"><ele>113.00000000000001</ele><time>2026-04-05T14:05:27.292Z</time></trkpt><trkpt lat="45.3654233" lon="8.8186767"><ele>113.0</ele><time>2026-04-05T14:05:28.292Z</time></trkpt><trkpt lat="45.36539" lon="8.818535"><ele>113.0</ele><time>2026-04-05T14:05:29.293Z</time></trkpt><trkpt lat="45.3653583" lon="8.8184017"><ele>113.2</ele><time>2026-04-05T14:05:30.292Z</time></trkpt><trkpt lat="45.3653283" lon="8.8182733"><ele>113.4</ele><time>2026-04-05T14:05:31.293Z</time></trkpt><trkpt lat="45.3653" lon="8.8181533"><ele>113.60000000000001</ele><time>2026-04-05T14:05:32.292Z</time></trkpt><trkpt lat="45.3652733" lon="8.8180233"><ele>113.80000000000001</ele><time>2026-04-05T14:05:33.293Z</time></trkpt><trkpt lat="45.365245" lon="8.817895"><ele>114.0</ele><time>2026-04-05T14:05:34.293Z</time></trkpt><trkpt lat="45.3652233" lon="8.8177833"><ele>114.0</ele><time>2026-04-05T14:05:35.293Z</time></trkpt><trkpt lat="45.3652067" lon="8.8176733"><ele>114.0</ele><time>2026-04-05T14:05:36.292Z</time></trkpt><trkpt lat="45.3652083" lon="8.8175633"><ele>114.0</ele><time>2026-04-05T14:05:37.292Z</time></trkpt><trkpt lat="45.3652233" lon="8.81746"><ele>114.0</ele><time>2026-04-05T14:05:38.293Z</time></trkpt><trkpt lat="45.3652433" lon="8.8173717"><ele>114.0</ele><time>2026-04-05T14:05:39.293Z</time></trkpt><trkpt lat="45.365255" lon="8.8172133"><ele>114.0</ele><time>2026-04-05T14:05:41.293Z</time></trkpt><trkpt lat="45.3652783" lon="8.81708"><ele>114.2</ele><time>2026-04-05T14:05:43.292Z</time></trkpt><trkpt lat="45.3653683" lon="8.8169733"><ele>114.4</ele><time>2026-04-05T14:05:45.292Z</time></trkpt><trkpt lat="45.365435" lon="8.816925"><ele>114.6</ele><time>2026-04-05T14:05:46.292Z</time></trkpt><trkpt lat="45.36551" lon="8.8168733"><ele>114.8</ele><time>2026-04-05T14:05:47.293Z</time></trkpt><trkpt lat="45.3655933" lon="8.8168183"><ele>115.0</ele><time>2026-04-05T14:05:48.293Z</time></trkpt><trkpt lat="45.3656867" lon="8.8167733"><ele>114.6</ele><time>2026-04-05T14:05:49.293Z</time></trkpt><trkpt lat="45.3657783" lon="8.8167317"><ele>114.2</ele><time>2026-04-05T14:05:50.293Z</time></trkpt><trkpt lat="45.3658733" lon="8.8166767"><ele>113.80000000000001</ele><time>2026-04-05T14:05:51.292Z</time></trkpt><trkpt lat="45.3659683" lon="8.816635"><ele>113.4</ele><time>2026-04-05T14:05:52.292Z</time></trkpt><trkpt lat="45.3660617" lon="8.8165917"><ele>113.0</ele><time>2026-04-05T14:05:53.293Z</time></trkpt><trkpt lat="45.36615" lon="8.8165417"><ele>112.99999999999999</ele><time>2026-04-05T14:05:54.292Z</time></trkpt><trkpt lat="45.36624" lon="8.8164933"><ele>113.0</ele><time>2026-04-05T14:05:55.292Z</time></trkpt><trkpt lat="45.3663233" lon="8.8164417"><ele>113.0</ele><time>2026-04-05T14:05:56.292Z</time></trkpt><trkpt lat="45.366405" lon="8.8164017"><ele>113.0</ele><time>2026-04-05T14:05:57.293Z</time></trkpt><trkpt lat="45.3664867" lon="8.816365"><ele>112.99999999999999</ele><time>2026-04-05T14:05:58.293Z</time></trkpt><trkpt lat="45.3665667" lon="8.8163267"><ele>113.0</ele><time>2026-04-05T14:05:59.292Z</time></trkpt><trkpt lat="45.36665" lon="8.8162867"><ele>113.33333333333333</ele><time>2026-04-05T14:06:00.293Z</time></trkpt><trkpt lat="45.366735" lon="8.81624"><ele>113.66666666666666</ele><time>2026-04-05T14:06:01.292Z</time></trkpt><trkpt lat="45.3668133" lon="8.8161883"><ele>114.0</ele><time>2026-04-05T14:06:02.293Z</time></trkpt><trkpt lat="45.366885" lon="8.8161483"><ele>114.33333333333334</ele><time>2026-04-05T14:06:03.293Z</time></trkpt><trkpt lat="45.3669533" lon="8.8161083"><ele>114.66666666666667</ele><time>2026-04-05T14:06:04.293Z</time></trkpt><trkpt lat="45.3670183" lon="8.816075"><ele>115.0</ele><time>2026-04-05T14:06:05.293Z</time></trkpt><trkpt lat="45.3670833" lon="8.8160433"><ele>115.00000000000001</ele><time>2026-04-05T14:06:06.293Z</time></trkpt><trkpt lat="45.367155" lon="8.8160167"><ele>115.0</ele><time>2026-04-05T14:06:07.293Z</time></trkpt><trkpt lat="45.3672317" lon="8.8159917"><ele>115.0</ele><time>2026-04-05T14:06:08.292Z</time></trkpt><trkpt lat="45.36731" lon="8.815965"><ele>115.0</ele><time>2026-04-05T14:06:09.292Z</time></trkpt><trkpt lat="45.3673767" lon="8.81592"><ele>115.00000000000001</ele><time>2026-04-05T14:06:10.293Z</time></trkpt><trkpt lat="45.36745" lon="8.8158783"><ele>115.0</ele><time>2026-04-05T14:06:11.293Z</time></trkpt><trkpt lat="45.3675217" lon="8.8158483"><ele>115.00000000000001</ele><time>2026-04-05T14:06:12.292Z</time></trkpt><trkpt lat="45.36759" lon="8.815815"><ele>115.0</ele><time>2026-04-05T14:06:13.293Z</time></trkpt><trkpt lat="45.36765" lon="8.815785"><ele>115.0</ele><time>2026-04-05T14:06:14.292Z</time></trkpt><trkpt lat="45.36775" lon="8.8157217"><ele>115.0</ele><time>2026-04-05T14:06:16.293Z</time></trkpt><trkpt lat="45.3678317" lon="8.8156717"><ele>115.00000000000001</ele><time>2026-04-05T14:06:18.293Z</time></trkpt><trkpt lat="45.367885" lon="8.8156133"><ele>115.0</ele><time>2026-04-05T14:06:22.292Z</time></trkpt><trkpt lat="45.3678417" lon="8.8154783"><ele>115.0</ele><time>2026-04-05T14:06:24.292Z</time></trkpt><trkpt lat="45.3678117" lon="8.8153783"><ele>115.0</ele><time>2026-04-05T14:06:25.293Z</time></trkpt><trkpt lat="45.3677783" lon="8.8152633"><ele>115.0</ele><time>2026-04-05T14:06:26.293Z</time></trkpt><trkpt lat="45.3677367" lon="8.8151383"><ele>115.0</ele><time>2026-04-05T14:06:27.293Z</time></trkpt><trkpt lat="45.367695" lon="8.815"><ele>115.0</ele><time>2026-04-05T14:06:28.293Z</time></trkpt><trkpt lat="45.3676483" lon="8.8148667"><ele>115.4</ele><time>2026-04-05T14:06:29.293Z</time></trkpt><trkpt lat="45.3676017" lon="8.814735"><ele>115.8</ele><time>2026-04-05T14:06:30.292Z</time></trkpt><trkpt lat="45.3675533" lon="8.814605"><ele>116.19999999999999</ele><time>2026-04-05T14:06:31.293Z</time></trkpt><trkpt lat="45.3675067" lon="8.8144917"><ele>116.6</ele><time>2026-04-05T14:06:32.292Z</time></trkpt><trkpt lat="45.3674583" lon="8.81439"><ele>117.0</ele><time>2026-04-05T14:06:33.293Z</time></trkpt><trkpt lat="45.3674183" lon="8.814285"><ele>117.5</ele><time>2026-04-05T14:06:34.292Z</time></trkpt><trkpt lat="45.3673833" lon="8.8141933"><ele>118.0</ele><time>2026-04-05T14:06:35.293Z</time></trkpt><trkpt lat="45.3673533" lon="8.8140883"><ele>118.5</ele><time>2026-04-05T14:06:36.293Z</time></trkpt><trkpt lat="45.3673233" lon="8.8139883"><ele>119.0</ele><time>2026-04-05T14:06:37.293Z</time></trkpt><trkpt lat="45.3673" lon="8.81387"><ele>119.5</ele><time>2026-04-05T14:06:38.292Z</time></trkpt><trkpt lat="45.3672667" lon="8.8137433"><ele>120.0</ele><time>2026-04-05T14:06:39.293Z</time></trkpt><trkpt lat="45.3672333" lon="8.813625"><ele>120.0</ele><time>2026-04-05T14:06:40.292Z</time></trkpt><trkpt lat="45.3671967" lon="8.8135"><ele>120.0</ele><time>2026-04-05T14:06:41.292Z</time></trkpt><trkpt lat="45.3671567" lon="8.8133683"><ele>120.0</ele><time>2026-04-05T14:06:42.292Z</time></trkpt><trkpt lat="45.3671117" lon="8.8132417"><ele>120.0</ele><time>2026-04-05T14:06:43.293Z</time></trkpt><trkpt lat="45.367065" lon="8.8131183"><ele>120.0</ele><time>2026-04-05T14:06:44.293Z</time></trkpt><trkpt lat="45.3670233" lon="8.8130117"><ele>120.2</ele><time>2026-04-05T14:06:45.292Z</time></trkpt><trkpt lat="45.36698" lon="8.812895"><ele>120.4</ele><time>2026-04-05T14:06:46.292Z</time></trkpt><trkpt lat="45.3669367" lon="8.8127933"><ele>120.6</ele><time>2026-04-05T14:06:47.292Z</time></trkpt><trkpt lat="45.3668933" lon="8.8126833"><ele>120.8</ele><time>2026-04-05T14:06:48.293Z</time></trkpt><trkpt lat="45.3668533" lon="8.81257"><ele>121.0</ele><time>2026-04-05T14:06:49.293Z</time></trkpt><trkpt lat="45.3668117" lon="8.8124417"><ele>121.19999999999999</ele><time>2026-04-05T14:06:50.293Z</time></trkpt><trkpt lat="45.3667683" lon="8.81232"><ele>121.39999999999999</ele><time>2026-04-05T14:06:51.293Z</time></trkpt><trkpt lat="45.3667317" lon="8.8121983"><ele>121.6</ele><time>2026-04-05T14:06:52.293Z</time></trkpt><trkpt lat="45.3666917" lon="8.8120733"><ele>121.8</ele><time>2026-04-05T14:06:53.293Z</time></trkpt><trkpt lat="45.366645" lon="8.8119517"><ele>122.0</ele><time>2026-04-05T14:06:54.292Z</time></trkpt><trkpt lat="45.3666" lon="8.8118383"><ele>122.16666666666666</ele><time>2026-04-05T14:06:55.292Z</time></trkpt><trkpt lat="45.3665583" lon="8.81173"><ele>122.33333333333333</ele><time>2026-04-05T14:06:56.292Z</time></trkpt><trkpt lat="45.36652" lon="8.8116183"><ele>122.5</ele><time>2026-04-05T14:06:57.293Z</time></trkpt><trkpt lat="45.3664767" lon="8.81151"><ele>122.66666666666666</ele><time>2026-04-05T14:06:58.292Z</time></trkpt><trkpt lat="45.3664383" lon="8.8114133"><ele>122.83333333333333</ele><time>2026-04-05T14:06:59.293Z</time></trkpt><trkpt lat="45.3664067" lon="8.811315"><ele>123.0</ele><time>2026-04-05T14:07:00.293Z</time></trkpt><trkpt lat="45.3663717" lon="8.8112267"><ele>122.66666666666667</ele><time>2026-04-05T14:07:01.293Z</time></trkpt><trkpt lat="45.3663433" lon="8.81114"><ele>122.33333333333334</ele><time>2026-04-05T14:07:02.292Z</time></trkpt><trkpt lat="45.36631" lon="8.8110517"><ele>122.0</ele><time>2026-04-05T14:07:03.293Z</time></trkpt><trkpt lat="45.3662717" lon="8.810955"><ele>121.66666666666667</ele><time>2026-04-05T14:07:04.292Z</time></trkpt><trkpt lat="45.366235" lon="8.8108567"><ele>121.33333333333334</ele><time>2026-04-05T14:07:05.293Z</time></trkpt><trkpt lat="45.3661983" lon="8.810755"><ele>121.0</ele><time>2026-04-05T14:07:06.292Z</time></trkpt><trkpt lat="45.366165" lon="8.8106517"><ele>121.00000000000001</ele><time>2026-04-05T14:07:07.293Z</time></trkpt><trkpt lat="45.36613" lon="8.8105483"><ele>121.0</ele><time>2026-04-05T14:07:08.293Z</time></trkpt><trkpt lat="45.3661067" lon="8.8104567"><ele>121.0</ele><time>2026-04-05T14:07:09.292Z</time></trkpt><trkpt lat="45.3660667" lon="8.8103"><ele>121.0</ele><time>2026-04-05T14:07:11.292Z</time></trkpt><trkpt lat="45.3660317" lon="8.81021"><ele>121.00000000000001</ele><time>2026-04-05T14:07:13.293Z</time></trkpt><trkpt lat="45.366005" lon="8.8101117"><ele>121.0</ele><time>2026-04-05T14:07:15.292Z</time></trkpt><trkpt lat="45.3659617" lon="8.809995"><ele>121.00000000000001</ele><time>2026-04-05T14:07:17.293Z</time></trkpt><trkpt lat="45.3659283" lon="8.80991"><ele>121.0</ele><time>2026-04-05T14:07:18.293Z</time></trkpt><trkpt lat="45.3658867" lon="8.8097517"><ele>121.0</ele><time>2026-04-05T14:07:20.292Z</time></trkpt><trkpt lat="45.3658517" lon="8.8096267"><ele>121.0</ele><time>2026-04-05T14:07:22.293Z</time></trkpt><trkpt lat="45.3658467" lon="8.8095233"><ele>121.00000000000001</ele><time>2026-04-05T14:07:25.292Z</time></trkpt><trkpt lat="45.3659033" lon="8.8094467"><ele>121.0</ele><time>2026-04-05T14:07:28.292Z</time></trkpt><trkpt lat="45.3659683" lon="8.8094233"><ele>121.00000000000001</ele><time>2026-04-05T14:07:30.292Z</time></trkpt><trkpt lat="45.3660633" lon="8.8093817"><ele>121.0</ele><time>2026-04-05T14:07:32.293Z</time></trkpt><trkpt lat="45.36613" lon="8.8093683"><ele>121.0</ele><time>2026-04-05T14:07:33.293Z</time></trkpt><trkpt lat="45.3662067" lon="8.8093267"><ele>121.0</ele><time>2026-04-05T14:07:34.292Z</time></trkpt><trkpt lat="45.3662933" lon="8.8093017"><ele>121.00000000000001</ele><time>2026-04-05T14:07:35.292Z</time></trkpt><trkpt lat="45.3663867" lon="8.8092633"><ele>121.0</ele><time>2026-04-05T14:07:36.292Z</time></trkpt><trkpt lat="45.366485" lon="8.8092283"><ele>121.0</ele><time>2026-04-05T14:07:37.293Z</time></trkpt><trkpt lat="45.3665817" lon="8.809205"><ele>121.0</ele><time>2026-04-05T14:07:38.292Z</time></trkpt><trkpt lat="45.3666833" lon="8.8091717"><ele>121.0</ele><time>2026-04-05T14:07:39.293Z</time></trkpt><trkpt lat="45.3667783" lon="8.8091417"><ele>121.0</ele><time>2026-04-05T14:07:40.292Z</time></trkpt><trkpt lat="45.36688" lon="8.8091083"><ele>121.0</ele><time>2026-04-05T14:07:41.293Z</time></trkpt><trkpt lat="45.3669817" lon="8.809075"><ele>121.0</ele><time>2026-04-05T14:07:42.293Z</time></trkpt><trkpt lat="45.3670833" lon="8.80904"><ele>121.0</ele><time>2026-04-05T14:07:43.292Z</time></trkpt><trkpt lat="45.3671833" lon="8.8090017"><ele>121.0</ele><time>2026-04-05T14:07:44.293Z</time></trkpt><trkpt lat="45.36728" lon="8.8089483"><ele>121.0</ele><time>2026-04-05T14:07:45.292Z</time></trkpt><trkpt lat="45.3673767" lon="8.808895"><ele>121.0</ele><time>2026-04-05T14:07:46.292Z</time></trkpt><trkpt lat="45.367465" lon="8.808845"><ele>120.66666666666667</ele><time>2026-04-05T14:07:47.293Z</time></trkpt><trkpt lat="45.367555" lon="8.8088167"><ele>120.33333333333334</ele><time>2026-04-05T14:07:48.292Z</time></trkpt><trkpt lat="45.367635" lon="8.8087917"><ele>120.0</ele><time>2026-04-05T14:07:49.293Z</time></trkpt><trkpt lat="45.367715" lon="8.8087583"><ele>119.66666666666666</ele><time>2026-04-05T14:07:50.292Z</time></trkpt><trkpt lat="45.3677767" lon="8.8087167"><ele>119.33333333333333</ele><time>2026-04-05T14:07:51.292Z</time></trkpt><trkpt lat="45.3678583" lon="8.80868"><ele>119.0</ele><time>2026-04-05T14:07:53.293Z</time></trkpt><trkpt lat="45.367915" lon="8.8086017"><ele>119.16666666666666</ele><time>2026-04-05T14:07:55.293Z</time></trkpt><trkpt lat="45.36792" lon="8.8084617"><ele>119.33333333333333</ele><time>2026-04-05T14:07:57.293Z</time></trkpt><trkpt lat="45.3678983" lon="8.8083717"><ele>119.5</ele><time>2026-04-05T14:07:58.292Z</time></trkpt><trkpt lat="45.3678817" lon="8.80827"><ele>119.66666666666666</ele><time>2026-04-05T14:07:59.293Z</time></trkpt><trkpt lat="45.36786" lon="8.80816"><ele>119.83333333333333</ele><time>2026-04-05T14:08:00.293Z</time></trkpt><trkpt lat="45.3678317" lon="8.808045"><ele>120.0</ele><time>2026-04-05T14:08:01.293Z</time></trkpt><trkpt lat="45.3678" lon="8.8079383"><ele>120.0</ele><time>2026-04-05T14:08:02.293Z</time></trkpt><trkpt lat="45.3677717" lon="8.80783"><ele>120.0</ele><time>2026-04-05T14:08:03.292Z</time></trkpt><trkpt lat="45.3677467" lon="8.8077233"><ele>120.0</ele><time>2026-04-05T14:08:04.293Z</time></trkpt><trkpt lat="45.367725" lon="8.8076183"><ele>120.0</ele><time>2026-04-05T14:08:05.292Z</time></trkpt><trkpt lat="45.3677017" lon="8.807515"><ele>120.0</ele><time>2026-04-05T14:08:06.293Z</time></trkpt><trkpt lat="45.3676783" lon="8.8074183"><ele>120.0</ele><time>2026-04-05T14:08:07.292Z</time></trkpt><trkpt lat="45.3676533" lon="8.807335"><ele>120.0</ele><time>2026-04-05T14:08:08.293Z</time></trkpt><trkpt lat="45.36761" lon="8.8072033"><ele>120.2</ele><time>2026-04-05T14:08:10.292Z</time></trkpt><trkpt lat="45.3675733" lon="8.8070967"><ele>120.4</ele><time>2026-04-05T14:08:13.292Z</time></trkpt><trkpt lat="45.3674717" lon="8.807095"><ele>120.6</ele><time>2026-04-05T14:08:17.292Z</time></trkpt><trkpt lat="45.36735" lon="8.8071583"><ele>120.8</ele><time>2026-04-05T14:08:19.293Z</time></trkpt><trkpt lat="45.3672817" lon="8.8072"><ele>121.0</ele><time>2026-04-05T14:08:20.292Z</time></trkpt><trkpt lat="45.3672033" lon="8.80724"><ele>120.83333333333334</ele><time>2026-04-05T14:08:21.293Z</time></trkpt><trkpt lat="45.3671267" lon="8.8072767"><ele>120.66666666666667</ele><time>2026-04-05T14:08:22.293Z</time></trkpt><trkpt lat="45.3670567" lon="8.8073017"><ele>120.5</ele><time>2026-04-05T14:08:23.293Z</time></trkpt><trkpt lat="45.366995" lon="8.8073417"><ele>120.33333333333334</ele><time>2026-04-05T14:08:24.292Z</time></trkpt><trkpt lat="45.3669067" lon="8.8073683"><ele>120.16666666666667</ele><time>2026-04-05T14:08:26.292Z</time></trkpt><trkpt lat="45.36685" lon="8.8072933"><ele>120.0</ele><time>2026-04-05T14:08:29.293Z</time></trkpt><trkpt lat="45.3668117" lon="8.8071417"><ele>120.0</ele><time>2026-04-05T14:08:31.293Z</time></trkpt><trkpt lat="45.366795" lon="8.8070283"><ele>120.0</ele><time>2026-04-05T14:08:32.293Z</time></trkpt><trkpt lat="45.3667717" lon="8.8069133"><ele>120.0</ele><time>2026-04-05T14:08:33.293Z</time></trkpt><trkpt lat="45.36675" lon="8.806795"><ele>120.0</ele><time>2026-04-05T14:08:34.292Z</time></trkpt><trkpt lat="45.36672" lon="8.80664"><ele>120.0</ele><time>2026-04-05T14:08:35.293Z</time></trkpt><trkpt lat="45.3666783" lon="8.80648"><ele>120.0</ele><time>2026-04-05T14:08:36.292Z</time></trkpt><trkpt lat="45.3666417" lon="8.8063383"><ele>120.0</ele><time>2026-04-05T14:08:37.293Z</time></trkpt><trkpt lat="45.3666117" lon="8.8061867"><ele>120.0</ele><time>2026-04-05T14:08:38.293Z</time></trkpt><trkpt lat="45.366575" lon="8.8060483"><ele>120.0</ele><time>2026-04-05T14:08:39.292Z</time></trkpt><trkpt lat="45.3665433" lon="8.80592"><ele>120.0</ele><time>2026-04-05T14:08:40.293Z</time></trkpt><trkpt lat="45.3665017" lon="8.8057917"><ele>119.8</ele><time>2026-04-05T14:08:41.292Z</time></trkpt><trkpt lat="45.3664617" lon="8.8056717"><ele>119.6</ele><time>2026-04-05T14:08:42.292Z</time></trkpt><trkpt lat="45.3664217" lon="8.8055433"><ele>119.4</ele><time>2026-04-05T14:08:43.293Z</time></trkpt><trkpt lat="45.36638" lon="8.8054183"><ele>119.2</ele><time>2026-04-05T14:08:44.292Z</time></trkpt><trkpt lat="45.3663483" lon="8.805295"><ele>119.0</ele><time>2026-04-05T14:08:45.292Z</time></trkpt><trkpt lat="45.3663117" lon="8.8051867"><ele>119.0</ele><time>2026-04-05T14:08:46.292Z</time></trkpt><trkpt lat="45.3662717" lon="8.8050583"><ele>119.0</ele><time>2026-04-05T14:08:47.292Z</time></trkpt><trkpt lat="45.3662217" lon="8.8049383"><ele>119.0</ele><time>2026-04-05T14:08:48.293Z</time></trkpt><trkpt lat="45.3661817" lon="8.8048"><ele>119.0</ele><time>2026-04-05T14:08:49.292Z</time></trkpt><trkpt lat="45.3661433" lon="8.804675"><ele>119.0</ele><time>2026-04-05T14:08:50.293Z</time></trkpt><trkpt lat="45.3661017" lon="8.8045517"><ele>118.99999999999999</ele><time>2026-04-05T14:08:51.293Z</time></trkpt><trkpt lat="45.366055" lon="8.80443"><ele>119.0</ele><time>2026-04-05T14:08:52.293Z</time></trkpt><trkpt lat="45.36602" lon="8.80432"><ele>119.0</ele><time>2026-04-05T14:08:53.293Z</time></trkpt><trkpt lat="45.3659933" lon="8.804235"><ele>119.0</ele><time>2026-04-05T14:08:54.293Z</time></trkpt><trkpt lat="45.3659467" lon="8.8041033"><ele>118.99999999999999</ele><time>2026-04-05T14:08:56.293Z</time></trkpt><trkpt lat="45.3659033" lon="8.804"><ele>119.0</ele><time>2026-04-05T14:08:58.292Z</time></trkpt><trkpt lat="45.3658917" lon="8.8039117"><ele>119.0</ele><time>2026-04-05T14:09:15.292Z</time></trkpt><trkpt lat="45.3658633" lon="8.8037883"><ele>119.0</ele><time>2026-04-05T14:09:17.292Z</time></trkpt><trkpt lat="45.3658167" lon="8.8036433"><ele>119.0</ele><time>2026-04-05T14:09:19.291Z</time></trkpt><trkpt lat="45.3657867" lon="8.803545"><ele>119.0</ele><time>2026-04-05T14:09:20.292Z</time></trkpt><trkpt lat="45.36576" lon="8.8034333"><ele>119.0</ele><time>2026-04-05T14:09:21.292Z</time></trkpt><trkpt lat="45.3657233" lon="8.8033067"><ele>118.99999999999999</ele><time>2026-04-05T14:09:22.292Z</time></trkpt><trkpt lat="45.3656933" lon="8.8031783"><ele>119.0</ele><time>2026-04-05T14:09:23.291Z</time></trkpt><trkpt lat="45.3656683" lon="8.803065"><ele>119.0</ele><time>2026-04-05T14:09:24.292Z</time></trkpt><trkpt lat="45.3656467" lon="8.802955"><ele>119.0</ele><time>2026-04-05T14:09:25.292Z</time></trkpt><trkpt lat="45.3656183" lon="8.8028433"><ele>118.99999999999999</ele><time>2026-04-05T14:09:26.292Z</time></trkpt><trkpt lat="45.3655867" lon="8.8027433"><ele>119.0</ele><time>2026-04-05T14:09:27.292Z</time></trkpt><trkpt lat="45.3655533" lon="8.8026367"><ele>119.0</ele><time>2026-04-05T14:09:28.292Z</time></trkpt><trkpt lat="45.3655133" lon="8.802525"><ele>119.0</ele><time>2026-04-05T14:09:29.292Z</time></trkpt><trkpt lat="45.3654733" lon="8.802405"><ele>119.0</ele><time>2026-04-05T14:09:30.291Z</time></trkpt><trkpt lat="45.3654417" lon="8.8022783"><ele>119.0</ele><time>2026-04-05T14:09:31.292Z</time></trkpt><trkpt lat="45.3654017" lon="8.8021517"><ele>119.0</ele><time>2026-04-05T14:09:32.291Z</time></trkpt><trkpt lat="45.3653617" lon="8.802015"><ele>119.0</ele><time>2026-04-05T14:09:33.291Z</time></trkpt><trkpt lat="45.3653133" lon="8.80188"><ele>119.0</ele><time>2026-04-05T14:09:34.292Z</time></trkpt><trkpt lat="45.3652617" lon="8.8017383"><ele>119.0</ele><time>2026-04-05T14:09:35.292Z</time></trkpt><trkpt lat="45.3652217" lon="8.8015883"><ele>119.0</ele><time>2026-04-05T14:09:36.292Z</time></trkpt><trkpt lat="45.3651833" lon="8.8014433"><ele>119.0</ele><time>2026-04-05T14:09:37.292Z</time></trkpt><trkpt lat="45.36515" lon="8.8013133"><ele>119.0</ele><time>2026-04-05T14:09:38.292Z</time></trkpt><trkpt lat="45.36511" lon="8.8011883"><ele>119.0</ele><time>2026-04-05T14:09:39.291Z</time></trkpt><trkpt lat="45.3650733" lon="8.8010617"><ele>119.0</ele><time>2026-04-05T14:09:40.292Z</time></trkpt><trkpt lat="45.36504" lon="8.80094"><ele>119.0</ele><time>2026-04-05T14:09:41.292Z</time></trkpt><trkpt lat="45.36501" lon="8.80082"><ele>119.0</ele><time>2026-04-05T14:09:42.291Z</time></trkpt><trkpt lat="45.3649783" lon="8.8007117"><ele>119.0</ele><time>2026-04-05T14:09:43.291Z</time></trkpt><trkpt lat="45.3649483" lon="8.80061"><ele>119.0</ele><time>2026-04-05T14:09:44.292Z</time></trkpt><trkpt lat="45.364925" lon="8.8005117"><ele>119.0</ele><time>2026-04-05T14:09:45.291Z</time></trkpt><trkpt lat="45.3648967" lon="8.8004183"><ele>119.0</ele><time>2026-04-05T14:09:46.291Z</time></trkpt><trkpt lat="45.3648667" lon="8.80032"><ele>119.0</ele><time>2026-04-05T14:09:47.292Z</time></trkpt><trkpt lat="45.364835" lon="8.800225"><ele>119.0</ele><time>2026-04-05T14:09:48.292Z</time></trkpt><trkpt lat="45.364805" lon="8.8001283"><ele>119.0</ele><time>2026-04-05T14:09:49.291Z</time></trkpt><trkpt lat="45.3647833" lon="8.8000383"><ele>118.83333333333333</ele><time>2026-04-05T14:09:50.291Z</time></trkpt><trkpt lat="45.364755" lon="8.7999533"><ele>118.66666666666666</ele><time>2026-04-05T14:09:51.291Z</time></trkpt><trkpt lat="45.3647317" lon="8.79987"><ele>118.5</ele><time>2026-04-05T14:09:52.291Z</time></trkpt><trkpt lat="45.3646867" lon="8.7997083"><ele>118.33333333333334</ele><time>2026-04-05T14:09:54.292Z</time></trkpt><trkpt lat="45.364655" lon="8.7996183"><ele>118.16666666666667</ele><time>2026-04-05T14:09:55.292Z</time></trkpt><trkpt lat="45.3646267" lon="8.7995183"><ele>118.0</ele><time>2026-04-05T14:09:56.291Z</time></trkpt><trkpt lat="45.3646067" lon="8.799425"><ele>118.00000000000001</ele><time>2026-04-05T14:09:57.292Z</time></trkpt><trkpt lat="45.364585" lon="8.7993283"><ele>118.0</ele><time>2026-04-05T14:09:58.292Z</time></trkpt><trkpt lat="45.3645467" lon="8.79919"><ele>118.0</ele><time>2026-04-05T14:10:00.292Z</time></trkpt><trkpt lat="45.3645233" lon="8.799095"><ele>118.0</ele><time>2026-04-05T14:10:02.292Z</time></trkpt><trkpt lat="45.3645033" lon="8.799"><ele>118.00000000000001</ele><time>2026-04-05T14:10:08.291Z</time></trkpt><trkpt lat="45.364445" lon="8.7988333"><ele>118.0</ele><time>2026-04-05T14:10:10.292Z</time></trkpt><trkpt lat="45.364405" lon="8.7987233"><ele>118.0</ele><time>2026-04-05T14:10:11.292Z</time></trkpt><trkpt lat="45.364365" lon="8.7986033"><ele>118.00000000000001</ele><time>2026-04-05T14:10:12.292Z</time></trkpt><trkpt lat="45.3643233" lon="8.7984617"><ele>118.00000000000001</ele><time>2026-04-05T14:10:13.292Z</time></trkpt><trkpt lat="45.36428" lon="8.79832"><ele>118.0</ele><time>2026-04-05T14:10:14.291Z</time></trkpt><trkpt lat="45.36424" lon="8.7981633"><ele>118.0</ele><time>2026-04-05T14:10:15.292Z</time></trkpt><trkpt lat="45.3641933" lon="8.7980067"><ele>118.0</ele><time>2026-04-05T14:10:16.291Z</time></trkpt><trkpt lat="45.3641483" lon="8.7978483"><ele>118.0</ele><time>2026-04-05T14:10:17.291Z</time></trkpt><trkpt lat="45.3641" lon="8.797695"><ele>118.0</ele><time>2026-04-05T14:10:18.292Z</time></trkpt><trkpt lat="45.3640517" lon="8.7975483"><ele>118.0</ele><time>2026-04-05T14:10:19.291Z</time></trkpt><trkpt lat="45.3640083" lon="8.7973883"><ele>118.0</ele><time>2026-04-05T14:10:20.292Z</time></trkpt><trkpt lat="45.363975" lon="8.7972467"><ele>118.00000000000001</ele><time>2026-04-05T14:10:21.291Z</time></trkpt><trkpt lat="45.3639417" lon="8.7971183"><ele>118.00000000000001</ele><time>2026-04-05T14:10:22.292Z</time></trkpt><trkpt lat="45.3639017" lon="8.796985"><ele>118.0</ele><time>2026-04-05T14:10:23.292Z</time></trkpt><trkpt lat="45.36387" lon="8.79687"><ele>118.0</ele><time>2026-04-05T14:10:24.292Z</time></trkpt><trkpt lat="45.363835" lon="8.7967583"><ele>118.00000000000001</ele><time>2026-04-05T14:10:25.292Z</time></trkpt><trkpt lat="45.3638" lon="8.7966433"><ele>118.0</ele><time>2026-04-05T14:10:26.292Z</time></trkpt><trkpt lat="45.363765" lon="8.7965367"><ele>118.0</ele><time>2026-04-05T14:10:27.292Z</time></trkpt><trkpt lat="45.3637283" lon="8.7964183"><ele>118.0</ele><time>2026-04-05T14:10:28.292Z</time></trkpt><trkpt lat="45.363695" lon="8.7962983"><ele>118.00000000000001</ele><time>2026-04-05T14:10:29.291Z</time></trkpt><trkpt lat="45.3636617" lon="8.7961733"><ele>118.0</ele><time>2026-04-05T14:10:30.291Z</time></trkpt><trkpt lat="45.3636217" lon="8.796045"><ele>117.60000000000001</ele><time>2026-04-05T14:10:31.292Z</time></trkpt><trkpt lat="45.3635783" lon="8.7959017"><ele>117.20000000000002</ele><time>2026-04-05T14:10:32.291Z</time></trkpt><trkpt lat="45.3635333" lon="8.7957717"><ele>116.8</ele><time>2026-04-05T14:10:33.291Z</time></trkpt><trkpt lat="45.3634967" lon="8.7956367"><ele>116.4</ele><time>2026-04-05T14:10:34.292Z</time></trkpt><trkpt lat="45.363465" lon="8.7955217"><ele>116.0</ele><time>2026-04-05T14:10:35.291Z</time></trkpt><trkpt lat="45.36343" lon="8.7954033"><ele>116.0</ele><time>2026-04-05T14:10:36.291Z</time></trkpt><trkpt lat="45.3633967" lon="8.795275"><ele>116.0</ele><time>2026-04-05T14:10:37.291Z</time></trkpt><trkpt lat="45.3633583" lon="8.7951517"><ele>116.0</ele><time>2026-04-05T14:10:38.291Z</time></trkpt><trkpt lat="45.3633167" lon="8.7950267"><ele>116.0</ele><time>2026-04-05T14:10:39.292Z</time></trkpt><trkpt lat="45.3632833" lon="8.7948917"><ele>116.0</ele><time>2026-04-05T14:10:40.292Z</time></trkpt><trkpt lat="45.3632517" lon="8.7947633"><ele>116.16666666666666</ele><time>2026-04-05T14:10:41.292Z</time></trkpt><trkpt lat="45.3632233" lon="8.7946533"><ele>116.33333333333333</ele><time>2026-04-05T14:10:42.292Z</time></trkpt><trkpt lat="45.3631933" lon="8.7945567"><ele>116.5</ele><time>2026-04-05T14:10:43.292Z</time></trkpt><trkpt lat="45.3631617" lon="8.794445"><ele>116.66666666666666</ele><time>2026-04-05T14:10:44.291Z</time></trkpt><trkpt lat="45.363125" lon="8.794325"><ele>116.83333333333333</ele><time>2026-04-05T14:10:45.292Z</time></trkpt><trkpt lat="45.3630883" lon="8.7941933"><ele>117.0</ele><time>2026-04-05T14:10:46.291Z</time></trkpt><trkpt lat="45.3630517" lon="8.79407"><ele>117.0</ele><time>2026-04-05T14:10:47.292Z</time></trkpt><trkpt lat="45.36301" lon="8.793945"><ele>116.99999999999999</ele><time>2026-04-05T14:10:48.291Z</time></trkpt><trkpt lat="45.362965" lon="8.79383"><ele>116.99999999999999</ele><time>2026-04-05T14:10:49.292Z</time></trkpt><trkpt lat="45.362915" lon="8.793705"><ele>117.0</ele><time>2026-04-05T14:10:50.291Z</time></trkpt><trkpt lat="45.3628617" lon="8.7935767"><ele>117.0</ele><time>2026-04-05T14:10:51.292Z</time></trkpt><trkpt lat="45.36281" lon="8.7934533"><ele>117.0</ele><time>2026-04-05T14:10:52.292Z</time></trkpt><trkpt lat="45.36276" lon="8.793335"><ele>116.99999999999999</ele><time>2026-04-05T14:10:53.291Z</time></trkpt><trkpt lat="45.3627117" lon="8.7932267"><ele>116.99999999999999</ele><time>2026-04-05T14:10:54.292Z</time></trkpt><trkpt lat="45.3626633" lon="8.7931017"><ele>117.0</ele><time>2026-04-05T14:10:55.291Z</time></trkpt><trkpt lat="45.3626133" lon="8.7929817"><ele>117.0</ele><time>2026-04-05T14:10:56.292Z</time></trkpt><trkpt lat="45.3625617" lon="8.7928633"><ele>117.0</ele><time>2026-04-05T14:10:57.292Z</time></trkpt><trkpt lat="45.3625133" lon="8.7927383"><ele>116.99999999999999</ele><time>2026-04-05T14:10:58.291Z</time></trkpt><trkpt lat="45.3624783" lon="8.7926217"><ele>116.99999999999999</ele><time>2026-04-05T14:10:59.292Z</time></trkpt><trkpt lat="45.3624483" lon="8.79251"><ele>117.0</ele><time>2026-04-05T14:11:00.292Z</time></trkpt><trkpt lat="45.36242" lon="8.7923917"><ele>117.0</ele><time>2026-04-05T14:11:01.291Z</time></trkpt><trkpt lat="45.3623933" lon="8.792265"><ele>117.0</ele><time>2026-04-05T14:11:02.291Z</time></trkpt><trkpt lat="45.3623833" lon="8.7921333"><ele>116.99999999999999</ele><time>2026-04-05T14:11:03.292Z</time></trkpt><trkpt lat="45.36239" lon="8.7919967"><ele>116.99999999999999</ele><time>2026-04-05T14:11:04.291Z</time></trkpt><trkpt lat="45.36242" lon="8.7918433"><ele>117.0</ele><time>2026-04-05T14:11:05.291Z</time></trkpt><trkpt lat="45.3624483" lon="8.7916783"><ele>117.0</ele><time>2026-04-05T14:11:06.292Z</time></trkpt><trkpt lat="45.362495" lon="8.7915217"><ele>116.6</ele><time>2026-04-05T14:11:07.292Z</time></trkpt><trkpt lat="45.3625417" lon="8.7913783"><ele>116.19999999999999</ele><time>2026-04-05T14:11:08.292Z</time></trkpt><trkpt lat="45.36258" lon="8.791235"><ele>115.8</ele><time>2026-04-05T14:11:09.291Z</time></trkpt><trkpt lat="45.3626133" lon="8.7911017"><ele>115.4</ele><time>2026-04-05T14:11:10.291Z</time></trkpt><trkpt lat="45.362645" lon="8.7909683"><ele>115.0</ele><time>2026-04-05T14:11:11.292Z</time></trkpt><trkpt lat="45.3626767" lon="8.7908333"><ele>115.0</ele><time>2026-04-05T14:11:12.292Z</time></trkpt><trkpt lat="45.3627117" lon="8.790705"><ele>115.0</ele><time>2026-04-05T14:11:13.292Z</time></trkpt><trkpt lat="45.3627483" lon="8.79057"><ele>115.0</ele><time>2026-04-05T14:11:14.292Z</time></trkpt><trkpt lat="45.3627933" lon="8.79044"><ele>115.0</ele><time>2026-04-05T14:11:15.291Z</time></trkpt><trkpt lat="45.3628317" lon="8.7903033"><ele>115.0</ele><time>2026-04-05T14:11:16.292Z</time></trkpt><trkpt lat="45.36287" lon="8.7901717"><ele>115.0</ele><time>2026-04-05T14:11:17.292Z</time></trkpt><trkpt lat="45.3629133" lon="8.7900467"><ele>115.0</ele><time>2026-04-05T14:11:18.292Z</time></trkpt><trkpt lat="45.3629633" lon="8.78993"><ele>115.0</ele><time>2026-04-05T14:11:19.292Z</time></trkpt><trkpt lat="45.3630267" lon="8.789835"><ele>115.0</ele><time>2026-04-05T14:11:20.292Z</time></trkpt><trkpt lat="45.3630883" lon="8.7897567"><ele>115.0</ele><time>2026-04-05T14:11:21.291Z</time></trkpt><trkpt lat="45.36316" lon="8.789685"><ele>114.8</ele><time>2026-04-05T14:11:22.291Z</time></trkpt><trkpt lat="45.3632317" lon="8.7896083"><ele>114.6</ele><time>2026-04-05T14:11:23.292Z</time></trkpt><trkpt lat="45.36331" lon="8.78953"><ele>114.4</ele><time>2026-04-05T14:11:24.291Z</time></trkpt><trkpt lat="45.3633983" lon="8.7894467"><ele>114.2</ele><time>2026-04-05T14:11:25.291Z</time></trkpt><trkpt lat="45.3634867" lon="8.7893467"><ele>114.0</ele><time>2026-04-05T14:11:26.291Z</time></trkpt><trkpt lat="45.3635667" lon="8.7892233"><ele>114.0</ele><time>2026-04-05T14:11:27.292Z</time></trkpt><trkpt lat="45.3636467" lon="8.7891017"><ele>114.0</ele><time>2026-04-05T14:11:28.292Z</time></trkpt><trkpt lat="45.3637283" lon="8.78897"><ele>114.0</ele><time>2026-04-05T14:11:29.292Z</time></trkpt><trkpt lat="45.3638083" lon="8.7888383"><ele>114.0</ele><time>2026-04-05T14:11:30.292Z</time></trkpt><trkpt lat="45.36389" lon="8.7887017"><ele>114.0</ele><time>2026-04-05T14:11:31.292Z</time></trkpt><trkpt lat="45.3639633" lon="8.788565"><ele>114.0</ele><time>2026-04-05T14:11:32.292Z</time></trkpt><trkpt lat="45.3640417" lon="8.7884283"><ele>114.0</ele><time>2026-04-05T14:11:33.291Z</time></trkpt><trkpt lat="45.3641117" lon="8.7883"><ele>114.0</ele><time>2026-04-05T14:11:34.292Z</time></trkpt><trkpt lat="45.3641767" lon="8.78818"><ele>114.0</ele><time>2026-04-05T14:11:35.292Z</time></trkpt><trkpt lat="45.364235" lon="8.7880517"><ele>114.0</ele><time>2026-04-05T14:11:36.292Z</time></trkpt><trkpt lat="45.3642883" lon="8.7879267"><ele>114.0</ele><time>2026-04-05T14:11:37.291Z</time></trkpt><trkpt lat="45.3643467" lon="8.7878117"><ele>114.0</ele><time>2026-04-05T14:11:38.292Z</time></trkpt><trkpt lat="45.3643983" lon="8.787685"><ele>114.0</ele><time>2026-04-05T14:11:39.291Z</time></trkpt><trkpt lat="45.3644517" lon="8.787555"><ele>114.0</ele><time>2026-04-05T14:11:40.291Z</time></trkpt><trkpt lat="45.3645117" lon="8.787425"><ele>114.0</ele><time>2026-04-05T14:11:41.291Z</time></trkpt><trkpt lat="45.3645717" lon="8.7872983"><ele>114.0</ele><time>2026-04-05T14:11:42.291Z</time></trkpt><trkpt lat="45.36463" lon="8.7871633"><ele>114.0</ele><time>2026-04-05T14:11:43.291Z</time></trkpt><trkpt lat="45.36468" lon="8.7870367"><ele>114.0</ele><time>2026-04-05T14:11:44.292Z</time></trkpt><trkpt lat="45.3647317" lon="8.7869133"><ele>114.2</ele><time>2026-04-05T14:11:45.291Z</time></trkpt><trkpt lat="45.364785" lon="8.7867983"><ele>114.4</ele><time>2026-04-05T14:11:46.291Z</time></trkpt><trkpt lat="45.3648333" lon="8.7866833"><ele>114.6</ele><time>2026-04-05T14:11:47.291Z</time></trkpt><trkpt lat="45.3648833" lon="8.78657"><ele>114.8</ele><time>2026-04-05T14:11:48.291Z</time></trkpt><trkpt lat="45.364935" lon="8.7864567"><ele>115.0</ele><time>2026-04-05T14:11:49.291Z</time></trkpt><trkpt lat="45.3649817" lon="8.7863417"><ele>115.0</ele><time>2026-04-05T14:11:50.292Z</time></trkpt><trkpt lat="45.3650317" lon="8.7862283"><ele>115.0</ele><time>2026-04-05T14:11:51.291Z</time></trkpt><trkpt lat="45.365085" lon="8.7861167"><ele>115.0</ele><time>2026-04-05T14:11:52.291Z</time></trkpt><trkpt lat="45.3651383" lon="8.7859983"><ele>115.0</ele><time>2026-04-05T14:11:53.291Z</time></trkpt><trkpt lat="45.3651967" lon="8.7858717"><ele>115.0</ele><time>2026-04-05T14:11:54.292Z</time></trkpt><trkpt lat="45.3652533" lon="8.7857383"><ele>115.0</ele><time>2026-04-05T14:11:55.291Z</time></trkpt><trkpt lat="45.36531" lon="8.78561"><ele>115.0</ele><time>2026-04-05T14:11:56.292Z</time></trkpt><trkpt lat="45.365365" lon="8.7854817"><ele>115.0</ele><time>2026-04-05T14:11:57.292Z</time></trkpt><trkpt lat="45.36541" lon="8.7853633"><ele>115.0</ele><time>2026-04-05T14:11:58.292Z</time></trkpt><trkpt lat="45.3654467" lon="8.78524"><ele>115.0</ele><time>2026-04-05T14:11:59.292Z</time></trkpt><trkpt lat="45.3654717" lon="8.7851233"><ele>115.0</ele><time>2026-04-05T14:12:00.291Z</time></trkpt><trkpt lat="45.3654833" lon="8.784995"><ele>115.0</ele><time>2026-04-05T14:12:01.292Z</time></trkpt><trkpt lat="45.3654783" lon="8.7848483"><ele>115.0</ele><time>2026-04-05T14:12:02.291Z</time></trkpt><trkpt lat="45.3654683" lon="8.7847117"><ele>115.0</ele><time>2026-04-05T14:12:03.292Z</time></trkpt><trkpt lat="45.3654467" lon="8.784565"><ele>115.0</ele><time>2026-04-05T14:12:04.292Z</time></trkpt><trkpt lat="45.365425" lon="8.7844117"><ele>115.2</ele><time>2026-04-05T14:12:05.292Z</time></trkpt><trkpt lat="45.3653983" lon="8.78426"><ele>115.4</ele><time>2026-04-05T14:12:06.291Z</time></trkpt><trkpt lat="45.3653717" lon="8.7841317"><ele>115.6</ele><time>2026-04-05T14:12:07.291Z</time></trkpt><trkpt lat="45.3653517" lon="8.7840033"><ele>115.8</ele><time>2026-04-05T14:12:08.292Z</time></trkpt><trkpt lat="45.365335" lon="8.783885"><ele>116.0</ele><time>2026-04-05T14:12:09.292Z</time></trkpt><trkpt lat="45.365315" lon="8.7837617"><ele>115.99999999999999</ele><time>2026-04-05T14:12:10.291Z</time></trkpt><trkpt lat="45.365295" lon="8.78363"><ele>116.0</ele><time>2026-04-05T14:12:11.291Z</time></trkpt><trkpt lat="45.3652783" lon="8.7835"><ele>116.0</ele><time>2026-04-05T14:12:12.292Z</time></trkpt><trkpt lat="45.3652683" lon="8.783375"><ele>116.0</ele><time>2026-04-05T14:12:13.291Z</time></trkpt><trkpt lat="45.3652617" lon="8.7832533"><ele>115.99999999999999</ele><time>2026-04-05T14:12:14.292Z</time></trkpt><trkpt lat="45.3652733" lon="8.7831417"><ele>116.0</ele><time>2026-04-05T14:12:15.291Z</time></trkpt><trkpt lat="45.36529" lon="8.7830367"><ele>115.99999999999999</ele><time>2026-04-05T14:12:16.292Z</time></trkpt><trkpt lat="45.365315" lon="8.7829333"><ele>116.0</ele><time>2026-04-05T14:12:17.292Z</time></trkpt><trkpt lat="45.365355" lon="8.7828367"><ele>116.0</ele><time>2026-04-05T14:12:18.291Z</time></trkpt><trkpt lat="45.3653983" lon="8.7827383"><ele>116.0</ele><time>2026-04-05T14:12:19.291Z</time></trkpt><trkpt lat="45.3654483" lon="8.7826367"><ele>115.99999999999999</ele><time>2026-04-05T14:12:20.291Z</time></trkpt><trkpt lat="45.3655033" lon="8.7825283"><ele>116.0</ele><time>2026-04-05T14:12:21.292Z</time></trkpt><trkpt lat="45.3655617" lon="8.7824067"><ele>116.0</ele><time>2026-04-05T14:12:22.292Z</time></trkpt><trkpt lat="45.3656283" lon="8.782285"><ele>116.0</ele><time>2026-04-05T14:12:23.291Z</time></trkpt><trkpt lat="45.3656933" lon="8.7821517"><ele>116.0</ele><time>2026-04-05T14:12:24.292Z</time></trkpt><trkpt lat="45.3657617" lon="8.7820133"><ele>116.0</ele><time>2026-04-05T14:12:25.292Z</time></trkpt><trkpt lat="45.3658367" lon="8.7818667"><ele>116.0</ele><time>2026-04-05T14:12:26.292Z</time></trkpt><trkpt lat="45.3659117" lon="8.781725"><ele>116.0</ele><time>2026-04-05T14:12:27.291Z</time></trkpt><trkpt lat="45.3659817" lon="8.78159"><ele>116.0</ele><time>2026-04-05T14:12:28.292Z</time></trkpt><trkpt lat="45.36605" lon="8.781455"><ele>116.0</ele><time>2026-04-05T14:12:29.291Z</time></trkpt><trkpt lat="45.3661117" lon="8.78133"><ele>116.0</ele><time>2026-04-05T14:12:30.292Z</time></trkpt><trkpt lat="45.3661733" lon="8.7812133"><ele>116.0</ele><time>2026-04-05T14:12:31.292Z</time></trkpt><trkpt lat="45.366235" lon="8.7810967"><ele>116.0</ele><time>2026-04-05T14:12:32.291Z</time></trkpt><trkpt lat="45.3662883" lon="8.780985"><ele>116.0</ele><time>2026-04-05T14:12:33.291Z</time></trkpt><trkpt lat="45.366345" lon="8.7808667"><ele>116.0</ele><time>2026-04-05T14:12:34.292Z</time></trkpt><trkpt lat="45.3664017" lon="8.7807467"><ele>115.8</ele><time>2026-04-05T14:12:35.291Z</time></trkpt><trkpt lat="45.3664633" lon="8.7806217"><ele>115.6</ele><time>2026-04-05T14:12:36.292Z</time></trkpt><trkpt lat="45.366525" lon="8.7805"><ele>115.4</ele><time>2026-04-05T14:12:37.292Z</time></trkpt><trkpt lat="45.3665867" lon="8.780375"><ele>115.2</ele><time>2026-04-05T14:12:38.291Z</time></trkpt><trkpt lat="45.36665" lon="8.7802433"><ele>115.0</ele><time>2026-04-05T14:12:39.291Z</time></trkpt><trkpt lat="45.3667067" lon="8.7801117"><ele>115.0</ele><time>2026-04-05T14:12:40.292Z</time></trkpt><trkpt lat="45.3667633" lon="8.7799917"><ele>115.0</ele><time>2026-04-05T14:12:41.291Z</time></trkpt><trkpt lat="45.3668183" lon="8.77987"><ele>115.0</ele><time>2026-04-05T14:12:42.292Z</time></trkpt><trkpt lat="45.3668767" lon="8.7797633"><ele>115.0</ele><time>2026-04-05T14:12:43.291Z</time></trkpt><trkpt lat="45.3669333" lon="8.7796567"><ele>115.0</ele><time>2026-04-05T14:12:44.292Z</time></trkpt><trkpt lat="45.3669933" lon="8.7795467"><ele>115.0</ele><time>2026-04-05T14:12:45.292Z</time></trkpt><trkpt lat="45.3670517" lon="8.7794267"><ele>115.0</ele><time>2026-04-05T14:12:46.292Z</time></trkpt><trkpt lat="45.367115" lon="8.7793083"><ele>115.0</ele><time>2026-04-05T14:12:47.291Z</time></trkpt><trkpt lat="45.3671767" lon="8.7791817"><ele>115.0</ele><time>2026-04-05T14:12:48.292Z</time></trkpt><trkpt lat="45.3672367" lon="8.779055"><ele>115.0</ele><time>2026-04-05T14:12:49.291Z</time></trkpt><trkpt lat="45.3672933" lon="8.7789267"><ele>115.2</ele><time>2026-04-05T14:12:50.291Z</time></trkpt><trkpt lat="45.3673533" lon="8.7788117"><ele>115.4</ele><time>2026-04-05T14:12:51.292Z</time></trkpt><trkpt lat="45.3673933" lon="8.7786967"><ele>115.6</ele><time>2026-04-05T14:12:52.291Z</time></trkpt><trkpt lat="45.367425" lon="8.77858"><ele>115.8</ele><time>2026-04-05T14:12:53.292Z</time></trkpt><trkpt lat="45.3674533" lon="8.778455"><ele>116.0</ele><time>2026-04-05T14:12:54.291Z</time></trkpt><trkpt lat="45.3674717" lon="8.7783183"><ele>116.0</ele><time>2026-04-05T14:12:55.291Z</time></trkpt><trkpt lat="45.3674833" lon="8.7781683"><ele>116.0</ele><time>2026-04-05T14:12:56.292Z</time></trkpt><trkpt lat="45.3674883" lon="8.7780267"><ele>116.0</ele><time>2026-04-05T14:12:57.292Z</time></trkpt><trkpt lat="45.3674883" lon="8.77789"><ele>116.0</ele><time>2026-04-05T14:12:58.292Z</time></trkpt><trkpt lat="45.3674917" lon="8.77776"><ele>116.0</ele><time>2026-04-05T14:12:59.291Z</time></trkpt><trkpt lat="45.3674967" lon="8.7776267"><ele>116.0</ele><time>2026-04-05T14:13:00.291Z</time></trkpt><trkpt lat="45.3675" lon="8.777495"><ele>116.0</ele><time>2026-04-05T14:13:01.292Z</time></trkpt><trkpt lat="45.3675" lon="8.777355"><ele>116.0</ele><time>2026-04-05T14:13:02.292Z</time></trkpt><trkpt lat="45.3674983" lon="8.7772167"><ele>116.0</ele><time>2026-04-05T14:13:03.291Z</time></trkpt><trkpt lat="45.3674967" lon="8.7770683"><ele>116.0</ele><time>2026-04-05T14:13:04.291Z</time></trkpt><trkpt lat="45.367495" lon="8.7769217"><ele>116.0</ele><time>2026-04-05T14:13:05.292Z</time></trkpt><trkpt lat="45.3674867" lon="8.77676"><ele>116.0</ele><time>2026-04-05T14:13:06.291Z</time></trkpt><trkpt lat="45.367475" lon="8.7766"><ele>116.0</ele><time>2026-04-05T14:13:07.292Z</time></trkpt><trkpt lat="45.367455" lon="8.77644"><ele>116.0</ele><time>2026-04-05T14:13:08.292Z</time></trkpt><trkpt lat="45.3674183" lon="8.7762783"><ele>116.0</ele><time>2026-04-05T14:13:09.291Z</time></trkpt><trkpt lat="45.36737" lon="8.7761117"><ele>116.0</ele><time>2026-04-05T14:13:10.292Z</time></trkpt><trkpt lat="45.367315" lon="8.7759517"><ele>116.0</ele><time>2026-04-05T14:13:11.291Z</time></trkpt><trkpt lat="45.367265" lon="8.7758"><ele>116.0</ele><time>2026-04-05T14:13:12.292Z</time></trkpt><trkpt lat="45.3672183" lon="8.77564"><ele>116.19999999999999</ele><time>2026-04-05T14:13:13.292Z</time></trkpt><trkpt lat="45.3671783" lon="8.7754917"><ele>116.39999999999999</ele><time>2026-04-05T14:13:14.292Z</time></trkpt><trkpt lat="45.3671367" lon="8.7753467"><ele>116.6</ele><time>2026-04-05T14:13:15.291Z</time></trkpt><trkpt lat="45.3670967" lon="8.7752167"><ele>116.8</ele><time>2026-04-05T14:13:16.292Z</time></trkpt><trkpt lat="45.3670567" lon="8.7750833"><ele>117.0</ele><time>2026-04-05T14:13:17.291Z</time></trkpt><trkpt lat="45.3670167" lon="8.7749517"><ele>117.0</ele><time>2026-04-05T14:13:18.292Z</time></trkpt><trkpt lat="45.3669767" lon="8.7748083"><ele>116.99999999999999</ele><time>2026-04-05T14:13:19.292Z</time></trkpt><trkpt lat="45.366935" lon="8.774665"><ele>116.99999999999999</ele><time>2026-04-05T14:13:20.292Z</time></trkpt><trkpt lat="45.36689" lon="8.7745267"><ele>117.0</ele><time>2026-04-05T14:13:21.291Z</time></trkpt><trkpt lat="45.366845" lon="8.774375"><ele>117.0</ele><time>2026-04-05T14:13:22.291Z</time></trkpt><trkpt lat="45.3667917" lon="8.7742117"><ele>117.0</ele><time>2026-04-05T14:13:23.292Z</time></trkpt><trkpt lat="45.3667417" lon="8.7740617"><ele>116.99999999999999</ele><time>2026-04-05T14:13:24.292Z</time></trkpt><trkpt lat="45.3666983" lon="8.7739067"><ele>116.99999999999999</ele><time>2026-04-05T14:13:25.291Z</time></trkpt><trkpt lat="45.366655" lon="8.7737667"><ele>117.0</ele><time>2026-04-05T14:13:26.291Z</time></trkpt><trkpt lat="45.3666117" lon="8.7736317"><ele>117.0</ele><time>2026-04-05T14:13:27.291Z</time></trkpt><trkpt lat="45.3665717" lon="8.7734983"><ele>117.0</ele><time>2026-04-05T14:13:28.292Z</time></trkpt><trkpt lat="45.366535" lon="8.773365"><ele>116.99999999999999</ele><time>2026-04-05T14:13:29.292Z</time></trkpt><trkpt lat="45.3664933" lon="8.7732383"><ele>116.99999999999999</ele><time>2026-04-05T14:13:30.291Z</time></trkpt><trkpt lat="45.366455" lon="8.7731133"><ele>117.0</ele><time>2026-04-05T14:13:31.291Z</time></trkpt><trkpt lat="45.3664167" lon="8.7729833"><ele>117.0</ele><time>2026-04-05T14:13:32.292Z</time></trkpt><trkpt lat="45.3663833" lon="8.7728583"><ele>116.8</ele><time>2026-04-05T14:13:33.291Z</time></trkpt><trkpt lat="45.3663433" lon="8.772725"><ele>116.6</ele><time>2026-04-05T14:13:34.292Z</time></trkpt><trkpt lat="45.3663033" lon="8.7725883"><ele>116.39999999999999</ele><time>2026-04-05T14:13:35.292Z</time></trkpt><trkpt lat="45.3662617" lon="8.7724533"><ele>116.19999999999999</ele><time>2026-04-05T14:13:36.291Z</time></trkpt><trkpt lat="45.36622" lon="8.772325"><ele>116.0</ele><time>2026-04-05T14:13:37.292Z</time></trkpt><trkpt lat="45.3661817" lon="8.7722017"><ele>116.0</ele><time>2026-04-05T14:13:38.291Z</time></trkpt><trkpt lat="45.366145" lon="8.7720783"><ele>116.0</ele><time>2026-04-05T14:13:39.292Z</time></trkpt><trkpt lat="45.36611" lon="8.7719483"><ele>116.0</ele><time>2026-04-05T14:13:40.291Z</time></trkpt><trkpt lat="45.3660783" lon="8.7718217"><ele>116.0</ele><time>2026-04-05T14:13:41.291Z</time></trkpt><trkpt lat="45.366045" lon="8.771685"><ele>116.0</ele><time>2026-04-05T14:13:42.292Z</time></trkpt><trkpt lat="45.36601" lon="8.7715383"><ele>116.0</ele><time>2026-04-05T14:13:43.292Z</time></trkpt><trkpt lat="45.365975" lon="8.771385"><ele>116.0</ele><time>2026-04-05T14:13:44.291Z</time></trkpt><trkpt lat="45.365955" lon="8.7712267"><ele>116.0</ele><time>2026-04-05T14:13:45.291Z</time></trkpt><trkpt lat="45.3659583" lon="8.771055"><ele>116.0</ele><time>2026-04-05T14:13:46.291Z</time></trkpt><trkpt lat="45.36596" lon="8.77087"><ele>115.75</ele><time>2026-04-05T14:13:47.291Z</time></trkpt><trkpt lat="45.3659567" lon="8.77069"><ele>115.5</ele><time>2026-04-05T14:13:48.291Z</time></trkpt><trkpt lat="45.365955" lon="8.7705217"><ele>115.25</ele><time>2026-04-05T14:13:49.291Z</time></trkpt><trkpt lat="45.3659567" lon="8.7703683"><ele>115.0</ele><time>2026-04-05T14:13:50.292Z</time></trkpt><trkpt lat="45.3659617" lon="8.77021"><ele>115.5</ele><time>2026-04-05T14:13:51.292Z</time></trkpt><trkpt lat="45.365965" lon="8.770045"><ele>116.0</ele><time>2026-04-05T14:13:52.292Z</time></trkpt><trkpt lat="45.365965" lon="8.7698867"><ele>116.5</ele><time>2026-04-05T14:13:53.291Z</time></trkpt><trkpt lat="45.3659617" lon="8.7697217"><ele>117.0</ele><time>2026-04-05T14:13:54.291Z</time></trkpt><trkpt lat="45.36596" lon="8.7695567"><ele>117.0</ele><time>2026-04-05T14:13:55.292Z</time></trkpt><trkpt lat="45.36596" lon="8.7693933"><ele>117.0</ele><time>2026-04-05T14:13:56.291Z</time></trkpt><trkpt lat="45.3659583" lon="8.7692317"><ele>117.0</ele><time>2026-04-05T14:13:57.291Z</time></trkpt><trkpt lat="45.3659583" lon="8.7690633"><ele>117.0</ele><time>2026-04-05T14:13:58.291Z</time></trkpt><trkpt lat="45.3659583" lon="8.7689083"><ele>116.8</ele><time>2026-04-05T14:13:59.292Z</time></trkpt><trkpt lat="45.3659617" lon="8.768765"><ele>116.6</ele><time>2026-04-05T14:14:00.291Z</time></trkpt><trkpt lat="45.3659633" lon="8.7686283"><ele>116.39999999999999</ele><time>2026-04-05T14:14:01.291Z</time></trkpt><trkpt lat="45.3659633" lon="8.7684867"><ele>116.19999999999999</ele><time>2026-04-05T14:14:02.292Z</time></trkpt><trkpt lat="45.365965" lon="8.768355"><ele>116.0</ele><time>2026-04-05T14:14:03.292Z</time></trkpt><trkpt lat="45.365965" lon="8.768225"><ele>116.0</ele><time>2026-04-05T14:14:04.292Z</time></trkpt><trkpt lat="45.3659667" lon="8.7680917"><ele>116.0</ele><time>2026-04-05T14:14:05.292Z</time></trkpt><trkpt lat="45.3659633" lon="8.7679533"><ele>116.0</ele><time>2026-04-05T14:14:06.291Z</time></trkpt><trkpt lat="45.3659667" lon="8.7678083"><ele>116.0</ele><time>2026-04-05T14:14:07.291Z</time></trkpt><trkpt lat="45.3659683" lon="8.7676667"><ele>116.0</ele><time>2026-04-05T14:14:08.291Z</time></trkpt><trkpt lat="45.3659683" lon="8.76752"><ele>116.0</ele><time>2026-04-05T14:14:09.291Z</time></trkpt><trkpt lat="45.3659633" lon="8.76736"><ele>116.0</ele><time>2026-04-05T14:14:10.292Z</time></trkpt><trkpt lat="45.3659667" lon="8.7672"><ele>116.0</ele><time>2026-04-05T14:14:11.291Z</time></trkpt><trkpt lat="45.3659667" lon="8.7670467"><ele>116.0</ele><time>2026-04-05T14:14:12.292Z</time></trkpt><trkpt lat="45.3659683" lon="8.7669017"><ele>116.0</ele><time>2026-04-05T14:14:13.291Z</time></trkpt><trkpt lat="45.3659733" lon="8.7667483"><ele>116.0</ele><time>2026-04-05T14:14:14.292Z</time></trkpt><trkpt lat="45.365975" lon="8.7665933"><ele>116.0</ele><time>2026-04-05T14:14:15.291Z</time></trkpt><trkpt lat="45.3659733" lon="8.7664317"><ele>116.0</ele><time>2026-04-05T14:14:16.291Z</time></trkpt><trkpt lat="45.36597" lon="8.7662633"><ele>116.0</ele><time>2026-04-05T14:14:17.292Z</time></trkpt><trkpt lat="45.3659683" lon="8.7661"><ele>116.0</ele><time>2026-04-05T14:14:18.292Z</time></trkpt><trkpt lat="45.3659767" lon="8.7659267"><ele>116.0</ele><time>2026-04-05T14:14:19.292Z</time></trkpt><trkpt lat="45.36598" lon="8.7657717"><ele>116.0</ele><time>2026-04-05T14:14:20.292Z</time></trkpt><trkpt lat="45.3659917" lon="8.7656183"><ele>116.0</ele><time>2026-04-05T14:14:21.292Z</time></trkpt><trkpt lat="45.3659933" lon="8.7654783"><ele>116.0</ele><time>2026-04-05T14:14:22.292Z</time></trkpt><trkpt lat="45.3659933" lon="8.7653417"><ele>116.0</ele><time>2026-04-05T14:14:23.292Z</time></trkpt><trkpt lat="45.3659933" lon="8.765205"><ele>116.0</ele><time>2026-04-05T14:14:24.291Z</time></trkpt><trkpt lat="45.3659817" lon="8.7649333"><ele>116.0</ele><time>2026-04-05T14:14:26.292Z</time></trkpt><trkpt lat="45.3659767" lon="8.7647917"><ele>116.0</ele><time>2026-04-05T14:14:27.292Z</time></trkpt><trkpt lat="45.3659783" lon="8.764645"><ele>116.0</ele><time>2026-04-05T14:14:28.292Z</time></trkpt><trkpt lat="45.3659783" lon="8.7644967"><ele>116.0</ele><time>2026-04-05T14:14:29.292Z</time></trkpt><trkpt lat="45.3659767" lon="8.76435"><ele>116.0</ele><time>2026-04-05T14:14:30.292Z</time></trkpt><trkpt lat="45.36598" lon="8.764185"><ele>116.0</ele><time>2026-04-05T14:14:31.292Z</time></trkpt><trkpt lat="45.365975" lon="8.764015"><ele>116.0</ele><time>2026-04-05T14:14:32.292Z</time></trkpt><trkpt lat="45.365975" lon="8.7638417"><ele>116.5</ele><time>2026-04-05T14:14:33.292Z</time></trkpt><trkpt lat="45.3659783" lon="8.7636767"><ele>117.0</ele><time>2026-04-05T14:14:34.291Z</time></trkpt><trkpt lat="45.365975" lon="8.76351"><ele>117.5</ele><time>2026-04-05T14:14:35.292Z</time></trkpt><trkpt lat="45.3659817" lon="8.7633517"><ele>118.0</ele><time>2026-04-05T14:14:36.292Z</time></trkpt><trkpt lat="45.3659833" lon="8.7631817"><ele>118.0</ele><time>2026-04-05T14:14:37.292Z</time></trkpt><trkpt lat="45.3659917" lon="8.76302"><ele>118.00000000000001</ele><time>2026-04-05T14:14:38.291Z</time></trkpt><trkpt lat="45.3659917" lon="8.7628667"><ele>118.00000000000001</ele><time>2026-04-05T14:14:39.292Z</time></trkpt><trkpt lat="45.3660017" lon="8.7627233"><ele>118.0</ele><time>2026-04-05T14:14:40.292Z</time></trkpt><trkpt lat="45.3660067" lon="8.7625683"><ele>118.0</ele><time>2026-04-05T14:14:41.291Z</time></trkpt><trkpt lat="45.3660167" lon="8.762415"><ele>117.5</ele><time>2026-04-05T14:14:42.292Z</time></trkpt><trkpt lat="45.3660217" lon="8.7622483"><ele>117.0</ele><time>2026-04-05T14:14:43.291Z</time></trkpt><trkpt lat="45.3660283" lon="8.76209"><ele>116.5</ele><time>2026-04-05T14:14:44.292Z</time></trkpt><trkpt lat="45.36603" lon="8.76192"><ele>116.0</ele><time>2026-04-05T14:14:45.291Z</time></trkpt><trkpt lat="45.36603" lon="8.7617433"><ele>116.0</ele><time>2026-04-05T14:14:46.291Z</time></trkpt><trkpt lat="45.36603" lon="8.7615617"><ele>116.0</ele><time>2026-04-05T14:14:47.292Z</time></trkpt><trkpt lat="45.366025" lon="8.7613867"><ele>116.0</ele><time>2026-04-05T14:14:48.292Z</time></trkpt><trkpt lat="45.3660217" lon="8.7612167"><ele>116.0</ele><time>2026-04-05T14:14:49.291Z</time></trkpt><trkpt lat="45.366015" lon="8.7610517"><ele>116.4</ele><time>2026-04-05T14:14:50.292Z</time></trkpt><trkpt lat="45.3660067" lon="8.7608983"><ele>116.8</ele><time>2026-04-05T14:14:51.292Z</time></trkpt><trkpt lat="45.3660017" lon="8.760755"><ele>117.20000000000002</ele><time>2026-04-05T14:14:52.291Z</time></trkpt><trkpt lat="45.365995" lon="8.7606167"><ele>117.60000000000001</ele><time>2026-04-05T14:14:53.291Z</time></trkpt><trkpt lat="45.365985" lon="8.7604733"><ele>118.0</ele><time>2026-04-05T14:14:54.291Z</time></trkpt><trkpt lat="45.3659733" lon="8.7603267"><ele>117.75</ele><time>2026-04-05T14:14:55.292Z</time></trkpt><trkpt lat="45.3659633" lon="8.7601733"><ele>117.5</ele><time>2026-04-05T14:14:56.291Z</time></trkpt><trkpt lat="45.3659533" lon="8.760005"><ele>117.25</ele><time>2026-04-05T14:14:57.292Z</time></trkpt><trkpt lat="45.365945" lon="8.759835"><ele>117.0</ele><time>2026-04-05T14:14:58.292Z</time></trkpt><trkpt lat="45.36593" lon="8.759665"><ele>117.0</ele><time>2026-04-05T14:14:59.291Z</time></trkpt><trkpt lat="45.365915" lon="8.7594983"><ele>116.99999999999999</ele><time>2026-04-05T14:15:00.291Z</time></trkpt><trkpt lat="45.3659017" lon="8.7593467"><ele>116.99999999999999</ele><time>2026-04-05T14:15:01.292Z</time></trkpt><trkpt lat="45.3659067" lon="8.7591933"><ele>117.0</ele><time>2026-04-05T14:15:02.292Z</time></trkpt><trkpt lat="45.3659017" lon="8.759035"><ele>117.0</ele><time>2026-04-05T14:15:03.292Z</time></trkpt><trkpt lat="45.3658983" lon="8.7588817"><ele>117.0</ele><time>2026-04-05T14:15:04.291Z</time></trkpt><trkpt lat="45.3658917" lon="8.7587333"><ele>116.99999999999999</ele><time>2026-04-05T14:15:05.291Z</time></trkpt><trkpt lat="45.3658883" lon="8.7585783"><ele>116.99999999999999</ele><time>2026-04-05T14:15:06.292Z</time></trkpt><trkpt lat="45.3658833" lon="8.7584267"><ele>117.0</ele><time>2026-04-05T14:15:07.292Z</time></trkpt><trkpt lat="45.3658767" lon="8.758275"><ele>117.0</ele><time>2026-04-05T14:15:08.292Z</time></trkpt><trkpt lat="45.3658683" lon="8.758115"><ele>117.0</ele><time>2026-04-05T14:15:09.291Z</time></trkpt><trkpt lat="45.3658633" lon="8.7579567"><ele>117.0</ele><time>2026-04-05T14:15:10.291Z</time></trkpt><trkpt lat="45.36585" lon="8.7577967"><ele>117.0</ele><time>2026-04-05T14:15:11.291Z</time></trkpt><trkpt lat="45.3658383" lon="8.7576317"><ele>117.0</ele><time>2026-04-05T14:15:12.292Z</time></trkpt><trkpt lat="45.3658283" lon="8.7574633"><ele>117.0</ele><time>2026-04-05T14:15:13.292Z</time></trkpt><trkpt lat="45.3658233" lon="8.7573017"><ele>116.99999999999999</ele><time>2026-04-05T14:15:14.291Z</time></trkpt><trkpt lat="45.365815" lon="8.7571317"><ele>116.99999999999999</ele><time>2026-04-05T14:15:15.291Z</time></trkpt><trkpt lat="45.3658133" lon="8.7569733"><ele>117.0</ele><time>2026-04-05T14:15:16.291Z</time></trkpt><trkpt lat="45.36581" lon="8.756825"><ele>117.0</ele><time>2026-04-05T14:15:17.292Z</time></trkpt><trkpt lat="45.3658017" lon="8.7566767"><ele>117.19999999999999</ele><time>2026-04-05T14:15:18.292Z</time></trkpt><trkpt lat="45.3657933" lon="8.7565283"><ele>117.39999999999999</ele><time>2026-04-05T14:15:19.291Z</time></trkpt><trkpt lat="45.365785" lon="8.7563883"><ele>117.60000000000001</ele><time>2026-04-05T14:15:20.292Z</time></trkpt><trkpt lat="45.3657867" lon="8.7562467"><ele>117.80000000000001</ele><time>2026-04-05T14:15:21.292Z</time></trkpt><trkpt lat="45.3657833" lon="8.756095"><ele>118.0</ele><time>2026-04-05T14:15:22.291Z</time></trkpt><trkpt lat="45.3657717" lon="8.7559467"><ele>118.0</ele><time>2026-04-05T14:15:23.291Z</time></trkpt><trkpt lat="45.3657667" lon="8.7557967"><ele>118.00000000000001</ele><time>2026-04-05T14:15:24.292Z</time></trkpt><trkpt lat="45.3657617" lon="8.7556467"><ele>118.00000000000001</ele><time>2026-04-05T14:15:25.291Z</time></trkpt><trkpt lat="45.3657583" lon="8.7554867"><ele>118.0</ele><time>2026-04-05T14:15:26.292Z</time></trkpt><trkpt lat="45.365755" lon="8.7553317"><ele>118.0</ele><time>2026-04-05T14:15:27.291Z</time></trkpt><trkpt lat="45.365745" lon="8.75519"><ele>117.80000000000001</ele><time>2026-04-05T14:15:28.291Z</time></trkpt><trkpt lat="45.3657367" lon="8.755045"><ele>117.60000000000001</ele><time>2026-04-05T14:15:29.291Z</time></trkpt><trkpt lat="45.3657283" lon="8.7549033"><ele>117.39999999999999</ele><time>2026-04-05T14:15:30.291Z</time></trkpt><trkpt lat="45.3657217" lon="8.754765"><ele>117.19999999999999</ele><time>2026-04-05T14:15:31.292Z</time></trkpt><trkpt lat="45.3657167" lon="8.754635"><ele>117.0</ele><time>2026-04-05T14:15:32.292Z</time></trkpt><trkpt lat="45.3657117" lon="8.7545067"><ele>117.0</ele><time>2026-04-05T14:15:33.292Z</time></trkpt><trkpt lat="45.3657033" lon="8.7543717"><ele>116.99999999999999</ele><time>2026-04-05T14:15:34.291Z</time></trkpt><trkpt lat="45.3656917" lon="8.7542333"><ele>116.99999999999999</ele><time>2026-04-05T14:15:35.291Z</time></trkpt><trkpt lat="45.3656783" lon="8.7541033"><ele>117.0</ele><time>2026-04-05T14:15:36.292Z</time></trkpt><trkpt lat="45.3656683" lon="8.75397"><ele>117.0</ele><time>2026-04-05T14:15:37.292Z</time></trkpt><trkpt lat="45.3656617" lon="8.7538283"><ele>117.0</ele><time>2026-04-05T14:15:38.291Z</time></trkpt><trkpt lat="45.3656633" lon="8.7536817"><ele>116.99999999999999</ele><time>2026-04-05T14:15:39.292Z</time></trkpt><trkpt lat="45.3656633" lon="8.7535433"><ele>116.99999999999999</ele><time>2026-04-05T14:15:40.292Z</time></trkpt><trkpt lat="45.3656617" lon="8.7534"><ele>117.0</ele><time>2026-04-05T14:15:41.291Z</time></trkpt><trkpt lat="45.3656567" lon="8.7532767"><ele>117.0</ele><time>2026-04-05T14:15:42.292Z</time></trkpt><trkpt lat="45.3656567" lon="8.753155"><ele>117.0</ele><time>2026-04-05T14:15:43.292Z</time></trkpt><trkpt lat="45.3656483" lon="8.75304"><ele>117.0</ele><time>2026-04-05T14:15:44.291Z</time></trkpt><trkpt lat="45.3656417" lon="8.7529283"><ele>117.0</ele><time>2026-04-05T14:15:45.292Z</time></trkpt><trkpt lat="45.3656333" lon="8.7528233"><ele>117.0</ele><time>2026-04-05T14:15:46.292Z</time></trkpt><trkpt lat="45.3656267" lon="8.7527183"><ele>117.0</ele><time>2026-04-05T14:15:47.292Z</time></trkpt><trkpt lat="45.3656183" lon="8.7526067"><ele>117.0</ele><time>2026-04-05T14:15:48.291Z</time></trkpt><trkpt lat="45.3656133" lon="8.75249"><ele>117.19999999999999</ele><time>2026-04-05T14:15:49.292Z</time></trkpt><trkpt lat="45.3656033" lon="8.7523633"><ele>117.39999999999999</ele><time>2026-04-05T14:15:50.292Z</time></trkpt><trkpt lat="45.3655867" lon="8.7522367"><ele>117.60000000000001</ele><time>2026-04-05T14:15:51.292Z</time></trkpt><trkpt lat="45.3655583" lon="8.7521067"><ele>117.80000000000001</ele><time>2026-04-05T14:15:52.292Z</time></trkpt><trkpt lat="45.3655383" lon="8.751975"><ele>118.0</ele><time>2026-04-05T14:15:53.291Z</time></trkpt><trkpt lat="45.3655117" lon="8.7518467"><ele>118.33333333333334</ele><time>2026-04-05T14:15:54.291Z</time></trkpt><trkpt lat="45.3654867" lon="8.7517317"><ele>118.66666666666667</ele><time>2026-04-05T14:15:55.292Z</time></trkpt><trkpt lat="45.3654583" lon="8.7516133"><ele>119.0</ele><time>2026-04-05T14:15:56.291Z</time></trkpt><trkpt lat="45.3654317" lon="8.7515017"><ele>119.33333333333334</ele><time>2026-04-05T14:15:57.291Z</time></trkpt><trkpt lat="45.3654017" lon="8.7513983"><ele>119.66666666666667</ele><time>2026-04-05T14:15:58.292Z</time></trkpt><trkpt lat="45.365365" lon="8.7513"><ele>120.0</ele><time>2026-04-05T14:15:59.292Z</time></trkpt><trkpt lat="45.36533" lon="8.7512"><ele>120.0</ele><time>2026-04-05T14:16:00.291Z</time></trkpt><trkpt lat="45.3652883" lon="8.7511233"><ele>120.0</ele><time>2026-04-05T14:16:01.292Z</time></trkpt><trkpt lat="45.3652517" lon="8.751045"><ele>120.0</ele><time>2026-04-05T14:16:02.292Z</time></trkpt><trkpt lat="45.3651833" lon="8.7508983"><ele>120.0</ele><time>2026-04-05T14:16:04.292Z</time></trkpt><trkpt lat="45.36511" lon="8.7507717"><ele>120.0</ele><time>2026-04-05T14:16:06.291Z</time></trkpt><trkpt lat="45.3650417" lon="8.75073"><ele>120.0</ele><time>2026-04-05T14:16:07.292Z</time></trkpt><trkpt lat="45.364965" lon="8.7506833"><ele>119.83333333333333</ele><time>2026-04-05T14:16:08.291Z</time></trkpt><trkpt lat="45.364895" lon="8.75063"><ele>119.66666666666666</ele><time>2026-04-05T14:16:09.291Z</time></trkpt><trkpt lat="45.3648333" lon="8.7505833"><ele>119.5</ele><time>2026-04-05T14:16:10.291Z</time></trkpt><trkpt lat="45.3647733" lon="8.7505367"><ele>119.33333333333333</ele><time>2026-04-05T14:16:11.291Z</time></trkpt><trkpt lat="45.3647133" lon="8.750495"><ele>119.16666666666666</ele><time>2026-04-05T14:16:12.292Z</time></trkpt><trkpt lat="45.364615" lon="8.75042"><ele>119.0</ele><time>2026-04-05T14:16:14.292Z</time></trkpt><trkpt lat="45.3645417" lon="8.7503533"><ele>118.99999999999999</ele><time>2026-04-05T14:16:16.292Z</time></trkpt><trkpt lat="45.364475" lon="8.7502983"><ele>119.0</ele><time>2026-04-05T14:16:19.291Z</time></trkpt><trkpt lat="45.3644117" lon="8.750295"><ele>119.0</ele><time>2026-04-05T14:16:22.291Z</time></trkpt><trkpt lat="45.3643667" lon="8.7504183"><ele>119.0</ele><time>2026-04-05T14:16:52.292Z</time></trkpt><trkpt lat="45.3643117" lon="8.75047"><ele>118.99999999999999</ele><time>2026-04-05T14:16:53.291Z</time></trkpt><trkpt lat="45.3642417" lon="8.750525"><ele>119.0</ele><time>2026-04-05T14:16:54.292Z</time></trkpt><trkpt lat="45.36417" lon="8.750595"><ele>119.0</ele><time>2026-04-05T14:16:55.291Z</time></trkpt><trkpt lat="45.3640833" lon="8.7506633"><ele>119.0</ele><time>2026-04-05T14:16:56.291Z</time></trkpt><trkpt lat="45.3639967" lon="8.7507317"><ele>119.0</ele><time>2026-04-05T14:16:57.292Z</time></trkpt><trkpt lat="45.3639167" lon="8.7507967"><ele>119.0</ele><time>2026-04-05T14:16:58.291Z</time></trkpt><trkpt lat="45.363825" lon="8.75087"><ele>119.0</ele><time>2026-04-05T14:16:59.292Z</time></trkpt><trkpt lat="45.3637333" lon="8.7509367"><ele>118.80000000000001</ele><time>2026-04-05T14:17:00.291Z</time></trkpt><trkpt lat="45.3636433" lon="8.75102"><ele>118.60000000000001</ele><time>2026-04-05T14:17:01.292Z</time></trkpt><trkpt lat="45.36356" lon="8.7511"><ele>118.4</ele><time>2026-04-05T14:17:02.291Z</time></trkpt><trkpt lat="45.3634683" lon="8.7511617"><ele>118.2</ele><time>2026-04-05T14:17:03.291Z</time></trkpt><trkpt lat="45.3633833" lon="8.751215"><ele>118.0</ele><time>2026-04-05T14:17:04.292Z</time></trkpt><trkpt lat="45.363315" lon="8.751265"><ele>118.00000000000001</ele><time>2026-04-05T14:17:05.292Z</time></trkpt><trkpt lat="45.3632483" lon="8.7513083"><ele>118.0</ele><time>2026-04-05T14:17:06.292Z</time></trkpt><trkpt lat="45.3631833" lon="8.751345"><ele>118.0</ele><time>2026-04-05T14:17:07.292Z</time></trkpt><trkpt lat="45.36311" lon="8.7513717"><ele>118.0</ele><time>2026-04-05T14:17:08.291Z</time></trkpt><trkpt lat="45.363025" lon="8.7513867"><ele>118.00000000000001</ele><time>2026-04-05T14:17:09.291Z</time></trkpt><trkpt lat="45.362935" lon="8.7513917"><ele>118.0</ele><time>2026-04-05T14:17:10.292Z</time></trkpt><trkpt lat="45.3628517" lon="8.7514083"><ele>117.66666666666667</ele><time>2026-04-05T14:17:11.292Z</time></trkpt><trkpt lat="45.3627633" lon="8.751425"><ele>117.33333333333334</ele><time>2026-04-05T14:17:12.292Z</time></trkpt><trkpt lat="45.3626733" lon="8.7514417"><ele>117.0</ele><time>2026-04-05T14:17:13.291Z</time></trkpt><trkpt lat="45.362585" lon="8.7514683"><ele>116.66666666666666</ele><time>2026-04-05T14:17:14.291Z</time></trkpt><trkpt lat="45.3625" lon="8.7515"><ele>116.33333333333333</ele><time>2026-04-05T14:17:15.291Z</time></trkpt><trkpt lat="45.3624217" lon="8.7515383"><ele>116.0</ele><time>2026-04-05T14:17:16.291Z</time></trkpt><trkpt lat="45.3623417" lon="8.7515717"><ele>115.99999999999999</ele><time>2026-04-05T14:17:17.292Z</time></trkpt><trkpt lat="45.3622633" lon="8.7516033"><ele>116.0</ele><time>2026-04-05T14:17:18.292Z</time></trkpt><trkpt lat="45.3621817" lon="8.75163"><ele>116.0</ele><time>2026-04-05T14:17:19.291Z</time></trkpt><trkpt lat="45.3621067" lon="8.75166"><ele>116.0</ele><time>2026-04-05T14:17:20.292Z</time></trkpt><trkpt lat="45.36203" lon="8.7516867"><ele>115.99999999999999</ele><time>2026-04-05T14:17:21.292Z</time></trkpt><trkpt lat="45.361955" lon="8.7517183"><ele>116.0</ele><time>2026-04-05T14:17:22.292Z</time></trkpt><trkpt lat="45.3618783" lon="8.7517533"><ele>115.99999999999999</ele><time>2026-04-05T14:17:23.291Z</time></trkpt><trkpt lat="45.3618017" lon="8.7517817"><ele>116.0</ele><time>2026-04-05T14:17:24.292Z</time></trkpt><trkpt lat="45.3617267" lon="8.7518217"><ele>116.0</ele><time>2026-04-05T14:17:25.291Z</time></trkpt><trkpt lat="45.361645" lon="8.7518567"><ele>116.0</ele><time>2026-04-05T14:17:26.291Z</time></trkpt><trkpt lat="45.36156" lon="8.7518967"><ele>115.99999999999999</ele><time>2026-04-05T14:17:27.291Z</time></trkpt><trkpt lat="45.361475" lon="8.7519417"><ele>116.0</ele><time>2026-04-05T14:17:28.291Z</time></trkpt><trkpt lat="45.3613883" lon="8.7519833"><ele>116.16666666666666</ele><time>2026-04-05T14:17:29.292Z</time></trkpt><trkpt lat="45.3613067" lon="8.7520233"><ele>116.33333333333333</ele><time>2026-04-05T14:17:30.292Z</time></trkpt><trkpt lat="45.3612317" lon="8.7520583"><ele>116.5</ele><time>2026-04-05T14:17:31.291Z</time></trkpt><trkpt lat="45.3611567" lon="8.7520883"><ele>116.66666666666666</ele><time>2026-04-05T14:17:32.291Z</time></trkpt><trkpt lat="45.361085" lon="8.752125"><ele>116.83333333333333</ele><time>2026-04-05T14:17:33.292Z</time></trkpt><trkpt lat="45.361015" lon="8.7521633"><ele>117.0</ele><time>2026-04-05T14:17:34.291Z</time></trkpt><trkpt lat="45.360935" lon="8.7521967"><ele>117.0</ele><time>2026-04-05T14:17:35.291Z</time></trkpt><trkpt lat="45.3608617" lon="8.7522267"><ele>117.0</ele><time>2026-04-05T14:17:36.292Z</time></trkpt><trkpt lat="45.3607867" lon="8.7522567"><ele>117.0</ele><time>2026-04-05T14:17:37.292Z</time></trkpt><trkpt lat="45.3607033" lon="8.7522867"><ele>117.0</ele><time>2026-04-05T14:17:38.292Z</time></trkpt><trkpt lat="45.3606183" lon="8.7523133"><ele>117.0</ele><time>2026-04-05T14:17:39.292Z</time></trkpt><trkpt lat="45.360535" lon="8.7523467"><ele>117.0</ele><time>2026-04-05T14:17:40.292Z</time></trkpt><trkpt lat="45.36047" lon="8.7523733"><ele>117.0</ele><time>2026-04-05T14:17:41.292Z</time></trkpt><trkpt lat="45.3604017" lon="8.7524033"><ele>117.0</ele><time>2026-04-05T14:17:42.291Z</time></trkpt><trkpt lat="45.360335" lon="8.7524317"><ele>117.0</ele><time>2026-04-05T14:17:43.292Z</time></trkpt><trkpt lat="45.3602567" lon="8.7524567"><ele>117.0</ele><time>2026-04-05T14:17:44.292Z</time></trkpt><trkpt lat="45.3601783" lon="8.75248"><ele>117.0</ele><time>2026-04-05T14:17:45.291Z</time></trkpt><trkpt lat="45.3601033" lon="8.75251"><ele>117.0</ele><time>2026-04-05T14:17:46.292Z</time></trkpt><trkpt lat="45.3600233" lon="8.752545"><ele>117.0</ele><time>2026-04-05T14:17:47.292Z</time></trkpt><trkpt lat="45.3599467" lon="8.7525733"><ele>117.0</ele><time>2026-04-05T14:17:48.292Z</time></trkpt><trkpt lat="45.35986" lon="8.7526083"><ele>117.0</ele><time>2026-04-05T14:17:49.291Z</time></trkpt><trkpt lat="45.359775" lon="8.75264"><ele>117.0</ele><time>2026-04-05T14:17:50.291Z</time></trkpt><trkpt lat="45.3596983" lon="8.7526667"><ele>117.0</ele><time>2026-04-05T14:17:51.291Z</time></trkpt><trkpt lat="45.35963" lon="8.7526933"><ele>117.0</ele><time>2026-04-05T14:17:52.292Z</time></trkpt><trkpt lat="45.3595667" lon="8.75272"><ele>116.8</ele><time>2026-04-05T14:17:53.292Z</time></trkpt><trkpt lat="45.35946" lon="8.752765"><ele>116.6</ele><time>2026-04-05T14:17:55.292Z</time></trkpt><trkpt lat="45.359345" lon="8.7527683"><ele>116.39999999999999</ele><time>2026-04-05T14:17:57.292Z</time></trkpt><trkpt lat="45.3592617" lon="8.7527033"><ele>116.19999999999999</ele><time>2026-04-05T14:17:59.292Z</time></trkpt><trkpt lat="45.3592" lon="8.7525717"><ele>116.0</ele><time>2026-04-05T14:18:01.291Z</time></trkpt><trkpt lat="45.3591733" lon="8.7524883"><ele>116.00000000000001</ele><time>2026-04-05T14:18:02.291Z</time></trkpt><trkpt lat="45.3591467" lon="8.7524017"><ele>116.0</ele><time>2026-04-05T14:18:03.291Z</time></trkpt><trkpt lat="45.3591133" lon="8.7523083"><ele>116.00000000000001</ele><time>2026-04-05T14:18:04.291Z</time></trkpt><trkpt lat="45.359085" lon="8.7522033"><ele>116.00000000000001</ele><time>2026-04-05T14:18:05.291Z</time></trkpt><trkpt lat="45.3590517" lon="8.7521"><ele>116.0</ele><time>2026-04-05T14:18:06.292Z</time></trkpt><trkpt lat="45.35902" lon="8.7520067"><ele>116.00000000000001</ele><time>2026-04-05T14:18:07.291Z</time></trkpt><trkpt lat="45.3589883" lon="8.7519167"><ele>116.00000000000001</ele><time>2026-04-05T14:18:08.291Z</time></trkpt><trkpt lat="45.3589517" lon="8.75182"><ele>116.14285714285717</ele><time>2026-04-05T14:18:09.292Z</time></trkpt><trkpt lat="45.358915" lon="8.7517167"><ele>116.28571428571429</ele><time>2026-04-05T14:18:10.291Z</time></trkpt><trkpt lat="45.358875" lon="8.751625"><ele>116.42857142857144</ele><time>2026-04-05T14:18:11.292Z</time></trkpt><trkpt lat="45.3588333" lon="8.7515467"><ele>116.57142857142858</ele><time>2026-04-05T14:18:12.292Z</time></trkpt><trkpt lat="45.358785" lon="8.7514833"><ele>116.71428571428572</ele><time>2026-04-05T14:18:13.291Z</time></trkpt><trkpt lat="45.3587283" lon="8.751415"><ele>116.85714285714286</ele><time>2026-04-05T14:18:14.291Z</time></trkpt><trkpt lat="45.35866" lon="8.751375"><ele>117.0</ele><time>2026-04-05T14:18:15.291Z</time></trkpt><trkpt lat="45.35859" lon="8.751355"><ele>117.0</ele><time>2026-04-05T14:18:16.291Z</time></trkpt><trkpt lat="45.3585233" lon="8.7513467"><ele>117.0</ele><time>2026-04-05T14:18:17.292Z</time></trkpt><trkpt lat="45.3583833" lon="8.7513333"><ele>117.0</ele><time>2026-04-05T14:18:19.292Z</time></trkpt><trkpt lat="45.35831" lon="8.7513267"><ele>117.0</ele><time>2026-04-05T14:18:20.292Z</time></trkpt><trkpt lat="45.3582333" lon="8.7513217"><ele>117.0</ele><time>2026-04-05T14:18:21.292Z</time></trkpt><trkpt lat="45.3581617" lon="8.7513283"><ele>117.0</ele><time>2026-04-05T14:18:22.291Z</time></trkpt><trkpt lat="45.3580817" lon="8.7513283"><ele>116.66666666666667</ele><time>2026-04-05T14:18:23.291Z</time></trkpt><trkpt lat="45.3579967" lon="8.7513283"><ele>116.33333333333334</ele><time>2026-04-05T14:18:24.291Z</time></trkpt><trkpt lat="45.3579083" lon="8.75132"><ele>116.0</ele><time>2026-04-05T14:18:25.292Z</time></trkpt><trkpt lat="45.35782" lon="8.7513167"><ele>115.66666666666667</ele><time>2026-04-05T14:18:26.291Z</time></trkpt><trkpt lat="45.357725" lon="8.7513167"><ele>115.33333333333334</ele><time>2026-04-05T14:18:27.292Z</time></trkpt><trkpt lat="45.3576333" lon="8.75131"><ele>115.0</ele><time>2026-04-05T14:18:28.291Z</time></trkpt><trkpt lat="45.3575333" lon="8.7513067"><ele>115.00000000000001</ele><time>2026-04-05T14:18:29.292Z</time></trkpt><trkpt lat="45.357435" lon="8.7513083"><ele>115.0</ele><time>2026-04-05T14:18:30.292Z</time></trkpt><trkpt lat="45.3573383" lon="8.75131"><ele>115.0</ele><time>2026-04-05T14:18:31.291Z</time></trkpt><trkpt lat="45.3572533" lon="8.7513017"><ele>115.0</ele><time>2026-04-05T14:18:32.292Z</time></trkpt><trkpt lat="45.3571733" lon="8.7513"><ele>115.00000000000001</ele><time>2026-04-05T14:18:33.292Z</time></trkpt><trkpt lat="45.3570967" lon="8.7512967"><ele>115.0</ele><time>2026-04-05T14:18:34.292Z</time></trkpt><trkpt lat="45.357015" lon="8.7512933"><ele>115.00000000000001</ele><time>2026-04-05T14:18:35.292Z</time></trkpt><trkpt lat="45.3569383" lon="8.7512917"><ele>115.0</ele><time>2026-04-05T14:18:36.292Z</time></trkpt><trkpt lat="45.3568567" lon="8.75129"><ele>115.0</ele><time>2026-04-05T14:18:37.292Z</time></trkpt><trkpt lat="45.3567683" lon="8.7512833"><ele>115.0</ele><time>2026-04-05T14:18:38.291Z</time></trkpt><trkpt lat="45.3566783" lon="8.7512817"><ele>115.00000000000001</ele><time>2026-04-05T14:18:39.291Z</time></trkpt><trkpt lat="45.3565817" lon="8.7512767"><ele>115.0</ele><time>2026-04-05T14:18:40.291Z</time></trkpt><trkpt lat="45.356475" lon="8.7512733"><ele>114.8</ele><time>2026-04-05T14:18:41.291Z</time></trkpt><trkpt lat="45.3563683" lon="8.7512683"><ele>114.6</ele><time>2026-04-05T14:18:42.292Z</time></trkpt><trkpt lat="45.3562633" lon="8.7512633"><ele>114.4</ele><time>2026-04-05T14:18:43.292Z</time></trkpt><trkpt lat="45.3561567" lon="8.7512533"><ele>114.2</ele><time>2026-04-05T14:18:44.292Z</time></trkpt><trkpt lat="45.35606" lon="8.751235"><ele>114.0</ele><time>2026-04-05T14:18:45.292Z</time></trkpt><trkpt lat="45.3559683" lon="8.7512367"><ele>114.0</ele><time>2026-04-05T14:18:46.291Z</time></trkpt><trkpt lat="45.3558733" lon="8.751235"><ele>114.0</ele><time>2026-04-05T14:18:47.291Z</time></trkpt><trkpt lat="45.35578" lon="8.7512317"><ele>114.0</ele><time>2026-04-05T14:18:48.292Z</time></trkpt><trkpt lat="45.355685" lon="8.75123"><ele>114.0</ele><time>2026-04-05T14:18:49.291Z</time></trkpt><trkpt lat="45.35558" lon="8.7512183"><ele>114.0</ele><time>2026-04-05T14:18:50.292Z</time></trkpt><trkpt lat="45.3554733" lon="8.751215"><ele>114.0</ele><time>2026-04-05T14:18:51.292Z</time></trkpt><trkpt lat="45.35537" lon="8.751215"><ele>114.0</ele><time>2026-04-05T14:18:52.291Z</time></trkpt><trkpt lat="45.3552717" lon="8.75122"><ele>114.0</ele><time>2026-04-05T14:18:53.291Z</time></trkpt><trkpt lat="45.355175" lon="8.7512233"><ele>114.0</ele><time>2026-04-05T14:18:54.291Z</time></trkpt><trkpt lat="45.355" lon="8.7512133"><ele>114.0</ele><time>2026-04-05T14:18:56.292Z</time></trkpt><trkpt lat="45.3549117" lon="8.7512017"><ele>114.0</ele><time>2026-04-05T14:18:57.292Z</time></trkpt><trkpt lat="45.354825" lon="8.7511933"><ele>114.0</ele><time>2026-04-05T14:18:58.292Z</time></trkpt><trkpt lat="45.3547367" lon="8.75119"><ele>114.0</ele><time>2026-04-05T14:18:59.292Z</time></trkpt><trkpt lat="45.354645" lon="8.7511883"><ele>114.0</ele><time>2026-04-05T14:19:00.292Z</time></trkpt><trkpt lat="45.3545533" lon="8.7511833"><ele>114.0</ele><time>2026-04-05T14:19:01.291Z</time></trkpt><trkpt lat="45.35446" lon="8.75118"><ele>114.2</ele><time>2026-04-05T14:19:02.292Z</time></trkpt><trkpt lat="45.3543667" lon="8.7511767"><ele>114.4</ele><time>2026-04-05T14:19:03.292Z</time></trkpt><trkpt lat="45.354275" lon="8.75117"><ele>114.6</ele><time>2026-04-05T14:19:04.292Z</time></trkpt><trkpt lat="45.354185" lon="8.75117"><ele>114.8</ele><time>2026-04-05T14:19:05.291Z</time></trkpt><trkpt lat="45.3540983" lon="8.7511667"><ele>115.0</ele><time>2026-04-05T14:19:06.292Z</time></trkpt><trkpt lat="45.35401" lon="8.7511683"><ele>115.0</ele><time>2026-04-05T14:19:07.291Z</time></trkpt><trkpt lat="45.3539217" lon="8.7511683"><ele>115.0</ele><time>2026-04-05T14:19:08.292Z</time></trkpt><trkpt lat="45.35383" lon="8.7511683"><ele>115.0</ele><time>2026-04-05T14:19:09.292Z</time></trkpt><trkpt lat="45.35374" lon="8.7511617"><ele>115.0</ele><time>2026-04-05T14:19:10.291Z</time></trkpt><trkpt lat="45.353645" lon="8.7511567"><ele>115.0</ele><time>2026-04-05T14:19:11.291Z</time></trkpt><trkpt lat="45.3535517" lon="8.7511483"><ele>115.0</ele><time>2026-04-05T14:19:12.292Z</time></trkpt><trkpt lat="45.3534517" lon="8.751145"><ele>115.0</ele><time>2026-04-05T14:19:13.292Z</time></trkpt><trkpt lat="45.3533567" lon="8.7511433"><ele>115.0</ele><time>2026-04-05T14:19:14.292Z</time></trkpt><trkpt lat="45.35326" lon="8.7511433"><ele>115.0</ele><time>2026-04-05T14:19:15.291Z</time></trkpt><trkpt lat="45.3531683" lon="8.751145"><ele>115.0</ele><time>2026-04-05T14:19:16.291Z</time></trkpt><trkpt lat="45.353075" lon="8.7511467"><ele>115.0</ele><time>2026-04-05T14:19:17.292Z</time></trkpt><trkpt lat="45.3529833" lon="8.75115"><ele>115.0</ele><time>2026-04-05T14:19:18.292Z</time></trkpt><trkpt lat="45.3528883" lon="8.751155"><ele>115.0</ele><time>2026-04-05T14:19:19.291Z</time></trkpt><trkpt lat="45.3527967" lon="8.751165"><ele>115.0</ele><time>2026-04-05T14:19:20.291Z</time></trkpt><trkpt lat="45.3527083" lon="8.7511683"><ele>115.0</ele><time>2026-04-05T14:19:21.291Z</time></trkpt><trkpt lat="45.3526217" lon="8.7511733"><ele>115.00000000000001</ele><time>2026-04-05T14:19:22.291Z</time></trkpt><trkpt lat="45.3525367" lon="8.7511867"><ele>115.0</ele><time>2026-04-05T14:19:23.292Z</time></trkpt><trkpt lat="45.3524517" lon="8.7512"><ele>115.0</ele><time>2026-04-05T14:19:24.292Z</time></trkpt><trkpt lat="45.352365" lon="8.7512117"><ele>115.0</ele><time>2026-04-05T14:19:25.291Z</time></trkpt><trkpt lat="45.3522767" lon="8.7512233"><ele>115.00000000000001</ele><time>2026-04-05T14:19:26.292Z</time></trkpt><trkpt lat="45.3521883" lon="8.751235"><ele>115.0</ele><time>2026-04-05T14:19:27.291Z</time></trkpt><trkpt lat="45.3520983" lon="8.7512517"><ele>115.4</ele><time>2026-04-05T14:19:28.292Z</time></trkpt><trkpt lat="45.35201" lon="8.751265"><ele>115.8</ele><time>2026-04-05T14:19:29.292Z</time></trkpt><trkpt lat="45.35192" lon="8.7512767"><ele>116.19999999999999</ele><time>2026-04-05T14:19:30.291Z</time></trkpt><trkpt lat="45.351825" lon="8.75129"><ele>116.6</ele><time>2026-04-05T14:19:31.291Z</time></trkpt><trkpt lat="45.3517267" lon="8.7513067"><ele>117.0</ele><time>2026-04-05T14:19:32.292Z</time></trkpt><trkpt lat="45.3516217" lon="8.751315"><ele>117.0</ele><time>2026-04-05T14:19:33.292Z</time></trkpt><trkpt lat="45.35152" lon="8.7513217"><ele>116.99999999999999</ele><time>2026-04-05T14:19:34.291Z</time></trkpt><trkpt lat="45.35142" lon="8.75133"><ele>116.99999999999999</ele><time>2026-04-05T14:19:35.291Z</time></trkpt><trkpt lat="45.3513317" lon="8.75134"><ele>117.0</ele><time>2026-04-05T14:19:36.291Z</time></trkpt><trkpt lat="45.3512417" lon="8.75135"><ele>117.0</ele><time>2026-04-05T14:19:37.292Z</time></trkpt><trkpt lat="45.3511533" lon="8.7513533"><ele>117.0</ele><time>2026-04-05T14:19:38.291Z</time></trkpt><trkpt lat="45.3510617" lon="8.751365"><ele>116.99999999999999</ele><time>2026-04-05T14:19:39.292Z</time></trkpt><trkpt lat="45.35097" lon="8.7513733"><ele>116.99999999999999</ele><time>2026-04-05T14:19:40.291Z</time></trkpt><trkpt lat="45.35088" lon="8.7513867"><ele>117.0</ele><time>2026-04-05T14:19:41.292Z</time></trkpt><trkpt lat="45.3507883" lon="8.7514"><ele>117.0</ele><time>2026-04-05T14:19:42.292Z</time></trkpt><trkpt lat="45.3507" lon="8.7514267"><ele>117.0</ele><time>2026-04-05T14:19:43.291Z</time></trkpt><trkpt lat="45.3506233" lon="8.7514533"><ele>117.0</ele><time>2026-04-05T14:19:44.292Z</time></trkpt><trkpt lat="45.3505483" lon="8.751485"><ele>117.0</ele><time>2026-04-05T14:19:45.292Z</time></trkpt><trkpt lat="45.3504733" lon="8.75152"><ele>117.0</ele><time>2026-04-05T14:19:46.292Z</time></trkpt><trkpt lat="45.3504133" lon="8.75156"><ele>117.0</ele><time>2026-04-05T14:19:47.292Z</time></trkpt><trkpt lat="45.350315" lon="8.7516283"><ele>117.0</ele><time>2026-04-05T14:19:49.291Z</time></trkpt><trkpt lat="45.350215" lon="8.7516617"><ele>116.6</ele><time>2026-04-05T14:19:51.292Z</time></trkpt><trkpt lat="45.35014" lon="8.75158"><ele>116.19999999999999</ele><time>2026-04-05T14:19:53.292Z</time></trkpt><trkpt lat="45.3501017" lon="8.7514017"><ele>115.8</ele><time>2026-04-05T14:19:55.291Z</time></trkpt><trkpt lat="45.3500783" lon="8.7512883"><ele>115.4</ele><time>2026-04-05T14:19:56.292Z</time></trkpt><trkpt lat="45.3500567" lon="8.7511667"><ele>115.0</ele><time>2026-04-05T14:19:57.291Z</time></trkpt><trkpt lat="45.3500367" lon="8.7510483"><ele>115.0</ele><time>2026-04-05T14:19:58.291Z</time></trkpt><trkpt lat="45.3500217" lon="8.7509217"><ele>115.0</ele><time>2026-04-05T14:19:59.291Z</time></trkpt><trkpt lat="45.3500017" lon="8.7507867"><ele>115.0</ele><time>2026-04-05T14:20:00.292Z</time></trkpt><trkpt lat="45.3499817" lon="8.7506533"><ele>115.0</ele><time>2026-04-05T14:20:01.292Z</time></trkpt><trkpt lat="45.3499617" lon="8.7505233"><ele>115.0</ele><time>2026-04-05T14:20:02.291Z</time></trkpt><trkpt lat="45.3499367" lon="8.7503967"><ele>115.00000000000001</ele><time>2026-04-05T14:20:03.291Z</time></trkpt><trkpt lat="45.34991" lon="8.7502717"><ele>115.0</ele><time>2026-04-05T14:20:04.292Z</time></trkpt><trkpt lat="45.349885" lon="8.750155"><ele>115.0</ele><time>2026-04-05T14:20:05.291Z</time></trkpt><trkpt lat="45.3498667" lon="8.7500367"><ele>115.0</ele><time>2026-04-05T14:20:06.291Z</time></trkpt><trkpt lat="45.3498467" lon="8.7499283"><ele>115.00000000000001</ele><time>2026-04-05T14:20:07.291Z</time></trkpt><trkpt lat="45.349825" lon="8.749825"><ele>115.0</ele><time>2026-04-05T14:20:08.292Z</time></trkpt><trkpt lat="45.34981" lon="8.7497267"><ele>115.0</ele><time>2026-04-05T14:20:09.291Z</time></trkpt><trkpt lat="45.3497917" lon="8.7496333"><ele>115.0</ele><time>2026-04-05T14:20:10.291Z</time></trkpt><trkpt lat="45.3497483" lon="8.74948"><ele>115.0</ele><time>2026-04-05T14:20:12.291Z</time></trkpt><trkpt lat="45.34965" lon="8.749395"><ele>115.0</ele><time>2026-04-05T14:20:14.292Z</time></trkpt><trkpt lat="45.3495233" lon="8.7494183"><ele>115.0</ele><time>2026-04-05T14:20:16.292Z</time></trkpt><trkpt lat="45.3494483" lon="8.7494467"><ele>115.00000000000001</ele><time>2026-04-05T14:20:17.292Z</time></trkpt><trkpt lat="45.349385" lon="8.7494483"><ele>115.0</ele><time>2026-04-05T14:20:18.292Z</time></trkpt><trkpt lat="45.3492783" lon="8.7493483"><ele>115.0</ele><time>2026-04-05T14:20:20.291Z</time></trkpt><trkpt lat="45.3492433" lon="8.7492533"><ele>115.0</ele><time>2026-04-05T14:20:21.291Z</time></trkpt><trkpt lat="45.3492117" lon="8.7491367"><ele>115.00000000000001</ele><time>2026-04-05T14:20:22.292Z</time></trkpt><trkpt lat="45.3491817" lon="8.7490333"><ele>115.0</ele><time>2026-04-05T14:20:23.292Z</time></trkpt><trkpt lat="45.3491533" lon="8.7489333"><ele>115.00000000000001</ele><time>2026-04-05T14:20:24.291Z</time></trkpt><trkpt lat="45.3491283" lon="8.7488383"><ele>115.0</ele><time>2026-04-05T14:20:25.291Z</time></trkpt><trkpt lat="45.3491033" lon="8.7487417"><ele>115.0</ele><time>2026-04-05T14:20:26.291Z</time></trkpt><trkpt lat="45.349075" lon="8.74865"><ele>115.0</ele><time>2026-04-05T14:20:27.291Z</time></trkpt><trkpt lat="45.3490417" lon="8.74855"><ele>115.00000000000001</ele><time>2026-04-05T14:20:28.292Z</time></trkpt><trkpt lat="45.34901" lon="8.748445"><ele>115.0</ele><time>2026-04-05T14:20:29.291Z</time></trkpt><trkpt lat="45.3489767" lon="8.7483283"><ele>115.16666666666667</ele><time>2026-04-05T14:20:30.292Z</time></trkpt><trkpt lat="45.3489433" lon="8.7482083"><ele>115.33333333333334</ele><time>2026-04-05T14:20:31.292Z</time></trkpt><trkpt lat="45.3489133" lon="8.7481"><ele>115.5</ele><time>2026-04-05T14:20:32.292Z</time></trkpt><trkpt lat="45.3488867" lon="8.7480033"><ele>115.66666666666666</ele><time>2026-04-05T14:20:33.292Z</time></trkpt><trkpt lat="45.34886" lon="8.747915"><ele>115.83333333333333</ele><time>2026-04-05T14:20:34.291Z</time></trkpt><trkpt lat="45.34884" lon="8.7478283"><ele>116.0</ele><time>2026-04-05T14:20:35.292Z</time></trkpt><trkpt lat="45.348785" lon="8.747695"><ele>116.19999999999999</ele><time>2026-04-05T14:20:37.292Z</time></trkpt><trkpt lat="45.3487033" lon="8.747675"><ele>116.39999999999999</ele><time>2026-04-05T14:20:39.292Z</time></trkpt><trkpt lat="45.3486067" lon="8.7477833"><ele>116.6</ele><time>2026-04-05T14:20:41.292Z</time></trkpt><trkpt lat="45.34856" lon="8.7478683"><ele>116.8</ele><time>2026-04-05T14:20:42.292Z</time></trkpt><trkpt lat="45.3485017" lon="8.74796"><ele>117.0</ele><time>2026-04-05T14:20:43.292Z</time></trkpt><trkpt lat="45.3484383" lon="8.7480567"><ele>117.0</ele><time>2026-04-05T14:20:44.291Z</time></trkpt><trkpt lat="45.3483717" lon="8.7481533"><ele>117.0</ele><time>2026-04-05T14:20:45.292Z</time></trkpt><trkpt lat="45.348315" lon="8.74825"><ele>117.0</ele><time>2026-04-05T14:20:46.292Z</time></trkpt><trkpt lat="45.3482633" lon="8.7483367"><ele>117.0</ele><time>2026-04-05T14:20:47.292Z</time></trkpt><trkpt lat="45.3482133" lon="8.7484233"><ele>117.0</ele><time>2026-04-05T14:20:48.292Z</time></trkpt><trkpt lat="45.34816" lon="8.7485083"><ele>117.0</ele><time>2026-04-05T14:20:49.291Z</time></trkpt><trkpt lat="45.34811" lon="8.7485967"><ele>117.0</ele><time>2026-04-05T14:20:50.292Z</time></trkpt><trkpt lat="45.3480633" lon="8.7486783"><ele>117.0</ele><time>2026-04-05T14:20:51.292Z</time></trkpt><trkpt lat="45.3480167" lon="8.74876"><ele>117.0</ele><time>2026-04-05T14:20:52.291Z</time></trkpt><trkpt lat="45.3479683" lon="8.7488433"><ele>117.0</ele><time>2026-04-05T14:20:53.291Z</time></trkpt><trkpt lat="45.34792" lon="8.7489217"><ele>117.0</ele><time>2026-04-05T14:20:54.292Z</time></trkpt><trkpt lat="45.347835" lon="8.74904"><ele>117.0</ele><time>2026-04-05T14:20:56.292Z</time></trkpt><trkpt lat="45.34776" lon="8.7491533"><ele>117.0</ele><time>2026-04-05T14:20:58.291Z</time></trkpt><trkpt lat="45.347695" lon="8.7492567"><ele>117.0</ele><time>2026-04-05T14:21:00.291Z</time></trkpt><trkpt lat="45.3476333" lon="8.7493317"><ele>117.0</ele><time>2026-04-05T14:21:02.291Z</time></trkpt><trkpt lat="45.3475717" lon="8.7493683"><ele>117.0</ele><time>2026-04-05T14:21:05.292Z</time></trkpt><trkpt lat="45.34752" lon="8.7493117"><ele>117.0</ele><time>2026-04-05T14:21:07.292Z</time></trkpt><trkpt lat="45.3474517" lon="8.7491817"><ele>117.0</ele><time>2026-04-05T14:21:09.292Z</time></trkpt><trkpt lat="45.3474167" lon="8.7491067"><ele>117.0</ele><time>2026-04-05T14:21:10.291Z</time></trkpt><trkpt lat="45.3473617" lon="8.7489517"><ele>116.99999999999999</ele><time>2026-04-05T14:21:12.291Z</time></trkpt><trkpt lat="45.3473267" lon="8.7488567"><ele>116.99999999999999</ele><time>2026-04-05T14:21:13.291Z</time></trkpt><trkpt lat="45.347285" lon="8.7487517"><ele>117.0</ele><time>2026-04-05T14:21:14.291Z</time></trkpt><trkpt lat="45.347235" lon="8.7486417"><ele>117.0</ele><time>2026-04-05T14:21:15.291Z</time></trkpt><trkpt lat="45.347185" lon="8.748525"><ele>116.8</ele><time>2026-04-05T14:21:16.291Z</time></trkpt><trkpt lat="45.3471283" lon="8.748405"><ele>116.6</ele><time>2026-04-05T14:21:17.292Z</time></trkpt><trkpt lat="45.3470717" lon="8.7482967"><ele>116.39999999999999</ele><time>2026-04-05T14:21:18.292Z</time></trkpt><trkpt lat="45.3470133" lon="8.7481883"><ele>116.19999999999999</ele><time>2026-04-05T14:21:19.292Z</time></trkpt><trkpt lat="45.3469517" lon="8.748105"><ele>116.0</ele><time>2026-04-05T14:21:20.291Z</time></trkpt><trkpt lat="45.346895" lon="8.7480283"><ele>115.99999999999999</ele><time>2026-04-05T14:21:21.292Z</time></trkpt><trkpt lat="45.3468433" lon="8.7479633"><ele>116.0</ele><time>2026-04-05T14:21:22.291Z</time></trkpt><trkpt lat="45.3467867" lon="8.7479017"><ele>116.0</ele><time>2026-04-05T14:21:23.292Z</time></trkpt><trkpt lat="45.346705" lon="8.7477933"><ele>116.0</ele><time>2026-04-05T14:21:25.292Z</time></trkpt><trkpt lat="45.346685" lon="8.7476917"><ele>115.99999999999999</ele><time>2026-04-05T14:21:27.291Z</time></trkpt><trkpt lat="45.3467333" lon="8.747575"><ele>116.0</ele><time>2026-04-05T14:21:29.292Z</time></trkpt><trkpt lat="45.3467817" lon="8.7475017"><ele>116.0</ele><time>2026-04-05T14:21:30.292Z</time></trkpt><trkpt lat="45.346845" lon="8.7474217"><ele>116.0</ele><time>2026-04-05T14:21:31.291Z</time></trkpt><trkpt lat="45.3469233" lon="8.7473383"><ele>116.0</ele><time>2026-04-05T14:21:32.292Z</time></trkpt><trkpt lat="45.3470033" lon="8.74724"><ele>116.0</ele><time>2026-04-05T14:21:33.291Z</time></trkpt><trkpt lat="45.347085" lon="8.747145"><ele>116.0</ele><time>2026-04-05T14:21:34.292Z</time></trkpt><trkpt lat="45.3471633" lon="8.7470533"><ele>116.6</ele><time>2026-04-05T14:21:35.292Z</time></trkpt><trkpt lat="45.34724" lon="8.74697"><ele>117.19999999999999</ele><time>2026-04-05T14:21:36.291Z</time></trkpt><trkpt lat="45.34732" lon="8.746885"><ele>117.80000000000001</ele><time>2026-04-05T14:21:37.292Z</time></trkpt><trkpt lat="45.347395" lon="8.74679"><ele>118.4</ele><time>2026-04-05T14:21:38.292Z</time></trkpt><trkpt lat="45.3474667" lon="8.7466883"><ele>119.0</ele><time>2026-04-05T14:21:39.291Z</time></trkpt><trkpt lat="45.347545" lon="8.7465783"><ele>119.0</ele><time>2026-04-05T14:21:40.292Z</time></trkpt><trkpt lat="45.3476183" lon="8.7464783"><ele>119.0</ele><time>2026-04-05T14:21:41.292Z</time></trkpt><trkpt lat="45.3476917" lon="8.74638"><ele>119.0</ele><time>2026-04-05T14:21:42.292Z</time></trkpt><trkpt lat="45.347765" lon="8.74628"><ele>119.0</ele><time>2026-04-05T14:21:43.291Z</time></trkpt><trkpt lat="45.3478317" lon="8.7461833"><ele>119.0</ele><time>2026-04-05T14:21:44.292Z</time></trkpt><trkpt lat="45.3479" lon="8.7460883"><ele>119.0</ele><time>2026-04-05T14:21:45.292Z</time></trkpt><trkpt lat="45.3479667" lon="8.74599"><ele>119.0</ele><time>2026-04-05T14:21:46.291Z</time></trkpt><trkpt lat="45.3480217" lon="8.7458833"><ele>119.0</ele><time>2026-04-05T14:21:47.291Z</time></trkpt><trkpt lat="45.3480817" lon="8.7457883"><ele>119.0</ele><time>2026-04-05T14:21:48.292Z</time></trkpt><trkpt lat="45.34815" lon="8.745695"><ele>119.0</ele><time>2026-04-05T14:21:49.292Z</time></trkpt><trkpt lat="45.34821" lon="8.74561"><ele>119.0</ele><time>2026-04-05T14:21:50.291Z</time></trkpt><trkpt lat="45.3482733" lon="8.7455183"><ele>119.0</ele><time>2026-04-05T14:21:51.292Z</time></trkpt><trkpt lat="45.348335" lon="8.7454117"><ele>119.0</ele><time>2026-04-05T14:21:52.292Z</time></trkpt><trkpt lat="45.348395" lon="8.745315"><ele>119.0</ele><time>2026-04-05T14:21:53.291Z</time></trkpt><trkpt lat="45.34846" lon="8.7452217"><ele>119.0</ele><time>2026-04-05T14:21:54.292Z</time></trkpt><trkpt lat="45.348525" lon="8.745125"><ele>118.99999999999999</ele><time>2026-04-05T14:21:55.291Z</time></trkpt><trkpt lat="45.348585" lon="8.7450283"><ele>119.0</ele><time>2026-04-05T14:21:56.291Z</time></trkpt><trkpt lat="45.3486483" lon="8.744935"><ele>119.0</ele><time>2026-04-05T14:21:57.292Z</time></trkpt><trkpt lat="45.3487" lon="8.7448333"><ele>119.0</ele><time>2026-04-05T14:21:58.292Z</time></trkpt><trkpt lat="45.3487467" lon="8.7447267"><ele>118.99999999999999</ele><time>2026-04-05T14:21:59.292Z</time></trkpt><trkpt lat="45.3487967" lon="8.7446183"><ele>119.0</ele><time>2026-04-05T14:22:00.292Z</time></trkpt><trkpt lat="45.3488483" lon="8.74451"><ele>118.83333333333333</ele><time>2026-04-05T14:22:01.292Z</time></trkpt><trkpt lat="45.348895" lon="8.7444017"><ele>118.66666666666666</ele><time>2026-04-05T14:22:02.291Z</time></trkpt><trkpt lat="45.348935" lon="8.7442983"><ele>118.5</ele><time>2026-04-05T14:22:03.291Z</time></trkpt><trkpt lat="45.3489817" lon="8.7441967"><ele>118.33333333333334</ele><time>2026-04-05T14:22:04.292Z</time></trkpt><trkpt lat="45.3490283" lon="8.744085"><ele>118.16666666666667</ele><time>2026-04-05T14:22:05.291Z</time></trkpt><trkpt lat="45.3490767" lon="8.7439733"><ele>118.0</ele><time>2026-04-05T14:22:06.292Z</time></trkpt><trkpt lat="45.34912" lon="8.7438467"><ele>118.4</ele><time>2026-04-05T14:22:07.291Z</time></trkpt><trkpt lat="45.349165" lon="8.743725"><ele>118.80000000000001</ele><time>2026-04-05T14:22:08.291Z</time></trkpt><trkpt lat="45.3492033" lon="8.7436067"><ele>119.2</ele><time>2026-04-05T14:22:09.291Z</time></trkpt><trkpt lat="45.3492383" lon="8.743495"><ele>119.6</ele><time>2026-04-05T14:22:10.292Z</time></trkpt><trkpt lat="45.34928" lon="8.743385"><ele>120.0</ele><time>2026-04-05T14:22:11.292Z</time></trkpt><trkpt lat="45.3493067" lon="8.7432617"><ele>120.2</ele><time>2026-04-05T14:22:12.292Z</time></trkpt><trkpt lat="45.3493317" lon="8.7431317"><ele>120.4</ele><time>2026-04-05T14:22:13.291Z</time></trkpt><trkpt lat="45.3493567" lon="8.7430083"><ele>120.6</ele><time>2026-04-05T14:22:14.291Z</time></trkpt><trkpt lat="45.3493817" lon="8.7428817"><ele>120.8</ele><time>2026-04-05T14:22:15.291Z</time></trkpt><trkpt lat="45.3494017" lon="8.7427583"><ele>121.0</ele><time>2026-04-05T14:22:16.292Z</time></trkpt><trkpt lat="45.3494183" lon="8.7426383"><ele>120.66666666666667</ele><time>2026-04-05T14:22:17.291Z</time></trkpt><trkpt lat="45.3494367" lon="8.7425217"><ele>120.33333333333334</ele><time>2026-04-05T14:22:18.292Z</time></trkpt><trkpt lat="45.3494517" lon="8.742405"><ele>120.0</ele><time>2026-04-05T14:22:19.291Z</time></trkpt><trkpt lat="45.3494617" lon="8.742295"><ele>119.66666666666666</ele><time>2026-04-05T14:22:20.292Z</time></trkpt><trkpt lat="45.3494733" lon="8.7421883"><ele>119.33333333333333</ele><time>2026-04-05T14:22:21.292Z</time></trkpt><trkpt lat="45.3494833" lon="8.7420667"><ele>119.0</ele><time>2026-04-05T14:22:22.292Z</time></trkpt><trkpt lat="45.349495" lon="8.741945"><ele>118.4</ele><time>2026-04-05T14:22:23.291Z</time></trkpt><trkpt lat="45.3495067" lon="8.7418233"><ele>117.80000000000001</ele><time>2026-04-05T14:22:24.292Z</time></trkpt><trkpt lat="45.34952" lon="8.7416983"><ele>117.19999999999999</ele><time>2026-04-05T14:22:25.291Z</time></trkpt><trkpt lat="45.34953" lon="8.7415583"><ele>116.6</ele><time>2026-04-05T14:22:26.292Z</time></trkpt><trkpt lat="45.3495417" lon="8.741425"><ele>116.0</ele><time>2026-04-05T14:22:27.291Z</time></trkpt><trkpt lat="45.3495583" lon="8.7412933"><ele>116.0</ele><time>2026-04-05T14:22:28.292Z</time></trkpt><trkpt lat="45.34957" lon="8.7411567"><ele>116.0</ele><time>2026-04-05T14:22:29.291Z</time></trkpt><trkpt lat="45.34958" lon="8.7410233"><ele>116.0</ele><time>2026-04-05T14:22:30.291Z</time></trkpt><trkpt lat="45.34959" lon="8.740885"><ele>116.0</ele><time>2026-04-05T14:22:31.291Z</time></trkpt><trkpt lat="45.349605" lon="8.740755"><ele>116.0</ele><time>2026-04-05T14:22:32.292Z</time></trkpt><trkpt lat="45.3496233" lon="8.7406283"><ele>116.33333333333333</ele><time>2026-04-05T14:22:33.292Z</time></trkpt><trkpt lat="45.3496433" lon="8.7404967"><ele>116.66666666666666</ele><time>2026-04-05T14:22:34.291Z</time></trkpt><trkpt lat="45.3496583" lon="8.7403733"><ele>117.0</ele><time>2026-04-05T14:22:35.292Z</time></trkpt><trkpt lat="45.3496683" lon="8.7402567"><ele>117.33333333333334</ele><time>2026-04-05T14:22:36.292Z</time></trkpt><trkpt lat="45.3496817" lon="8.7401417"><ele>117.66666666666667</ele><time>2026-04-05T14:22:37.291Z</time></trkpt><trkpt lat="45.3496983" lon="8.74002"><ele>118.0</ele><time>2026-04-05T14:22:38.292Z</time></trkpt><trkpt lat="45.3497167" lon="8.7399"><ele>118.50000000000001</ele><time>2026-04-05T14:22:39.292Z</time></trkpt><trkpt lat="45.3497317" lon="8.7397733"><ele>119.0</ele><time>2026-04-05T14:22:40.292Z</time></trkpt><trkpt lat="45.3497483" lon="8.739645"><ele>119.5</ele><time>2026-04-05T14:22:41.291Z</time></trkpt><trkpt lat="45.349765" lon="8.7395183"><ele>120.0</ele><time>2026-04-05T14:22:42.292Z</time></trkpt><trkpt lat="45.3497817" lon="8.739395"><ele>120.50000000000001</ele><time>2026-04-05T14:22:43.292Z</time></trkpt><trkpt lat="45.3498017" lon="8.7392833"><ele>121.0</ele><time>2026-04-05T14:22:44.292Z</time></trkpt><trkpt lat="45.349825" lon="8.739175"><ele>121.00000000000001</ele><time>2026-04-05T14:22:45.291Z</time></trkpt><trkpt lat="45.3498567" lon="8.7390717"><ele>121.0</ele><time>2026-04-05T14:22:46.291Z</time></trkpt><trkpt lat="45.3498933" lon="8.7389683"><ele>121.0</ele><time>2026-04-05T14:22:47.291Z</time></trkpt><trkpt lat="45.3499267" lon="8.7388617"><ele>121.0</ele><time>2026-04-05T14:22:48.291Z</time></trkpt><trkpt lat="45.3499733" lon="8.7387583"><ele>121.00000000000001</ele><time>2026-04-05T14:22:49.291Z</time></trkpt><trkpt lat="45.3500233" lon="8.7386617"><ele>121.0</ele><time>2026-04-05T14:22:50.292Z</time></trkpt><trkpt lat="45.350075" lon="8.73856"><ele>120.19999999999999</ele><time>2026-04-05T14:22:51.292Z</time></trkpt><trkpt lat="45.350125" lon="8.7384583"><ele>119.39999999999999</ele><time>2026-04-05T14:22:52.291Z</time></trkpt><trkpt lat="45.350175" lon="8.738345"><ele>118.6</ele><time>2026-04-05T14:22:53.291Z</time></trkpt><trkpt lat="45.3502267" lon="8.73823"><ele>117.8</ele><time>2026-04-05T14:22:54.291Z</time></trkpt><trkpt lat="45.3502783" lon="8.7381167"><ele>117.0</ele><time>2026-04-05T14:22:55.292Z</time></trkpt><trkpt lat="45.3503233" lon="8.73801"><ele>117.0</ele><time>2026-04-05T14:22:56.291Z</time></trkpt><trkpt lat="45.3503683" lon="8.7379133"><ele>117.0</ele><time>2026-04-05T14:22:57.291Z</time></trkpt><trkpt lat="45.35041" lon="8.7378167"><ele>117.0</ele><time>2026-04-05T14:22:58.291Z</time></trkpt><trkpt lat="45.35045" lon="8.7377183"><ele>117.0</ele><time>2026-04-05T14:22:59.292Z</time></trkpt><trkpt lat="45.35048" lon="8.7376133"><ele>117.0</ele><time>2026-04-05T14:23:00.291Z</time></trkpt><trkpt lat="45.350505" lon="8.7375117"><ele>117.0</ele><time>2026-04-05T14:23:01.291Z</time></trkpt><trkpt lat="45.35053" lon="8.7374117"><ele>117.19999999999999</ele><time>2026-04-05T14:23:02.291Z</time></trkpt><trkpt lat="45.3505583" lon="8.737305"><ele>117.39999999999999</ele><time>2026-04-05T14:23:03.291Z</time></trkpt><trkpt lat="45.3505783" lon="8.7371817"><ele>117.60000000000001</ele><time>2026-04-05T14:23:04.292Z</time></trkpt><trkpt lat="45.350595" lon="8.73705"><ele>117.80000000000001</ele><time>2026-04-05T14:23:05.292Z</time></trkpt><trkpt lat="45.3506217" lon="8.7369183"><ele>118.0</ele><time>2026-04-05T14:23:06.292Z</time></trkpt><trkpt lat="45.35064" lon="8.736785"><ele>118.16666666666667</ele><time>2026-04-05T14:23:07.292Z</time></trkpt><trkpt lat="45.3506583" lon="8.73665"><ele>118.33333333333334</ele><time>2026-04-05T14:23:08.291Z</time></trkpt><trkpt lat="45.3506783" lon="8.7365267"><ele>118.5</ele><time>2026-04-05T14:23:09.292Z</time></trkpt><trkpt lat="45.350695" lon="8.7364033"><ele>118.66666666666666</ele><time>2026-04-05T14:23:10.292Z</time></trkpt><trkpt lat="45.3507117" lon="8.7362817"><ele>118.83333333333333</ele><time>2026-04-05T14:23:11.291Z</time></trkpt><trkpt lat="45.35072" lon="8.7361683"><ele>119.0</ele><time>2026-04-05T14:23:12.291Z</time></trkpt><trkpt lat="45.3507317" lon="8.7360567"><ele>118.83333333333333</ele><time>2026-04-05T14:23:13.291Z</time></trkpt><trkpt lat="45.3507433" lon="8.7359467"><ele>118.66666666666666</ele><time>2026-04-05T14:23:14.291Z</time></trkpt><trkpt lat="45.35075" lon="8.73584"><ele>118.5</ele><time>2026-04-05T14:23:15.291Z</time></trkpt><trkpt lat="45.3507617" lon="8.7357283"><ele>118.33333333333334</ele><time>2026-04-05T14:23:16.291Z</time></trkpt><trkpt lat="45.3507717" lon="8.7356117"><ele>118.16666666666667</ele><time>2026-04-05T14:23:17.291Z</time></trkpt><trkpt lat="45.350775" lon="8.7355017"><ele>118.0</ele><time>2026-04-05T14:23:18.292Z</time></trkpt><trkpt lat="45.3507767" lon="8.7353933"><ele>118.00000000000001</ele><time>2026-04-05T14:23:19.292Z</time></trkpt><trkpt lat="45.350775" lon="8.7352983"><ele>118.0</ele><time>2026-04-05T14:23:20.291Z</time></trkpt><trkpt lat="45.3507667" lon="8.7351967"><ele>118.0</ele><time>2026-04-05T14:23:21.291Z</time></trkpt><trkpt lat="45.3507533" lon="8.73508"><ele>118.0</ele><time>2026-04-05T14:23:22.292Z</time></trkpt><trkpt lat="45.3507367" lon="8.7349633"><ele>118.00000000000001</ele><time>2026-04-05T14:23:23.292Z</time></trkpt><trkpt lat="45.3507083" lon="8.7348367"><ele>118.0</ele><time>2026-04-05T14:23:24.292Z</time></trkpt><trkpt lat="45.3506783" lon="8.7346967"><ele>118.0</ele><time>2026-04-05T14:23:25.291Z</time></trkpt><trkpt lat="45.3506517" lon="8.7345633"><ele>118.00000000000001</ele><time>2026-04-05T14:23:26.291Z</time></trkpt><trkpt lat="45.3506267" lon="8.73444"><ele>118.00000000000001</ele><time>2026-04-05T14:23:27.292Z</time></trkpt><trkpt lat="45.3506083" lon="8.7343133"><ele>118.0</ele><time>2026-04-05T14:23:28.292Z</time></trkpt><trkpt lat="45.3505917" lon="8.7341867"><ele>118.0</ele><time>2026-04-05T14:23:29.291Z</time></trkpt><trkpt lat="45.3505783" lon="8.734065"><ele>118.00000000000001</ele><time>2026-04-05T14:23:30.291Z</time></trkpt><trkpt lat="45.3505617" lon="8.7339533"><ele>118.0</ele><time>2026-04-05T14:23:31.291Z</time></trkpt><trkpt lat="45.350555" lon="8.7338367"><ele>118.0</ele><time>2026-04-05T14:23:32.291Z</time></trkpt><trkpt lat="45.350555" lon="8.7337183"><ele>118.0</ele><time>2026-04-05T14:23:33.292Z</time></trkpt><trkpt lat="45.3505617" lon="8.7336"><ele>118.00000000000001</ele><time>2026-04-05T14:23:34.291Z</time></trkpt><trkpt lat="45.35058" lon="8.7334767"><ele>118.0</ele><time>2026-04-05T14:23:35.291Z</time></trkpt><trkpt lat="45.350605" lon="8.7333483"><ele>118.00000000000001</ele><time>2026-04-05T14:23:36.292Z</time></trkpt><trkpt lat="45.3506367" lon="8.7332217"><ele>118.0</ele><time>2026-04-05T14:23:37.291Z</time></trkpt><trkpt lat="45.3506717" lon="8.73309"><ele>118.0</ele><time>2026-04-05T14:23:38.292Z</time></trkpt><trkpt lat="45.3507" lon="8.7329683"><ele>118.0</ele><time>2026-04-05T14:23:39.292Z</time></trkpt><trkpt lat="45.3507367" lon="8.7328633"><ele>118.00000000000001</ele><time>2026-04-05T14:23:40.292Z</time></trkpt><trkpt lat="45.3507817" lon="8.7327667"><ele>118.0</ele><time>2026-04-05T14:23:41.292Z</time></trkpt><trkpt lat="45.3508317" lon="8.7326717"><ele>118.50000000000001</ele><time>2026-04-05T14:23:42.291Z</time></trkpt><trkpt lat="45.3508833" lon="8.73258"><ele>119.0</ele><time>2026-04-05T14:23:43.291Z</time></trkpt><trkpt lat="45.3509367" lon="8.7324933"><ele>119.5</ele><time>2026-04-05T14:23:44.291Z</time></trkpt><trkpt lat="45.3509883" lon="8.7323983"><ele>120.0</ele><time>2026-04-05T14:23:45.292Z</time></trkpt><trkpt lat="45.351045" lon="8.7323017"><ele>120.50000000000001</ele><time>2026-04-05T14:23:46.291Z</time></trkpt><trkpt lat="45.3510983" lon="8.7322117"><ele>121.0</ele><time>2026-04-05T14:23:47.292Z</time></trkpt><trkpt lat="45.35115" lon="8.7321217"><ele>121.00000000000001</ele><time>2026-04-05T14:23:48.291Z</time></trkpt><trkpt lat="45.3512067" lon="8.73202"><ele>121.0</ele><time>2026-04-05T14:23:49.292Z</time></trkpt><trkpt lat="45.3512617" lon="8.7319167"><ele>121.0</ele><time>2026-04-05T14:23:50.292Z</time></trkpt><trkpt lat="45.351325" lon="8.7318167"><ele>121.0</ele><time>2026-04-05T14:23:51.291Z</time></trkpt><trkpt lat="45.3513783" lon="8.73172"><ele>121.00000000000001</ele><time>2026-04-05T14:23:52.291Z</time></trkpt><trkpt lat="45.3514283" lon="8.73162"><ele>121.0</ele><time>2026-04-05T14:23:53.292Z</time></trkpt><trkpt lat="45.3514817" lon="8.7315167"><ele>121.16666666666667</ele><time>2026-04-05T14:23:54.291Z</time></trkpt><trkpt lat="45.3515317" lon="8.7314167"><ele>121.33333333333334</ele><time>2026-04-05T14:23:55.292Z</time></trkpt><trkpt lat="45.351585" lon="8.7313267"><ele>121.5</ele><time>2026-04-05T14:23:56.291Z</time></trkpt><trkpt lat="45.351645" lon="8.7312233"><ele>121.66666666666666</ele><time>2026-04-05T14:23:57.292Z</time></trkpt><trkpt lat="45.3516967" lon="8.731125"><ele>121.83333333333333</ele><time>2026-04-05T14:23:58.292Z</time></trkpt><trkpt lat="45.351755" lon="8.7310283"><ele>122.0</ele><time>2026-04-05T14:23:59.292Z</time></trkpt><trkpt lat="45.3518117" lon="8.730925"><ele>121.66666666666666</ele><time>2026-04-05T14:24:00.292Z</time></trkpt><trkpt lat="45.3518567" lon="8.7308217"><ele>121.33333333333333</ele><time>2026-04-05T14:24:01.292Z</time></trkpt><trkpt lat="45.3519067" lon="8.730725"><ele>121.0</ele><time>2026-04-05T14:24:02.291Z</time></trkpt><trkpt lat="45.3519567" lon="8.73064"><ele>120.66666666666666</ele><time>2026-04-05T14:24:03.292Z</time></trkpt><trkpt lat="45.3520083" lon="8.73056"><ele>120.33333333333333</ele><time>2026-04-05T14:24:04.291Z</time></trkpt><trkpt lat="45.3520517" lon="8.7304817"><ele>120.0</ele><time>2026-04-05T14:24:05.291Z</time></trkpt><trkpt lat="45.3520917" lon="8.7303983"><ele>120.0</ele><time>2026-04-05T14:24:06.292Z</time></trkpt><trkpt lat="45.3521383" lon="8.7303233"><ele>120.0</ele><time>2026-04-05T14:24:07.291Z</time></trkpt><trkpt lat="45.352195" lon="8.7302483"><ele>120.0</ele><time>2026-04-05T14:24:08.292Z</time></trkpt><trkpt lat="45.3522517" lon="8.7301833"><ele>120.0</ele><time>2026-04-05T14:24:09.292Z</time></trkpt><trkpt lat="45.3523067" lon="8.7301233"><ele>120.0</ele><time>2026-04-05T14:24:10.291Z</time></trkpt><trkpt lat="45.3523633" lon="8.7300633"><ele>120.0</ele><time>2026-04-05T14:24:11.292Z</time></trkpt><trkpt lat="45.3524317" lon="8.7300017"><ele>120.0</ele><time>2026-04-05T14:24:12.292Z</time></trkpt><trkpt lat="45.3524967" lon="8.7299283"><ele>119.6</ele><time>2026-04-05T14:24:13.291Z</time></trkpt><trkpt lat="45.3525633" lon="8.72986"><ele>119.2</ele><time>2026-04-05T14:24:14.291Z</time></trkpt><trkpt lat="45.352635" lon="8.72978"><ele>118.80000000000001</ele><time>2026-04-05T14:24:15.291Z</time></trkpt><trkpt lat="45.3527083" lon="8.7297017"><ele>118.4</ele><time>2026-04-05T14:24:16.291Z</time></trkpt><trkpt lat="45.3527833" lon="8.7296183"><ele>118.0</ele><time>2026-04-05T14:24:17.292Z</time></trkpt><trkpt lat="45.3528633" lon="8.729535"><ele>118.00000000000001</ele><time>2026-04-05T14:24:18.292Z</time></trkpt><trkpt lat="45.35294" lon="8.7294533"><ele>118.0</ele><time>2026-04-05T14:24:19.291Z</time></trkpt><trkpt lat="45.353015" lon="8.7293667"><ele>118.0</ele><time>2026-04-05T14:24:20.291Z</time></trkpt><trkpt lat="45.3530833" lon="8.72928"><ele>118.0</ele><time>2026-04-05T14:24:21.291Z</time></trkpt><trkpt lat="45.3531433" lon="8.7292067"><ele>118.00000000000001</ele><time>2026-04-05T14:24:22.292Z</time></trkpt><trkpt lat="45.3531983" lon="8.7291317"><ele>118.0</ele><time>2026-04-05T14:24:23.292Z</time></trkpt><trkpt lat="45.3532533" lon="8.729045"><ele>118.2</ele><time>2026-04-05T14:24:24.291Z</time></trkpt><trkpt lat="45.3533067" lon="8.72895"><ele>118.4</ele><time>2026-04-05T14:24:25.291Z</time></trkpt><trkpt lat="45.3533617" lon="8.728845"><ele>118.60000000000001</ele><time>2026-04-05T14:24:26.291Z</time></trkpt><trkpt lat="45.3534117" lon="8.728735"><ele>118.80000000000001</ele><time>2026-04-05T14:24:27.291Z</time></trkpt><trkpt lat="45.3534633" lon="8.7286167"><ele>119.0</ele><time>2026-04-05T14:24:28.292Z</time></trkpt><trkpt lat="45.35351" lon="8.7284967"><ele>119.33333333333333</ele><time>2026-04-05T14:24:29.292Z</time></trkpt><trkpt lat="45.3535517" lon="8.7283867"><ele>119.66666666666666</ele><time>2026-04-05T14:24:30.291Z</time></trkpt><trkpt lat="45.3535883" lon="8.7282817"><ele>120.0</ele><time>2026-04-05T14:24:31.292Z</time></trkpt><trkpt lat="45.3536333" lon="8.7281883"><ele>120.33333333333334</ele><time>2026-04-05T14:24:32.291Z</time></trkpt><trkpt lat="45.3536733" lon="8.728085"><ele>120.66666666666667</ele><time>2026-04-05T14:24:33.292Z</time></trkpt><trkpt lat="45.3537117" lon="8.727975"><ele>121.0</ele><time>2026-04-05T14:24:34.291Z</time></trkpt><trkpt lat="45.353755" lon="8.7278567"><ele>121.00000000000001</ele><time>2026-04-05T14:24:35.292Z</time></trkpt><trkpt lat="45.3538083" lon="8.727745"><ele>121.0</ele><time>2026-04-05T14:24:36.291Z</time></trkpt><trkpt lat="45.35385" lon="8.727635"><ele>121.0</ele><time>2026-04-05T14:24:37.291Z</time></trkpt><trkpt lat="45.35389" lon="8.7275417"><ele>121.0</ele><time>2026-04-05T14:24:38.291Z</time></trkpt><trkpt lat="45.3539267" lon="8.727465"><ele>121.00000000000001</ele><time>2026-04-05T14:24:39.292Z</time></trkpt><trkpt lat="45.3539717" lon="8.7274017"><ele>121.0</ele><time>2026-04-05T14:24:40.291Z</time></trkpt><trkpt lat="45.35403" lon="8.7273483"><ele>121.00000000000001</ele><time>2026-04-05T14:24:41.291Z</time></trkpt><trkpt lat="45.3540933" lon="8.7272967"><ele>121.0</ele><time>2026-04-05T14:24:42.292Z</time></trkpt><trkpt lat="45.354165" lon="8.7272533"><ele>121.0</ele><time>2026-04-05T14:24:43.292Z</time></trkpt><trkpt lat="45.354245" lon="8.7272233"><ele>121.0</ele><time>2026-04-05T14:24:44.292Z</time></trkpt><trkpt lat="45.3543183" lon="8.7272033"><ele>121.00000000000001</ele><time>2026-04-05T14:24:45.292Z</time></trkpt><trkpt lat="45.354395" lon="8.7271767"><ele>121.0</ele><time>2026-04-05T14:24:46.291Z</time></trkpt><trkpt lat="45.3544717" lon="8.7271483"><ele>121.0</ele><time>2026-04-05T14:24:47.291Z</time></trkpt><trkpt lat="45.3545417" lon="8.7271183"><ele>120.99999999999999</ele><time>2026-04-05T14:24:48.291Z</time></trkpt><trkpt lat="45.3546083" lon="8.72709"><ele>121.0</ele><time>2026-04-05T14:24:49.292Z</time></trkpt><trkpt lat="45.3546767" lon="8.7270583"><ele>121.0</ele><time>2026-04-05T14:24:50.291Z</time></trkpt><trkpt lat="45.3547417" lon="8.7270167"><ele>120.99999999999999</ele><time>2026-04-05T14:24:51.292Z</time></trkpt><trkpt lat="45.3548017" lon="8.726955"><ele>121.0</ele><time>2026-04-05T14:24:52.291Z</time></trkpt><trkpt lat="45.3548533" lon="8.7268817"><ele>121.0</ele><time>2026-04-05T14:24:53.292Z</time></trkpt><trkpt lat="45.3549" lon="8.7267933"><ele>121.00000000000001</ele><time>2026-04-05T14:24:54.291Z</time></trkpt><trkpt lat="45.3549433" lon="8.7266983"><ele>121.0</ele><time>2026-04-05T14:24:55.292Z</time></trkpt><trkpt lat="45.3549817" lon="8.7265967"><ele>121.0</ele><time>2026-04-05T14:24:56.292Z</time></trkpt><trkpt lat="45.355025" lon="8.72649"><ele>121.0</ele><time>2026-04-05T14:24:57.291Z</time></trkpt><trkpt lat="45.3550683" lon="8.7263883"><ele>121.00000000000001</ele><time>2026-04-05T14:24:58.292Z</time></trkpt><trkpt lat="45.35511" lon="8.726275"><ele>121.0</ele><time>2026-04-05T14:24:59.292Z</time></trkpt><trkpt lat="45.35515" lon="8.7261633"><ele>121.0</ele><time>2026-04-05T14:25:00.291Z</time></trkpt><trkpt lat="45.3551817" lon="8.7260417"><ele>121.0</ele><time>2026-04-05T14:25:01.292Z</time></trkpt><trkpt lat="45.3552167" lon="8.725915"><ele>121.0</ele><time>2026-04-05T14:25:02.291Z</time></trkpt><trkpt lat="45.3552517" lon="8.7257817"><ele>121.0</ele><time>2026-04-05T14:25:03.292Z</time></trkpt><trkpt lat="45.35529" lon="8.7256467"><ele>121.0</ele><time>2026-04-05T14:25:04.291Z</time></trkpt><trkpt lat="45.3553183" lon="8.725505"><ele>121.00000000000001</ele><time>2026-04-05T14:25:05.292Z</time></trkpt><trkpt lat="45.3553433" lon="8.7253683"><ele>121.0</ele><time>2026-04-05T14:25:06.292Z</time></trkpt><trkpt lat="45.3553667" lon="8.725245"><ele>121.0</ele><time>2026-04-05T14:25:07.292Z</time></trkpt><trkpt lat="45.3553983" lon="8.7251317"><ele>121.0</ele><time>2026-04-05T14:25:08.292Z</time></trkpt><trkpt lat="45.3554317" lon="8.72502"><ele>121.00000000000001</ele><time>2026-04-05T14:25:09.292Z</time></trkpt><trkpt lat="45.355465" lon="8.72491"><ele>121.0</ele><time>2026-04-05T14:25:10.292Z</time></trkpt><trkpt lat="45.3554967" lon="8.7247933"><ele>121.0</ele><time>2026-04-05T14:25:11.291Z</time></trkpt><trkpt lat="45.3555267" lon="8.724675"><ele>121.0</ele><time>2026-04-05T14:25:12.292Z</time></trkpt><trkpt lat="45.3555633" lon="8.72456"><ele>121.0</ele><time>2026-04-05T14:25:13.291Z</time></trkpt><trkpt lat="45.3556117" lon="8.7244367"><ele>121.0</ele><time>2026-04-05T14:25:14.291Z</time></trkpt><trkpt lat="45.3556633" lon="8.7243117"><ele>121.0</ele><time>2026-04-05T14:25:15.291Z</time></trkpt><trkpt lat="45.3557067" lon="8.7241817"><ele>121.00000000000001</ele><time>2026-04-05T14:25:16.292Z</time></trkpt><trkpt lat="45.3557417" lon="8.724055"><ele>121.0</ele><time>2026-04-05T14:25:17.291Z</time></trkpt><trkpt lat="45.35577" lon="8.7239333"><ele>121.0</ele><time>2026-04-05T14:25:18.292Z</time></trkpt><trkpt lat="45.3557983" lon="8.7238167"><ele>121.0</ele><time>2026-04-05T14:25:19.292Z</time></trkpt><trkpt lat="45.355835" lon="8.7237083"><ele>121.00000000000001</ele><time>2026-04-05T14:25:20.291Z</time></trkpt><trkpt lat="45.3558717" lon="8.7236017"><ele>121.0</ele><time>2026-04-05T14:25:21.291Z</time></trkpt><trkpt lat="45.3559067" lon="8.7234817"><ele>121.0</ele><time>2026-04-05T14:25:22.292Z</time></trkpt><trkpt lat="45.3559383" lon="8.7233533"><ele>121.0</ele><time>2026-04-05T14:25:23.291Z</time></trkpt><trkpt lat="45.3559667" lon="8.7232167"><ele>121.0</ele><time>2026-04-05T14:25:24.292Z</time></trkpt><trkpt lat="45.3559933" lon="8.723085"><ele>121.0</ele><time>2026-04-05T14:25:25.292Z</time></trkpt><trkpt lat="45.3560117" lon="8.7229583"><ele>121.0</ele><time>2026-04-05T14:25:26.292Z</time></trkpt><trkpt lat="45.356035" lon="8.7228517"><ele>121.00000000000001</ele><time>2026-04-05T14:25:27.291Z</time></trkpt><trkpt lat="45.35605" lon="8.722755"><ele>121.0</ele><time>2026-04-05T14:25:28.291Z</time></trkpt><trkpt lat="45.3560617" lon="8.722665"><ele>121.0</ele><time>2026-04-05T14:25:29.291Z</time></trkpt><trkpt lat="45.3560767" lon="8.722575"><ele>121.0</ele><time>2026-04-05T14:25:30.292Z</time></trkpt><trkpt lat="45.3561" lon="8.72249"><ele>121.00000000000001</ele><time>2026-04-05T14:25:31.292Z</time></trkpt><trkpt lat="45.3561083" lon="8.722325"><ele>121.0</ele><time>2026-04-05T14:25:33.292Z</time></trkpt><trkpt lat="45.3560967" lon="8.7221467"><ele>121.00000000000001</ele><time>2026-04-05T14:25:35.291Z</time></trkpt><trkpt lat="45.3560767" lon="8.7220417"><ele>121.0</ele><time>2026-04-05T14:25:36.291Z</time></trkpt><trkpt lat="45.35606" lon="8.72193"><ele>121.0</ele><time>2026-04-05T14:25:37.292Z</time></trkpt><trkpt lat="45.3560417" lon="8.7218083"><ele>121.0</ele><time>2026-04-05T14:25:38.291Z</time></trkpt><trkpt lat="45.35602" lon="8.7217"><ele>121.00000000000001</ele><time>2026-04-05T14:25:39.291Z</time></trkpt><trkpt lat="45.356" lon="8.7215933"><ele>121.0</ele><time>2026-04-05T14:25:40.292Z</time></trkpt><trkpt lat="45.3559817" lon="8.721495"><ele>121.16666666666667</ele><time>2026-04-05T14:25:41.292Z</time></trkpt><trkpt lat="45.3559583" lon="8.7213917"><ele>121.33333333333334</ele><time>2026-04-05T14:25:42.292Z</time></trkpt><trkpt lat="45.35594" lon="8.721295"><ele>121.5</ele><time>2026-04-05T14:25:43.291Z</time></trkpt><trkpt lat="45.3559317" lon="8.721205"><ele>121.66666666666666</ele><time>2026-04-05T14:25:44.291Z</time></trkpt><trkpt lat="45.3559267" lon="8.7210383"><ele>121.83333333333333</ele><time>2026-04-05T14:25:46.292Z</time></trkpt><trkpt lat="45.3559133" lon="8.7209217"><ele>122.0</ele><time>2026-04-05T14:25:48.291Z</time></trkpt><trkpt lat="45.3558383" lon="8.7208767"><ele>122.0</ele><time>2026-04-05T14:26:00.291Z</time></trkpt><trkpt lat="45.35577" lon="8.72096"><ele>121.99999999999999</ele><time>2026-04-05T14:26:02.292Z</time></trkpt><trkpt lat="45.3556967" lon="8.7210933"><ele>121.99999999999999</ele><time>2026-04-05T14:26:04.291Z</time></trkpt><trkpt lat="45.35565" lon="8.72118"><ele>122.0</ele><time>2026-04-05T14:26:05.292Z</time></trkpt><trkpt lat="45.3556067" lon="8.7212733"><ele>122.0</ele><time>2026-04-05T14:26:06.291Z</time></trkpt><trkpt lat="45.3555533" lon="8.72137"><ele>122.0</ele><time>2026-04-05T14:26:07.292Z</time></trkpt><trkpt lat="45.3554983" lon="8.7214767"><ele>121.99999999999999</ele><time>2026-04-05T14:26:08.291Z</time></trkpt><trkpt lat="45.35544" lon="8.7215817"><ele>121.99999999999999</ele><time>2026-04-05T14:26:09.29Z</time></trkpt><trkpt lat="45.35537" lon="8.721695"><ele>122.0</ele><time>2026-04-05T14:26:10.29Z</time></trkpt><trkpt lat="45.3552967" lon="8.7218133"><ele>122.0</ele><time>2026-04-05T14:26:11.291Z</time></trkpt><trkpt lat="45.355225" lon="8.7219217"><ele>121.8</ele><time>2026-04-05T14:26:12.291Z</time></trkpt><trkpt lat="45.3551517" lon="8.7220267"><ele>121.6</ele><time>2026-04-05T14:26:13.29Z</time></trkpt><trkpt lat="45.3550833" lon="8.7221317"><ele>121.39999999999999</ele><time>2026-04-05T14:26:14.291Z</time></trkpt><trkpt lat="45.355015" lon="8.7222317"><ele>121.19999999999999</ele><time>2026-04-05T14:26:15.29Z</time></trkpt><trkpt lat="45.3549417" lon="8.7223367"><ele>121.0</ele><time>2026-04-05T14:26:16.29Z</time></trkpt><trkpt lat="45.3548667" lon="8.7224433"><ele>121.0</ele><time>2026-04-05T14:26:17.29Z</time></trkpt><trkpt lat="45.3547883" lon="8.7225517"><ele>121.0</ele><time>2026-04-05T14:26:18.291Z</time></trkpt><trkpt lat="45.3547117" lon="8.7226517"><ele>121.0</ele><time>2026-04-05T14:26:19.291Z</time></trkpt><trkpt lat="45.3546317" lon="8.72274"><ele>121.0</ele><time>2026-04-05T14:26:20.29Z</time></trkpt><trkpt lat="45.35456" lon="8.722815"><ele>121.0</ele><time>2026-04-05T14:26:21.29Z</time></trkpt><trkpt lat="45.35449" lon="8.7228983"><ele>121.19999999999999</ele><time>2026-04-05T14:26:22.29Z</time></trkpt><trkpt lat="45.35441" lon="8.722965"><ele>121.39999999999999</ele><time>2026-04-05T14:26:23.291Z</time></trkpt><trkpt lat="45.3543317" lon="8.7230367"><ele>121.6</ele><time>2026-04-05T14:26:24.29Z</time></trkpt><trkpt lat="45.354255" lon="8.7231083"><ele>121.8</ele><time>2026-04-05T14:26:25.29Z</time></trkpt><trkpt lat="45.354175" lon="8.72318"><ele>122.0</ele><time>2026-04-05T14:26:26.29Z</time></trkpt><trkpt lat="45.3540883" lon="8.7232533"><ele>122.0</ele><time>2026-04-05T14:26:27.291Z</time></trkpt><trkpt lat="45.354" lon="8.72334"><ele>121.99999999999999</ele><time>2026-04-05T14:26:28.29Z</time></trkpt><trkpt lat="45.35391" lon="8.7234217"><ele>121.99999999999999</ele><time>2026-04-05T14:26:29.29Z</time></trkpt><trkpt lat="45.3538133" lon="8.7235083"><ele>122.0</ele><time>2026-04-05T14:26:30.291Z</time></trkpt><trkpt lat="45.3537233" lon="8.723585"><ele>122.0</ele><time>2026-04-05T14:26:31.29Z</time></trkpt><trkpt lat="45.3536367" lon="8.72366"><ele>121.8</ele><time>2026-04-05T14:26:32.291Z</time></trkpt><trkpt lat="45.35355" lon="8.7237283"><ele>121.6</ele><time>2026-04-05T14:26:33.291Z</time></trkpt><trkpt lat="45.3534583" lon="8.7237933"><ele>121.39999999999999</ele><time>2026-04-05T14:26:34.29Z</time></trkpt><trkpt lat="45.35337" lon="8.72387"><ele>121.19999999999999</ele><time>2026-04-05T14:26:35.29Z</time></trkpt><trkpt lat="45.353285" lon="8.72394"><ele>121.0</ele><time>2026-04-05T14:26:36.29Z</time></trkpt><trkpt lat="45.3531983" lon="8.7240083"><ele>121.0</ele><time>2026-04-05T14:26:37.291Z</time></trkpt><trkpt lat="45.3531183" lon="8.7240833"><ele>121.0</ele><time>2026-04-05T14:26:38.291Z</time></trkpt><trkpt lat="45.353035" lon="8.7241517"><ele>121.0</ele><time>2026-04-05T14:26:39.291Z</time></trkpt><trkpt lat="45.3529467" lon="8.7242233"><ele>121.0</ele><time>2026-04-05T14:26:40.29Z</time></trkpt><trkpt lat="45.3528667" lon="8.724305"><ele>121.0</ele><time>2026-04-05T14:26:41.291Z</time></trkpt><trkpt lat="45.3527833" lon="8.7243783"><ele>120.8</ele><time>2026-04-05T14:26:42.291Z</time></trkpt><trkpt lat="45.352705" lon="8.724455"><ele>120.6</ele><time>2026-04-05T14:26:43.29Z</time></trkpt><trkpt lat="45.3526167" lon="8.724535"><ele>120.4</ele><time>2026-04-05T14:26:44.291Z</time></trkpt><trkpt lat="45.3525283" lon="8.7246067"><ele>120.2</ele><time>2026-04-05T14:26:45.29Z</time></trkpt><trkpt lat="45.3524383" lon="8.724685"><ele>120.0</ele><time>2026-04-05T14:26:46.29Z</time></trkpt><trkpt lat="45.352355" lon="8.7247633"><ele>120.0</ele><time>2026-04-05T14:26:47.291Z</time></trkpt><trkpt lat="45.35226" lon="8.72484"><ele>120.0</ele><time>2026-04-05T14:26:48.29Z</time></trkpt><trkpt lat="45.352165" lon="8.7249317"><ele>120.0</ele><time>2026-04-05T14:26:49.291Z</time></trkpt><trkpt lat="45.3520617" lon="8.7250233"><ele>120.0</ele><time>2026-04-05T14:26:50.291Z</time></trkpt><trkpt lat="45.351955" lon="8.7251183"><ele>119.75</ele><time>2026-04-05T14:26:51.291Z</time></trkpt><trkpt lat="45.3518517" lon="8.7252133"><ele>119.5</ele><time>2026-04-05T14:26:52.29Z</time></trkpt><trkpt lat="45.351745" lon="8.725315"><ele>119.25</ele><time>2026-04-05T14:26:53.29Z</time></trkpt><trkpt lat="45.3516467" lon="8.72541"><ele>119.0</ele><time>2026-04-05T14:26:54.291Z</time></trkpt><trkpt lat="45.35155" lon="8.7255017"><ele>118.99999999999999</ele><time>2026-04-05T14:26:55.291Z</time></trkpt><trkpt lat="45.35146" lon="8.7255917"><ele>119.0</ele><time>2026-04-05T14:26:56.291Z</time></trkpt><trkpt lat="45.3513783" lon="8.725675"><ele>119.0</ele><time>2026-04-05T14:26:57.291Z</time></trkpt><trkpt lat="45.35131" lon="8.7257533"><ele>119.0</ele><time>2026-04-05T14:26:58.29Z</time></trkpt><trkpt lat="45.3512517" lon="8.725825"><ele>118.99999999999999</ele><time>2026-04-05T14:26:59.29Z</time></trkpt><trkpt lat="45.3511933" lon="8.7258883"><ele>119.0</ele><time>2026-04-05T14:27:00.29Z</time></trkpt><trkpt lat="45.3511" lon="8.7259817"><ele>118.99999999999999</ele><time>2026-04-05T14:27:02.29Z</time></trkpt><trkpt lat="45.351" lon="8.725965"><ele>119.0</ele><time>2026-04-05T14:27:04.291Z</time></trkpt><trkpt lat="45.350935" lon="8.7259483"><ele>119.0</ele><time>2026-04-05T14:27:05.29Z</time></trkpt><trkpt lat="45.350865" lon="8.7259317"><ele>119.0</ele><time>2026-04-05T14:27:06.291Z</time></trkpt><trkpt lat="45.3507867" lon="8.7259217"><ele>118.99999999999999</ele><time>2026-04-05T14:27:07.291Z</time></trkpt><trkpt lat="45.3506967" lon="8.7259133"><ele>119.0</ele><time>2026-04-05T14:27:08.291Z</time></trkpt><trkpt lat="45.3506033" lon="8.7258967"><ele>119.0</ele><time>2026-04-05T14:27:09.291Z</time></trkpt><trkpt lat="45.3505017" lon="8.725875"><ele>119.0</ele><time>2026-04-05T14:27:10.29Z</time></trkpt><trkpt lat="45.3503983" lon="8.7258533"><ele>119.0</ele><time>2026-04-05T14:27:11.291Z</time></trkpt><trkpt lat="45.35029" lon="8.7258367"><ele>119.0</ele><time>2026-04-05T14:27:12.291Z</time></trkpt><trkpt lat="45.3501883" lon="8.7258117"><ele>119.0</ele><time>2026-04-05T14:27:13.291Z</time></trkpt><trkpt lat="45.3500933" lon="8.725795"><ele>119.0</ele><time>2026-04-05T14:27:14.29Z</time></trkpt><trkpt lat="45.3500033" lon="8.725775"><ele>119.0</ele><time>2026-04-05T14:27:15.291Z</time></trkpt><trkpt lat="45.349915" lon="8.7257583"><ele>119.0</ele><time>2026-04-05T14:27:16.29Z</time></trkpt><trkpt lat="45.3498233" lon="8.7257383"><ele>119.0</ele><time>2026-04-05T14:27:17.291Z</time></trkpt><trkpt lat="45.3497317" lon="8.7257283"><ele>119.0</ele><time>2026-04-05T14:27:18.291Z</time></trkpt><trkpt lat="45.3496383" lon="8.725725"><ele>119.33333333333333</ele><time>2026-04-05T14:27:19.29Z</time></trkpt><trkpt lat="45.34955" lon="8.7257217"><ele>119.66666666666666</ele><time>2026-04-05T14:27:20.291Z</time></trkpt><trkpt lat="45.3494633" lon="8.72572"><ele>120.0</ele><time>2026-04-05T14:27:21.291Z</time></trkpt><trkpt lat="45.34938" lon="8.7257267"><ele>120.33333333333334</ele><time>2026-04-05T14:27:22.29Z</time></trkpt><trkpt lat="45.3492933" lon="8.72574"><ele>120.66666666666667</ele><time>2026-04-05T14:27:23.29Z</time></trkpt><trkpt lat="45.349205" lon="8.7257517"><ele>121.0</ele><time>2026-04-05T14:27:24.291Z</time></trkpt><trkpt lat="45.3491267" lon="8.7257583"><ele>121.00000000000001</ele><time>2026-04-05T14:27:25.291Z</time></trkpt><trkpt lat="45.3490583" lon="8.7257583"><ele>121.0</ele><time>2026-04-05T14:27:26.291Z</time></trkpt><trkpt lat="45.3489917" lon="8.7257433"><ele>121.0</ele><time>2026-04-05T14:27:27.29Z</time></trkpt><trkpt lat="45.3489217" lon="8.7257283"><ele>121.0</ele><time>2026-04-05T14:27:28.29Z</time></trkpt><trkpt lat="45.3488567" lon="8.7257017"><ele>121.00000000000001</ele><time>2026-04-05T14:27:29.291Z</time></trkpt><trkpt lat="45.3487967" lon="8.72566"><ele>121.0</ele><time>2026-04-05T14:27:30.291Z</time></trkpt><trkpt lat="45.3487033" lon="8.72558"><ele>120.83333333333334</ele><time>2026-04-05T14:27:32.291Z</time></trkpt><trkpt lat="45.3485933" lon="8.7255183"><ele>120.66666666666667</ele><time>2026-04-05T14:27:34.29Z</time></trkpt><trkpt lat="45.34853" lon="8.7255017"><ele>120.5</ele><time>2026-04-05T14:27:35.291Z</time></trkpt><trkpt lat="45.3484567" lon="8.7254933"><ele>120.33333333333334</ele><time>2026-04-05T14:27:36.291Z</time></trkpt><trkpt lat="45.3483817" lon="8.7254883"><ele>120.16666666666667</ele><time>2026-04-05T14:27:37.291Z</time></trkpt><trkpt lat="45.3483067" lon="8.72548"><ele>120.0</ele><time>2026-04-05T14:27:38.29Z</time></trkpt><trkpt lat="45.348225" lon="8.725475"><ele>120.0</ele><time>2026-04-05T14:27:39.29Z</time></trkpt><trkpt lat="45.34814" lon="8.7254717"><ele>120.0</ele><time>2026-04-05T14:27:40.29Z</time></trkpt><trkpt lat="45.3480533" lon="8.7254683"><ele>120.0</ele><time>2026-04-05T14:27:41.291Z</time></trkpt><trkpt lat="45.3479667" lon="8.725465"><ele>120.0</ele><time>2026-04-05T14:27:42.291Z</time></trkpt><trkpt lat="45.3478783" lon="8.7254583"><ele>120.0</ele><time>2026-04-05T14:27:43.291Z</time></trkpt><trkpt lat="45.3477917" lon="8.7254467"><ele>120.0</ele><time>2026-04-05T14:27:44.29Z</time></trkpt><trkpt lat="45.3477083" lon="8.72543"><ele>119.83333333333333</ele><time>2026-04-05T14:27:45.29Z</time></trkpt><trkpt lat="45.347625" lon="8.72541"><ele>119.66666666666666</ele><time>2026-04-05T14:27:46.291Z</time></trkpt><trkpt lat="45.3475383" lon="8.7253883"><ele>119.5</ele><time>2026-04-05T14:27:47.29Z</time></trkpt><trkpt lat="45.3474533" lon="8.7253683"><ele>119.33333333333333</ele><time>2026-04-05T14:27:48.29Z</time></trkpt><trkpt lat="45.3473617" lon="8.72535"><ele>119.16666666666666</ele><time>2026-04-05T14:27:49.29Z</time></trkpt><trkpt lat="45.3472683" lon="8.725335"><ele>119.0</ele><time>2026-04-05T14:27:50.29Z</time></trkpt><trkpt lat="45.3471767" lon="8.72532"><ele>118.80000000000001</ele><time>2026-04-05T14:27:51.291Z</time></trkpt><trkpt lat="45.347085" lon="8.7252983"><ele>118.60000000000001</ele><time>2026-04-05T14:27:52.291Z</time></trkpt><trkpt lat="45.3469967" lon="8.7252733"><ele>118.4</ele><time>2026-04-05T14:27:53.291Z</time></trkpt><trkpt lat="45.346905" lon="8.7252517"><ele>118.2</ele><time>2026-04-05T14:27:54.291Z</time></trkpt><trkpt lat="45.3468167" lon="8.725235"><ele>118.0</ele><time>2026-04-05T14:27:55.291Z</time></trkpt><trkpt lat="45.3467267" lon="8.725225"><ele>118.00000000000001</ele><time>2026-04-05T14:27:56.29Z</time></trkpt><trkpt lat="45.3466433" lon="8.725205"><ele>118.0</ele><time>2026-04-05T14:27:57.29Z</time></trkpt><trkpt lat="45.346555" lon="8.7251883"><ele>118.0</ele><time>2026-04-05T14:27:58.291Z</time></trkpt><trkpt lat="45.34647" lon="8.72517"><ele>118.0</ele><time>2026-04-05T14:27:59.29Z</time></trkpt><trkpt lat="45.34638" lon="8.7251533"><ele>118.00000000000001</ele><time>2026-04-05T14:28:00.29Z</time></trkpt><trkpt lat="45.3462833" lon="8.7251367"><ele>118.0</ele><time>2026-04-05T14:28:01.291Z</time></trkpt><trkpt lat="45.3461933" lon="8.7251233"><ele>118.00000000000001</ele><time>2026-04-05T14:28:02.29Z</time></trkpt><trkpt lat="45.3461033" lon="8.72511"><ele>118.0</ele><time>2026-04-05T14:28:03.291Z</time></trkpt><trkpt lat="45.3460133" lon="8.725095"><ele>118.0</ele><time>2026-04-05T14:28:04.291Z</time></trkpt><trkpt lat="45.345925" lon="8.7250817"><ele>118.0</ele><time>2026-04-05T14:28:05.29Z</time></trkpt><trkpt lat="45.3458367" lon="8.72506"><ele>118.00000000000001</ele><time>2026-04-05T14:28:06.291Z</time></trkpt><trkpt lat="45.3457517" lon="8.7250417"><ele>118.0</ele><time>2026-04-05T14:28:07.291Z</time></trkpt><trkpt lat="45.3456633" lon="8.7250233"><ele>118.00000000000001</ele><time>2026-04-05T14:28:08.29Z</time></trkpt><trkpt lat="45.3455817" lon="8.7250067"><ele>118.0</ele><time>2026-04-05T14:28:09.29Z</time></trkpt><trkpt lat="45.3454917" lon="8.7249883"><ele>118.0</ele><time>2026-04-05T14:28:10.291Z</time></trkpt><trkpt lat="45.3454033" lon="8.724965"><ele>118.0</ele><time>2026-04-05T14:28:11.29Z</time></trkpt><trkpt lat="45.345315" lon="8.724945"><ele>118.00000000000001</ele><time>2026-04-05T14:28:12.291Z</time></trkpt><trkpt lat="45.345225" lon="8.7249267"><ele>118.0</ele><time>2026-04-05T14:28:13.29Z</time></trkpt><trkpt lat="45.345145" lon="8.7249133"><ele>118.00000000000001</ele><time>2026-04-05T14:28:14.29Z</time></trkpt><trkpt lat="45.3450633" lon="8.7248967"><ele>118.0</ele><time>2026-04-05T14:28:15.29Z</time></trkpt><trkpt lat="45.34498" lon="8.7248833"><ele>118.0</ele><time>2026-04-05T14:28:16.291Z</time></trkpt><trkpt lat="45.3449117" lon="8.7248617"><ele>118.0</ele><time>2026-04-05T14:28:17.291Z</time></trkpt><trkpt lat="45.3448367" lon="8.72485"><ele>118.00000000000001</ele><time>2026-04-05T14:28:18.291Z</time></trkpt><trkpt lat="45.3447567" lon="8.724835"><ele>118.0</ele><time>2026-04-05T14:28:19.291Z</time></trkpt><trkpt lat="45.34468" lon="8.7248167"><ele>118.0</ele><time>2026-04-05T14:28:20.29Z</time></trkpt><trkpt lat="45.3446083" lon="8.7248"><ele>118.00000000000001</ele><time>2026-04-05T14:28:21.29Z</time></trkpt><trkpt lat="45.3444867" lon="8.7247733"><ele>118.00000000000001</ele><time>2026-04-05T14:28:23.291Z</time></trkpt><trkpt lat="45.3443917" lon="8.72478"><ele>118.0</ele><time>2026-04-05T14:28:25.29Z</time></trkpt><trkpt lat="45.344315" lon="8.7248717"><ele>118.0</ele><time>2026-04-05T14:28:27.291Z</time></trkpt><trkpt lat="45.3442667" lon="8.7250333"><ele>118.0</ele><time>2026-04-05T14:28:29.291Z</time></trkpt><trkpt lat="45.3442533" lon="8.7251233"><ele>118.00000000000001</ele><time>2026-04-05T14:28:30.291Z</time></trkpt><trkpt lat="45.344215" lon="8.72527"><ele>118.00000000000001</ele><time>2026-04-05T14:28:32.29Z</time></trkpt><trkpt lat="45.3441283" lon="8.7253517"><ele>118.0</ele><time>2026-04-05T14:28:34.291Z</time></trkpt><trkpt lat="45.3439917" lon="8.7253517"><ele>118.0</ele><time>2026-04-05T14:28:36.291Z</time></trkpt><trkpt lat="45.3439083" lon="8.7253267"><ele>117.80000000000001</ele><time>2026-04-05T14:28:37.291Z</time></trkpt><trkpt lat="45.3438133" lon="8.7253"><ele>117.60000000000001</ele><time>2026-04-05T14:28:38.291Z</time></trkpt><trkpt lat="45.3437133" lon="8.7252633"><ele>117.39999999999999</ele><time>2026-04-05T14:28:39.291Z</time></trkpt><trkpt lat="45.3436117" lon="8.72524"><ele>117.19999999999999</ele><time>2026-04-05T14:28:40.291Z</time></trkpt><trkpt lat="45.3435033" lon="8.7252133"><ele>117.0</ele><time>2026-04-05T14:28:41.291Z</time></trkpt><trkpt lat="45.3433967" lon="8.72519"><ele>117.0</ele><time>2026-04-05T14:28:42.291Z</time></trkpt><trkpt lat="45.3432933" lon="8.7251667"><ele>116.99999999999999</ele><time>2026-04-05T14:28:43.291Z</time></trkpt><trkpt lat="45.343195" lon="8.725145"><ele>116.99999999999999</ele><time>2026-04-05T14:28:44.291Z</time></trkpt><trkpt lat="45.3430983" lon="8.7251217"><ele>117.0</ele><time>2026-04-05T14:28:45.29Z</time></trkpt><trkpt lat="45.343" lon="8.72509"><ele>117.0</ele><time>2026-04-05T14:28:46.291Z</time></trkpt><trkpt lat="45.3429" lon="8.7250583"><ele>116.8</ele><time>2026-04-05T14:28:47.291Z</time></trkpt><trkpt lat="45.3427917" lon="8.7250267"><ele>116.6</ele><time>2026-04-05T14:28:48.291Z</time></trkpt><trkpt lat="45.342685" lon="8.7250017"><ele>116.39999999999999</ele><time>2026-04-05T14:28:49.291Z</time></trkpt><trkpt lat="45.342585" lon="8.7249717"><ele>116.19999999999999</ele><time>2026-04-05T14:28:50.29Z</time></trkpt><trkpt lat="45.3424833" lon="8.7249467"><ele>116.0</ele><time>2026-04-05T14:28:51.29Z</time></trkpt><trkpt lat="45.3423933" lon="8.7249267"><ele>115.99999999999999</ele><time>2026-04-05T14:28:52.291Z</time></trkpt><trkpt lat="45.3423067" lon="8.7249033"><ele>116.0</ele><time>2026-04-05T14:28:53.291Z</time></trkpt><trkpt lat="45.34222" lon="8.7248817"><ele>116.0</ele><time>2026-04-05T14:28:54.291Z</time></trkpt><trkpt lat="45.3421383" lon="8.7248583"><ele>116.0</ele><time>2026-04-05T14:28:55.29Z</time></trkpt><trkpt lat="45.3420517" lon="8.7248367"><ele>115.99999999999999</ele><time>2026-04-05T14:28:56.291Z</time></trkpt><trkpt lat="45.3419667" lon="8.7248183"><ele>116.0</ele><time>2026-04-05T14:28:57.29Z</time></trkpt><trkpt lat="45.3418717" lon="8.7247967"><ele>115.99999999999999</ele><time>2026-04-05T14:28:58.29Z</time></trkpt><trkpt lat="45.3417783" lon="8.72477"><ele>116.0</ele><time>2026-04-05T14:28:59.29Z</time></trkpt><trkpt lat="45.3416917" lon="8.7247433"><ele>116.0</ele><time>2026-04-05T14:29:00.291Z</time></trkpt><trkpt lat="45.3416083" lon="8.724725"><ele>116.0</ele><time>2026-04-05T14:29:01.291Z</time></trkpt><trkpt lat="45.3415267" lon="8.7247"><ele>115.99999999999999</ele><time>2026-04-05T14:29:02.29Z</time></trkpt><trkpt lat="45.341445" lon="8.72468"><ele>116.0</ele><time>2026-04-05T14:29:03.29Z</time></trkpt><trkpt lat="45.34136" lon="8.724655"><ele>115.99999999999999</ele><time>2026-04-05T14:29:04.29Z</time></trkpt><trkpt lat="45.341275" lon="8.7246267"><ele>116.0</ele><time>2026-04-05T14:29:05.291Z</time></trkpt><trkpt lat="45.341195" lon="8.7246"><ele>116.0</ele><time>2026-04-05T14:29:06.29Z</time></trkpt><trkpt lat="45.34111" lon="8.7245783"><ele>116.0</ele><time>2026-04-05T14:29:07.291Z</time></trkpt><trkpt lat="45.3410233" lon="8.7245517"><ele>115.99999999999999</ele><time>2026-04-05T14:29:08.291Z</time></trkpt><trkpt lat="45.34093" lon="8.724525"><ele>116.0</ele><time>2026-04-05T14:29:09.29Z</time></trkpt><trkpt lat="45.3408417" lon="8.7245"><ele>116.0</ele><time>2026-04-05T14:29:10.29Z</time></trkpt><trkpt lat="45.3407433" lon="8.7244733"><ele>116.0</ele><time>2026-04-05T14:29:11.29Z</time></trkpt><trkpt lat="45.3406467" lon="8.724455"><ele>116.0</ele><time>2026-04-05T14:29:12.29Z</time></trkpt><trkpt lat="45.340555" lon="8.72443"><ele>116.0</ele><time>2026-04-05T14:29:13.29Z</time></trkpt><trkpt lat="45.3404583" lon="8.7244083"><ele>116.0</ele><time>2026-04-05T14:29:14.29Z</time></trkpt><trkpt lat="45.3403667" lon="8.7243817"><ele>116.19999999999999</ele><time>2026-04-05T14:29:15.291Z</time></trkpt><trkpt lat="45.3402817" lon="8.72436"><ele>116.39999999999999</ele><time>2026-04-05T14:29:16.291Z</time></trkpt><trkpt lat="45.3401883" lon="8.72433"><ele>116.6</ele><time>2026-04-05T14:29:17.29Z</time></trkpt><trkpt lat="45.3401" lon="8.7243"><ele>116.8</ele><time>2026-04-05T14:29:18.29Z</time></trkpt><trkpt lat="45.34001" lon="8.7242767"><ele>117.0</ele><time>2026-04-05T14:29:19.291Z</time></trkpt><trkpt lat="45.339915" lon="8.7242533"><ele>117.0</ele><time>2026-04-05T14:29:20.291Z</time></trkpt><trkpt lat="45.3398333" lon="8.7242333"><ele>117.0</ele><time>2026-04-05T14:29:21.291Z</time></trkpt><trkpt lat="45.3397467" lon="8.7242083"><ele>117.0</ele><time>2026-04-05T14:29:22.29Z</time></trkpt><trkpt lat="45.33966" lon="8.7241933"><ele>117.0</ele><time>2026-04-05T14:29:23.29Z</time></trkpt><trkpt lat="45.3395767" lon="8.724175"><ele>117.0</ele><time>2026-04-05T14:29:24.291Z</time></trkpt><trkpt lat="45.33949" lon="8.7241467"><ele>117.0</ele><time>2026-04-05T14:29:25.29Z</time></trkpt><trkpt lat="45.3394033" lon="8.7241167"><ele>117.0</ele><time>2026-04-05T14:29:26.29Z</time></trkpt><trkpt lat="45.3393117" lon="8.7240933"><ele>116.99999999999999</ele><time>2026-04-05T14:29:27.29Z</time></trkpt><trkpt lat="45.3392117" lon="8.7240683"><ele>116.99999999999999</ele><time>2026-04-05T14:29:28.291Z</time></trkpt><trkpt lat="45.3391133" lon="8.724045"><ele>117.0</ele><time>2026-04-05T14:29:29.29Z</time></trkpt><trkpt lat="45.33901" lon="8.7240133"><ele>117.0</ele><time>2026-04-05T14:29:30.291Z</time></trkpt><trkpt lat="45.3389067" lon="8.7239883"><ele>117.0</ele><time>2026-04-05T14:29:31.291Z</time></trkpt><trkpt lat="45.338805" lon="8.72396"><ele>116.99999999999999</ele><time>2026-04-05T14:29:32.291Z</time></trkpt><trkpt lat="45.3387117" lon="8.7239367"><ele>116.99999999999999</ele><time>2026-04-05T14:29:33.29Z</time></trkpt><trkpt lat="45.33862" lon="8.7239133"><ele>117.0</ele><time>2026-04-05T14:29:34.291Z</time></trkpt><trkpt lat="45.3385333" lon="8.723895"><ele>117.0</ele><time>2026-04-05T14:29:35.291Z</time></trkpt><trkpt lat="45.3384517" lon="8.723865"><ele>117.0</ele><time>2026-04-05T14:29:36.29Z</time></trkpt><trkpt lat="45.338365" lon="8.7238383"><ele>116.99999999999999</ele><time>2026-04-05T14:29:37.291Z</time></trkpt><trkpt lat="45.338275" lon="8.7238117"><ele>116.99999999999999</ele><time>2026-04-05T14:29:38.291Z</time></trkpt><trkpt lat="45.3381833" lon="8.7237867"><ele>117.0</ele><time>2026-04-05T14:29:39.291Z</time></trkpt><trkpt lat="45.33809" lon="8.7237633"><ele>117.0</ele><time>2026-04-05T14:29:40.291Z</time></trkpt><trkpt lat="45.338" lon="8.7237383"><ele>116.85714285714286</ele><time>2026-04-05T14:29:41.291Z</time></trkpt><trkpt lat="45.3379183" lon="8.7237183"><ele>116.71428571428572</ele><time>2026-04-05T14:29:42.29Z</time></trkpt><trkpt lat="45.3378367" lon="8.7236967"><ele>116.57142857142858</ele><time>2026-04-05T14:29:43.29Z</time></trkpt><trkpt lat="45.3377617" lon="8.7236767"><ele>116.42857142857144</ele><time>2026-04-05T14:29:44.291Z</time></trkpt><trkpt lat="45.337695" lon="8.72366"><ele>116.28571428571429</ele><time>2026-04-05T14:29:45.291Z</time></trkpt><trkpt lat="45.33763" lon="8.7236433"><ele>116.14285714285717</ele><time>2026-04-05T14:29:46.291Z</time></trkpt><trkpt lat="45.3375683" lon="8.723625"><ele>116.00000000000001</ele><time>2026-04-05T14:29:47.291Z</time></trkpt><trkpt lat="45.337505" lon="8.7236083"><ele>115.99999999999999</ele><time>2026-04-05T14:29:48.29Z</time></trkpt><trkpt lat="45.3374433" lon="8.72359"><ele>116.0</ele><time>2026-04-05T14:29:49.29Z</time></trkpt><trkpt lat="45.33738" lon="8.7235783"><ele>116.0</ele><time>2026-04-05T14:29:50.29Z</time></trkpt><trkpt lat="45.3372617" lon="8.7236017"><ele>116.0</ele><time>2026-04-05T14:29:52.29Z</time></trkpt><trkpt lat="45.33717" lon="8.723685"><ele>115.99999999999999</ele><time>2026-04-05T14:29:54.29Z</time></trkpt><trkpt lat="45.3371217" lon="8.723775"><ele>116.0</ele><time>2026-04-05T14:29:56.291Z</time></trkpt><trkpt lat="45.33711" lon="8.7238633"><ele>116.0</ele><time>2026-04-05T14:30:20.291Z</time></trkpt><trkpt lat="45.337085" lon="8.724025"><ele>116.0</ele><time>2026-04-05T14:30:22.29Z</time></trkpt><trkpt lat="45.3370817" lon="8.7241667"><ele>116.0</ele><time>2026-04-05T14:30:24.29Z</time></trkpt><trkpt lat="45.33706" lon="8.7242933"><ele>116.0</ele><time>2026-04-05T14:30:26.29Z</time></trkpt><trkpt lat="45.3370317" lon="8.724415"><ele>116.0</ele><time>2026-04-05T14:30:28.29Z</time></trkpt><trkpt lat="45.336975" lon="8.724475"><ele>115.99999999999999</ele><time>2026-04-05T14:30:30.291Z</time></trkpt><trkpt lat="45.3368783" lon="8.7244667"><ele>116.0</ele><time>2026-04-05T14:30:32.29Z</time></trkpt><trkpt lat="45.3368117" lon="8.7244417"><ele>116.0</ele><time>2026-04-05T14:30:33.291Z</time></trkpt><trkpt lat="45.3367467" lon="8.7244217"><ele>116.0</ele><time>2026-04-05T14:30:34.291Z</time></trkpt><trkpt lat="45.33663" lon="8.7243817"><ele>115.99999999999999</ele><time>2026-04-05T14:30:36.29Z</time></trkpt><trkpt lat="45.336545" lon="8.7243167"><ele>116.0</ele><time>2026-04-05T14:30:38.291Z</time></trkpt><trkpt lat="45.33652" lon="8.7242083"><ele>116.16666666666666</ele><time>2026-04-05T14:30:40.29Z</time></trkpt><trkpt lat="45.3365283" lon="8.7240533"><ele>116.33333333333333</ele><time>2026-04-05T14:30:42.291Z</time></trkpt><trkpt lat="45.3365433" lon="8.72396"><ele>116.5</ele><time>2026-04-05T14:30:43.29Z</time></trkpt><trkpt lat="45.3365533" lon="8.72385"><ele>116.66666666666666</ele><time>2026-04-05T14:30:44.29Z</time></trkpt><trkpt lat="45.3365617" lon="8.723725"><ele>116.83333333333333</ele><time>2026-04-05T14:30:45.291Z</time></trkpt><trkpt lat="45.3365683" lon="8.723595"><ele>117.0</ele><time>2026-04-05T14:30:46.29Z</time></trkpt><trkpt lat="45.33658" lon="8.7234667"><ele>117.16666666666667</ele><time>2026-04-05T14:30:47.291Z</time></trkpt><trkpt lat="45.3365883" lon="8.72334"><ele>117.33333333333334</ele><time>2026-04-05T14:30:48.291Z</time></trkpt><trkpt lat="45.3365917" lon="8.723225"><ele>117.5</ele><time>2026-04-05T14:30:49.291Z</time></trkpt><trkpt lat="45.3366" lon="8.7231167"><ele>117.66666666666667</ele><time>2026-04-05T14:30:50.291Z</time></trkpt><trkpt lat="45.3366083" lon="8.723005"><ele>117.83333333333334</ele><time>2026-04-05T14:30:51.29Z</time></trkpt><trkpt lat="45.33661" lon="8.7229117"><ele>118.0</ele><time>2026-04-05T14:30:52.291Z</time></trkpt><trkpt lat="45.33662" lon="8.722815"><ele>118.0</ele><time>2026-04-05T14:30:53.29Z</time></trkpt><trkpt lat="45.3366283" lon="8.72272"><ele>118.0</ele><time>2026-04-05T14:30:54.291Z</time></trkpt><trkpt lat="45.3366383" lon="8.722625"><ele>118.0</ele><time>2026-04-05T14:30:55.29Z</time></trkpt><trkpt lat="45.3366483" lon="8.722525"><ele>118.0</ele><time>2026-04-05T14:30:56.291Z</time></trkpt></trkseg><trkseg><trkpt lat="45.3340183" lon="8.70765"><ele>117.0</ele><time>2026-04-05T14:41:01.285Z</time></trkpt><trkpt lat="45.33399" lon="8.707495"><ele>117.0</ele><time>2026-04-05T14:41:03.284Z</time></trkpt><trkpt lat="45.3339717" lon="8.7073967"><ele>117.0</ele><time>2026-04-05T14:41:04.285Z</time></trkpt><trkpt lat="45.3339483" lon="8.7072783"><ele>117.0</ele><time>2026-04-05T14:41:05.284Z</time></trkpt><trkpt lat="45.333925" lon="8.7071783"><ele>117.0</ele><time>2026-04-05T14:41:06.285Z</time></trkpt><trkpt lat="45.3339033" lon="8.7070717"><ele>117.0</ele><time>2026-04-05T14:41:07.285Z</time></trkpt><trkpt lat="45.3338833" lon="8.706965"><ele>116.83333333333333</ele><time>2026-04-05T14:41:08.285Z</time></trkpt><trkpt lat="45.3338633" lon="8.7068633"><ele>116.66666666666666</ele><time>2026-04-05T14:41:09.284Z</time></trkpt><trkpt lat="45.3338433" lon="8.7067683"><ele>116.5</ele><time>2026-04-05T14:41:10.284Z</time></trkpt><trkpt lat="45.3338283" lon="8.7066733"><ele>116.33333333333333</ele><time>2026-04-05T14:41:11.284Z</time></trkpt><trkpt lat="45.3338033" lon="8.7065167"><ele>116.16666666666666</ele><time>2026-04-05T14:41:13.285Z</time></trkpt><trkpt lat="45.3337667" lon="8.7063667"><ele>116.0</ele><time>2026-04-05T14:41:15.284Z</time></trkpt><trkpt lat="45.3337383" lon="8.70623"><ele>116.0</ele><time>2026-04-05T14:41:17.284Z</time></trkpt><trkpt lat="45.333715" lon="8.706115"><ele>116.0</ele><time>2026-04-05T14:41:19.285Z</time></trkpt><trkpt lat="45.3336867" lon="8.7059983"><ele>116.0</ele><time>2026-04-05T14:41:22.284Z</time></trkpt><trkpt lat="45.333615" lon="8.7059"><ele>116.0</ele><time>2026-04-05T14:41:25.284Z</time></trkpt><trkpt lat="45.3334967" lon="8.7058283"><ele>116.0</ele><time>2026-04-05T14:41:27.285Z</time></trkpt><trkpt lat="45.3334317" lon="8.7058017"><ele>116.49999999999999</ele><time>2026-04-05T14:41:28.285Z</time></trkpt><trkpt lat="45.3333567" lon="8.705785"><ele>117.0</ele><time>2026-04-05T14:41:29.285Z</time></trkpt><trkpt lat="45.3332817" lon="8.7057683"><ele>117.5</ele><time>2026-04-05T14:41:30.285Z</time></trkpt><trkpt lat="45.3332017" lon="8.7057567"><ele>118.0</ele><time>2026-04-05T14:41:31.285Z</time></trkpt><trkpt lat="45.333115" lon="8.705745"><ele>118.49999999999999</ele><time>2026-04-05T14:41:32.285Z</time></trkpt><trkpt lat="45.33302" lon="8.705735"><ele>119.0</ele><time>2026-04-05T14:41:33.285Z</time></trkpt><trkpt lat="45.33292" lon="8.7057267"><ele>119.0</ele><time>2026-04-05T14:41:34.284Z</time></trkpt><trkpt lat="45.3328233" lon="8.7057167"><ele>119.0</ele><time>2026-04-05T14:41:35.285Z</time></trkpt><trkpt lat="45.3327133" lon="8.7057067"><ele>119.0</ele><time>2026-04-05T14:41:36.284Z</time></trkpt><trkpt lat="45.3326017" lon="8.70569"><ele>119.0</ele><time>2026-04-05T14:41:37.285Z</time></trkpt><trkpt lat="45.3324917" lon="8.7056783"><ele>119.0</ele><time>2026-04-05T14:41:38.285Z</time></trkpt><trkpt lat="45.3323717" lon="8.705665"><ele>119.0</ele><time>2026-04-05T14:41:39.285Z</time></trkpt><trkpt lat="45.3322533" lon="8.7056483"><ele>119.0</ele><time>2026-04-05T14:41:40.285Z</time></trkpt><trkpt lat="45.33214" lon="8.7056333"><ele>119.0</ele><time>2026-04-05T14:41:41.284Z</time></trkpt><trkpt lat="45.33203" lon="8.7056167"><ele>119.0</ele><time>2026-04-05T14:41:42.284Z</time></trkpt><trkpt lat="45.33192" lon="8.7055983"><ele>118.80000000000001</ele><time>2026-04-05T14:41:43.285Z</time></trkpt><trkpt lat="45.331815" lon="8.7055783"><ele>118.60000000000001</ele><time>2026-04-05T14:41:44.284Z</time></trkpt><trkpt lat="45.33172" lon="8.705555"><ele>118.4</ele><time>2026-04-05T14:41:45.285Z</time></trkpt><trkpt lat="45.3316267" lon="8.7055233"><ele>118.2</ele><time>2026-04-05T14:41:46.285Z</time></trkpt><trkpt lat="45.3315367" lon="8.7054933"><ele>118.0</ele><time>2026-04-05T14:41:47.283Z</time></trkpt><trkpt lat="45.3314433" lon="8.7054567"><ele>118.0</ele><time>2026-04-05T14:41:48.283Z</time></trkpt><trkpt lat="45.3313633" lon="8.70543"><ele>118.00000000000001</ele><time>2026-04-05T14:41:49.283Z</time></trkpt><trkpt lat="45.3312733" lon="8.7054017"><ele>118.00000000000001</ele><time>2026-04-05T14:41:50.284Z</time></trkpt><trkpt lat="45.3311817" lon="8.7053633"><ele>118.0</ele><time>2026-04-05T14:41:51.283Z</time></trkpt><trkpt lat="45.3310817" lon="8.705335"><ele>118.0</ele><time>2026-04-05T14:41:52.284Z</time></trkpt><trkpt lat="45.3309767" lon="8.7053067"><ele>118.0</ele><time>2026-04-05T14:41:53.284Z</time></trkpt><trkpt lat="45.3308733" lon="8.7052767"><ele>118.00000000000001</ele><time>2026-04-05T14:41:54.284Z</time></trkpt><trkpt lat="45.3307717" lon="8.7052483"><ele>118.00000000000001</ele><time>2026-04-05T14:41:55.284Z</time></trkpt><trkpt lat="45.330675" lon="8.70522"><ele>118.0</ele><time>2026-04-05T14:41:56.284Z</time></trkpt><trkpt lat="45.3305817" lon="8.7052017"><ele>118.0</ele><time>2026-04-05T14:41:57.283Z</time></trkpt><trkpt lat="45.330485" lon="8.7051833"><ele>117.80000000000001</ele><time>2026-04-05T14:41:58.284Z</time></trkpt><trkpt lat="45.3303917" lon="8.7051717"><ele>117.60000000000001</ele><time>2026-04-05T14:41:59.284Z</time></trkpt><trkpt lat="45.3302917" lon="8.7051533"><ele>117.39999999999999</ele><time>2026-04-05T14:42:00.284Z</time></trkpt><trkpt lat="45.3301917" lon="8.7051317"><ele>117.19999999999999</ele><time>2026-04-05T14:42:01.284Z</time></trkpt><trkpt lat="45.33009" lon="8.7051117"><ele>117.0</ele><time>2026-04-05T14:42:02.284Z</time></trkpt><trkpt lat="45.3299883" lon="8.705085"><ele>117.0</ele><time>2026-04-05T14:42:03.284Z</time></trkpt><trkpt lat="45.3298933" lon="8.7050567"><ele>116.99999999999999</ele><time>2026-04-05T14:42:04.283Z</time></trkpt><trkpt lat="45.32979" lon="8.70502"><ele>116.99999999999999</ele><time>2026-04-05T14:42:05.284Z</time></trkpt><trkpt lat="45.3296867" lon="8.7049833"><ele>117.0</ele><time>2026-04-05T14:42:06.284Z</time></trkpt><trkpt lat="45.32958" lon="8.7049433"><ele>117.0</ele><time>2026-04-05T14:42:07.284Z</time></trkpt><trkpt lat="45.32947" lon="8.7048983"><ele>116.75</ele><time>2026-04-05T14:42:08.284Z</time></trkpt><trkpt lat="45.32936" lon="8.704845"><ele>116.5</ele><time>2026-04-05T14:42:09.284Z</time></trkpt><trkpt lat="45.32924" lon="8.7047967"><ele>116.25</ele><time>2026-04-05T14:42:10.284Z</time></trkpt><trkpt lat="45.3291183" lon="8.7047433"><ele>116.0</ele><time>2026-04-05T14:42:11.283Z</time></trkpt><trkpt lat="45.3289967" lon="8.7046833"><ele>116.19999999999999</ele><time>2026-04-05T14:42:12.284Z</time></trkpt><trkpt lat="45.3288867" lon="8.7046333"><ele>116.39999999999999</ele><time>2026-04-05T14:42:13.283Z</time></trkpt><trkpt lat="45.3287833" lon="8.7045817"><ele>116.6</ele><time>2026-04-05T14:42:14.283Z</time></trkpt><trkpt lat="45.3286833" lon="8.7045417"><ele>116.8</ele><time>2026-04-05T14:42:15.283Z</time></trkpt><trkpt lat="45.3285883" lon="8.7045033"><ele>117.0</ele><time>2026-04-05T14:42:16.284Z</time></trkpt><trkpt lat="45.3284917" lon="8.7044683"><ele>117.0</ele><time>2026-04-05T14:42:17.283Z</time></trkpt><trkpt lat="45.3283917" lon="8.70444"><ele>116.99999999999999</ele><time>2026-04-05T14:42:18.283Z</time></trkpt><trkpt lat="45.3282983" lon="8.7044133"><ele>116.99999999999999</ele><time>2026-04-05T14:42:19.284Z</time></trkpt><trkpt lat="45.328215" lon="8.7043767"><ele>117.0</ele><time>2026-04-05T14:42:20.284Z</time></trkpt><trkpt lat="45.3281333" lon="8.7043417"><ele>117.0</ele><time>2026-04-05T14:42:21.284Z</time></trkpt><trkpt lat="45.3280433" lon="8.7043033"><ele>116.8</ele><time>2026-04-05T14:42:22.283Z</time></trkpt><trkpt lat="45.3279517" lon="8.70427"><ele>116.6</ele><time>2026-04-05T14:42:23.283Z</time></trkpt><trkpt lat="45.327865" lon="8.7042267"><ele>116.39999999999999</ele><time>2026-04-05T14:42:24.284Z</time></trkpt><trkpt lat="45.3277667" lon="8.7041933"><ele>116.19999999999999</ele><time>2026-04-05T14:42:25.284Z</time></trkpt><trkpt lat="45.3276683" lon="8.7041567"><ele>116.0</ele><time>2026-04-05T14:42:26.283Z</time></trkpt><trkpt lat="45.3275767" lon="8.70412"><ele>115.99999999999999</ele><time>2026-04-05T14:42:27.284Z</time></trkpt><trkpt lat="45.3274867" lon="8.7040867"><ele>116.0</ele><time>2026-04-05T14:42:28.283Z</time></trkpt><trkpt lat="45.3274033" lon="8.704055"><ele>116.0</ele><time>2026-04-05T14:42:29.283Z</time></trkpt><trkpt lat="45.3273183" lon="8.7040267"><ele>116.0</ele><time>2026-04-05T14:42:30.284Z</time></trkpt><trkpt lat="45.327235" lon="8.7039983"><ele>115.99999999999999</ele><time>2026-04-05T14:42:31.284Z</time></trkpt><trkpt lat="45.3271467" lon="8.7039683"><ele>116.0</ele><time>2026-04-05T14:42:32.284Z</time></trkpt><trkpt lat="45.3270633" lon="8.7039283"><ele>115.83333333333333</ele><time>2026-04-05T14:42:33.284Z</time></trkpt><trkpt lat="45.3269817" lon="8.703895"><ele>115.66666666666666</ele><time>2026-04-05T14:42:34.283Z</time></trkpt><trkpt lat="45.326895" lon="8.7038617"><ele>115.5</ele><time>2026-04-05T14:42:35.284Z</time></trkpt><trkpt lat="45.3268067" lon="8.7038317"><ele>115.33333333333334</ele><time>2026-04-05T14:42:36.283Z</time></trkpt><trkpt lat="45.3267233" lon="8.7038017"><ele>115.16666666666667</ele><time>2026-04-05T14:42:37.284Z</time></trkpt><trkpt lat="45.3266317" lon="8.7037617"><ele>115.0</ele><time>2026-04-05T14:42:38.283Z</time></trkpt><trkpt lat="45.326545" lon="8.7037183"><ele>115.00000000000001</ele><time>2026-04-05T14:42:39.283Z</time></trkpt><trkpt lat="45.32646" lon="8.7036733"><ele>115.0</ele><time>2026-04-05T14:42:40.283Z</time></trkpt><trkpt lat="45.3263733" lon="8.7036233"><ele>115.0</ele><time>2026-04-05T14:42:41.283Z</time></trkpt><trkpt lat="45.3262917" lon="8.7035767"><ele>115.0</ele><time>2026-04-05T14:42:42.283Z</time></trkpt><trkpt lat="45.3262067" lon="8.7035367"><ele>115.00000000000001</ele><time>2026-04-05T14:42:43.284Z</time></trkpt><trkpt lat="45.3261267" lon="8.7034883"><ele>115.0</ele><time>2026-04-05T14:42:44.283Z</time></trkpt><trkpt lat="45.3260433" lon="8.7034283"><ele>115.16666666666667</ele><time>2026-04-05T14:42:45.283Z</time></trkpt><trkpt lat="45.32597" lon="8.7033617"><ele>115.33333333333334</ele><time>2026-04-05T14:42:46.283Z</time></trkpt><trkpt lat="45.32589" lon="8.7033033"><ele>115.5</ele><time>2026-04-05T14:42:47.283Z</time></trkpt><trkpt lat="45.32581" lon="8.7032517"><ele>115.66666666666666</ele><time>2026-04-05T14:42:48.283Z</time></trkpt><trkpt lat="45.325735" lon="8.703205"><ele>115.83333333333333</ele><time>2026-04-05T14:42:49.284Z</time></trkpt><trkpt lat="45.3256533" lon="8.7031583"><ele>116.0</ele><time>2026-04-05T14:42:50.284Z</time></trkpt><trkpt lat="45.325565" lon="8.70311"><ele>116.4</ele><time>2026-04-05T14:42:51.283Z</time></trkpt><trkpt lat="45.325475" lon="8.7030533"><ele>116.8</ele><time>2026-04-05T14:42:52.284Z</time></trkpt><trkpt lat="45.325385" lon="8.7029983"><ele>117.20000000000002</ele><time>2026-04-05T14:42:53.283Z</time></trkpt><trkpt lat="45.3252983" lon="8.7029533"><ele>117.60000000000001</ele><time>2026-04-05T14:42:54.283Z</time></trkpt><trkpt lat="45.3252067" lon="8.7029183"><ele>118.0</ele><time>2026-04-05T14:42:55.284Z</time></trkpt><trkpt lat="45.3251183" lon="8.7028817"><ele>118.00000000000001</ele><time>2026-04-05T14:42:56.283Z</time></trkpt><trkpt lat="45.32503" lon="8.7028383"><ele>118.0</ele><time>2026-04-05T14:42:57.283Z</time></trkpt><trkpt lat="45.3249533" lon="8.7028017"><ele>118.0</ele><time>2026-04-05T14:42:58.284Z</time></trkpt><trkpt lat="45.3248767" lon="8.7027633"><ele>118.0</ele><time>2026-04-05T14:42:59.284Z</time></trkpt><trkpt lat="45.3248067" lon="8.7027317"><ele>118.00000000000001</ele><time>2026-04-05T14:43:00.283Z</time></trkpt><trkpt lat="45.324745" lon="8.7027083"><ele>118.0</ele><time>2026-04-05T14:43:01.283Z</time></trkpt><trkpt lat="45.324635" lon="8.7026717"><ele>118.0</ele><time>2026-04-05T14:43:03.283Z</time></trkpt><trkpt lat="45.3245717" lon="8.7026233"><ele>118.00000000000001</ele><time>2026-04-05T14:43:05.284Z</time></trkpt><trkpt lat="45.3244733" lon="8.702565"><ele>118.00000000000001</ele><time>2026-04-05T14:43:16.284Z</time></trkpt><trkpt lat="45.324355" lon="8.7025283"><ele>118.0</ele><time>2026-04-05T14:43:18.283Z</time></trkpt><trkpt lat="45.324285" lon="8.70252"><ele>118.0</ele><time>2026-04-05T14:43:19.283Z</time></trkpt><trkpt lat="45.324205" lon="8.702525"><ele>118.00000000000001</ele><time>2026-04-05T14:43:20.283Z</time></trkpt><trkpt lat="45.32412" lon="8.7025417"><ele>118.0</ele><time>2026-04-05T14:43:21.284Z</time></trkpt><trkpt lat="45.3240317" lon="8.7025533"><ele>118.0</ele><time>2026-04-05T14:43:22.284Z</time></trkpt><trkpt lat="45.3239467" lon="8.7025667"><ele>118.0</ele><time>2026-04-05T14:43:23.283Z</time></trkpt><trkpt lat="45.323855" lon="8.7025733"><ele>118.00000000000001</ele><time>2026-04-05T14:43:24.284Z</time></trkpt><trkpt lat="45.323775" lon="8.702585"><ele>118.0</ele><time>2026-04-05T14:43:25.284Z</time></trkpt><trkpt lat="45.323695" lon="8.7025917"><ele>117.60000000000001</ele><time>2026-04-05T14:43:26.284Z</time></trkpt><trkpt lat="45.3235117" lon="8.7026183"><ele>117.20000000000002</ele><time>2026-04-05T14:43:28.284Z</time></trkpt><trkpt lat="45.32342" lon="8.7026317"><ele>116.8</ele><time>2026-04-05T14:43:29.283Z</time></trkpt><trkpt lat="45.3233333" lon="8.7026467"><ele>116.4</ele><time>2026-04-05T14:43:30.283Z</time></trkpt><trkpt lat="45.3232533" lon="8.7026567"><ele>116.0</ele><time>2026-04-05T14:43:31.284Z</time></trkpt><trkpt lat="45.32317" lon="8.70267"><ele>115.99999999999999</ele><time>2026-04-05T14:43:32.284Z</time></trkpt><trkpt lat="45.32309" lon="8.70269"><ele>116.0</ele><time>2026-04-05T14:43:33.283Z</time></trkpt><trkpt lat="45.3230083" lon="8.7027133"><ele>116.0</ele><time>2026-04-05T14:43:34.284Z</time></trkpt><trkpt lat="45.32292" lon="8.702735"><ele>116.0</ele><time>2026-04-05T14:43:35.283Z</time></trkpt><trkpt lat="45.3228317" lon="8.7027467"><ele>115.99999999999999</ele><time>2026-04-05T14:43:36.283Z</time></trkpt><trkpt lat="45.3227433" lon="8.7027617"><ele>116.0</ele><time>2026-04-05T14:43:37.284Z</time></trkpt><trkpt lat="45.3226567" lon="8.7027767"><ele>116.16666666666666</ele><time>2026-04-05T14:43:38.284Z</time></trkpt><trkpt lat="45.322575" lon="8.70279"><ele>116.33333333333333</ele><time>2026-04-05T14:43:39.284Z</time></trkpt><trkpt lat="45.3224983" lon="8.7028033"><ele>116.5</ele><time>2026-04-05T14:43:40.283Z</time></trkpt><trkpt lat="45.322425" lon="8.7028117"><ele>116.66666666666666</ele><time>2026-04-05T14:43:41.283Z</time></trkpt><trkpt lat="45.3223417" lon="8.70282"><ele>116.83333333333333</ele><time>2026-04-05T14:43:42.284Z</time></trkpt><trkpt lat="45.32226" lon="8.7028317"><ele>117.0</ele><time>2026-04-05T14:43:43.283Z</time></trkpt><trkpt lat="45.32217" lon="8.7028433"><ele>117.16666666666667</ele><time>2026-04-05T14:43:44.283Z</time></trkpt><trkpt lat="45.3220833" lon="8.7028583"><ele>117.33333333333334</ele><time>2026-04-05T14:43:45.283Z</time></trkpt><trkpt lat="45.32199" lon="8.7028817"><ele>117.5</ele><time>2026-04-05T14:43:46.284Z</time></trkpt><trkpt lat="45.3219033" lon="8.7029033"><ele>117.66666666666667</ele><time>2026-04-05T14:43:47.284Z</time></trkpt><trkpt lat="45.3218183" lon="8.70292"><ele>117.83333333333334</ele><time>2026-04-05T14:43:48.284Z</time></trkpt><trkpt lat="45.32174" lon="8.7029283"><ele>118.0</ele><time>2026-04-05T14:43:49.283Z</time></trkpt><trkpt lat="45.321665" lon="8.7029317"><ele>118.00000000000001</ele><time>2026-04-05T14:43:50.284Z</time></trkpt><trkpt lat="45.3215983" lon="8.702935"><ele>118.0</ele><time>2026-04-05T14:43:51.283Z</time></trkpt><trkpt lat="45.321535" lon="8.7029383"><ele>118.0</ele><time>2026-04-05T14:43:52.284Z</time></trkpt><trkpt lat="45.3214083" lon="8.7029367"><ele>118.0</ele><time>2026-04-05T14:43:54.283Z</time></trkpt><trkpt lat="45.321345" lon="8.7029317"><ele>118.00000000000001</ele><time>2026-04-05T14:43:55.284Z</time></trkpt><trkpt lat="45.3212167" lon="8.7029383"><ele>118.0</ele><time>2026-04-05T14:43:57.284Z</time></trkpt><trkpt lat="45.3211533" lon="8.702945"><ele>118.0</ele><time>2026-04-05T14:43:58.284Z</time></trkpt><trkpt lat="45.32105" lon="8.70295"><ele>118.00000000000001</ele><time>2026-04-05T14:44:00.283Z</time></trkpt><trkpt lat="45.320935" lon="8.7029717"><ele>118.00000000000001</ele><time>2026-04-05T14:44:02.283Z</time></trkpt><trkpt lat="45.3208317" lon="8.703"><ele>118.0</ele><time>2026-04-05T14:44:04.283Z</time></trkpt><trkpt lat="45.3207533" lon="8.703025"><ele>118.0</ele><time>2026-04-05T14:44:06.284Z</time></trkpt><trkpt lat="45.3206817" lon="8.7029967"><ele>118.00000000000001</ele><time>2026-04-05T14:44:10.284Z</time></trkpt><trkpt lat="45.320635" lon="8.7028983"><ele>118.0</ele><time>2026-04-05T14:44:12.283Z</time></trkpt><trkpt lat="45.32057" lon="8.7027367"><ele>118.0</ele><time>2026-04-05T14:44:14.284Z</time></trkpt><trkpt lat="45.320535" lon="8.702645"><ele>118.0</ele><time>2026-04-05T14:44:15.283Z</time></trkpt><trkpt lat="45.3205017" lon="8.7025517"><ele>118.00000000000001</ele><time>2026-04-05T14:44:16.283Z</time></trkpt><trkpt lat="45.320465" lon="8.7024733"><ele>118.0</ele><time>2026-04-05T14:44:17.284Z</time></trkpt><trkpt lat="45.3204533" lon="8.7023683"><ele>117.66666666666667</ele><time>2026-04-05T14:44:19.284Z</time></trkpt><trkpt lat="45.32039" lon="8.7022983"><ele>117.33333333333334</ele><time>2026-04-05T14:44:22.283Z</time></trkpt><trkpt lat="45.3203017" lon="8.7023267"><ele>117.0</ele><time>2026-04-05T14:44:24.284Z</time></trkpt><trkpt lat="45.3202433" lon="8.7023783"><ele>116.66666666666666</ele><time>2026-04-05T14:44:25.284Z</time></trkpt><trkpt lat="45.3201733" lon="8.7024433"><ele>116.33333333333333</ele><time>2026-04-05T14:44:26.284Z</time></trkpt><trkpt lat="45.320095" lon="8.702505"><ele>116.0</ele><time>2026-04-05T14:44:27.284Z</time></trkpt><trkpt lat="45.3200233" lon="8.7025717"><ele>116.0</ele><time>2026-04-05T14:44:28.283Z</time></trkpt><trkpt lat="45.3199483" lon="8.7026367"><ele>116.0</ele><time>2026-04-05T14:44:29.284Z</time></trkpt><trkpt lat="45.31986" lon="8.7026933"><ele>116.0</ele><time>2026-04-05T14:44:30.284Z</time></trkpt><trkpt lat="45.3197717" lon="8.7027567"><ele>116.0</ele><time>2026-04-05T14:44:31.284Z</time></trkpt><trkpt lat="45.319685" lon="8.70283"><ele>116.0</ele><time>2026-04-05T14:44:32.283Z</time></trkpt><trkpt lat="45.3195917" lon="8.7029017"><ele>115.99999999999999</ele><time>2026-04-05T14:44:33.283Z</time></trkpt><trkpt lat="45.3195033" lon="8.7029633"><ele>116.0</ele><time>2026-04-05T14:44:34.283Z</time></trkpt><trkpt lat="45.319415" lon="8.7030217"><ele>116.0</ele><time>2026-04-05T14:44:35.283Z</time></trkpt><trkpt lat="45.3193433" lon="8.7030817"><ele>116.0</ele><time>2026-04-05T14:44:36.284Z</time></trkpt><trkpt lat="45.3192683" lon="8.7031367"><ele>115.99999999999999</ele><time>2026-04-05T14:44:37.283Z</time></trkpt><trkpt lat="45.3191983" lon="8.70319"><ele>116.0</ele><time>2026-04-05T14:44:38.284Z</time></trkpt><trkpt lat="45.3191317" lon="8.7032433"><ele>116.0</ele><time>2026-04-05T14:44:39.283Z</time></trkpt><trkpt lat="45.319065" lon="8.703295"><ele>116.0</ele><time>2026-04-05T14:44:40.284Z</time></trkpt><trkpt lat="45.3190067" lon="8.70334"><ele>116.0</ele><time>2026-04-05T14:44:41.283Z</time></trkpt><trkpt lat="45.3189017" lon="8.7034117"><ele>116.0</ele><time>2026-04-05T14:44:43.284Z</time></trkpt><trkpt lat="45.318835" lon="8.7035133"><ele>116.0</ele><time>2026-04-05T14:44:45.284Z</time></trkpt><trkpt lat="45.3187983" lon="8.7036367"><ele>116.0</ele><time>2026-04-05T14:44:47.284Z</time></trkpt><trkpt lat="45.3188083" lon="8.7037933"><ele>116.0</ele><time>2026-04-05T14:44:49.284Z</time></trkpt><trkpt lat="45.3188217" lon="8.7038933"><ele>116.0</ele><time>2026-04-05T14:44:50.284Z</time></trkpt><trkpt lat="45.318835" lon="8.7040083"><ele>116.0</ele><time>2026-04-05T14:44:51.284Z</time></trkpt><trkpt lat="45.318845" lon="8.70414"><ele>116.0</ele><time>2026-04-05T14:44:52.283Z</time></trkpt><trkpt lat="45.31886" lon="8.7042783"><ele>116.0</ele><time>2026-04-05T14:44:53.284Z</time></trkpt><trkpt lat="45.3188783" lon="8.7044317"><ele>116.0</ele><time>2026-04-05T14:44:54.284Z</time></trkpt><trkpt lat="45.3188967" lon="8.7045983"><ele>116.0</ele><time>2026-04-05T14:44:55.283Z</time></trkpt><trkpt lat="45.318925" lon="8.704775"><ele>116.0</ele><time>2026-04-05T14:44:56.284Z</time></trkpt><trkpt lat="45.3189583" lon="8.7049583"><ele>116.0</ele><time>2026-04-05T14:44:57.283Z</time></trkpt><trkpt lat="45.3189817" lon="8.70512"><ele>116.0</ele><time>2026-04-05T14:44:58.284Z</time></trkpt><trkpt lat="45.3190083" lon="8.7052767"><ele>116.0</ele><time>2026-04-05T14:44:59.283Z</time></trkpt><trkpt lat="45.3190467" lon="8.7054283"><ele>116.0</ele><time>2026-04-05T14:45:00.283Z</time></trkpt><trkpt lat="45.319065" lon="8.7055733"><ele>116.0</ele><time>2026-04-05T14:45:01.284Z</time></trkpt><trkpt lat="45.31908" lon="8.7057183"><ele>116.0</ele><time>2026-04-05T14:45:02.283Z</time></trkpt><trkpt lat="45.3190983" lon="8.7058633"><ele>116.0</ele><time>2026-04-05T14:45:03.283Z</time></trkpt><trkpt lat="45.3191217" lon="8.7060183"><ele>116.0</ele><time>2026-04-05T14:45:04.284Z</time></trkpt><trkpt lat="45.3191433" lon="8.7061683"><ele>116.0</ele><time>2026-04-05T14:45:05.284Z</time></trkpt><trkpt lat="45.3191583" lon="8.7063233"><ele>116.0</ele><time>2026-04-05T14:45:06.284Z</time></trkpt><trkpt lat="45.3191733" lon="8.7064783"><ele>115.75</ele><time>2026-04-05T14:45:07.284Z</time></trkpt><trkpt lat="45.3191933" lon="8.7066433"><ele>115.5</ele><time>2026-04-05T14:45:08.283Z</time></trkpt><trkpt lat="45.3192167" lon="8.7068117"><ele>115.25</ele><time>2026-04-05T14:45:09.283Z</time></trkpt><trkpt lat="45.3192383" lon="8.7069733"><ele>115.0</ele><time>2026-04-05T14:45:10.283Z</time></trkpt><trkpt lat="45.3192567" lon="8.7071233"><ele>114.8</ele><time>2026-04-05T14:45:11.284Z</time></trkpt><trkpt lat="45.3192733" lon="8.7072767"><ele>114.6</ele><time>2026-04-05T14:45:12.283Z</time></trkpt><trkpt lat="45.3192933" lon="8.70742"><ele>114.4</ele><time>2026-04-05T14:45:13.284Z</time></trkpt><trkpt lat="45.319315" lon="8.707565"><ele>114.2</ele><time>2026-04-05T14:45:14.283Z</time></trkpt><trkpt lat="45.3193367" lon="8.7077067"><ele>114.0</ele><time>2026-04-05T14:45:15.284Z</time></trkpt><trkpt lat="45.319355" lon="8.70786"><ele>114.5</ele><time>2026-04-05T14:45:16.284Z</time></trkpt><trkpt lat="45.3193717" lon="8.70802"><ele>115.0</ele><time>2026-04-05T14:45:17.284Z</time></trkpt><trkpt lat="45.319395" lon="8.7081933"><ele>115.5</ele><time>2026-04-05T14:45:18.283Z</time></trkpt><trkpt lat="45.3194167" lon="8.7083633"><ele>116.0</ele><time>2026-04-05T14:45:19.284Z</time></trkpt><trkpt lat="45.3194417" lon="8.70853"><ele>116.0</ele><time>2026-04-05T14:45:20.283Z</time></trkpt><trkpt lat="45.319465" lon="8.7086967"><ele>116.0</ele><time>2026-04-05T14:45:21.284Z</time></trkpt><trkpt lat="45.3194867" lon="8.70886"><ele>116.0</ele><time>2026-04-05T14:45:22.284Z</time></trkpt><trkpt lat="45.3195117" lon="8.7090117"><ele>116.0</ele><time>2026-04-05T14:45:23.283Z</time></trkpt><trkpt lat="45.31953" lon="8.7091667"><ele>116.0</ele><time>2026-04-05T14:45:24.283Z</time></trkpt><trkpt lat="45.3195467" lon="8.7093133"><ele>116.0</ele><time>2026-04-05T14:45:25.284Z</time></trkpt><trkpt lat="45.31956" lon="8.7094517"><ele>116.0</ele><time>2026-04-05T14:45:26.284Z</time></trkpt><trkpt lat="45.319575" lon="8.7095833"><ele>116.0</ele><time>2026-04-05T14:45:27.283Z</time></trkpt><trkpt lat="45.31959" lon="8.709695"><ele>116.0</ele><time>2026-04-05T14:45:28.284Z</time></trkpt><trkpt lat="45.31961" lon="8.7098567"><ele>115.8</ele><time>2026-04-05T14:45:30.284Z</time></trkpt><trkpt lat="45.3195717" lon="8.70997"><ele>115.6</ele><time>2026-04-05T14:45:32.283Z</time></trkpt><trkpt lat="45.3194567" lon="8.710035"><ele>115.4</ele><time>2026-04-05T14:45:34.283Z</time></trkpt><trkpt lat="45.319375" lon="8.7100517"><ele>115.2</ele><time>2026-04-05T14:45:35.284Z</time></trkpt><trkpt lat="45.3192817" lon="8.7100717"><ele>115.0</ele><time>2026-04-05T14:45:36.283Z</time></trkpt><trkpt lat="45.31918" lon="8.7100983"><ele>115.0</ele><time>2026-04-05T14:45:37.284Z</time></trkpt><trkpt lat="45.3190717" lon="8.7101267"><ele>115.0</ele><time>2026-04-05T14:45:38.284Z</time></trkpt><trkpt lat="45.31896" lon="8.71016"><ele>115.0</ele><time>2026-04-05T14:45:39.284Z</time></trkpt><trkpt lat="45.318855" lon="8.7101883"><ele>115.0</ele><time>2026-04-05T14:45:40.283Z</time></trkpt><trkpt lat="45.3187517" lon="8.71021"><ele>115.0</ele><time>2026-04-05T14:45:41.284Z</time></trkpt><trkpt lat="45.3186467" lon="8.7102367"><ele>115.2</ele><time>2026-04-05T14:45:42.283Z</time></trkpt><trkpt lat="45.318545" lon="8.7102633"><ele>115.4</ele><time>2026-04-05T14:45:43.283Z</time></trkpt><trkpt lat="45.318435" lon="8.7102867"><ele>115.6</ele><time>2026-04-05T14:45:44.283Z</time></trkpt><trkpt lat="45.3183333" lon="8.7103133"><ele>115.8</ele><time>2026-04-05T14:45:45.283Z</time></trkpt><trkpt lat="45.3182333" lon="8.7103367"><ele>116.0</ele><time>2026-04-05T14:45:46.283Z</time></trkpt><trkpt lat="45.3181383" lon="8.710365"><ele>115.6</ele><time>2026-04-05T14:45:47.284Z</time></trkpt><trkpt lat="45.3180483" lon="8.71039"><ele>115.19999999999999</ele><time>2026-04-05T14:45:48.283Z</time></trkpt><trkpt lat="45.3179533" lon="8.7104083"><ele>114.80000000000001</ele><time>2026-04-05T14:45:49.284Z</time></trkpt><trkpt lat="45.3178583" lon="8.7104267"><ele>114.4</ele><time>2026-04-05T14:45:50.283Z</time></trkpt><trkpt lat="45.3177633" lon="8.7104517"><ele>114.0</ele><time>2026-04-05T14:45:51.284Z</time></trkpt><trkpt lat="45.3176733" lon="8.71047"><ele>114.0</ele><time>2026-04-05T14:45:52.283Z</time></trkpt><trkpt lat="45.3175983" lon="8.7104933"><ele>114.0</ele><time>2026-04-05T14:45:53.284Z</time></trkpt><trkpt lat="45.3175333" lon="8.710505"><ele>114.0</ele><time>2026-04-05T14:45:54.283Z</time></trkpt><trkpt lat="45.31743" lon="8.7105717"><ele>114.0</ele><time>2026-04-05T14:45:56.284Z</time></trkpt><trkpt lat="45.3174" lon="8.710735"><ele>114.0</ele><time>2026-04-05T14:45:58.283Z</time></trkpt><trkpt lat="45.3174133" lon="8.710845"><ele>114.0</ele><time>2026-04-05T14:45:59.283Z</time></trkpt><trkpt lat="45.31743" lon="8.7109683"><ele>114.0</ele><time>2026-04-05T14:46:00.284Z</time></trkpt><trkpt lat="45.3174517" lon="8.7111083"><ele>114.0</ele><time>2026-04-05T14:46:01.283Z</time></trkpt><trkpt lat="45.3174733" lon="8.71126"><ele>114.0</ele><time>2026-04-05T14:46:02.284Z</time></trkpt><trkpt lat="45.3174933" lon="8.7114167"><ele>114.0</ele><time>2026-04-05T14:46:03.284Z</time></trkpt><trkpt lat="45.31752" lon="8.7115733"><ele>114.0</ele><time>2026-04-05T14:46:04.283Z</time></trkpt><trkpt lat="45.3175483" lon="8.7117517"><ele>114.0</ele><time>2026-04-05T14:46:05.284Z</time></trkpt><trkpt lat="45.3175767" lon="8.7119233"><ele>114.0</ele><time>2026-04-05T14:46:06.284Z</time></trkpt><trkpt lat="45.3176" lon="8.7120833"><ele>114.0</ele><time>2026-04-05T14:46:07.284Z</time></trkpt><trkpt lat="45.3176183" lon="8.7122483"><ele>114.25</ele><time>2026-04-05T14:46:08.283Z</time></trkpt><trkpt lat="45.3176383" lon="8.712425"><ele>114.5</ele><time>2026-04-05T14:46:09.283Z</time></trkpt><trkpt lat="45.317665" lon="8.7126017"><ele>114.75</ele><time>2026-04-05T14:46:10.283Z</time></trkpt><trkpt lat="45.3176883" lon="8.7127733"><ele>115.0</ele><time>2026-04-05T14:46:11.283Z</time></trkpt><trkpt lat="45.317715" lon="8.7129367"><ele>115.0</ele><time>2026-04-05T14:46:12.284Z</time></trkpt><trkpt lat="45.3177467" lon="8.7131033"><ele>115.0</ele><time>2026-04-05T14:46:13.283Z</time></trkpt><trkpt lat="45.3177717" lon="8.7132667"><ele>115.0</ele><time>2026-04-05T14:46:14.284Z</time></trkpt><trkpt lat="45.31779" lon="8.71343"><ele>115.0</ele><time>2026-04-05T14:46:15.284Z</time></trkpt><trkpt lat="45.31781" lon="8.7135967"><ele>115.25</ele><time>2026-04-05T14:46:16.284Z</time></trkpt><trkpt lat="45.3178283" lon="8.7137533"><ele>115.5</ele><time>2026-04-05T14:46:17.284Z</time></trkpt><trkpt lat="45.3178467" lon="8.713915"><ele>115.75</ele><time>2026-04-05T14:46:18.284Z</time></trkpt><trkpt lat="45.3178617" lon="8.71407"><ele>116.0</ele><time>2026-04-05T14:46:19.284Z</time></trkpt><trkpt lat="45.31788" lon="8.7142367"><ele>115.75</ele><time>2026-04-05T14:46:20.283Z</time></trkpt><trkpt lat="45.317895" lon="8.71441"><ele>115.5</ele><time>2026-04-05T14:46:21.284Z</time></trkpt><trkpt lat="45.3179133" lon="8.7145783"><ele>115.25</ele><time>2026-04-05T14:46:22.284Z</time></trkpt><trkpt lat="45.3179217" lon="8.7147517"><ele>115.0</ele><time>2026-04-05T14:46:23.283Z</time></trkpt><trkpt lat="45.3179267" lon="8.7149183"><ele>115.0</ele><time>2026-04-05T14:46:24.283Z</time></trkpt><trkpt lat="45.3179267" lon="8.71508"><ele>115.0</ele><time>2026-04-05T14:46:25.283Z</time></trkpt><trkpt lat="45.3179383" lon="8.7152333"><ele>115.0</ele><time>2026-04-05T14:46:26.284Z</time></trkpt><trkpt lat="45.317935" lon="8.715385"><ele>115.0</ele><time>2026-04-05T14:46:27.284Z</time></trkpt><trkpt lat="45.3179417" lon="8.7155467"><ele>115.0</ele><time>2026-04-05T14:46:28.283Z</time></trkpt><trkpt lat="45.3179667" lon="8.7157017"><ele>115.0</ele><time>2026-04-05T14:46:29.284Z</time></trkpt><trkpt lat="45.3179917" lon="8.7158567"><ele>115.0</ele><time>2026-04-05T14:46:30.283Z</time></trkpt><trkpt lat="45.3179983" lon="8.71602"><ele>115.0</ele><time>2026-04-05T14:46:31.284Z</time></trkpt><trkpt lat="45.318" lon="8.7161917"><ele>115.0</ele><time>2026-04-05T14:46:32.284Z</time></trkpt><trkpt lat="45.3180033" lon="8.716365"><ele>115.0</ele><time>2026-04-05T14:46:33.284Z</time></trkpt><trkpt lat="45.3180067" lon="8.7165467"><ele>115.0</ele><time>2026-04-05T14:46:34.283Z</time></trkpt><trkpt lat="45.3180167" lon="8.71673"><ele>115.0</ele><time>2026-04-05T14:46:35.284Z</time></trkpt><trkpt lat="45.31803" lon="8.716915"><ele>115.0</ele><time>2026-04-05T14:46:36.284Z</time></trkpt><trkpt lat="45.3180317" lon="8.7170883"><ele>115.2</ele><time>2026-04-05T14:46:37.283Z</time></trkpt><trkpt lat="45.3180317" lon="8.7172533"><ele>115.4</ele><time>2026-04-05T14:46:38.284Z</time></trkpt><trkpt lat="45.318035" lon="8.7174067"><ele>115.6</ele><time>2026-04-05T14:46:39.283Z</time></trkpt><trkpt lat="45.3180467" lon="8.7175517"><ele>115.8</ele><time>2026-04-05T14:46:40.284Z</time></trkpt><trkpt lat="45.3180533" lon="8.7177117"><ele>116.0</ele><time>2026-04-05T14:46:41.284Z</time></trkpt><trkpt lat="45.3180583" lon="8.7178683"><ele>116.0</ele><time>2026-04-05T14:46:42.284Z</time></trkpt><trkpt lat="45.3180533" lon="8.7180283"><ele>116.0</ele><time>2026-04-05T14:46:43.284Z</time></trkpt><trkpt lat="45.3180483" lon="8.7182017"><ele>116.0</ele><time>2026-04-05T14:46:44.283Z</time></trkpt><trkpt lat="45.3180483" lon="8.7183783"><ele>116.0</ele><time>2026-04-05T14:46:45.284Z</time></trkpt><trkpt lat="45.31805" lon="8.7185583"><ele>116.5</ele><time>2026-04-05T14:46:46.284Z</time></trkpt><trkpt lat="45.3180517" lon="8.7187367"><ele>117.0</ele><time>2026-04-05T14:46:47.283Z</time></trkpt><trkpt lat="45.3180517" lon="8.7189033"><ele>117.5</ele><time>2026-04-05T14:46:48.284Z</time></trkpt><trkpt lat="45.3180517" lon="8.7190667"><ele>118.0</ele><time>2026-04-05T14:46:49.284Z</time></trkpt><trkpt lat="45.3180517" lon="8.71922"><ele>118.0</ele><time>2026-04-05T14:46:50.284Z</time></trkpt><trkpt lat="45.31805" lon="8.719365"><ele>118.00000000000001</ele><time>2026-04-05T14:46:51.283Z</time></trkpt><trkpt lat="45.318055" lon="8.7195117"><ele>118.00000000000001</ele><time>2026-04-05T14:46:52.283Z</time></trkpt><trkpt lat="45.3180617" lon="8.7196633"><ele>118.0</ele><time>2026-04-05T14:46:53.283Z</time></trkpt><trkpt lat="45.3180667" lon="8.71981"><ele>118.0</ele><time>2026-04-05T14:46:54.283Z</time></trkpt><trkpt lat="45.3180717" lon="8.7199683"><ele>118.0</ele><time>2026-04-05T14:46:55.284Z</time></trkpt><trkpt lat="45.31807" lon="8.7201183"><ele>118.00000000000001</ele><time>2026-04-05T14:46:56.284Z</time></trkpt><trkpt lat="45.3180617" lon="8.7202633"><ele>118.00000000000001</ele><time>2026-04-05T14:46:57.284Z</time></trkpt><trkpt lat="45.3180583" lon="8.720405"><ele>118.0</ele><time>2026-04-05T14:46:58.283Z</time></trkpt><trkpt lat="45.31806" lon="8.7205383"><ele>118.0</ele><time>2026-04-05T14:46:59.283Z</time></trkpt><trkpt lat="45.3180583" lon="8.7206683"><ele>118.00000000000001</ele><time>2026-04-05T14:47:00.284Z</time></trkpt><trkpt lat="45.3180583" lon="8.7208033"><ele>118.0</ele><time>2026-04-05T14:47:01.284Z</time></trkpt><trkpt lat="45.3180483" lon="8.7209283"><ele>118.0</ele><time>2026-04-05T14:47:02.283Z</time></trkpt><trkpt lat="45.3180233" lon="8.7210533"><ele>118.0</ele><time>2026-04-05T14:47:03.284Z</time></trkpt><trkpt lat="45.3179967" lon="8.72116"><ele>118.00000000000001</ele><time>2026-04-05T14:47:04.284Z</time></trkpt><trkpt lat="45.3179567" lon="8.7212567"><ele>118.0</ele><time>2026-04-05T14:47:05.283Z</time></trkpt><trkpt lat="45.3178917" lon="8.7213233"><ele>118.00000000000001</ele><time>2026-04-05T14:47:06.283Z</time></trkpt><trkpt lat="45.3178317" lon="8.72138"><ele>118.0</ele><time>2026-04-05T14:47:07.283Z</time></trkpt><trkpt lat="45.31777" lon="8.7214467"><ele>118.0</ele><time>2026-04-05T14:47:08.284Z</time></trkpt><trkpt lat="45.3176917" lon="8.7215083"><ele>118.0</ele><time>2026-04-05T14:47:09.284Z</time></trkpt><trkpt lat="45.317605" lon="8.721565"><ele>118.00000000000001</ele><time>2026-04-05T14:47:10.284Z</time></trkpt><trkpt lat="45.317525" lon="8.7216367"><ele>118.0</ele><time>2026-04-05T14:47:11.283Z</time></trkpt><trkpt lat="45.317445" lon="8.7217167"><ele>118.0</ele><time>2026-04-05T14:47:12.284Z</time></trkpt><trkpt lat="45.3173583" lon="8.72178"><ele>118.00000000000001</ele><time>2026-04-05T14:47:13.284Z</time></trkpt><trkpt lat="45.3172667" lon="8.7218333"><ele>118.00000000000001</ele><time>2026-04-05T14:47:14.284Z</time></trkpt><trkpt lat="45.3171817" lon="8.72189"><ele>118.0</ele><time>2026-04-05T14:47:15.284Z</time></trkpt><trkpt lat="45.3170917" lon="8.72195"><ele>118.0</ele><time>2026-04-05T14:47:16.284Z</time></trkpt><trkpt lat="45.31701" lon="8.722025"><ele>118.00000000000001</ele><time>2026-04-05T14:47:17.283Z</time></trkpt><trkpt lat="45.3169583" lon="8.7221267"><ele>118.0</ele><time>2026-04-05T14:47:18.284Z</time></trkpt><trkpt lat="45.3169083" lon="8.7222267"><ele>118.0</ele><time>2026-04-05T14:47:19.283Z</time></trkpt><trkpt lat="45.3168717" lon="8.7223383"><ele>118.0</ele><time>2026-04-05T14:47:20.284Z</time></trkpt><trkpt lat="45.3168517" lon="8.7224617"><ele>118.00000000000001</ele><time>2026-04-05T14:47:21.284Z</time></trkpt><trkpt lat="45.3168367" lon="8.722595"><ele>118.0</ele><time>2026-04-05T14:47:22.284Z</time></trkpt><trkpt lat="45.31682" lon="8.722745"><ele>118.0</ele><time>2026-04-05T14:47:23.284Z</time></trkpt><trkpt lat="45.3168033" lon="8.7229033"><ele>118.0</ele><time>2026-04-05T14:47:24.284Z</time></trkpt><trkpt lat="45.316795" lon="8.723075"><ele>118.0</ele><time>2026-04-05T14:47:25.284Z</time></trkpt><trkpt lat="45.3167733" lon="8.7232417"><ele>118.0</ele><time>2026-04-05T14:47:26.283Z</time></trkpt><trkpt lat="45.316765" lon="8.7234167"><ele>117.0</ele><time>2026-04-05T14:47:27.284Z</time></trkpt><trkpt lat="45.3167617" lon="8.72359"><ele>116.0</ele><time>2026-04-05T14:47:28.284Z</time></trkpt><trkpt lat="45.31675" lon="8.7237483"><ele>115.0</ele><time>2026-04-05T14:47:29.283Z</time></trkpt><trkpt lat="45.3167317" lon="8.723915"><ele>114.0</ele><time>2026-04-05T14:47:30.283Z</time></trkpt><trkpt lat="45.3167167" lon="8.7240733"><ele>114.0</ele><time>2026-04-05T14:47:31.283Z</time></trkpt><trkpt lat="45.3167017" lon="8.724235"><ele>114.0</ele><time>2026-04-05T14:47:32.283Z</time></trkpt><trkpt lat="45.3166883" lon="8.724385"><ele>114.0</ele><time>2026-04-05T14:47:33.283Z</time></trkpt><trkpt lat="45.3166767" lon="8.72454"><ele>114.0</ele><time>2026-04-05T14:47:34.283Z</time></trkpt><trkpt lat="45.3166617" lon="8.724685"><ele>114.0</ele><time>2026-04-05T14:47:35.283Z</time></trkpt><trkpt lat="45.31665" lon="8.7248433"><ele>114.0</ele><time>2026-04-05T14:47:36.284Z</time></trkpt><trkpt lat="45.3166283" lon="8.725"><ele>114.0</ele><time>2026-04-05T14:47:37.284Z</time></trkpt><trkpt lat="45.31662" lon="8.7251617"><ele>114.0</ele><time>2026-04-05T14:47:38.283Z</time></trkpt><trkpt lat="45.3166033" lon="8.725335"><ele>114.0</ele><time>2026-04-05T14:47:39.283Z</time></trkpt><trkpt lat="45.316595" lon="8.7255133"><ele>114.0</ele><time>2026-04-05T14:47:40.283Z</time></trkpt><trkpt lat="45.3165783" lon="8.7256783"><ele>114.0</ele><time>2026-04-05T14:47:41.284Z</time></trkpt><trkpt lat="45.3165617" lon="8.7258417"><ele>114.0</ele><time>2026-04-05T14:47:42.284Z</time></trkpt><trkpt lat="45.3165483" lon="8.7260117"><ele>114.0</ele><time>2026-04-05T14:47:43.283Z</time></trkpt><trkpt lat="45.3165367" lon="8.7261717"><ele>113.75</ele><time>2026-04-05T14:47:44.283Z</time></trkpt><trkpt lat="45.3165233" lon="8.7263233"><ele>113.5</ele><time>2026-04-05T14:47:45.284Z</time></trkpt><trkpt lat="45.3165117" lon="8.726475"><ele>113.25</ele><time>2026-04-05T14:47:46.284Z</time></trkpt><trkpt lat="45.3164933" lon="8.72664"><ele>113.0</ele><time>2026-04-05T14:47:47.283Z</time></trkpt><trkpt lat="45.3164783" lon="8.7268067"><ele>113.5</ele><time>2026-04-05T14:47:48.283Z</time></trkpt><trkpt lat="45.3164633" lon="8.72697"><ele>114.0</ele><time>2026-04-05T14:47:49.284Z</time></trkpt><trkpt lat="45.31646" lon="8.727135"><ele>114.5</ele><time>2026-04-05T14:47:50.283Z</time></trkpt><trkpt lat="45.3164467" lon="8.7273067"><ele>115.0</ele><time>2026-04-05T14:47:51.283Z</time></trkpt><trkpt lat="45.3164267" lon="8.7274717"><ele>115.0</ele><time>2026-04-05T14:47:52.284Z</time></trkpt><trkpt lat="45.316415" lon="8.7276417"><ele>115.0</ele><time>2026-04-05T14:47:53.283Z</time></trkpt><trkpt lat="45.3164033" lon="8.7278133"><ele>115.0</ele><time>2026-04-05T14:47:54.284Z</time></trkpt><trkpt lat="45.31639" lon="8.7279833"><ele>115.0</ele><time>2026-04-05T14:47:55.284Z</time></trkpt><trkpt lat="45.3163733" lon="8.7281517"><ele>115.6</ele><time>2026-04-05T14:47:56.283Z</time></trkpt><trkpt lat="45.3163567" lon="8.7283067"><ele>116.2</ele><time>2026-04-05T14:47:57.283Z</time></trkpt><trkpt lat="45.3163417" lon="8.728465"><ele>116.80000000000001</ele><time>2026-04-05T14:47:58.283Z</time></trkpt><trkpt lat="45.3163317" lon="8.7286183"><ele>117.4</ele><time>2026-04-05T14:47:59.284Z</time></trkpt><trkpt lat="45.31632" lon="8.7287633"><ele>118.0</ele><time>2026-04-05T14:48:00.283Z</time></trkpt><trkpt lat="45.3163067" lon="8.7289067"><ele>118.0</ele><time>2026-04-05T14:48:01.284Z</time></trkpt><trkpt lat="45.3162967" lon="8.7290483"><ele>118.00000000000001</ele><time>2026-04-05T14:48:02.284Z</time></trkpt><trkpt lat="45.3162867" lon="8.7291933"><ele>118.00000000000001</ele><time>2026-04-05T14:48:03.284Z</time></trkpt><trkpt lat="45.3162783" lon="8.72933"><ele>118.0</ele><time>2026-04-05T14:48:04.284Z</time></trkpt><trkpt lat="45.3162683" lon="8.72947"><ele>118.0</ele><time>2026-04-05T14:48:05.284Z</time></trkpt><trkpt lat="45.316255" lon="8.7296283"><ele>117.5</ele><time>2026-04-05T14:48:06.283Z</time></trkpt><trkpt lat="45.31624" lon="8.7297883"><ele>117.0</ele><time>2026-04-05T14:48:07.284Z</time></trkpt><trkpt lat="45.3162233" lon="8.7299583"><ele>116.5</ele><time>2026-04-05T14:48:08.283Z</time></trkpt><trkpt lat="45.31621" lon="8.7301433"><ele>116.0</ele><time>2026-04-05T14:48:09.283Z</time></trkpt><trkpt lat="45.3161983" lon="8.730315"><ele>115.8</ele><time>2026-04-05T14:48:10.284Z</time></trkpt><trkpt lat="45.3161917" lon="8.73048"><ele>115.6</ele><time>2026-04-05T14:48:11.284Z</time></trkpt><trkpt lat="45.3161783" lon="8.7306517"><ele>115.4</ele><time>2026-04-05T14:48:12.283Z</time></trkpt><trkpt lat="45.3161633" lon="8.7308017"><ele>115.2</ele><time>2026-04-05T14:48:13.283Z</time></trkpt><trkpt lat="45.3161483" lon="8.7309333"><ele>115.0</ele><time>2026-04-05T14:48:14.283Z</time></trkpt><trkpt lat="45.3161417" lon="8.7310517"><ele>115.00000000000001</ele><time>2026-04-05T14:48:15.284Z</time></trkpt><trkpt lat="45.3161333" lon="8.7311567"><ele>115.0</ele><time>2026-04-05T14:48:16.283Z</time></trkpt><trkpt lat="45.3161267" lon="8.7312533"><ele>115.0</ele><time>2026-04-05T14:48:17.284Z</time></trkpt><trkpt lat="45.3160983" lon="8.7313917"><ele>115.0</ele><time>2026-04-05T14:48:19.284Z</time></trkpt><trkpt lat="45.3160367" lon="8.731435"><ele>115.00000000000001</ele><time>2026-04-05T14:48:21.284Z</time></trkpt><trkpt lat="45.315925" lon="8.731395"><ele>115.0</ele><time>2026-04-05T14:48:23.283Z</time></trkpt><trkpt lat="45.31585" lon="8.7313733"><ele>115.0</ele><time>2026-04-05T14:48:24.284Z</time></trkpt><trkpt lat="45.3157617" lon="8.731355"><ele>115.0</ele><time>2026-04-05T14:48:25.284Z</time></trkpt><trkpt lat="45.3156683" lon="8.7313433"><ele>115.0</ele><time>2026-04-05T14:48:26.283Z</time></trkpt><trkpt lat="45.3155667" lon="8.7313283"><ele>115.0</ele><time>2026-04-05T14:48:27.283Z</time></trkpt><trkpt lat="45.3154633" lon="8.7313133"><ele>115.0</ele><time>2026-04-05T14:48:28.284Z</time></trkpt><trkpt lat="45.315345" lon="8.7312967"><ele>115.25</ele><time>2026-04-05T14:48:29.283Z</time></trkpt><trkpt lat="45.3152283" lon="8.7312817"><ele>115.5</ele><time>2026-04-05T14:48:30.284Z</time></trkpt><trkpt lat="45.3151117" lon="8.7312683"><ele>115.75</ele><time>2026-04-05T14:48:31.283Z</time></trkpt><trkpt lat="45.3149883" lon="8.731255"><ele>116.0</ele><time>2026-04-05T14:48:32.284Z</time></trkpt><trkpt lat="45.3148583" lon="8.7312383"><ele>115.75</ele><time>2026-04-05T14:48:33.284Z</time></trkpt><trkpt lat="45.314735" lon="8.7312283"><ele>115.5</ele><time>2026-04-05T14:48:34.284Z</time></trkpt><trkpt lat="45.3146133" lon="8.73121"><ele>115.25</ele><time>2026-04-05T14:48:35.284Z</time></trkpt><trkpt lat="45.3145033" lon="8.73119"><ele>115.0</ele><time>2026-04-05T14:48:36.284Z</time></trkpt><trkpt lat="45.314395" lon="8.7311767"><ele>115.0</ele><time>2026-04-05T14:48:37.283Z</time></trkpt><trkpt lat="45.314295" lon="8.73115"><ele>115.0</ele><time>2026-04-05T14:48:38.284Z</time></trkpt><trkpt lat="45.3141933" lon="8.7311333"><ele>115.0</ele><time>2026-04-05T14:48:39.283Z</time></trkpt><trkpt lat="45.3141033" lon="8.7311133"><ele>115.0</ele><time>2026-04-05T14:48:40.283Z</time></trkpt><trkpt lat="45.3140133" lon="8.73109"><ele>115.0</ele><time>2026-04-05T14:48:41.284Z</time></trkpt><trkpt lat="45.3139217" lon="8.7310617"><ele>115.33333333333334</ele><time>2026-04-05T14:48:42.284Z</time></trkpt><trkpt lat="45.3138333" lon="8.731045"><ele>115.66666666666667</ele><time>2026-04-05T14:48:43.283Z</time></trkpt><trkpt lat="45.313745" lon="8.7310233"><ele>116.0</ele><time>2026-04-05T14:48:44.283Z</time></trkpt><trkpt lat="45.3136533" lon="8.7310067"><ele>116.33333333333334</ele><time>2026-04-05T14:48:45.283Z</time></trkpt><trkpt lat="45.31357" lon="8.73099"><ele>116.66666666666667</ele><time>2026-04-05T14:48:46.283Z</time></trkpt><trkpt lat="45.3134817" lon="8.7309717"><ele>117.0</ele><time>2026-04-05T14:48:47.283Z</time></trkpt><trkpt lat="45.3133833" lon="8.7309517"><ele>117.0</ele><time>2026-04-05T14:48:48.284Z</time></trkpt><trkpt lat="45.313285" lon="8.7309267"><ele>116.99999999999999</ele><time>2026-04-05T14:48:49.284Z</time></trkpt><trkpt lat="45.3131883" lon="8.7308983"><ele>116.99999999999999</ele><time>2026-04-05T14:48:50.284Z</time></trkpt><trkpt lat="45.313085" lon="8.7308683"><ele>117.0</ele><time>2026-04-05T14:48:51.284Z</time></trkpt><trkpt lat="45.3129917" lon="8.730835"><ele>117.0</ele><time>2026-04-05T14:48:52.284Z</time></trkpt><trkpt lat="45.3129" lon="8.73081"><ele>116.66666666666667</ele><time>2026-04-05T14:48:53.284Z</time></trkpt><trkpt lat="45.3128183" lon="8.73079"><ele>116.33333333333334</ele><time>2026-04-05T14:48:54.283Z</time></trkpt><trkpt lat="45.3127367" lon="8.7307817"><ele>116.0</ele><time>2026-04-05T14:48:55.283Z</time></trkpt><trkpt lat="45.3126533" lon="8.730785"><ele>115.66666666666667</ele><time>2026-04-05T14:48:56.283Z</time></trkpt><trkpt lat="45.312585" lon="8.73079"><ele>115.33333333333334</ele><time>2026-04-05T14:48:57.284Z</time></trkpt><trkpt lat="45.3125017" lon="8.7307917"><ele>115.0</ele><time>2026-04-05T14:48:58.283Z</time></trkpt><trkpt lat="45.31242" lon="8.7307883"><ele>115.00000000000001</ele><time>2026-04-05T14:48:59.284Z</time></trkpt><trkpt lat="45.3123383" lon="8.7307917"><ele>115.0</ele><time>2026-04-05T14:49:00.284Z</time></trkpt><trkpt lat="45.312265" lon="8.7307983"><ele>115.0</ele><time>2026-04-05T14:49:01.284Z</time></trkpt><trkpt lat="45.3121967" lon="8.730805"><ele>115.0</ele><time>2026-04-05T14:49:02.283Z</time></trkpt><trkpt lat="45.3120833" lon="8.7308167"><ele>115.00000000000001</ele><time>2026-04-05T14:49:04.284Z</time></trkpt><trkpt lat="45.3119983" lon="8.73082"><ele>115.0</ele><time>2026-04-05T14:49:06.284Z</time></trkpt><trkpt lat="45.3118883" lon="8.73081"><ele>114.8</ele><time>2026-04-05T14:49:17.284Z</time></trkpt><trkpt lat="45.3118183" lon="8.7307683"><ele>114.6</ele><time>2026-04-05T14:49:19.284Z</time></trkpt><trkpt lat="45.31175" lon="8.73068"><ele>114.4</ele><time>2026-04-05T14:49:21.283Z</time></trkpt><trkpt lat="45.31166" lon="8.730535"><ele>114.2</ele><time>2026-04-05T14:49:23.284Z</time></trkpt><trkpt lat="45.311605" lon="8.7304433"><ele>114.0</ele><time>2026-04-05T14:49:24.284Z</time></trkpt><trkpt lat="45.31155" lon="8.7303433"><ele>114.0</ele><time>2026-04-05T14:49:25.284Z</time></trkpt><trkpt lat="45.3115" lon="8.7302317"><ele>114.0</ele><time>2026-04-05T14:49:26.283Z</time></trkpt><trkpt lat="45.3114567" lon="8.73012"><ele>114.0</ele><time>2026-04-05T14:49:27.284Z</time></trkpt><trkpt lat="45.3114133" lon="8.73002"><ele>114.0</ele><time>2026-04-05T14:49:28.284Z</time></trkpt><trkpt lat="45.3113583" lon="8.7299317"><ele>114.0</ele><time>2026-04-05T14:49:29.283Z</time></trkpt><trkpt lat="45.311305" lon="8.7298283"><ele>114.0</ele><time>2026-04-05T14:49:30.284Z</time></trkpt><trkpt lat="45.3112467" lon="8.72973"><ele>114.6</ele><time>2026-04-05T14:49:31.284Z</time></trkpt><trkpt lat="45.3111917" lon="8.7296117"><ele>115.2</ele><time>2026-04-05T14:49:32.283Z</time></trkpt><trkpt lat="45.3111267" lon="8.7295033"><ele>115.79999999999998</ele><time>2026-04-05T14:49:33.284Z</time></trkpt><trkpt lat="45.311065" lon="8.7293867"><ele>116.39999999999999</ele><time>2026-04-05T14:49:34.284Z</time></trkpt><trkpt lat="45.3109967" lon="8.7292933"><ele>117.0</ele><time>2026-04-05T14:49:35.284Z</time></trkpt><trkpt lat="45.3109417" lon="8.7291917"><ele>117.16666666666667</ele><time>2026-04-05T14:49:36.283Z</time></trkpt><trkpt lat="45.31089" lon="8.7291"><ele>117.33333333333334</ele><time>2026-04-05T14:49:37.283Z</time></trkpt><trkpt lat="45.3108367" lon="8.7290133"><ele>117.5</ele><time>2026-04-05T14:49:38.283Z</time></trkpt><trkpt lat="45.3107833" lon="8.7289317"><ele>117.66666666666667</ele><time>2026-04-05T14:49:39.284Z</time></trkpt><trkpt lat="45.310735" lon="8.728835"><ele>117.83333333333334</ele><time>2026-04-05T14:49:40.284Z</time></trkpt><trkpt lat="45.3106783" lon="8.728745"><ele>118.0</ele><time>2026-04-05T14:49:41.283Z</time></trkpt><trkpt lat="45.3106233" lon="8.728655"><ele>117.83333333333334</ele><time>2026-04-05T14:49:42.284Z</time></trkpt><trkpt lat="45.310565" lon="8.728575"><ele>117.66666666666667</ele><time>2026-04-05T14:49:43.284Z</time></trkpt><trkpt lat="45.3105017" lon="8.7284867"><ele>117.5</ele><time>2026-04-05T14:49:44.284Z</time></trkpt><trkpt lat="45.3104383" lon="8.72839"><ele>117.33333333333334</ele><time>2026-04-05T14:49:45.284Z</time></trkpt><trkpt lat="45.3103883" lon="8.72831"><ele>117.16666666666667</ele><time>2026-04-05T14:49:46.283Z</time></trkpt><trkpt lat="45.3103383" lon="8.7282333"><ele>117.0</ele><time>2026-04-05T14:49:47.284Z</time></trkpt><trkpt lat="45.3102717" lon="8.7281133"><ele>116.8</ele><time>2026-04-05T14:49:49.284Z</time></trkpt><trkpt lat="45.3102317" lon="8.728015"><ele>116.6</ele><time>2026-04-05T14:49:51.284Z</time></trkpt><trkpt lat="45.3101667" lon="8.7279383"><ele>116.39999999999999</ele><time>2026-04-05T14:49:53.283Z</time></trkpt><trkpt lat="45.3100833" lon="8.7278483"><ele>116.19999999999999</ele><time>2026-04-05T14:49:55.284Z</time></trkpt><trkpt lat="45.3100115" lon="8.7277629"><ele>116.0</ele><time>2026-04-05T14:49:57.284Z</time></trkpt><trkpt lat="45.3099498" lon="8.7276479"><ele>116.0</ele><time>2026-04-05T14:49:59.283Z</time></trkpt><trkpt lat="45.3098933" lon="8.7275338"><ele>116.0</ele><time>2026-04-05T14:50:01.284Z</time></trkpt><trkpt lat="45.3098227" lon="8.7274204"><ele>116.0</ele><time>2026-04-05T14:50:03.284Z</time></trkpt><trkpt lat="45.3097308" lon="8.7272849"><ele>116.0</ele><time>2026-04-05T14:50:05.283Z</time></trkpt><trkpt lat="45.3096779" lon="8.7272076"><ele>116.0</ele><time>2026-04-05T14:50:06.283Z</time></trkpt><trkpt lat="45.3096206" lon="8.7271245"><ele>115.99999999999999</ele><time>2026-04-05T14:50:07.284Z</time></trkpt><trkpt lat="45.3095613" lon="8.7270412"><ele>116.0</ele><time>2026-04-05T14:50:08.284Z</time></trkpt><trkpt lat="45.3095026" lon="8.7269568"><ele>116.0</ele><time>2026-04-05T14:50:09.283Z</time></trkpt><trkpt lat="45.3094441" lon="8.7268749"><ele>116.0</ele><time>2026-04-05T14:50:10.284Z</time></trkpt><trkpt lat="45.3093915" lon="8.7267954"><ele>115.99999999999999</ele><time>2026-04-05T14:50:11.283Z</time></trkpt><trkpt lat="45.3093406" lon="8.7267176"><ele>116.0</ele><time>2026-04-05T14:50:12.284Z</time></trkpt><trkpt lat="45.3092829" lon="8.7266354"><ele>116.00000000000001</ele><time>2026-04-05T14:50:13.283Z</time></trkpt><trkpt lat="45.309227" lon="8.7265551"><ele>116.0</ele><time>2026-04-05T14:50:14.284Z</time></trkpt><trkpt lat="45.3091706" lon="8.7264723"><ele>116.00000000000001</ele><time>2026-04-05T14:50:15.284Z</time></trkpt><trkpt lat="45.3091146" lon="8.7263977"><ele>116.00000000000001</ele><time>2026-04-05T14:50:16.283Z</time></trkpt><trkpt lat="45.3090646" lon="8.7263292"><ele>116.0</ele><time>2026-04-05T14:50:17.283Z</time></trkpt><trkpt lat="45.3090237" lon="8.7262605"><ele>116.00000000000001</ele><time>2026-04-05T14:50:18.284Z</time></trkpt><trkpt lat="45.3089856" lon="8.7261762"><ele>116.00000000000001</ele><time>2026-04-05T14:50:19.284Z</time></trkpt><trkpt lat="45.3089441" lon="8.7260761"><ele>116.33333333333333</ele><time>2026-04-05T14:50:20.283Z</time></trkpt><trkpt lat="45.3089043" lon="8.7259698"><ele>116.66666666666666</ele><time>2026-04-05T14:50:21.284Z</time></trkpt><trkpt lat="45.3088572" lon="8.725871"><ele>117.0</ele><time>2026-04-05T14:50:22.284Z</time></trkpt><trkpt lat="45.3088153" lon="8.7257747"><ele>117.33333333333334</ele><time>2026-04-05T14:50:23.283Z</time></trkpt><trkpt lat="45.3087726" lon="8.7256868"><ele>117.66666666666667</ele><time>2026-04-05T14:50:24.283Z</time></trkpt><trkpt lat="45.3087244" lon="8.7255981"><ele>118.0</ele><time>2026-04-05T14:50:25.284Z</time></trkpt><trkpt lat="45.3086785" lon="8.7255054"><ele>118.0</ele><time>2026-04-05T14:50:26.284Z</time></trkpt><trkpt lat="45.3086328" lon="8.7254222"><ele>118.0</ele><time>2026-04-05T14:50:27.283Z</time></trkpt><trkpt lat="45.308585" lon="8.7253412"><ele>118.0</ele><time>2026-04-05T14:50:28.284Z</time></trkpt><trkpt lat="45.3085375" lon="8.725263"><ele>118.0</ele><time>2026-04-05T14:50:29.284Z</time></trkpt><trkpt lat="45.30849" lon="8.725185"><ele>118.0</ele><time>2026-04-05T14:50:30.284Z</time></trkpt><trkpt lat="45.3084483" lon="8.725115"><ele>118.0</ele><time>2026-04-05T14:50:31.283Z</time></trkpt><trkpt lat="45.308405" lon="8.72504"><ele>118.0</ele><time>2026-04-05T14:50:32.283Z</time></trkpt><trkpt lat="45.3083617" lon="8.724965"><ele>117.66666666666667</ele><time>2026-04-05T14:50:33.283Z</time></trkpt><trkpt lat="45.3083167" lon="8.7248933"><ele>117.33333333333334</ele><time>2026-04-05T14:50:34.284Z</time></trkpt><trkpt lat="45.3082383" lon="8.7247683"><ele>117.0</ele><time>2026-04-05T14:50:36.283Z</time></trkpt><trkpt lat="45.3081617" lon="8.7246717"><ele>116.66666666666666</ele><time>2026-04-05T14:50:38.283Z</time></trkpt><trkpt lat="45.308085" lon="8.7246317"><ele>116.33333333333333</ele><time>2026-04-05T14:50:40.284Z</time></trkpt><trkpt lat="45.3080333" lon="8.7246833"><ele>116.0</ele><time>2026-04-05T14:50:42.284Z</time></trkpt><trkpt lat="45.3080233" lon="8.724855"><ele>115.99999999999999</ele><time>2026-04-05T14:50:44.284Z</time></trkpt><trkpt lat="45.3080183" lon="8.7249483"><ele>116.0</ele><time>2026-04-05T14:50:45.283Z</time></trkpt><trkpt lat="45.3080167" lon="8.7250417"><ele>116.0</ele><time>2026-04-05T14:50:46.284Z</time></trkpt><trkpt lat="45.3080083" lon="8.725145"><ele>116.0</ele><time>2026-04-05T14:50:47.284Z</time></trkpt><trkpt lat="45.307995" lon="8.7252633"><ele>115.99999999999999</ele><time>2026-04-05T14:50:48.284Z</time></trkpt><trkpt lat="45.3079833" lon="8.7253917"><ele>116.0</ele><time>2026-04-05T14:50:49.283Z</time></trkpt><trkpt lat="45.30798" lon="8.7255367"><ele>116.16666666666666</ele><time>2026-04-05T14:50:50.283Z</time></trkpt><trkpt lat="45.3079667" lon="8.7256783"><ele>116.33333333333333</ele><time>2026-04-05T14:50:51.284Z</time></trkpt><trkpt lat="45.307955" lon="8.725805"><ele>116.5</ele><time>2026-04-05T14:50:52.284Z</time></trkpt><trkpt lat="45.307935" lon="8.7259267"><ele>116.66666666666666</ele><time>2026-04-05T14:50:53.283Z</time></trkpt><trkpt lat="45.307915" lon="8.7260367"><ele>116.83333333333333</ele><time>2026-04-05T14:50:54.284Z</time></trkpt><trkpt lat="45.3078983" lon="8.7261467"><ele>117.0</ele><time>2026-04-05T14:50:55.284Z</time></trkpt><trkpt lat="45.3078733" lon="8.7262567"><ele>117.5</ele><time>2026-04-05T14:50:56.283Z</time></trkpt><trkpt lat="45.30785" lon="8.7263633"><ele>118.0</ele><time>2026-04-05T14:50:57.283Z</time></trkpt><trkpt lat="45.3078217" lon="8.7264717"><ele>118.5</ele><time>2026-04-05T14:50:58.283Z</time></trkpt><trkpt lat="45.3077967" lon="8.7265833"><ele>119.0</ele><time>2026-04-05T14:50:59.283Z</time></trkpt><trkpt lat="45.307785" lon="8.7266933"><ele>119.5</ele><time>2026-04-05T14:51:00.283Z</time></trkpt><trkpt lat="45.30777" lon="8.7267983"><ele>120.0</ele><time>2026-04-05T14:51:01.283Z</time></trkpt><trkpt lat="45.3077533" lon="8.72691"><ele>120.0</ele><time>2026-04-05T14:51:02.284Z</time></trkpt><trkpt lat="45.30774" lon="8.72701"><ele>120.0</ele><time>2026-04-05T14:51:03.283Z</time></trkpt><trkpt lat="45.3077283" lon="8.7270983"><ele>120.0</ele><time>2026-04-05T14:51:04.283Z</time></trkpt><trkpt lat="45.3077117" lon="8.7271967"><ele>120.0</ele><time>2026-04-05T14:51:05.284Z</time></trkpt><trkpt lat="45.3076917" lon="8.7273"><ele>120.0</ele><time>2026-04-05T14:51:06.283Z</time></trkpt><trkpt lat="45.30767" lon="8.72741"><ele>120.0</ele><time>2026-04-05T14:51:07.284Z</time></trkpt><trkpt lat="45.3076483" lon="8.7275217"><ele>120.0</ele><time>2026-04-05T14:51:08.284Z</time></trkpt><trkpt lat="45.307635" lon="8.7276217"><ele>120.0</ele><time>2026-04-05T14:51:09.284Z</time></trkpt><trkpt lat="45.3076217" lon="8.7277117"><ele>120.0</ele><time>2026-04-05T14:51:10.283Z</time></trkpt><trkpt lat="45.3076033" lon="8.727885"><ele>120.0</ele><time>2026-04-05T14:51:12.283Z</time></trkpt><trkpt lat="45.3075867" lon="8.7280017"><ele>120.0</ele><time>2026-04-05T14:51:14.283Z</time></trkpt><trkpt lat="45.307585" lon="8.7280933"><ele>120.0</ele><time>2026-04-05T14:51:16.284Z</time></trkpt><trkpt lat="45.3076317" lon="8.7281867"><ele>120.0</ele><time>2026-04-05T14:51:19.284Z</time></trkpt><trkpt lat="45.307725" lon="8.728215"><ele>119.5</ele><time>2026-04-05T14:51:21.284Z</time></trkpt><trkpt lat="45.3077917" lon="8.7282367"><ele>119.0</ele><time>2026-04-05T14:51:22.283Z</time></trkpt><trkpt lat="45.3078667" lon="8.7282567"><ele>118.5</ele><time>2026-04-05T14:51:23.283Z</time></trkpt><trkpt lat="45.30795" lon="8.728285"><ele>118.0</ele><time>2026-04-05T14:51:24.283Z</time></trkpt><trkpt lat="45.30804" lon="8.7283083"><ele>117.5</ele><time>2026-04-05T14:51:25.283Z</time></trkpt><trkpt lat="45.3081283" lon="8.728335"><ele>117.0</ele><time>2026-04-05T14:51:26.284Z</time></trkpt><trkpt lat="45.3082217" lon="8.7283533"><ele>117.0</ele><time>2026-04-05T14:51:27.283Z</time></trkpt><trkpt lat="45.3083117" lon="8.7283717"><ele>117.0</ele><time>2026-04-05T14:51:28.283Z</time></trkpt><trkpt lat="45.3083867" lon="8.72839"><ele>117.0</ele><time>2026-04-05T14:51:29.284Z</time></trkpt><trkpt lat="45.3084533" lon="8.728405"><ele>117.0</ele><time>2026-04-05T14:51:30.283Z</time></trkpt><trkpt lat="45.3085467" lon="8.7284267"><ele>117.0</ele><time>2026-04-05T14:51:32.284Z</time></trkpt><trkpt lat="45.3086183" lon="8.7284433"><ele>117.0</ele><time>2026-04-05T14:51:35.284Z</time></trkpt><trkpt lat="45.30854" lon="8.7283767"><ele>117.0</ele><time>2026-04-05T14:51:45.284Z</time></trkpt><trkpt lat="45.3084333" lon="8.7283617"><ele>117.0</ele><time>2026-04-05T14:51:47.284Z</time></trkpt><trkpt lat="45.3083683" lon="8.7283467"><ele>117.0</ele><time>2026-04-05T14:51:48.284Z</time></trkpt><trkpt lat="45.30829" lon="8.728335"><ele>117.0</ele><time>2026-04-05T14:51:49.284Z</time></trkpt><trkpt lat="45.3082167" lon="8.7283183"><ele>117.0</ele><time>2026-04-05T14:51:50.284Z</time></trkpt><trkpt lat="45.3081433" lon="8.7283067"><ele>117.0</ele><time>2026-04-05T14:51:51.283Z</time></trkpt><trkpt lat="45.3080767" lon="8.7282883"><ele>116.6</ele><time>2026-04-05T14:51:52.284Z</time></trkpt><trkpt lat="45.30801" lon="8.7282783"><ele>116.19999999999999</ele><time>2026-04-05T14:51:53.284Z</time></trkpt><trkpt lat="45.307905" lon="8.7282483"><ele>115.8</ele><time>2026-04-05T14:51:55.284Z</time></trkpt><trkpt lat="45.3077933" lon="8.72822"><ele>115.4</ele><time>2026-04-05T14:51:57.283Z</time></trkpt><trkpt lat="45.3076767" lon="8.7281883"><ele>115.0</ele><time>2026-04-05T14:51:59.284Z</time></trkpt><trkpt lat="45.3075633" lon="8.72815"><ele>115.0</ele><time>2026-04-05T14:52:01.283Z</time></trkpt><trkpt lat="45.3074433" lon="8.7280983"><ele>115.0</ele><time>2026-04-05T14:52:03.284Z</time></trkpt><trkpt lat="45.3073733" lon="8.7280633"><ele>115.0</ele><time>2026-04-05T14:52:04.283Z</time></trkpt><trkpt lat="45.3073083" lon="8.728025"><ele>115.0</ele><time>2026-04-05T14:52:05.284Z</time></trkpt><trkpt lat="45.3072433" lon="8.7279883"><ele>115.0</ele><time>2026-04-05T14:52:06.283Z</time></trkpt><trkpt lat="45.3071367" lon="8.7279433"><ele>115.00000000000001</ele><time>2026-04-05T14:52:08.284Z</time></trkpt><trkpt lat="45.30706" lon="8.7279117"><ele>115.0</ele><time>2026-04-05T14:52:10.284Z</time></trkpt><trkpt lat="45.3069917" lon="8.727885"><ele>115.0</ele><time>2026-04-05T14:52:13.283Z</time></trkpt><trkpt lat="45.3070767" lon="8.72794"><ele>115.0</ele><time>2026-04-05T14:52:23.284Z</time></trkpt><trkpt lat="45.3071967" lon="8.7279817"><ele>115.00000000000001</ele><time>2026-04-05T14:52:25.283Z</time></trkpt><trkpt lat="45.3072583" lon="8.7280183"><ele>115.0</ele><time>2026-04-05T14:52:26.284Z</time></trkpt><trkpt lat="45.3073767" lon="8.7280717"><ele>115.00000000000001</ele><time>2026-04-05T14:52:28.284Z</time></trkpt><trkpt lat="45.30747" lon="8.728115"><ele>115.0</ele><time>2026-04-05T14:52:30.283Z</time></trkpt><trkpt lat="45.3075433" lon="8.7281517"><ele>115.0</ele><time>2026-04-05T14:52:32.284Z</time></trkpt><trkpt lat="45.3075767" lon="8.7282483"><ele>115.0</ele><time>2026-04-05T14:52:34.283Z</time></trkpt><trkpt lat="45.3075667" lon="8.72842"><ele>115.00000000000001</ele><time>2026-04-05T14:52:36.284Z</time></trkpt><trkpt lat="45.3075617" lon="8.72852"><ele>115.0</ele><time>2026-04-05T14:52:37.283Z</time></trkpt><trkpt lat="45.3075533" lon="8.728615"><ele>114.4</ele><time>2026-04-05T14:52:38.284Z</time></trkpt><trkpt lat="45.307535" lon="8.7287067"><ele>113.8</ele><time>2026-04-05T14:52:39.284Z</time></trkpt><trkpt lat="45.3075067" lon="8.7288833"><ele>113.19999999999999</ele><time>2026-04-05T14:52:41.284Z</time></trkpt><trkpt lat="45.30748" lon="8.7290383"><ele>112.6</ele><time>2026-04-05T14:52:43.283Z</time></trkpt><trkpt lat="45.307465" lon="8.7292017"><ele>112.0</ele><time>2026-04-05T14:52:45.283Z</time></trkpt><trkpt lat="45.3074467" lon="8.7293533"><ele>112.00000000000001</ele><time>2026-04-05T14:52:47.284Z</time></trkpt><trkpt lat="45.3074583" lon="8.7295267"><ele>112.0</ele><time>2026-04-05T14:52:49.283Z</time></trkpt><trkpt lat="45.307465" lon="8.7296217"><ele>112.0</ele><time>2026-04-05T14:52:50.283Z</time></trkpt><trkpt lat="45.307465" lon="8.7297333"><ele>112.0</ele><time>2026-04-05T14:52:51.284Z</time></trkpt><trkpt lat="45.3074733" lon="8.729845"><ele>112.00000000000001</ele><time>2026-04-05T14:52:52.284Z</time></trkpt><trkpt lat="45.30748" lon="8.72996"><ele>112.0</ele><time>2026-04-05T14:52:53.284Z</time></trkpt><trkpt lat="45.307485" lon="8.7300833"><ele>112.00000000000001</ele><time>2026-04-05T14:52:54.284Z</time></trkpt><trkpt lat="45.3074917" lon="8.730195"><ele>112.0</ele><time>2026-04-05T14:52:55.283Z</time></trkpt><trkpt lat="45.3075" lon="8.730295"><ele>112.0</ele><time>2026-04-05T14:52:56.284Z</time></trkpt><trkpt lat="45.3075067" lon="8.730395"><ele>112.0</ele><time>2026-04-05T14:52:57.284Z</time></trkpt><trkpt lat="45.3075117" lon="8.730505"><ele>112.00000000000001</ele><time>2026-04-05T14:52:58.284Z</time></trkpt><trkpt lat="45.3075233" lon="8.7306167"><ele>112.0</ele><time>2026-04-05T14:52:59.283Z</time></trkpt><trkpt lat="45.307535" lon="8.7307317"><ele>112.0</ele><time>2026-04-05T14:53:00.284Z</time></trkpt><trkpt lat="45.3075433" lon="8.7308383"><ele>112.0</ele><time>2026-04-05T14:53:01.283Z</time></trkpt><trkpt lat="45.3075517" lon="8.7309517"><ele>112.0</ele><time>2026-04-05T14:53:02.284Z</time></trkpt><trkpt lat="45.3075583" lon="8.731055"><ele>112.0</ele><time>2026-04-05T14:53:03.284Z</time></trkpt><trkpt lat="45.307565" lon="8.7311617"><ele>112.0</ele><time>2026-04-05T14:53:04.284Z</time></trkpt><trkpt lat="45.3075667" lon="8.731265"><ele>112.0</ele><time>2026-04-05T14:53:05.284Z</time></trkpt><trkpt lat="45.3075633" lon="8.7313683"><ele>112.0</ele><time>2026-04-05T14:53:06.283Z</time></trkpt><trkpt lat="45.3075633" lon="8.7314717"><ele>112.16666666666667</ele><time>2026-04-05T14:53:07.284Z</time></trkpt><trkpt lat="45.3075583" lon="8.7315783"><ele>112.33333333333334</ele><time>2026-04-05T14:53:08.284Z</time></trkpt><trkpt lat="45.3075517" lon="8.7317417"><ele>112.5</ele><time>2026-04-05T14:53:10.284Z</time></trkpt><trkpt lat="45.3075483" lon="8.7318867"><ele>112.66666666666666</ele><time>2026-04-05T14:53:12.284Z</time></trkpt><trkpt lat="45.30755" lon="8.7320033"><ele>112.83333333333333</ele><time>2026-04-05T14:53:14.284Z</time></trkpt><trkpt lat="45.3075983" lon="8.7320733"><ele>113.0</ele><time>2026-04-05T14:53:16.284Z</time></trkpt><trkpt lat="45.3077117" lon="8.73211"><ele>112.66666666666666</ele><time>2026-04-05T14:53:18.283Z</time></trkpt><trkpt lat="45.3077883" lon="8.7321233"><ele>112.33333333333333</ele><time>2026-04-05T14:53:19.284Z</time></trkpt><trkpt lat="45.30794" lon="8.7321567"><ele>112.0</ele><time>2026-04-05T14:53:21.284Z</time></trkpt><trkpt lat="45.3080133" lon="8.7321767"><ele>111.66666666666666</ele><time>2026-04-05T14:53:22.283Z</time></trkpt><trkpt lat="45.308085" lon="8.73219"><ele>111.33333333333333</ele><time>2026-04-05T14:53:23.283Z</time></trkpt><trkpt lat="45.30815" lon="8.7322117"><ele>111.0</ele><time>2026-04-05T14:53:24.283Z</time></trkpt><trkpt lat="45.308215" lon="8.7322267"><ele>111.0</ele><time>2026-04-05T14:53:25.284Z</time></trkpt><trkpt lat="45.3082833" lon="8.7322367"><ele>111.0</ele><time>2026-04-05T14:53:26.283Z</time></trkpt><trkpt lat="45.3084117" lon="8.7322567"><ele>111.0</ele><time>2026-04-05T14:53:28.283Z</time></trkpt><trkpt lat="45.3084767" lon="8.7322617"><ele>111.0</ele><time>2026-04-05T14:53:29.282Z</time></trkpt><trkpt lat="45.3085817" lon="8.7322817"><ele>111.0</ele><time>2026-04-05T14:53:31.283Z</time></trkpt><trkpt lat="45.3086567" lon="8.7323633"><ele>111.0</ele><time>2026-04-05T14:53:33.283Z</time></trkpt><trkpt lat="45.308675" lon="8.732555"><ele>111.0</ele><time>2026-04-05T14:53:35.283Z</time></trkpt><trkpt lat="45.3086683" lon="8.732675"><ele>111.0</ele><time>2026-04-05T14:53:36.282Z</time></trkpt><trkpt lat="45.308655" lon="8.7327867"><ele>111.0</ele><time>2026-04-05T14:53:37.282Z</time></trkpt><trkpt lat="45.308635" lon="8.7328833"><ele>111.0</ele><time>2026-04-05T14:53:38.282Z</time></trkpt><trkpt lat="45.3086183" lon="8.7329767"><ele>111.0</ele><time>2026-04-05T14:53:39.282Z</time></trkpt><trkpt lat="45.3086083" lon="8.7330667"><ele>111.0</ele><time>2026-04-05T14:53:40.283Z</time></trkpt><trkpt lat="45.3085933" lon="8.7332283"><ele>111.0</ele><time>2026-04-05T14:53:42.282Z</time></trkpt><trkpt lat="45.308575" lon="8.7334117"><ele>111.0</ele><time>2026-04-05T14:53:44.283Z</time></trkpt><trkpt lat="45.308575" lon="8.7335083"><ele>111.0</ele><time>2026-04-05T14:53:45.283Z</time></trkpt><trkpt lat="45.3085667" lon="8.7336017"><ele>111.0</ele><time>2026-04-05T14:53:46.283Z</time></trkpt><trkpt lat="45.308555" lon="8.7336933"><ele>111.0</ele><time>2026-04-05T14:53:47.283Z</time></trkpt><trkpt lat="45.3085417" lon="8.7338517"><ele>111.0</ele><time>2026-04-05T14:53:49.283Z</time></trkpt><trkpt lat="45.3085183" lon="8.734105"><ele>111.0</ele><time>2026-04-05T14:53:52.283Z</time></trkpt><trkpt lat="45.3085133" lon="8.7342017"><ele>111.0</ele><time>2026-04-05T14:53:53.282Z</time></trkpt><trkpt lat="45.30851" lon="8.7343183"><ele>111.0</ele><time>2026-04-05T14:53:54.282Z</time></trkpt><trkpt lat="45.3085017" lon="8.734435"><ele>111.0</ele><time>2026-04-05T14:53:55.283Z</time></trkpt><trkpt lat="45.3084817" lon="8.73455"><ele>111.0</ele><time>2026-04-05T14:53:56.282Z</time></trkpt><trkpt lat="45.3084717" lon="8.7346667"><ele>111.0</ele><time>2026-04-05T14:53:57.282Z</time></trkpt><trkpt lat="45.3084633" lon="8.734785"><ele>111.0</ele><time>2026-04-05T14:53:58.283Z</time></trkpt><trkpt lat="45.308455" lon="8.7349133"><ele>111.0</ele><time>2026-04-05T14:53:59.282Z</time></trkpt><trkpt lat="45.3084417" lon="8.7350417"><ele>111.0</ele><time>2026-04-05T14:54:00.283Z</time></trkpt><trkpt lat="45.3084283" lon="8.7351617"><ele>111.0</ele><time>2026-04-05T14:54:01.282Z</time></trkpt><trkpt lat="45.3084183" lon="8.73528"><ele>111.0</ele><time>2026-04-05T14:54:02.283Z</time></trkpt><trkpt lat="45.3084083" lon="8.7353933"><ele>111.0</ele><time>2026-04-05T14:54:03.282Z</time></trkpt><trkpt lat="45.3083933" lon="8.7355033"><ele>111.0</ele><time>2026-04-05T14:54:04.282Z</time></trkpt><trkpt lat="45.3083817" lon="8.735625"><ele>111.0</ele><time>2026-04-05T14:54:05.282Z</time></trkpt><trkpt lat="45.3083683" lon="8.7357333"><ele>111.0</ele><time>2026-04-05T14:54:06.282Z</time></trkpt><trkpt lat="45.308365" lon="8.7358417"><ele>111.0</ele><time>2026-04-05T14:54:07.283Z</time></trkpt><trkpt lat="45.3083617" lon="8.7359517"><ele>111.16666666666667</ele><time>2026-04-05T14:54:08.283Z</time></trkpt><trkpt lat="45.3083467" lon="8.7360683"><ele>111.33333333333334</ele><time>2026-04-05T14:54:09.283Z</time></trkpt><trkpt lat="45.3083367" lon="8.7361767"><ele>111.5</ele><time>2026-04-05T14:54:10.282Z</time></trkpt><trkpt lat="45.3083317" lon="8.7363017"><ele>111.66666666666667</ele><time>2026-04-05T14:54:11.282Z</time></trkpt><trkpt lat="45.3083167" lon="8.7364083"><ele>111.83333333333334</ele><time>2026-04-05T14:54:12.283Z</time></trkpt><trkpt lat="45.3083083" lon="8.7365133"><ele>112.0</ele><time>2026-04-05T14:54:13.283Z</time></trkpt><trkpt lat="45.308315" lon="8.7366083"><ele>112.00000000000001</ele><time>2026-04-05T14:54:14.282Z</time></trkpt><trkpt lat="45.3082967" lon="8.7367867"><ele>112.0</ele><time>2026-04-05T14:54:16.283Z</time></trkpt><trkpt lat="45.3082967" lon="8.7368917"><ele>112.0</ele><time>2026-04-05T14:54:17.282Z</time></trkpt><trkpt lat="45.3083" lon="8.7369983"><ele>112.0</ele><time>2026-04-05T14:54:18.282Z</time></trkpt><trkpt lat="45.3083017" lon="8.737105"><ele>112.00000000000001</ele><time>2026-04-05T14:54:19.283Z</time></trkpt><trkpt lat="45.3083" lon="8.737225"><ele>112.0</ele><time>2026-04-05T14:54:20.283Z</time></trkpt><trkpt lat="45.3082983" lon="8.73734"><ele>112.33333333333334</ele><time>2026-04-05T14:54:21.282Z</time></trkpt><trkpt lat="45.3083" lon="8.73745"><ele>112.66666666666667</ele><time>2026-04-05T14:54:22.282Z</time></trkpt><trkpt lat="45.3083017" lon="8.7375633"><ele>113.0</ele><time>2026-04-05T14:54:23.282Z</time></trkpt><trkpt lat="45.3083017" lon="8.737675"><ele>113.33333333333334</ele><time>2026-04-05T14:54:24.282Z</time></trkpt><trkpt lat="45.308305" lon="8.73778"><ele>113.66666666666667</ele><time>2026-04-05T14:54:25.282Z</time></trkpt><trkpt lat="45.30831" lon="8.7378783"><ele>114.0</ele><time>2026-04-05T14:54:26.282Z</time></trkpt><trkpt lat="45.30831" lon="8.737985"><ele>114.0</ele><time>2026-04-05T14:54:27.283Z</time></trkpt><trkpt lat="45.3083117" lon="8.7380817"><ele>114.0</ele><time>2026-04-05T14:54:28.283Z</time></trkpt><trkpt lat="45.308345" lon="8.738255"><ele>114.0</ele><time>2026-04-05T14:54:30.283Z</time></trkpt><trkpt lat="45.308375" lon="8.73835"><ele>114.0</ele><time>2026-04-05T14:54:31.283Z</time></trkpt><trkpt lat="45.308395" lon="8.738435"><ele>114.0</ele><time>2026-04-05T14:54:32.282Z</time></trkpt><trkpt lat="45.3084233" lon="8.738525"><ele>114.0</ele><time>2026-04-05T14:54:33.283Z</time></trkpt><trkpt lat="45.30846" lon="8.738625"><ele>114.0</ele><time>2026-04-05T14:54:34.282Z</time></trkpt><trkpt lat="45.3084817" lon="8.7387217"><ele>114.0</ele><time>2026-04-05T14:54:35.283Z</time></trkpt><trkpt lat="45.3085217" lon="8.7388033"><ele>114.0</ele><time>2026-04-05T14:54:36.283Z</time></trkpt><trkpt lat="45.3085517" lon="8.7388883"><ele>114.0</ele><time>2026-04-05T14:54:37.283Z</time></trkpt><trkpt lat="45.308595" lon="8.739045"><ele>114.0</ele><time>2026-04-05T14:54:39.283Z</time></trkpt><trkpt lat="45.308635" lon="8.7391633"><ele>114.0</ele><time>2026-04-05T14:54:41.283Z</time></trkpt><trkpt lat="45.30864" lon="8.7392817"><ele>114.0</ele><time>2026-04-05T14:54:44.282Z</time></trkpt><trkpt lat="45.3086367" lon="8.7393733"><ele>114.0</ele><time>2026-04-05T14:54:46.283Z</time></trkpt><trkpt lat="45.3085783" lon="8.73951"><ele>114.0</ele><time>2026-04-05T14:54:48.282Z</time></trkpt><trkpt lat="45.30853" lon="8.739685"><ele>114.0</ele><time>2026-04-05T14:54:50.282Z</time></trkpt><trkpt lat="45.3084983" lon="8.7397717"><ele>114.0</ele><time>2026-04-05T14:54:51.282Z</time></trkpt><trkpt lat="45.3084617" lon="8.739855"><ele>114.0</ele><time>2026-04-05T14:54:52.282Z</time></trkpt><trkpt lat="45.3084233" lon="8.7399333"><ele>114.0</ele><time>2026-04-05T14:54:53.283Z</time></trkpt><trkpt lat="45.30838" lon="8.7400017"><ele>114.0</ele><time>2026-04-05T14:54:54.283Z</time></trkpt><trkpt lat="45.3083067" lon="8.7401283"><ele>114.0</ele><time>2026-04-05T14:54:56.283Z</time></trkpt><trkpt lat="45.30823" lon="8.7402067"><ele>114.0</ele><time>2026-04-05T14:54:58.283Z</time></trkpt><trkpt lat="45.3081833" lon="8.7403067"><ele>114.0</ele><time>2026-04-05T14:55:01.282Z</time></trkpt><trkpt lat="45.3080967" lon="8.7403217"><ele>114.0</ele><time>2026-04-05T14:55:04.282Z</time></trkpt><trkpt lat="45.3080017" lon="8.7402233"><ele>114.0</ele><time>2026-04-05T14:55:06.282Z</time></trkpt><trkpt lat="45.3079317" lon="8.7401567"><ele>114.0</ele><time>2026-04-05T14:55:07.282Z</time></trkpt><trkpt lat="45.3078633" lon="8.74009"><ele>114.0</ele><time>2026-04-05T14:55:08.282Z</time></trkpt><trkpt lat="45.307805" lon="8.74004"><ele>114.0</ele><time>2026-04-05T14:55:09.282Z</time></trkpt><trkpt lat="45.3077367" lon="8.7399917"><ele>114.0</ele><time>2026-04-05T14:55:10.283Z</time></trkpt><trkpt lat="45.30767" lon="8.739945"><ele>114.0</ele><time>2026-04-05T14:55:11.282Z</time></trkpt><trkpt lat="45.307605" lon="8.7399"><ele>114.0</ele><time>2026-04-05T14:55:12.282Z</time></trkpt><trkpt lat="45.3075283" lon="8.739835"><ele>114.0</ele><time>2026-04-05T14:55:13.283Z</time></trkpt><trkpt lat="45.307455" lon="8.7397767"><ele>114.0</ele><time>2026-04-05T14:55:14.283Z</time></trkpt><trkpt lat="45.307385" lon="8.7397067"><ele>114.0</ele><time>2026-04-05T14:55:15.283Z</time></trkpt><trkpt lat="45.3073133" lon="8.7396383"><ele>114.0</ele><time>2026-04-05T14:55:16.282Z</time></trkpt><trkpt lat="45.3072333" lon="8.7395583"><ele>114.0</ele><time>2026-04-05T14:55:17.282Z</time></trkpt><trkpt lat="45.30716" lon="8.7394783"><ele>114.0</ele><time>2026-04-05T14:55:18.283Z</time></trkpt><trkpt lat="45.3070917" lon="8.7394167"><ele>114.0</ele><time>2026-04-05T14:55:19.283Z</time></trkpt><trkpt lat="45.307035" lon="8.7393467"><ele>114.0</ele><time>2026-04-05T14:55:20.282Z</time></trkpt><trkpt lat="45.3069817" lon="8.73928"><ele>114.0</ele><time>2026-04-05T14:55:21.282Z</time></trkpt><trkpt lat="45.3069333" lon="8.7392033"><ele>114.0</ele><time>2026-04-05T14:55:22.282Z</time></trkpt><trkpt lat="45.3068317" lon="8.7391333"><ele>114.0</ele><time>2026-04-05T14:55:24.282Z</time></trkpt><trkpt lat="45.3067533" lon="8.73917"><ele>114.0</ele><time>2026-04-05T14:55:26.282Z</time></trkpt><trkpt lat="45.3067117" lon="8.739245"><ele>114.0</ele><time>2026-04-05T14:55:29.283Z</time></trkpt><trkpt lat="45.30673" lon="8.7393383"><ele>114.0</ele><time>2026-04-05T14:55:31.283Z</time></trkpt><trkpt lat="45.306745" lon="8.7394583"><ele>114.0</ele><time>2026-04-05T14:55:33.282Z</time></trkpt><trkpt lat="45.3067717" lon="8.7396283"><ele>114.0</ele><time>2026-04-05T14:55:35.282Z</time></trkpt><trkpt lat="45.30678" lon="8.739735"><ele>114.0</ele><time>2026-04-05T14:55:36.283Z</time></trkpt><trkpt lat="45.30679" lon="8.7398617"><ele>114.0</ele><time>2026-04-05T14:55:37.283Z</time></trkpt><trkpt lat="45.3068033" lon="8.7400167"><ele>114.0</ele><time>2026-04-05T14:55:38.282Z</time></trkpt><trkpt lat="45.3068167" lon="8.740175"><ele>114.0</ele><time>2026-04-05T14:55:39.282Z</time></trkpt><trkpt lat="45.3068267" lon="8.7403233"><ele>114.0</ele><time>2026-04-05T14:55:40.282Z</time></trkpt><trkpt lat="45.3068367" lon="8.7404683"><ele>114.0</ele><time>2026-04-05T14:55:41.283Z</time></trkpt><trkpt lat="45.306855" lon="8.7406117"><ele>114.2</ele><time>2026-04-05T14:55:42.282Z</time></trkpt><trkpt lat="45.306875" lon="8.7407517"><ele>114.4</ele><time>2026-04-05T14:55:43.283Z</time></trkpt><trkpt lat="45.3069" lon="8.74089"><ele>114.6</ele><time>2026-04-05T14:55:44.282Z</time></trkpt><trkpt lat="45.3069167" lon="8.7410217"><ele>114.8</ele><time>2026-04-05T14:55:45.283Z</time></trkpt><trkpt lat="45.3069117" lon="8.74114"><ele>115.0</ele><time>2026-04-05T14:55:46.282Z</time></trkpt><trkpt lat="45.30693" lon="8.74126"><ele>114.66666666666667</ele><time>2026-04-05T14:55:47.282Z</time></trkpt><trkpt lat="45.3069383" lon="8.741365"><ele>114.33333333333334</ele><time>2026-04-05T14:55:48.283Z</time></trkpt><trkpt lat="45.3069533" lon="8.7414967"><ele>114.0</ele><time>2026-04-05T14:55:49.283Z</time></trkpt><trkpt lat="45.3069717" lon="8.74163"><ele>113.66666666666666</ele><time>2026-04-05T14:55:50.283Z</time></trkpt><trkpt lat="45.30699" lon="8.74176"><ele>113.33333333333333</ele><time>2026-04-05T14:55:51.282Z</time></trkpt><trkpt lat="45.3069917" lon="8.7418817"><ele>113.0</ele><time>2026-04-05T14:55:52.283Z</time></trkpt><trkpt lat="45.3070017" lon="8.742"><ele>112.80000000000001</ele><time>2026-04-05T14:55:53.283Z</time></trkpt><trkpt lat="45.3070183" lon="8.7421317"><ele>112.60000000000001</ele><time>2026-04-05T14:55:54.282Z</time></trkpt><trkpt lat="45.30703" lon="8.742255"><ele>112.39999999999999</ele><time>2026-04-05T14:55:55.282Z</time></trkpt><trkpt lat="45.307045" lon="8.7423817"><ele>112.19999999999999</ele><time>2026-04-05T14:55:56.282Z</time></trkpt><trkpt lat="45.3070567" lon="8.74251"><ele>112.0</ele><time>2026-04-05T14:55:57.282Z</time></trkpt><trkpt lat="45.3070683" lon="8.7426383"><ele>112.6</ele><time>2026-04-05T14:55:58.283Z</time></trkpt><trkpt lat="45.30708" lon="8.7427733"><ele>113.19999999999999</ele><time>2026-04-05T14:55:59.282Z</time></trkpt><trkpt lat="45.3070983" lon="8.7429133"><ele>113.8</ele><time>2026-04-05T14:56:00.283Z</time></trkpt><trkpt lat="45.30712" lon="8.7430533"><ele>114.4</ele><time>2026-04-05T14:56:01.283Z</time></trkpt><trkpt lat="45.307135" lon="8.7431917"><ele>115.0</ele><time>2026-04-05T14:56:02.283Z</time></trkpt><trkpt lat="45.3071533" lon="8.7433233"><ele>115.0</ele><time>2026-04-05T14:56:03.282Z</time></trkpt><trkpt lat="45.3071667" lon="8.7434517"><ele>115.0</ele><time>2026-04-05T14:56:04.283Z</time></trkpt><trkpt lat="45.3071817" lon="8.7435783"><ele>115.0</ele><time>2026-04-05T14:56:05.282Z</time></trkpt><trkpt lat="45.3071933" lon="8.743705"><ele>115.0</ele><time>2026-04-05T14:56:06.282Z</time></trkpt><trkpt lat="45.3072067" lon="8.7438333"><ele>115.0</ele><time>2026-04-05T14:56:07.282Z</time></trkpt><trkpt lat="45.3072183" lon="8.7439617"><ele>115.0</ele><time>2026-04-05T14:56:08.282Z</time></trkpt><trkpt lat="45.3072267" lon="8.7440933"><ele>115.0</ele><time>2026-04-05T14:56:09.283Z</time></trkpt><trkpt lat="45.3072433" lon="8.744215"><ele>115.0</ele><time>2026-04-05T14:56:10.283Z</time></trkpt><trkpt lat="45.3072533" lon="8.74433"><ele>115.0</ele><time>2026-04-05T14:56:11.282Z</time></trkpt><trkpt lat="45.30726" lon="8.7444933"><ele>115.0</ele><time>2026-04-05T14:56:13.283Z</time></trkpt><trkpt lat="45.30727" lon="8.7446333"><ele>115.0</ele><time>2026-04-05T14:56:15.283Z</time></trkpt><trkpt lat="45.30726" lon="8.74477"><ele>115.0</ele><time>2026-04-05T14:56:17.282Z</time></trkpt><trkpt lat="45.307255" lon="8.744885"><ele>115.0</ele><time>2026-04-05T14:56:20.283Z</time></trkpt><trkpt lat="45.30717" lon="8.7449267"><ele>115.0</ele><time>2026-04-05T14:56:24.283Z</time></trkpt><trkpt lat="45.30704" lon="8.7449167"><ele>115.0</ele><time>2026-04-05T14:56:26.282Z</time></trkpt><trkpt lat="45.306945" lon="8.744915"><ele>114.75</ele><time>2026-04-05T14:56:27.283Z</time></trkpt><trkpt lat="45.3068233" lon="8.7449167"><ele>114.5</ele><time>2026-04-05T14:56:28.283Z</time></trkpt><trkpt lat="45.3067167" lon="8.744925"><ele>114.25</ele><time>2026-04-05T14:56:29.283Z</time></trkpt><trkpt lat="45.3066067" lon="8.7449333"><ele>114.0</ele><time>2026-04-05T14:56:30.283Z</time></trkpt><trkpt lat="45.306485" lon="8.7449467"><ele>114.2</ele><time>2026-04-05T14:56:31.283Z</time></trkpt><trkpt lat="45.306375" lon="8.7449483"><ele>114.4</ele><time>2026-04-05T14:56:32.283Z</time></trkpt><trkpt lat="45.3062717" lon="8.74496"><ele>114.6</ele><time>2026-04-05T14:56:33.283Z</time></trkpt><trkpt lat="45.306175" lon="8.7449683"><ele>114.8</ele><time>2026-04-05T14:56:34.282Z</time></trkpt><trkpt lat="45.306075" lon="8.7449867"><ele>115.0</ele><time>2026-04-05T14:56:35.282Z</time></trkpt><trkpt lat="45.30598" lon="8.744995"><ele>115.00000000000001</ele><time>2026-04-05T14:56:36.282Z</time></trkpt><trkpt lat="45.3058833" lon="8.745"><ele>115.0</ele><time>2026-04-05T14:56:37.283Z</time></trkpt><trkpt lat="45.3057983" lon="8.7450017"><ele>115.0</ele><time>2026-04-05T14:56:38.282Z</time></trkpt><trkpt lat="45.305695" lon="8.74501"><ele>115.0</ele><time>2026-04-05T14:56:40.283Z</time></trkpt><trkpt lat="45.3056467" lon="8.745085"><ele>115.00000000000001</ele><time>2026-04-05T14:56:44.283Z</time></trkpt><trkpt lat="45.3056617" lon="8.7451733"><ele>115.0</ele><time>2026-04-05T14:56:46.282Z</time></trkpt><trkpt lat="45.305685" lon="8.7452783"><ele>115.00000000000001</ele><time>2026-04-05T14:56:48.282Z</time></trkpt><trkpt lat="45.3056717" lon="8.74542"><ele>115.0</ele><time>2026-04-05T14:56:50.283Z</time></trkpt><trkpt lat="45.30568" lon="8.7455117"><ele>115.0</ele><time>2026-04-05T14:56:51.283Z</time></trkpt><trkpt lat="45.3056867" lon="8.745625"><ele>115.0</ele><time>2026-04-05T14:56:52.282Z</time></trkpt><trkpt lat="45.3056983" lon="8.745745"><ele>115.00000000000001</ele><time>2026-04-05T14:56:53.282Z</time></trkpt><trkpt lat="45.305705" lon="8.7458783"><ele>115.0</ele><time>2026-04-05T14:56:54.283Z</time></trkpt><trkpt lat="45.30572" lon="8.74602"><ele>115.0</ele><time>2026-04-05T14:56:55.282Z</time></trkpt><trkpt lat="45.3057317" lon="8.7461717"><ele>115.0</ele><time>2026-04-05T14:56:56.283Z</time></trkpt><trkpt lat="45.3057467" lon="8.7463217"><ele>115.0</ele><time>2026-04-05T14:56:57.283Z</time></trkpt><trkpt lat="45.3057633" lon="8.74646"><ele>115.0</ele><time>2026-04-05T14:56:58.282Z</time></trkpt><trkpt lat="45.3057717" lon="8.74659"><ele>115.0</ele><time>2026-04-05T14:56:59.282Z</time></trkpt><trkpt lat="45.3057867" lon="8.7467217"><ele>115.00000000000001</ele><time>2026-04-05T14:57:00.282Z</time></trkpt><trkpt lat="45.3057933" lon="8.746845"><ele>115.0</ele><time>2026-04-05T14:57:01.283Z</time></trkpt><trkpt lat="45.3057967" lon="8.746965"><ele>115.0</ele><time>2026-04-05T14:57:02.283Z</time></trkpt><trkpt lat="45.3057933" lon="8.7470883"><ele>115.0</ele><time>2026-04-05T14:57:03.283Z</time></trkpt><trkpt lat="45.3057983" lon="8.7472083"><ele>115.00000000000001</ele><time>2026-04-05T14:57:04.283Z</time></trkpt><trkpt lat="45.3058" lon="8.7473267"><ele>115.0</ele><time>2026-04-05T14:57:05.282Z</time></trkpt><trkpt lat="45.3058017" lon="8.7474467"><ele>115.00000000000001</ele><time>2026-04-05T14:57:06.282Z</time></trkpt><trkpt lat="45.3058083" lon="8.7475717"><ele>115.0</ele><time>2026-04-05T14:57:07.282Z</time></trkpt><trkpt lat="45.3058133" lon="8.747695"><ele>115.0</ele><time>2026-04-05T14:57:08.282Z</time></trkpt><trkpt lat="45.305815" lon="8.74782"><ele>115.0</ele><time>2026-04-05T14:57:09.283Z</time></trkpt><trkpt lat="45.3058233" lon="8.7479433"><ele>115.00000000000001</ele><time>2026-04-05T14:57:10.283Z</time></trkpt><trkpt lat="45.3058267" lon="8.7480583"><ele>115.0</ele><time>2026-04-05T14:57:11.282Z</time></trkpt><trkpt lat="45.30583" lon="8.748165"><ele>115.0</ele><time>2026-04-05T14:57:12.283Z</time></trkpt><trkpt lat="45.3058267" lon="8.748265"><ele>115.0</ele><time>2026-04-05T14:57:13.283Z</time></trkpt><trkpt lat="45.305825" lon="8.74844"><ele>115.0</ele><time>2026-04-05T14:57:15.283Z</time></trkpt><trkpt lat="45.3057967" lon="8.7485533"><ele>115.0</ele><time>2026-04-05T14:57:17.282Z</time></trkpt><trkpt lat="45.3057733" lon="8.7487033"><ele>115.0</ele><time>2026-04-05T14:57:19.283Z</time></trkpt><trkpt lat="45.3058067" lon="8.748845"><ele>115.0</ele><time>2026-04-05T14:57:21.283Z</time></trkpt><trkpt lat="45.3059183" lon="8.748885"><ele>115.0</ele><time>2026-04-05T14:57:23.283Z</time></trkpt><trkpt lat="45.3059967" lon="8.7488483"><ele>115.0</ele><time>2026-04-05T14:57:24.283Z</time></trkpt><trkpt lat="45.3060817" lon="8.74882"><ele>115.0</ele><time>2026-04-05T14:57:25.282Z</time></trkpt><trkpt lat="45.3061667" lon="8.7488133"><ele>115.0</ele><time>2026-04-05T14:57:26.283Z</time></trkpt><trkpt lat="45.30626" lon="8.7488083"><ele>115.00000000000001</ele><time>2026-04-05T14:57:27.283Z</time></trkpt><trkpt lat="45.30636" lon="8.7488133"><ele>115.0</ele><time>2026-04-05T14:57:28.283Z</time></trkpt><trkpt lat="45.3064433" lon="8.7488183"><ele>115.0</ele><time>2026-04-05T14:57:29.282Z</time></trkpt><trkpt lat="45.306525" lon="8.74883"><ele>115.0</ele><time>2026-04-05T14:57:30.283Z</time></trkpt><trkpt lat="45.3065917" lon="8.748835"><ele>115.00000000000001</ele><time>2026-04-05T14:57:31.282Z</time></trkpt><trkpt lat="45.3066783" lon="8.7488433"><ele>115.0</ele><time>2026-04-05T14:57:33.283Z</time></trkpt><trkpt lat="45.3067067" lon="8.748925"><ele>115.0</ele><time>2026-04-05T14:57:35.283Z</time></trkpt><trkpt lat="45.3066817" lon="8.74907"><ele>115.0</ele><time>2026-04-05T14:57:37.282Z</time></trkpt><trkpt lat="45.30668" lon="8.7492367"><ele>115.0</ele><time>2026-04-05T14:57:39.282Z</time></trkpt><trkpt lat="45.3066817" lon="8.749335"><ele>115.0</ele><time>2026-04-05T14:57:40.283Z</time></trkpt><trkpt lat="45.3066833" lon="8.7494383"><ele>115.0</ele><time>2026-04-05T14:57:41.283Z</time></trkpt><trkpt lat="45.306685" lon="8.74956"><ele>115.00000000000001</ele><time>2026-04-05T14:57:42.283Z</time></trkpt><trkpt lat="45.3066767" lon="8.7496867"><ele>115.0</ele><time>2026-04-05T14:57:43.283Z</time></trkpt><trkpt lat="45.3066783" lon="8.7498117"><ele>115.0</ele><time>2026-04-05T14:57:44.282Z</time></trkpt><trkpt lat="45.3066683" lon="8.7499233"><ele>115.0</ele><time>2026-04-05T14:57:45.283Z</time></trkpt><trkpt lat="45.3066583" lon="8.7500367"><ele>115.00000000000001</ele><time>2026-04-05T14:57:46.283Z</time></trkpt><trkpt lat="45.3066567" lon="8.750145"><ele>115.0</ele><time>2026-04-05T14:57:47.282Z</time></trkpt><trkpt lat="45.3066633" lon="8.750255"><ele>115.50000000000001</ele><time>2026-04-05T14:57:48.283Z</time></trkpt><trkpt lat="45.30667" lon="8.7503567"><ele>116.0</ele><time>2026-04-05T14:57:49.282Z</time></trkpt><trkpt lat="45.30667" lon="8.750455"><ele>116.5</ele><time>2026-04-05T14:57:50.282Z</time></trkpt><trkpt lat="45.3066667" lon="8.750565"><ele>117.0</ele><time>2026-04-05T14:57:51.283Z</time></trkpt><trkpt lat="45.30666" lon="8.7506833"><ele>117.50000000000001</ele><time>2026-04-05T14:57:52.282Z</time></trkpt><trkpt lat="45.3066533" lon="8.7507983"><ele>118.0</ele><time>2026-04-05T14:57:53.283Z</time></trkpt><trkpt lat="45.30665" lon="8.7509033"><ele>118.0</ele><time>2026-04-05T14:57:54.283Z</time></trkpt><trkpt lat="45.3066567" lon="8.751"><ele>118.00000000000001</ele><time>2026-04-05T14:57:55.282Z</time></trkpt><trkpt lat="45.306655" lon="8.7510983"><ele>118.00000000000001</ele><time>2026-04-05T14:57:56.283Z</time></trkpt><trkpt lat="45.3066433" lon="8.75126"><ele>118.0</ele><time>2026-04-05T14:57:58.282Z</time></trkpt><trkpt lat="45.3066283" lon="8.7514167"><ele>118.0</ele><time>2026-04-05T14:58:00.282Z</time></trkpt><trkpt lat="45.3066233" lon="8.7515617"><ele>118.0</ele><time>2026-04-05T14:58:02.282Z</time></trkpt><trkpt lat="45.3066022" lon="8.7517469"><ele>118.00000000000001</ele><time>2026-04-05T14:58:04.283Z</time></trkpt><trkpt lat="45.3065915" lon="8.7518455"><ele>118.00000000000001</ele><time>2026-04-05T14:58:05.283Z</time></trkpt><trkpt lat="45.30658" lon="8.7519573"><ele>118.0</ele><time>2026-04-05T14:58:06.282Z</time></trkpt><trkpt lat="45.3065694" lon="8.7520804"><ele>118.0</ele><time>2026-04-05T14:58:07.282Z</time></trkpt><trkpt lat="45.3065547" lon="8.7522039"><ele>118.16666666666667</ele><time>2026-04-05T14:58:08.283Z</time></trkpt><trkpt lat="45.3065428" lon="8.752327"><ele>118.33333333333334</ele><time>2026-04-05T14:58:09.282Z</time></trkpt><trkpt lat="45.3065312" lon="8.7524507"><ele>118.5</ele><time>2026-04-05T14:58:10.283Z</time></trkpt><trkpt lat="45.3065195" lon="8.7525773"><ele>118.66666666666666</ele><time>2026-04-05T14:58:11.283Z</time></trkpt><trkpt lat="45.3065067" lon="8.752703"><ele>118.83333333333333</ele><time>2026-04-05T14:58:12.283Z</time></trkpt><trkpt lat="45.3064908" lon="8.7528273"><ele>119.0</ele><time>2026-04-05T14:58:13.283Z</time></trkpt><trkpt lat="45.3064751" lon="8.7529502"><ele>118.49999999999999</ele><time>2026-04-05T14:58:14.282Z</time></trkpt><trkpt lat="45.3064583" lon="8.7530677"><ele>118.0</ele><time>2026-04-05T14:58:15.283Z</time></trkpt><trkpt lat="45.3064413" lon="8.7531812"><ele>117.5</ele><time>2026-04-05T14:58:16.283Z</time></trkpt><trkpt lat="45.3064226" lon="8.753289"><ele>117.0</ele><time>2026-04-05T14:58:17.282Z</time></trkpt><trkpt lat="45.3064052" lon="8.7533984"><ele>116.49999999999999</ele><time>2026-04-05T14:58:18.283Z</time></trkpt><trkpt lat="45.3063904" lon="8.7535063"><ele>116.0</ele><time>2026-04-05T14:58:19.283Z</time></trkpt><trkpt lat="45.3063742" lon="8.7536198"><ele>115.66666666666666</ele><time>2026-04-05T14:58:20.283Z</time></trkpt><trkpt lat="45.3063579" lon="8.7537381"><ele>115.33333333333333</ele><time>2026-04-05T14:58:21.283Z</time></trkpt><trkpt lat="45.3063413" lon="8.7538582"><ele>115.0</ele><time>2026-04-05T14:58:22.283Z</time></trkpt><trkpt lat="45.3063273" lon="8.7539765"><ele>114.66666666666666</ele><time>2026-04-05T14:58:23.282Z</time></trkpt><trkpt lat="45.3063133" lon="8.7540906"><ele>114.33333333333333</ele><time>2026-04-05T14:58:24.283Z</time></trkpt><trkpt lat="45.3062982" lon="8.7541961"><ele>114.0</ele><time>2026-04-05T14:58:25.282Z</time></trkpt><trkpt lat="45.3062817" lon="8.7542961"><ele>114.33333333333333</ele><time>2026-04-05T14:58:26.283Z</time></trkpt><trkpt lat="45.3062673" lon="8.7543948"><ele>114.66666666666666</ele><time>2026-04-05T14:58:27.283Z</time></trkpt><trkpt lat="45.3062582" lon="8.7544938"><ele>115.0</ele><time>2026-04-05T14:58:28.283Z</time></trkpt><trkpt lat="45.3062385" lon="8.7546014"><ele>115.33333333333333</ele><time>2026-04-05T14:58:29.282Z</time></trkpt><trkpt lat="45.3062179" lon="8.7547095"><ele>115.66666666666666</ele><time>2026-04-05T14:58:30.282Z</time></trkpt><trkpt lat="45.3061964" lon="8.7548297"><ele>116.0</ele><time>2026-04-05T14:58:31.283Z</time></trkpt><trkpt lat="45.3061778" lon="8.7549506"><ele>115.99999999999999</ele><time>2026-04-05T14:58:32.283Z</time></trkpt><trkpt lat="45.3061617" lon="8.7550708"><ele>116.0</ele><time>2026-04-05T14:58:33.283Z</time></trkpt><trkpt lat="45.3061487" lon="8.7551842"><ele>116.0</ele><time>2026-04-05T14:58:34.282Z</time></trkpt><trkpt lat="45.3061365" lon="8.7552947"><ele>116.0</ele><time>2026-04-05T14:58:35.283Z</time></trkpt><trkpt lat="45.30612" lon="8.7553967"><ele>115.99999999999999</ele><time>2026-04-05T14:58:36.282Z</time></trkpt><trkpt lat="45.3061067" lon="8.755495"><ele>116.0</ele><time>2026-04-05T14:58:37.283Z</time></trkpt><trkpt lat="45.3060933" lon="8.755585"><ele>115.8</ele><time>2026-04-05T14:58:38.283Z</time></trkpt><trkpt lat="45.3060717" lon="8.75575"><ele>115.6</ele><time>2026-04-05T14:58:40.282Z</time></trkpt><trkpt lat="45.3060533" lon="8.755895"><ele>115.4</ele><time>2026-04-05T14:58:42.282Z</time></trkpt><trkpt lat="45.3060467" lon="8.7560117"><ele>115.2</ele><time>2026-04-05T14:58:44.283Z</time></trkpt><trkpt lat="45.30601" lon="8.7561033"><ele>115.0</ele><time>2026-04-05T14:58:46.283Z</time></trkpt><trkpt lat="45.3059483" lon="8.756215"><ele>114.66666666666667</ele><time>2026-04-05T14:58:49.282Z</time></trkpt><trkpt lat="45.3059417" lon="8.7563567"><ele>114.33333333333334</ele><time>2026-04-05T14:58:51.282Z</time></trkpt><trkpt lat="45.3059483" lon="8.7564733"><ele>114.0</ele><time>2026-04-05T14:58:53.282Z</time></trkpt><trkpt lat="45.3059233" lon="8.7565633"><ele>113.66666666666666</ele><time>2026-04-05T14:58:58.283Z</time></trkpt><trkpt lat="45.3059533" lon="8.7564483"><ele>113.33333333333333</ele><time>2026-04-05T14:59:04.282Z</time></trkpt><trkpt lat="45.3059433" lon="8.7563217"><ele>113.0</ele><time>2026-04-05T14:59:06.283Z</time></trkpt><trkpt lat="45.30593" lon="8.75622"><ele>113.0</ele><time>2026-04-05T14:59:08.282Z</time></trkpt><trkpt lat="45.3058683" lon="8.7561883"><ele>113.00000000000001</ele><time>2026-04-05T14:59:10.283Z</time></trkpt><trkpt lat="45.3057833" lon="8.7561917"><ele>113.00000000000001</ele><time>2026-04-05T14:59:12.282Z</time></trkpt><trkpt lat="45.3056733" lon="8.7562067"><ele>113.0</ele><time>2026-04-05T14:59:14.282Z</time></trkpt><trkpt lat="45.3055517" lon="8.7562317"><ele>113.0</ele><time>2026-04-05T14:59:16.282Z</time></trkpt><trkpt lat="45.30544" lon="8.7562517"><ele>113.33333333333333</ele><time>2026-04-05T14:59:18.283Z</time></trkpt><trkpt lat="45.30535" lon="8.7562567"><ele>113.66666666666666</ele><time>2026-04-05T14:59:20.282Z</time></trkpt><trkpt lat="45.30527" lon="8.7562517"><ele>114.0</ele><time>2026-04-05T14:59:22.282Z</time></trkpt><trkpt lat="45.3052067" lon="8.7562667"><ele>114.33333333333334</ele><time>2026-04-05T14:59:24.283Z</time></trkpt><trkpt lat="45.305125" lon="8.7562783"><ele>114.66666666666667</ele><time>2026-04-05T14:59:27.283Z</time></trkpt><trkpt lat="45.3050483" lon="8.7562767"><ele>115.0</ele><time>2026-04-05T14:59:30.282Z</time></trkpt><trkpt lat="45.30513" lon="8.7563367"><ele>115.00000000000001</ele><time>2026-04-05T14:59:42.282Z</time></trkpt><trkpt lat="45.305195" lon="8.7563383"><ele>115.0</ele><time>2026-04-05T14:59:43.282Z</time></trkpt><trkpt lat="45.30527" lon="8.7563283"><ele>115.0</ele><time>2026-04-05T14:59:44.282Z</time></trkpt><trkpt lat="45.3053467" lon="8.7563133"><ele>115.0</ele><time>2026-04-05T14:59:45.283Z</time></trkpt><trkpt lat="45.3054917" lon="8.7562767"><ele>115.00000000000001</ele><time>2026-04-05T14:59:47.283Z</time></trkpt><trkpt lat="45.305555" lon="8.75626"><ele>115.0</ele><time>2026-04-05T14:59:48.282Z</time></trkpt><trkpt lat="45.3056617" lon="8.75624"><ele>114.66666666666667</ele><time>2026-04-05T14:59:50.282Z</time></trkpt><trkpt lat="45.3057583" lon="8.7562267"><ele>114.33333333333334</ele><time>2026-04-05T14:59:52.283Z</time></trkpt><trkpt lat="45.3058217" lon="8.7562333"><ele>114.0</ele><time>2026-04-05T14:59:54.283Z</time></trkpt><trkpt lat="45.305885" lon="8.756295"><ele>113.66666666666666</ele><time>2026-04-05T14:59:57.282Z</time></trkpt><trkpt lat="45.3059133" lon="8.7564133"><ele>113.33333333333333</ele><time>2026-04-05T14:59:59.283Z</time></trkpt><trkpt lat="45.3058983" lon="8.7565433"><ele>113.0</ele><time>2026-04-05T15:00:01.283Z</time></trkpt><trkpt lat="45.3058667" lon="8.7567067"><ele>112.99999999999999</ele><time>2026-04-05T15:00:03.282Z</time></trkpt><trkpt lat="45.3058317" lon="8.7567917"><ele>113.0</ele><time>2026-04-05T15:00:04.283Z</time></trkpt><trkpt lat="45.3057933" lon="8.756885"><ele>113.0</ele><time>2026-04-05T15:00:05.282Z</time></trkpt><trkpt lat="45.3057533" lon="8.7569917"><ele>113.0</ele><time>2026-04-05T15:00:06.283Z</time></trkpt><trkpt lat="45.305705" lon="8.7570883"><ele>112.99999999999999</ele><time>2026-04-05T15:00:07.283Z</time></trkpt><trkpt lat="45.3056633" lon="8.7571883"><ele>113.0</ele><time>2026-04-05T15:00:08.282Z</time></trkpt><trkpt lat="45.3056117" lon="8.7573033"><ele>112.80000000000001</ele><time>2026-04-05T15:00:09.282Z</time></trkpt><trkpt lat="45.3055667" lon="8.7574167"><ele>112.60000000000001</ele><time>2026-04-05T15:00:10.282Z</time></trkpt><trkpt lat="45.3055133" lon="8.75753"><ele>112.39999999999999</ele><time>2026-04-05T15:00:11.283Z</time></trkpt><trkpt lat="45.305455" lon="8.7576417"><ele>112.19999999999999</ele><time>2026-04-05T15:00:12.283Z</time></trkpt><trkpt lat="45.3053933" lon="8.7577517"><ele>112.0</ele><time>2026-04-05T15:00:13.282Z</time></trkpt><trkpt lat="45.305345" lon="8.7578517"><ele>111.39999999999999</ele><time>2026-04-05T15:00:14.283Z</time></trkpt><trkpt lat="45.3053017" lon="8.757945"><ele>110.79999999999998</ele><time>2026-04-05T15:00:15.283Z</time></trkpt><trkpt lat="45.305235" lon="8.7580817"><ele>110.2</ele><time>2026-04-05T15:00:17.282Z</time></trkpt><trkpt lat="45.305185" lon="8.7581967"><ele>109.6</ele><time>2026-04-05T15:00:19.283Z</time></trkpt><trkpt lat="45.3051367" lon="8.7583067"><ele>109.0</ele><time>2026-04-05T15:00:21.282Z</time></trkpt><trkpt lat="45.3051717" lon="8.7582133"><ele>109.00000000000001</ele><time>2026-04-05T15:00:44.282Z</time></trkpt><trkpt lat="45.3052283" lon="8.758085"><ele>109.0</ele><time>2026-04-05T15:00:46.282Z</time></trkpt><trkpt lat="45.3052767" lon="8.757985"><ele>109.0</ele><time>2026-04-05T15:00:48.282Z</time></trkpt><trkpt lat="45.3053233" lon="8.7579017"><ele>109.0</ele><time>2026-04-05T15:00:50.283Z</time></trkpt><trkpt lat="45.305335" lon="8.7578067"><ele>109.00000000000001</ele><time>2026-04-05T15:00:53.282Z</time></trkpt><trkpt lat="45.305275" lon="8.7577183"><ele>109.0</ele><time>2026-04-05T15:00:55.282Z</time></trkpt><trkpt lat="45.3052083" lon="8.7576683"><ele>109.00000000000001</ele><time>2026-04-05T15:00:57.283Z</time></trkpt><trkpt lat="45.3051433" lon="8.757685"><ele>109.0</ele><time>2026-04-05T15:00:59.282Z</time></trkpt><trkpt lat="45.3050867" lon="8.7577967"><ele>109.0</ele><time>2026-04-05T15:01:01.283Z</time></trkpt><trkpt lat="45.305055" lon="8.757895"><ele>109.0</ele><time>2026-04-05T15:01:02.282Z</time></trkpt><trkpt lat="45.305015" lon="8.7580117"><ele>109.00000000000001</ele><time>2026-04-05T15:01:03.282Z</time></trkpt><trkpt lat="45.30497" lon="8.7581283"><ele>109.0</ele><time>2026-04-05T15:01:04.282Z</time></trkpt><trkpt lat="45.3049117" lon="8.7582683"><ele>109.0</ele><time>2026-04-05T15:01:05.283Z</time></trkpt><trkpt lat="45.3048567" lon="8.7584067"><ele>109.0</ele><time>2026-04-05T15:01:06.282Z</time></trkpt><trkpt lat="45.3047817" lon="8.7585533"><ele>109.0</ele><time>2026-04-05T15:01:07.283Z</time></trkpt><trkpt lat="45.3047167" lon="8.7587083"><ele>109.0</ele><time>2026-04-05T15:01:08.283Z</time></trkpt><trkpt lat="45.3046517" lon="8.7588417"><ele>109.0</ele><time>2026-04-05T15:01:09.283Z</time></trkpt><trkpt lat="45.3045917" lon="8.7589733"><ele>109.0</ele><time>2026-04-05T15:01:10.283Z</time></trkpt><trkpt lat="45.3045433" lon="8.7590967"><ele>109.0</ele><time>2026-04-05T15:01:11.283Z</time></trkpt><trkpt lat="45.30449" lon="8.7592117"><ele>109.0</ele><time>2026-04-05T15:01:12.283Z</time></trkpt><trkpt lat="45.3044367" lon="8.7593267"><ele>109.0</ele><time>2026-04-05T15:01:13.282Z</time></trkpt><trkpt lat="45.30439" lon="8.7594317"><ele>109.0</ele><time>2026-04-05T15:01:14.283Z</time></trkpt><trkpt lat="45.304345" lon="8.759535"><ele>109.0</ele><time>2026-04-05T15:01:15.283Z</time></trkpt><trkpt lat="45.30429" lon="8.7596417"><ele>109.0</ele><time>2026-04-05T15:01:16.283Z</time></trkpt><trkpt lat="45.30424" lon="8.7597417"><ele>109.0</ele><time>2026-04-05T15:01:17.283Z</time></trkpt><trkpt lat="45.3041883" lon="8.75986"><ele>109.0</ele><time>2026-04-05T15:01:18.283Z</time></trkpt><trkpt lat="45.3041367" lon="8.7599767"><ele>109.0</ele><time>2026-04-05T15:01:19.282Z</time></trkpt><trkpt lat="45.3040883" lon="8.7600767"><ele>109.0</ele><time>2026-04-05T15:01:20.283Z</time></trkpt><trkpt lat="45.3040417" lon="8.760185"><ele>109.0</ele><time>2026-04-05T15:01:21.283Z</time></trkpt><trkpt lat="45.3039717" lon="8.7603567"><ele>109.0</ele><time>2026-04-05T15:01:23.283Z</time></trkpt><trkpt lat="45.303885" lon="8.76053"><ele>109.6</ele><time>2026-04-05T15:01:25.283Z</time></trkpt><trkpt lat="45.30384" lon="8.760625"><ele>110.2</ele><time>2026-04-05T15:01:26.282Z</time></trkpt><trkpt lat="45.3037567" lon="8.7608483"><ele>110.79999999999998</ele><time>2026-04-05T15:01:28.283Z</time></trkpt><trkpt lat="45.3037217" lon="8.7609517"><ele>111.39999999999999</ele><time>2026-04-05T15:01:29.282Z</time></trkpt><trkpt lat="45.3036817" lon="8.7610683"><ele>112.0</ele><time>2026-04-05T15:01:30.283Z</time></trkpt><trkpt lat="45.303645" lon="8.7611667"><ele>112.00000000000001</ele><time>2026-04-05T15:01:31.283Z</time></trkpt><trkpt lat="45.3035967" lon="8.7612683"><ele>112.0</ele><time>2026-04-05T15:01:32.282Z</time></trkpt><trkpt lat="45.30354" lon="8.76138"><ele>112.0</ele><time>2026-04-05T15:01:33.282Z</time></trkpt><trkpt lat="45.3035017" lon="8.76148"><ele>112.0</ele><time>2026-04-05T15:01:34.283Z</time></trkpt><trkpt lat="45.303455" lon="8.7615883"><ele>112.00000000000001</ele><time>2026-04-05T15:01:35.283Z</time></trkpt><trkpt lat="45.3034083" lon="8.7616933"><ele>112.0</ele><time>2026-04-05T15:01:36.282Z</time></trkpt><trkpt lat="45.3033583" lon="8.7617983"><ele>112.00000000000001</ele><time>2026-04-05T15:01:37.282Z</time></trkpt><trkpt lat="45.30331" lon="8.7619017"><ele>112.0</ele><time>2026-04-05T15:01:38.282Z</time></trkpt><trkpt lat="45.30326" lon="8.7620017"><ele>112.0</ele><time>2026-04-05T15:01:39.282Z</time></trkpt><trkpt lat="45.3032183" lon="8.762095"><ele>112.0</ele><time>2026-04-05T15:01:40.283Z</time></trkpt><trkpt lat="45.3031833" lon="8.76219"><ele>112.00000000000001</ele><time>2026-04-05T15:01:41.283Z</time></trkpt><trkpt lat="45.30314" lon="8.7622817"><ele>112.0</ele><time>2026-04-05T15:01:42.282Z</time></trkpt><trkpt lat="45.3030933" lon="8.7623783"><ele>111.83333333333334</ele><time>2026-04-05T15:01:43.282Z</time></trkpt><trkpt lat="45.303055" lon="8.7624717"><ele>111.66666666666667</ele><time>2026-04-05T15:01:44.283Z</time></trkpt><trkpt lat="45.3030117" lon="8.76257"><ele>111.5</ele><time>2026-04-05T15:01:45.283Z</time></trkpt><trkpt lat="45.3029683" lon="8.7626633"><ele>111.33333333333334</ele><time>2026-04-05T15:01:46.283Z</time></trkpt><trkpt lat="45.302925" lon="8.762765"><ele>111.16666666666667</ele><time>2026-04-05T15:01:47.283Z</time></trkpt><trkpt lat="45.30288" lon="8.76287"><ele>111.0</ele><time>2026-04-05T15:01:48.283Z</time></trkpt><trkpt lat="45.3028367" lon="8.7629717"><ele>111.5</ele><time>2026-04-05T15:01:49.282Z</time></trkpt><trkpt lat="45.3027967" lon="8.763065"><ele>112.0</ele><time>2026-04-05T15:01:50.282Z</time></trkpt><trkpt lat="45.3027567" lon="8.7631633"><ele>112.5</ele><time>2026-04-05T15:01:51.282Z</time></trkpt><trkpt lat="45.3027133" lon="8.76325"><ele>113.0</ele><time>2026-04-05T15:01:52.282Z</time></trkpt><trkpt lat="45.3026733" lon="8.763335"><ele>113.5</ele><time>2026-04-05T15:01:53.283Z</time></trkpt><trkpt lat="45.302635" lon="8.7634317"><ele>114.0</ele><time>2026-04-05T15:01:54.282Z</time></trkpt><trkpt lat="45.3025933" lon="8.7635283"><ele>114.0</ele><time>2026-04-05T15:01:55.283Z</time></trkpt><trkpt lat="45.30255" lon="8.7636183"><ele>114.0</ele><time>2026-04-05T15:01:56.282Z</time></trkpt><trkpt lat="45.3025083" lon="8.763735"><ele>114.0</ele><time>2026-04-05T15:01:57.283Z</time></trkpt><trkpt lat="45.3024617" lon="8.7638483"><ele>114.0</ele><time>2026-04-05T15:01:58.283Z</time></trkpt><trkpt lat="45.3024167" lon="8.7639567"><ele>114.0</ele><time>2026-04-05T15:01:59.283Z</time></trkpt><trkpt lat="45.3023667" lon="8.7640717"><ele>114.0</ele><time>2026-04-05T15:02:00.282Z</time></trkpt><trkpt lat="45.3023233" lon="8.7641783"><ele>114.0</ele><time>2026-04-05T15:02:01.283Z</time></trkpt><trkpt lat="45.3022783" lon="8.7642867"><ele>114.0</ele><time>2026-04-05T15:02:02.282Z</time></trkpt><trkpt lat="45.30223" lon="8.764385"><ele>114.0</ele><time>2026-04-05T15:02:03.283Z</time></trkpt><trkpt lat="45.3021883" lon="8.7644883"><ele>114.0</ele><time>2026-04-05T15:02:04.282Z</time></trkpt><trkpt lat="45.302135" lon="8.7645967"><ele>114.0</ele><time>2026-04-05T15:02:05.283Z</time></trkpt><trkpt lat="45.302095" lon="8.7647017"><ele>114.0</ele><time>2026-04-05T15:02:06.282Z</time></trkpt><trkpt lat="45.30206" lon="8.7647917"><ele>114.0</ele><time>2026-04-05T15:02:07.283Z</time></trkpt><trkpt lat="45.3020183" lon="8.7648883"><ele>114.0</ele><time>2026-04-05T15:02:08.283Z</time></trkpt><trkpt lat="45.301975" lon="8.76498"><ele>114.0</ele><time>2026-04-05T15:02:09.283Z</time></trkpt><trkpt lat="45.3019317" lon="8.7650617"><ele>114.0</ele><time>2026-04-05T15:02:10.283Z</time></trkpt><trkpt lat="45.3018933" lon="8.7651517"><ele>114.0</ele><time>2026-04-05T15:02:11.283Z</time></trkpt><trkpt lat="45.3018533" lon="8.7652567"><ele>114.0</ele><time>2026-04-05T15:02:12.282Z</time></trkpt><trkpt lat="45.3018083" lon="8.7653567"><ele>113.66666666666667</ele><time>2026-04-05T15:02:13.282Z</time></trkpt><trkpt lat="45.30177" lon="8.7654583"><ele>113.33333333333334</ele><time>2026-04-05T15:02:14.283Z</time></trkpt><trkpt lat="45.3017316" lon="8.7655536"><ele>113.0</ele><time>2026-04-05T15:02:15.283Z</time></trkpt><trkpt lat="45.3016894" lon="8.7656555"><ele>112.66666666666667</ele><time>2026-04-05T15:02:16.282Z</time></trkpt><trkpt lat="45.3016456" lon="8.7657621"><ele>112.33333333333334</ele><time>2026-04-05T15:02:17.282Z</time></trkpt><trkpt lat="45.3016062" lon="8.7658592"><ele>112.0</ele><time>2026-04-05T15:02:18.282Z</time></trkpt><trkpt lat="45.3015631" lon="8.7659498"><ele>111.50000000000001</ele><time>2026-04-05T15:02:19.282Z</time></trkpt><trkpt lat="45.3015133" lon="8.7660413"><ele>111.0</ele><time>2026-04-05T15:02:20.283Z</time></trkpt><trkpt lat="45.3014694" lon="8.7661411"><ele>110.5</ele><time>2026-04-05T15:02:21.282Z</time></trkpt><trkpt lat="45.3014332" lon="8.7662383"><ele>110.0</ele><time>2026-04-05T15:02:22.283Z</time></trkpt><trkpt lat="45.3013918" lon="8.7663299"><ele>109.50000000000001</ele><time>2026-04-05T15:02:23.283Z</time></trkpt><trkpt lat="45.3013542" lon="8.7664217"><ele>109.0</ele><time>2026-04-05T15:02:24.282Z</time></trkpt><trkpt lat="45.3013155" lon="8.7665108"><ele>109.00000000000001</ele><time>2026-04-05T15:02:25.283Z</time></trkpt><trkpt lat="45.3012771" lon="8.7666047"><ele>109.0</ele><time>2026-04-05T15:02:26.282Z</time></trkpt><trkpt lat="45.301228" lon="8.7666963"><ele>109.0</ele><time>2026-04-05T15:02:27.283Z</time></trkpt><trkpt lat="45.3011798" lon="8.766796"><ele>109.0</ele><time>2026-04-05T15:02:28.282Z</time></trkpt><trkpt lat="45.3011397" lon="8.7668904"><ele>109.00000000000001</ele><time>2026-04-05T15:02:29.282Z</time></trkpt><trkpt lat="45.3011" lon="8.7669909"><ele>109.0</ele><time>2026-04-05T15:02:30.282Z</time></trkpt><trkpt lat="45.3010598" lon="8.7670941"><ele>109.33333333333334</ele><time>2026-04-05T15:02:31.283Z</time></trkpt><trkpt lat="45.3010319" lon="8.7671874"><ele>109.66666666666667</ele><time>2026-04-05T15:02:32.283Z</time></trkpt><trkpt lat="45.3009964" lon="8.767265"><ele>110.0</ele><time>2026-04-05T15:02:33.283Z</time></trkpt><trkpt lat="45.3009615" lon="8.7673418"><ele>110.33333333333334</ele><time>2026-04-05T15:02:34.282Z</time></trkpt><trkpt lat="45.3009221" lon="8.7674183"><ele>110.66666666666667</ele><time>2026-04-05T15:02:35.283Z</time></trkpt><trkpt lat="45.300884" lon="8.7674926"><ele>111.0</ele><time>2026-04-05T15:02:36.283Z</time></trkpt><trkpt lat="45.3008131" lon="8.7676404"><ele>110.83333333333333</ele><time>2026-04-05T15:02:38.283Z</time></trkpt><trkpt lat="45.3007701" lon="8.7677288"><ele>110.66666666666666</ele><time>2026-04-05T15:02:39.282Z</time></trkpt><trkpt lat="45.3007349" lon="8.7678116"><ele>110.5</ele><time>2026-04-05T15:02:40.283Z</time></trkpt><trkpt lat="45.3007003" lon="8.76789"><ele>110.33333333333333</ele><time>2026-04-05T15:02:41.282Z</time></trkpt><trkpt lat="45.3006645" lon="8.7679668"><ele>110.16666666666666</ele><time>2026-04-05T15:02:42.283Z</time></trkpt><trkpt lat="45.3006253" lon="8.7680461"><ele>110.0</ele><time>2026-04-05T15:02:43.282Z</time></trkpt><trkpt lat="45.3005576" lon="8.7681949"><ele>109.83333333333333</ele><time>2026-04-05T15:02:45.282Z</time></trkpt><trkpt lat="45.3005235" lon="8.7682781"><ele>109.66666666666666</ele><time>2026-04-05T15:02:46.283Z</time></trkpt><trkpt lat="45.30049" lon="8.7683783"><ele>109.5</ele><time>2026-04-05T15:02:47.283Z</time></trkpt><trkpt lat="45.3004491" lon="8.7684812"><ele>109.33333333333334</ele><time>2026-04-05T15:02:48.283Z</time></trkpt><trkpt lat="45.3004036" lon="8.7685787"><ele>109.16666666666667</ele><time>2026-04-05T15:02:49.283Z</time></trkpt><trkpt lat="45.3003536" lon="8.7686701"><ele>109.0</ele><time>2026-04-05T15:02:50.283Z</time></trkpt><trkpt lat="45.3003116" lon="8.7687668"><ele>109.50000000000001</ele><time>2026-04-05T15:02:51.282Z</time></trkpt><trkpt lat="45.3002753" lon="8.7688564"><ele>110.0</ele><time>2026-04-05T15:02:52.283Z</time></trkpt><trkpt lat="45.3002396" lon="8.7689361"><ele>110.5</ele><time>2026-04-05T15:02:53.283Z</time></trkpt><trkpt lat="45.3002086" lon="8.7690183"><ele>111.0</ele><time>2026-04-05T15:02:54.282Z</time></trkpt><trkpt lat="45.3001756" lon="8.7690968"><ele>111.50000000000001</ele><time>2026-04-05T15:02:55.283Z</time></trkpt><trkpt lat="45.3001109" lon="8.7692451"><ele>112.0</ele><time>2026-04-05T15:02:57.283Z</time></trkpt><trkpt lat="45.3000794" lon="8.7693229"><ele>112.0</ele><time>2026-04-05T15:02:58.282Z</time></trkpt><trkpt lat="45.3000447" lon="8.7694073"><ele>112.0</ele><time>2026-04-05T15:02:59.283Z</time></trkpt><trkpt lat="45.3000122" lon="8.7694987"><ele>112.0</ele><time>2026-04-05T15:03:00.283Z</time></trkpt><trkpt lat="45.2999703" lon="8.7695879"><ele>112.0</ele><time>2026-04-05T15:03:01.282Z</time></trkpt><trkpt lat="45.2999325" lon="8.7696665"><ele>112.0</ele><time>2026-04-05T15:03:02.283Z</time></trkpt><trkpt lat="45.2998973" lon="8.7697474"><ele>112.0</ele><time>2026-04-05T15:03:03.282Z</time></trkpt><trkpt lat="45.2998649" lon="8.7698332"><ele>112.0</ele><time>2026-04-05T15:03:04.283Z</time></trkpt><trkpt lat="45.2998347" lon="8.7699315"><ele>112.00000000000001</ele><time>2026-04-05T15:03:05.283Z</time></trkpt><trkpt lat="45.2998012" lon="8.7700377"><ele>112.0</ele><time>2026-04-05T15:03:06.283Z</time></trkpt><trkpt lat="45.2997653" lon="8.7701459"><ele>112.0</ele><time>2026-04-05T15:03:07.283Z</time></trkpt><trkpt lat="45.2997343" lon="8.7702488"><ele>112.0</ele><time>2026-04-05T15:03:08.282Z</time></trkpt><trkpt lat="45.299706" lon="8.770356"><ele>112.00000000000001</ele><time>2026-04-05T15:03:09.283Z</time></trkpt><trkpt lat="45.2996817" lon="8.7704696"><ele>112.0</ele><time>2026-04-05T15:03:10.283Z</time></trkpt><trkpt lat="45.2996539" lon="8.7705912"><ele>112.00000000000001</ele><time>2026-04-05T15:03:11.283Z</time></trkpt><trkpt lat="45.2996268" lon="8.7707065"><ele>112.0</ele><time>2026-04-05T15:03:12.283Z</time></trkpt><trkpt lat="45.2995949" lon="8.7708244"><ele>112.0</ele><time>2026-04-05T15:03:13.283Z</time></trkpt><trkpt lat="45.2995676" lon="8.7709465"><ele>112.0</ele><time>2026-04-05T15:03:14.283Z</time></trkpt><trkpt lat="45.2995491" lon="8.7710707"><ele>112.00000000000001</ele><time>2026-04-05T15:03:15.282Z</time></trkpt><trkpt lat="45.29953" lon="8.771194"><ele>112.0</ele><time>2026-04-05T15:03:16.283Z</time></trkpt><trkpt lat="45.2995158" lon="8.7713241"><ele>112.00000000000001</ele><time>2026-04-05T15:03:17.283Z</time></trkpt><trkpt lat="45.299505" lon="8.7714524"><ele>112.0</ele><time>2026-04-05T15:03:18.283Z</time></trkpt><trkpt lat="45.2994865" lon="8.7715716"><ele>112.0</ele><time>2026-04-05T15:03:19.283Z</time></trkpt><trkpt lat="45.2994702" lon="8.7716856"><ele>112.0</ele><time>2026-04-05T15:03:20.283Z</time></trkpt><trkpt lat="45.299453" lon="8.7718005"><ele>112.00000000000001</ele><time>2026-04-05T15:03:21.283Z</time></trkpt><trkpt lat="45.2994317" lon="8.7719167"><ele>112.0</ele><time>2026-04-05T15:03:22.283Z</time></trkpt><trkpt lat="45.2994133" lon="8.772035"><ele>112.19999999999999</ele><time>2026-04-05T15:03:23.283Z</time></trkpt><trkpt lat="45.2993983" lon="8.7721583"><ele>112.39999999999999</ele><time>2026-04-05T15:03:24.283Z</time></trkpt><trkpt lat="45.299375" lon="8.7722783"><ele>112.60000000000001</ele><time>2026-04-05T15:03:25.283Z</time></trkpt><trkpt lat="45.299355" lon="8.7724117"><ele>112.80000000000001</ele><time>2026-04-05T15:03:26.283Z</time></trkpt><trkpt lat="45.2993367" lon="8.77254"><ele>113.0</ele><time>2026-04-05T15:03:27.283Z</time></trkpt><trkpt lat="45.2993067" lon="8.7726767"><ele>112.99999999999999</ele><time>2026-04-05T15:03:28.282Z</time></trkpt><trkpt lat="45.2992867" lon="8.7728033"><ele>113.0</ele><time>2026-04-05T15:03:29.282Z</time></trkpt><trkpt lat="45.2992667" lon="8.7729317"><ele>113.0</ele><time>2026-04-05T15:03:30.283Z</time></trkpt><trkpt lat="45.2992517" lon="8.77306"><ele>113.0</ele><time>2026-04-05T15:03:31.283Z</time></trkpt><trkpt lat="45.299235" lon="8.7731833"><ele>112.99999999999999</ele><time>2026-04-05T15:03:32.282Z</time></trkpt><trkpt lat="45.299225" lon="8.7732967"><ele>113.0</ele><time>2026-04-05T15:03:33.282Z</time></trkpt><trkpt lat="45.2992133" lon="8.7734167"><ele>112.83333333333333</ele><time>2026-04-05T15:03:34.282Z</time></trkpt><trkpt lat="45.299195" lon="8.7735333"><ele>112.66666666666666</ele><time>2026-04-05T15:03:35.283Z</time></trkpt><trkpt lat="45.29918" lon="8.7736467"><ele>112.5</ele><time>2026-04-05T15:03:36.282Z</time></trkpt><trkpt lat="45.2991717" lon="8.773755"><ele>112.33333333333334</ele><time>2026-04-05T15:03:37.283Z</time></trkpt><trkpt lat="45.2991517" lon="8.7738683"><ele>112.16666666666667</ele><time>2026-04-05T15:03:38.282Z</time></trkpt><trkpt lat="45.2991367" lon="8.77398"><ele>112.0</ele><time>2026-04-05T15:03:39.282Z</time></trkpt><trkpt lat="45.2991233" lon="8.7740867"><ele>112.0</ele><time>2026-04-05T15:03:40.282Z</time></trkpt><trkpt lat="45.29911" lon="8.77419"><ele>112.0</ele><time>2026-04-05T15:03:41.282Z</time></trkpt><trkpt lat="45.2990933" lon="8.7742833"><ele>112.0</ele><time>2026-04-05T15:03:42.283Z</time></trkpt><trkpt lat="45.2990783" lon="8.7743817"><ele>112.0</ele><time>2026-04-05T15:03:43.283Z</time></trkpt><trkpt lat="45.2990633" lon="8.7744817"><ele>112.0</ele><time>2026-04-05T15:03:44.283Z</time></trkpt><trkpt lat="45.2990533" lon="8.77458"><ele>112.0</ele><time>2026-04-05T15:03:45.282Z</time></trkpt><trkpt lat="45.2990383" lon="8.774685"><ele>112.0</ele><time>2026-04-05T15:03:46.283Z</time></trkpt><trkpt lat="45.2990283" lon="8.7747833"><ele>111.83333333333334</ele><time>2026-04-05T15:03:47.283Z</time></trkpt><trkpt lat="45.29901" lon="8.7748933"><ele>111.66666666666667</ele><time>2026-04-05T15:03:48.283Z</time></trkpt><trkpt lat="45.2989867" lon="8.7749933"><ele>111.5</ele><time>2026-04-05T15:03:49.283Z</time></trkpt><trkpt lat="45.298975" lon="8.77509"><ele>111.33333333333334</ele><time>2026-04-05T15:03:50.283Z</time></trkpt><trkpt lat="45.2989583" lon="8.7751817"><ele>111.16666666666667</ele><time>2026-04-05T15:03:51.283Z</time></trkpt><trkpt lat="45.2989367" lon="8.7753567"><ele>111.0</ele><time>2026-04-05T15:03:53.282Z</time></trkpt><trkpt lat="45.298925" lon="8.7755267"><ele>111.19999999999999</ele><time>2026-04-05T15:03:55.283Z</time></trkpt><trkpt lat="45.298895" lon="8.7756733"><ele>111.39999999999999</ele><time>2026-04-05T15:03:57.283Z</time></trkpt><trkpt lat="45.2988667" lon="8.77581"><ele>111.6</ele><time>2026-04-05T15:03:59.282Z</time></trkpt><trkpt lat="45.298865" lon="8.7759717"><ele>111.8</ele><time>2026-04-05T15:04:01.283Z</time></trkpt><trkpt lat="45.298865" lon="8.77608"><ele>112.0</ele><time>2026-04-05T15:04:03.283Z</time></trkpt><trkpt lat="45.298825" lon="8.7762067"><ele>111.6</ele><time>2026-04-05T15:04:06.282Z</time></trkpt><trkpt lat="45.2987783" lon="8.7763"><ele>111.19999999999999</ele><time>2026-04-05T15:04:09.283Z</time></trkpt><trkpt lat="45.29884" lon="8.7763933"><ele>110.8</ele><time>2026-04-05T15:04:14.283Z</time></trkpt><trkpt lat="45.2989333" lon="8.776435"><ele>110.4</ele><time>2026-04-05T15:04:16.283Z</time></trkpt><trkpt lat="45.2990467" lon="8.776485"><ele>110.0</ele><time>2026-04-05T15:04:18.283Z</time></trkpt><trkpt lat="45.2991133" lon="8.776515"><ele>109.8</ele><time>2026-04-05T15:04:19.283Z</time></trkpt><trkpt lat="45.2992283" lon="8.77655"><ele>109.6</ele><time>2026-04-05T15:04:21.283Z</time></trkpt><trkpt lat="45.299335" lon="8.7765867"><ele>109.4</ele><time>2026-04-05T15:04:23.283Z</time></trkpt><trkpt lat="45.2994367" lon="8.776635"><ele>109.2</ele><time>2026-04-05T15:04:25.283Z</time></trkpt><trkpt lat="45.299505" lon="8.7766417"><ele>109.0</ele><time>2026-04-05T15:04:26.282Z</time></trkpt><trkpt lat="45.2996217" lon="8.7766083"><ele>109.0</ele><time>2026-04-05T15:04:28.282Z</time></trkpt><trkpt lat="45.2996833" lon="8.7765717"><ele>109.0</ele><time>2026-04-05T15:04:29.283Z</time></trkpt><trkpt lat="45.2997383" lon="8.7765033"><ele>109.0</ele><time>2026-04-05T15:04:30.283Z</time></trkpt><trkpt lat="45.2997933" lon="8.7764217"><ele>109.0</ele><time>2026-04-05T15:04:31.282Z</time></trkpt><trkpt lat="45.299845" lon="8.7763383"><ele>109.0</ele><time>2026-04-05T15:04:32.283Z</time></trkpt><trkpt lat="45.2998967" lon="8.77627"><ele>109.0</ele><time>2026-04-05T15:04:33.282Z</time></trkpt><trkpt lat="45.2999433" lon="8.7761933"><ele>109.0</ele><time>2026-04-05T15:04:34.282Z</time></trkpt><trkpt lat="45.300015" lon="8.7760567"><ele>109.4</ele><time>2026-04-05T15:04:36.283Z</time></trkpt><trkpt lat="45.3000683" lon="8.77594"><ele>109.80000000000001</ele><time>2026-04-05T15:04:38.283Z</time></trkpt><trkpt lat="45.3001733" lon="8.775905"><ele>110.19999999999999</ele><time>2026-04-05T15:04:40.283Z</time></trkpt><trkpt lat="45.3002617" lon="8.7760017"><ele>110.6</ele><time>2026-04-05T15:04:42.282Z</time></trkpt><trkpt lat="45.3003017" lon="8.776095"><ele>111.0</ele><time>2026-04-05T15:04:43.283Z</time></trkpt><trkpt lat="45.3003233" lon="8.776215"><ele>111.0</ele><time>2026-04-05T15:04:44.282Z</time></trkpt><trkpt lat="45.300355" lon="8.7763567"><ele>111.0</ele><time>2026-04-05T15:04:45.283Z</time></trkpt><trkpt lat="45.300395" lon="8.7764933"><ele>111.0</ele><time>2026-04-05T15:04:46.283Z</time></trkpt><trkpt lat="45.300435" lon="8.776635"><ele>111.0</ele><time>2026-04-05T15:04:47.282Z</time></trkpt><trkpt lat="45.3004817" lon="8.77678"><ele>111.0</ele><time>2026-04-05T15:04:48.283Z</time></trkpt><trkpt lat="45.3005267" lon="8.776935"><ele>110.6</ele><time>2026-04-05T15:04:49.283Z</time></trkpt><trkpt lat="45.30058" lon="8.7770733"><ele>110.19999999999999</ele><time>2026-04-05T15:04:50.283Z</time></trkpt><trkpt lat="45.3006283" lon="8.7772"><ele>109.80000000000001</ele><time>2026-04-05T15:04:51.282Z</time></trkpt><trkpt lat="45.300675" lon="8.7773217"><ele>109.4</ele><time>2026-04-05T15:04:52.282Z</time></trkpt><trkpt lat="45.30072" lon="8.77744"><ele>109.0</ele><time>2026-04-05T15:04:53.283Z</time></trkpt><trkpt lat="45.3007583" lon="8.7775567"><ele>109.0</ele><time>2026-04-05T15:04:54.282Z</time></trkpt><trkpt lat="45.3007967" lon="8.77767"><ele>109.0</ele><time>2026-04-05T15:04:55.283Z</time></trkpt><trkpt lat="45.3008367" lon="8.7777883"><ele>109.0</ele><time>2026-04-05T15:04:56.282Z</time></trkpt><trkpt lat="45.300875" lon="8.7779033"><ele>109.0</ele><time>2026-04-05T15:04:57.283Z</time></trkpt><trkpt lat="45.3009017" lon="8.7780217"><ele>109.0</ele><time>2026-04-05T15:04:58.282Z</time></trkpt><trkpt lat="45.3009333" lon="8.778145"><ele>109.00000000000001</ele><time>2026-04-05T15:04:59.283Z</time></trkpt><trkpt lat="45.30096" lon="8.7782617"><ele>109.0</ele><time>2026-04-05T15:05:00.283Z</time></trkpt><trkpt lat="45.3009867" lon="8.7783717"><ele>109.0</ele><time>2026-04-05T15:05:01.282Z</time></trkpt><trkpt lat="45.3010133" lon="8.7784883"><ele>109.0</ele><time>2026-04-05T15:05:02.283Z</time></trkpt><trkpt lat="45.3010367" lon="8.7785917"><ele>109.00000000000001</ele><time>2026-04-05T15:05:03.282Z</time></trkpt><trkpt lat="45.301065" lon="8.7787"><ele>109.0</ele><time>2026-04-05T15:05:04.283Z</time></trkpt><trkpt lat="45.30109" lon="8.77881"><ele>109.00000000000001</ele><time>2026-04-05T15:05:05.282Z</time></trkpt><trkpt lat="45.3011117" lon="8.7789317"><ele>109.0</ele><time>2026-04-05T15:05:06.283Z</time></trkpt><trkpt lat="45.301135" lon="8.7790483"><ele>109.0</ele><time>2026-04-05T15:05:07.282Z</time></trkpt><trkpt lat="45.3011467" lon="8.779155"><ele>109.0</ele><time>2026-04-05T15:05:08.282Z</time></trkpt><trkpt lat="45.30115" lon="8.77926"><ele>109.00000000000001</ele><time>2026-04-05T15:05:09.283Z</time></trkpt><trkpt lat="45.301145" lon="8.7793683"><ele>109.0</ele><time>2026-04-05T15:05:10.282Z</time></trkpt><trkpt lat="45.3011533" lon="8.7794867"><ele>109.00000000000001</ele><time>2026-04-05T15:05:11.282Z</time></trkpt><trkpt lat="45.3011533" lon="8.7796133"><ele>109.0</ele><time>2026-04-05T15:05:12.282Z</time></trkpt><trkpt lat="45.3011583" lon="8.7797367"><ele>109.0</ele><time>2026-04-05T15:05:13.283Z</time></trkpt><trkpt lat="45.3011617" lon="8.7798683"><ele>109.0</ele><time>2026-04-05T15:05:14.283Z</time></trkpt><trkpt lat="45.3011583" lon="8.7799867"><ele>109.00000000000001</ele><time>2026-04-05T15:05:15.281Z</time></trkpt><trkpt lat="45.3011633" lon="8.7801033"><ele>109.0</ele><time>2026-04-05T15:05:16.281Z</time></trkpt><trkpt lat="45.301165" lon="8.7802217"><ele>109.16666666666667</ele><time>2026-04-05T15:05:17.281Z</time></trkpt><trkpt lat="45.30116" lon="8.7803417"><ele>109.33333333333334</ele><time>2026-04-05T15:05:18.282Z</time></trkpt><trkpt lat="45.3011583" lon="8.780475"><ele>109.5</ele><time>2026-04-05T15:05:19.282Z</time></trkpt><trkpt lat="45.3011567" lon="8.7805867"><ele>109.66666666666666</ele><time>2026-04-05T15:05:20.281Z</time></trkpt><trkpt lat="45.301155" lon="8.7807"><ele>109.83333333333333</ele><time>2026-04-05T15:05:21.281Z</time></trkpt><trkpt lat="45.301155" lon="8.7808083"><ele>110.0</ele><time>2026-04-05T15:05:22.281Z</time></trkpt><trkpt lat="45.301145" lon="8.7809233"><ele>109.99999999999999</ele><time>2026-04-05T15:05:23.281Z</time></trkpt><trkpt lat="45.301145" lon="8.781035"><ele>110.0</ele><time>2026-04-05T15:05:24.281Z</time></trkpt><trkpt lat="45.3011533" lon="8.7811467"><ele>110.0</ele><time>2026-04-05T15:05:25.281Z</time></trkpt><trkpt lat="45.301155" lon="8.7812517"><ele>110.0</ele><time>2026-04-05T15:05:26.282Z</time></trkpt><trkpt lat="45.3011617" lon="8.7813533"><ele>109.99999999999999</ele><time>2026-04-05T15:05:27.282Z</time></trkpt><trkpt lat="45.301175" lon="8.7814533"><ele>110.0</ele><time>2026-04-05T15:05:28.282Z</time></trkpt><trkpt lat="45.3011867" lon="8.781565"><ele>109.99999999999999</ele><time>2026-04-05T15:05:29.282Z</time></trkpt><trkpt lat="45.301195" lon="8.781685"><ele>110.0</ele><time>2026-04-05T15:05:30.282Z</time></trkpt><trkpt lat="45.301205" lon="8.78179"><ele>110.0</ele><time>2026-04-05T15:05:31.282Z</time></trkpt><trkpt lat="45.30122" lon="8.7818983"><ele>110.0</ele><time>2026-04-05T15:05:32.282Z</time></trkpt><trkpt lat="45.30124" lon="8.7820017"><ele>109.99999999999999</ele><time>2026-04-05T15:05:33.282Z</time></trkpt><trkpt lat="45.301255" lon="8.7821017"><ele>110.0</ele><time>2026-04-05T15:05:34.282Z</time></trkpt><trkpt lat="45.3012833" lon="8.7822017"><ele>109.99999999999999</ele><time>2026-04-05T15:05:35.281Z</time></trkpt><trkpt lat="45.3013133" lon="8.7823133"><ele>110.0</ele><time>2026-04-05T15:05:36.282Z</time></trkpt><trkpt lat="45.3013467" lon="8.7824283"><ele>110.0</ele><time>2026-04-05T15:05:37.281Z</time></trkpt><trkpt lat="45.301385" lon="8.7825333"><ele>110.0</ele><time>2026-04-05T15:05:38.281Z</time></trkpt><trkpt lat="45.3014267" lon="8.7826367"><ele>109.99999999999999</ele><time>2026-04-05T15:05:39.281Z</time></trkpt><trkpt lat="45.3014683" lon="8.7827533"><ele>110.0</ele><time>2026-04-05T15:05:40.281Z</time></trkpt><trkpt lat="45.30151" lon="8.7828633"><ele>109.83333333333333</ele><time>2026-04-05T15:05:41.282Z</time></trkpt><trkpt lat="45.30155" lon="8.7829833"><ele>109.66666666666666</ele><time>2026-04-05T15:05:42.282Z</time></trkpt><trkpt lat="45.3015983" lon="8.7831"><ele>109.5</ele><time>2026-04-05T15:05:43.281Z</time></trkpt><trkpt lat="45.3016367" lon="8.7832083"><ele>109.33333333333334</ele><time>2026-04-05T15:05:44.282Z</time></trkpt><trkpt lat="45.3016817" lon="8.7833033"><ele>109.16666666666667</ele><time>2026-04-05T15:05:45.281Z</time></trkpt><trkpt lat="45.301725" lon="8.7833933"><ele>109.0</ele><time>2026-04-05T15:05:46.281Z</time></trkpt><trkpt lat="45.30177" lon="8.7834767"><ele>109.00000000000001</ele><time>2026-04-05T15:05:47.282Z</time></trkpt><trkpt lat="45.301825" lon="8.7835583"><ele>109.0</ele><time>2026-04-05T15:05:48.282Z</time></trkpt><trkpt lat="45.30189" lon="8.7836383"><ele>109.0</ele><time>2026-04-05T15:05:49.281Z</time></trkpt><trkpt lat="45.3019567" lon="8.7837117"><ele>109.0</ele><time>2026-04-05T15:05:50.281Z</time></trkpt><trkpt lat="45.3020217" lon="8.78377"><ele>109.00000000000001</ele><time>2026-04-05T15:05:51.282Z</time></trkpt><trkpt lat="45.302085" lon="8.7838183"><ele>109.0</ele><time>2026-04-05T15:05:52.282Z</time></trkpt><trkpt lat="45.30216" lon="8.7838783"><ele>109.00000000000001</ele><time>2026-04-05T15:05:53.282Z</time></trkpt><trkpt lat="45.3022233" lon="8.78393"><ele>109.0</ele><time>2026-04-05T15:05:54.281Z</time></trkpt><trkpt lat="45.3022917" lon="8.7839933"><ele>109.0</ele><time>2026-04-05T15:05:55.282Z</time></trkpt><trkpt lat="45.30236" lon="8.7840533"><ele>109.0</ele><time>2026-04-05T15:05:56.282Z</time></trkpt><trkpt lat="45.3024217" lon="8.784115"><ele>109.00000000000001</ele><time>2026-04-05T15:05:57.282Z</time></trkpt><trkpt lat="45.3024967" lon="8.784185"><ele>109.0</ele><time>2026-04-05T15:05:58.282Z</time></trkpt><trkpt lat="45.3025567" lon="8.7842767"><ele>109.2</ele><time>2026-04-05T15:05:59.282Z</time></trkpt><trkpt lat="45.302615" lon="8.78437"><ele>109.4</ele><time>2026-04-05T15:06:00.281Z</time></trkpt><trkpt lat="45.3026683" lon="8.7844717"><ele>109.6</ele><time>2026-04-05T15:06:01.282Z</time></trkpt><trkpt lat="45.302725" lon="8.7845683"><ele>109.8</ele><time>2026-04-05T15:06:02.282Z</time></trkpt><trkpt lat="45.302775" lon="8.78468"><ele>110.0</ele><time>2026-04-05T15:06:03.281Z</time></trkpt><trkpt lat="45.3028233" lon="8.7847933"><ele>110.0</ele><time>2026-04-05T15:06:04.281Z</time></trkpt><trkpt lat="45.3028717" lon="8.78491"><ele>110.0</ele><time>2026-04-05T15:06:05.281Z</time></trkpt><trkpt lat="45.3029167" lon="8.78503"><ele>110.0</ele><time>2026-04-05T15:06:06.282Z</time></trkpt><trkpt lat="45.3029583" lon="8.785155"><ele>110.0</ele><time>2026-04-05T15:06:07.281Z</time></trkpt><trkpt lat="45.302995" lon="8.785275"><ele>110.0</ele><time>2026-04-05T15:06:08.281Z</time></trkpt><trkpt lat="45.3030233" lon="8.7853967"><ele>109.99999999999999</ele><time>2026-04-05T15:06:09.281Z</time></trkpt><trkpt lat="45.30305" lon="8.785505"><ele>110.0</ele><time>2026-04-05T15:06:10.281Z</time></trkpt><trkpt lat="45.303085" lon="8.785615"><ele>110.0</ele><time>2026-04-05T15:06:11.282Z</time></trkpt><trkpt lat="45.303115" lon="8.7857317"><ele>110.0</ele><time>2026-04-05T15:06:12.282Z</time></trkpt><trkpt lat="45.3031417" lon="8.7858533"><ele>109.99999999999999</ele><time>2026-04-05T15:06:13.282Z</time></trkpt><trkpt lat="45.303175" lon="8.7859767"><ele>110.0</ele><time>2026-04-05T15:06:14.281Z</time></trkpt><trkpt lat="45.3032083" lon="8.7860967"><ele>109.99999999999999</ele><time>2026-04-05T15:06:15.281Z</time></trkpt><trkpt lat="45.3032417" lon="8.7862167"><ele>110.0</ele><time>2026-04-05T15:06:16.281Z</time></trkpt><trkpt lat="45.303275" lon="8.7863267"><ele>110.0</ele><time>2026-04-05T15:06:17.281Z</time></trkpt><trkpt lat="45.303305" lon="8.7864417"><ele>110.0</ele><time>2026-04-05T15:06:18.281Z</time></trkpt><trkpt lat="45.3033383" lon="8.78655"><ele>109.99999999999999</ele><time>2026-04-05T15:06:19.281Z</time></trkpt><trkpt lat="45.3033733" lon="8.7866733"><ele>110.0</ele><time>2026-04-05T15:06:20.281Z</time></trkpt><trkpt lat="45.303405" lon="8.7867817"><ele>110.28571428571428</ele><time>2026-04-05T15:06:21.282Z</time></trkpt><trkpt lat="45.3034333" lon="8.7868883"><ele>110.57142857142857</ele><time>2026-04-05T15:06:22.281Z</time></trkpt><trkpt lat="45.3034583" lon="8.7869867"><ele>110.85714285714286</ele><time>2026-04-05T15:06:23.282Z</time></trkpt><trkpt lat="45.3034833" lon="8.7870717"><ele>111.14285714285714</ele><time>2026-04-05T15:06:24.281Z</time></trkpt><trkpt lat="45.3035033" lon="8.7871583"><ele>111.42857142857143</ele><time>2026-04-05T15:06:25.281Z</time></trkpt><trkpt lat="45.3035367" lon="8.7872417"><ele>111.71428571428571</ele><time>2026-04-05T15:06:26.282Z</time></trkpt><trkpt lat="45.3035617" lon="8.787325"><ele>112.0</ele><time>2026-04-05T15:06:27.281Z</time></trkpt><trkpt lat="45.3035867" lon="8.787415"><ele>112.00000000000001</ele><time>2026-04-05T15:06:28.281Z</time></trkpt><trkpt lat="45.3036367" lon="8.7875767"><ele>112.0</ele><time>2026-04-05T15:06:30.281Z</time></trkpt><trkpt lat="45.303665" lon="8.7876667"><ele>112.0</ele><time>2026-04-05T15:06:31.282Z</time></trkpt><trkpt lat="45.3036983" lon="8.7877683"><ele>112.0</ele><time>2026-04-05T15:06:32.281Z</time></trkpt><trkpt lat="45.3037433" lon="8.7878583"><ele>112.00000000000001</ele><time>2026-04-05T15:06:33.282Z</time></trkpt><trkpt lat="45.3037883" lon="8.7879517"><ele>112.0</ele><time>2026-04-05T15:06:34.282Z</time></trkpt><trkpt lat="45.303835" lon="8.7880517"><ele>112.00000000000001</ele><time>2026-04-05T15:06:35.282Z</time></trkpt><trkpt lat="45.3038817" lon="8.7881433"><ele>112.0</ele><time>2026-04-05T15:06:36.281Z</time></trkpt><trkpt lat="45.303925" lon="8.788235"><ele>112.0</ele><time>2026-04-05T15:06:37.281Z</time></trkpt><trkpt lat="45.3039633" lon="8.7883167"><ele>112.0</ele><time>2026-04-05T15:06:38.282Z</time></trkpt><trkpt lat="45.3040117" lon="8.7884267"><ele>112.00000000000001</ele><time>2026-04-05T15:06:40.281Z</time></trkpt><trkpt lat="45.3040567" lon="8.7885283"><ele>112.0</ele><time>2026-04-05T15:06:42.282Z</time></trkpt><trkpt lat="45.3041183" lon="8.788665"><ele>111.71428571428571</ele><time>2026-04-05T15:06:44.282Z</time></trkpt><trkpt lat="45.3041533" lon="8.788755"><ele>111.42857142857143</ele><time>2026-04-05T15:06:45.282Z</time></trkpt><trkpt lat="45.3041783" lon="8.7888483"><ele>111.14285714285714</ele><time>2026-04-05T15:06:46.281Z</time></trkpt><trkpt lat="45.3042083" lon="8.7889483"><ele>110.85714285714286</ele><time>2026-04-05T15:06:47.281Z</time></trkpt><trkpt lat="45.3042333" lon="8.7890317"><ele>110.57142857142857</ele><time>2026-04-05T15:06:48.281Z</time></trkpt><trkpt lat="45.3042617" lon="8.78912"><ele>110.28571428571428</ele><time>2026-04-05T15:06:49.281Z</time></trkpt><trkpt lat="45.304295" lon="8.7891983"><ele>110.0</ele><time>2026-04-05T15:06:50.281Z</time></trkpt><trkpt lat="45.3043283" lon="8.78928"><ele>110.25</ele><time>2026-04-05T15:06:51.281Z</time></trkpt><trkpt lat="45.3044067" lon="8.7894067"><ele>110.5</ele><time>2026-04-05T15:06:53.282Z</time></trkpt><trkpt lat="45.3044967" lon="8.7895233"><ele>110.75</ele><time>2026-04-05T15:06:55.282Z</time></trkpt><trkpt lat="45.304595" lon="8.789595"><ele>111.0</ele><time>2026-04-05T15:06:57.281Z</time></trkpt><trkpt lat="45.3046983" lon="8.789615"><ele>111.16666666666667</ele><time>2026-04-05T15:06:59.282Z</time></trkpt><trkpt lat="45.3047567" lon="8.78966"><ele>111.33333333333334</ele><time>2026-04-05T15:07:01.282Z</time></trkpt><trkpt lat="45.30477" lon="8.7897883"><ele>111.5</ele><time>2026-04-05T15:07:03.282Z</time></trkpt><trkpt lat="45.3047633" lon="8.789885"><ele>111.66666666666667</ele><time>2026-04-05T15:07:04.281Z</time></trkpt><trkpt lat="45.3047517" lon="8.789995"><ele>111.83333333333334</ele><time>2026-04-05T15:07:05.281Z</time></trkpt><trkpt lat="45.3047483" lon="8.7900967"><ele>112.0</ele><time>2026-04-05T15:07:06.282Z</time></trkpt><trkpt lat="45.30475" lon="8.7902117"><ele>112.16666666666667</ele><time>2026-04-05T15:07:07.281Z</time></trkpt><trkpt lat="45.30476" lon="8.790315"><ele>112.33333333333334</ele><time>2026-04-05T15:07:08.281Z</time></trkpt><trkpt lat="45.304775" lon="8.79042"><ele>112.5</ele><time>2026-04-05T15:07:09.281Z</time></trkpt><trkpt lat="45.3047983" lon="8.7905283"><ele>112.66666666666666</ele><time>2026-04-05T15:07:10.282Z</time></trkpt><trkpt lat="45.30483" lon="8.790645"><ele>112.83333333333333</ele><time>2026-04-05T15:07:11.282Z</time></trkpt><trkpt lat="45.3048667" lon="8.7907633"><ele>113.0</ele><time>2026-04-05T15:07:12.281Z</time></trkpt><trkpt lat="45.3049" lon="8.7908633"><ele>113.0</ele><time>2026-04-05T15:07:13.281Z</time></trkpt><trkpt lat="45.3049267" lon="8.7909533"><ele>113.00000000000001</ele><time>2026-04-05T15:07:14.282Z</time></trkpt><trkpt lat="45.30497" lon="8.7911117"><ele>113.00000000000001</ele><time>2026-04-05T15:07:16.281Z</time></trkpt><trkpt lat="45.305005" lon="8.7912383"><ele>113.0</ele><time>2026-04-05T15:07:18.282Z</time></trkpt><trkpt lat="45.3050467" lon="8.7913233"><ele>113.0</ele><time>2026-04-05T15:07:20.282Z</time></trkpt><trkpt lat="45.30515" lon="8.7913117"><ele>112.99999999999999</ele><time>2026-04-05T15:07:23.282Z</time></trkpt><trkpt lat="45.305205" lon="8.791255"><ele>113.0</ele><time>2026-04-05T15:07:24.282Z</time></trkpt><trkpt lat="45.3052667" lon="8.7911833"><ele>113.0</ele><time>2026-04-05T15:07:25.282Z</time></trkpt><trkpt lat="45.3053333" lon="8.7911"><ele>113.0</ele><time>2026-04-05T15:07:26.282Z</time></trkpt><trkpt lat="45.305405" lon="8.79101"><ele>112.99999999999999</ele><time>2026-04-05T15:07:27.282Z</time></trkpt><trkpt lat="45.3054867" lon="8.7909167"><ele>113.0</ele><time>2026-04-05T15:07:28.282Z</time></trkpt><trkpt lat="45.3055667" lon="8.7908283"><ele>112.33333333333333</ele><time>2026-04-05T15:07:29.282Z</time></trkpt><trkpt lat="45.3056367" lon="8.7907433"><ele>111.66666666666666</ele><time>2026-04-05T15:07:30.281Z</time></trkpt><trkpt lat="45.3057017" lon="8.7906617"><ele>111.0</ele><time>2026-04-05T15:07:31.282Z</time></trkpt><trkpt lat="45.3057717" lon="8.79059"><ele>110.33333333333334</ele><time>2026-04-05T15:07:32.282Z</time></trkpt><trkpt lat="45.3058417" lon="8.7905233"><ele>109.66666666666667</ele><time>2026-04-05T15:07:33.281Z</time></trkpt><trkpt lat="45.305905" lon="8.79046"><ele>109.0</ele><time>2026-04-05T15:07:34.281Z</time></trkpt><trkpt lat="45.30598" lon="8.7904"><ele>109.00000000000001</ele><time>2026-04-05T15:07:35.281Z</time></trkpt><trkpt lat="45.3060517" lon="8.7903567"><ele>109.0</ele><time>2026-04-05T15:07:36.282Z</time></trkpt><trkpt lat="45.30612" lon="8.7903217"><ele>109.0</ele><time>2026-04-05T15:07:37.281Z</time></trkpt><trkpt lat="45.3061933" lon="8.7902783"><ele>109.0</ele><time>2026-04-05T15:07:38.282Z</time></trkpt><trkpt lat="45.30628" lon="8.7902033"><ele>109.00000000000001</ele><time>2026-04-05T15:07:39.282Z</time></trkpt><trkpt lat="45.3063417" lon="8.7901517"><ele>109.0</ele><time>2026-04-05T15:07:40.282Z</time></trkpt><trkpt lat="45.306405" lon="8.79009"><ele>109.16666666666667</ele><time>2026-04-05T15:07:41.282Z</time></trkpt><trkpt lat="45.30647" lon="8.7900333"><ele>109.33333333333334</ele><time>2026-04-05T15:07:42.282Z</time></trkpt><trkpt lat="45.3065367" lon="8.7899583"><ele>109.5</ele><time>2026-04-05T15:07:43.281Z</time></trkpt><trkpt lat="45.3065967" lon="8.78988"><ele>109.66666666666666</ele><time>2026-04-05T15:07:44.281Z</time></trkpt><trkpt lat="45.3066467" lon="8.789815"><ele>109.83333333333333</ele><time>2026-04-05T15:07:45.282Z</time></trkpt><trkpt lat="45.3066933" lon="8.7897333"><ele>110.0</ele><time>2026-04-05T15:07:46.282Z</time></trkpt><trkpt lat="45.3067267" lon="8.78965"><ele>109.99999999999999</ele><time>2026-04-05T15:07:47.282Z</time></trkpt><trkpt lat="45.3067533" lon="8.789555"><ele>110.0</ele><time>2026-04-05T15:07:48.281Z</time></trkpt><trkpt lat="45.3067867" lon="8.7894617"><ele>110.0</ele><time>2026-04-05T15:07:49.282Z</time></trkpt><trkpt lat="45.3068367" lon="8.7893767"><ele>110.0</ele><time>2026-04-05T15:07:50.282Z</time></trkpt><trkpt lat="45.3069" lon="8.7892917"><ele>109.99999999999999</ele><time>2026-04-05T15:07:51.282Z</time></trkpt><trkpt lat="45.30698" lon="8.7892317"><ele>110.0</ele><time>2026-04-05T15:07:52.281Z</time></trkpt><trkpt lat="45.30706" lon="8.7891717"><ele>110.2</ele><time>2026-04-05T15:07:53.282Z</time></trkpt><trkpt lat="45.3071367" lon="8.7891033"><ele>110.4</ele><time>2026-04-05T15:07:54.281Z</time></trkpt><trkpt lat="45.3072217" lon="8.7890317"><ele>110.6</ele><time>2026-04-05T15:07:55.282Z</time></trkpt><trkpt lat="45.3073083" lon="8.7889633"><ele>110.8</ele><time>2026-04-05T15:07:56.282Z</time></trkpt><trkpt lat="45.3074017" lon="8.7889"><ele>111.0</ele><time>2026-04-05T15:07:57.282Z</time></trkpt><trkpt lat="45.3074817" lon="8.78883"><ele>110.8</ele><time>2026-04-05T15:07:58.281Z</time></trkpt><trkpt lat="45.307555" lon="8.7887633"><ele>110.6</ele><time>2026-04-05T15:07:59.281Z</time></trkpt><trkpt lat="45.3076333" lon="8.788705"><ele>110.4</ele><time>2026-04-05T15:08:00.282Z</time></trkpt><trkpt lat="45.307715" lon="8.788635"><ele>110.2</ele><time>2026-04-05T15:08:01.282Z</time></trkpt><trkpt lat="45.3078017" lon="8.788575"><ele>110.0</ele><time>2026-04-05T15:08:02.282Z</time></trkpt><trkpt lat="45.3079033" lon="8.7884983"><ele>110.0</ele><time>2026-04-05T15:08:03.281Z</time></trkpt><trkpt lat="45.307995" lon="8.78843"><ele>110.0</ele><time>2026-04-05T15:08:04.282Z</time></trkpt><trkpt lat="45.3080967" lon="8.7883583"><ele>110.0</ele><time>2026-04-05T15:08:05.281Z</time></trkpt><trkpt lat="45.3081883" lon="8.7883033"><ele>110.0</ele><time>2026-04-05T15:08:06.281Z</time></trkpt><trkpt lat="45.308285" lon="8.7882367"><ele>110.0</ele><time>2026-04-05T15:08:07.282Z</time></trkpt><trkpt lat="45.3083733" lon="8.7881717"><ele>109.6</ele><time>2026-04-05T15:08:08.281Z</time></trkpt><trkpt lat="45.3084617" lon="8.7881067"><ele>109.2</ele><time>2026-04-05T15:08:09.281Z</time></trkpt><trkpt lat="45.30855" lon="8.788045"><ele>108.80000000000001</ele><time>2026-04-05T15:08:10.282Z</time></trkpt><trkpt lat="45.3086367" lon="8.7879767"><ele>108.4</ele><time>2026-04-05T15:08:11.281Z</time></trkpt><trkpt lat="45.3087217" lon="8.787925"><ele>108.0</ele><time>2026-04-05T15:08:12.281Z</time></trkpt><trkpt lat="45.3088117" lon="8.7878683"><ele>108.0</ele><time>2026-04-05T15:08:13.282Z</time></trkpt><trkpt lat="45.3088917" lon="8.7878233"><ele>108.0</ele><time>2026-04-05T15:08:14.282Z</time></trkpt><trkpt lat="45.308965" lon="8.787775"><ele>108.0</ele><time>2026-04-05T15:08:15.282Z</time></trkpt><trkpt lat="45.3090383" lon="8.7877417"><ele>108.0</ele><time>2026-04-05T15:08:16.281Z</time></trkpt><trkpt lat="45.309105" lon="8.7877033"><ele>108.0</ele><time>2026-04-05T15:08:17.282Z</time></trkpt><trkpt lat="45.3091683" lon="8.7876617"><ele>108.0</ele><time>2026-04-05T15:08:18.282Z</time></trkpt><trkpt lat="45.3092433" lon="8.7876167"><ele>108.0</ele><time>2026-04-05T15:08:19.281Z</time></trkpt><trkpt lat="45.3093167" lon="8.7875733"><ele>108.00000000000001</ele><time>2026-04-05T15:08:20.282Z</time></trkpt><trkpt lat="45.3093783" lon="8.7875367"><ele>108.00000000000001</ele><time>2026-04-05T15:08:21.282Z</time></trkpt><trkpt lat="45.3094483" lon="8.7874883"><ele>108.0</ele><time>2026-04-05T15:08:22.281Z</time></trkpt><trkpt lat="45.3095633" lon="8.7874067"><ele>108.0</ele><time>2026-04-05T15:08:24.282Z</time></trkpt><trkpt lat="45.309675" lon="8.7873317"><ele>108.4</ele><time>2026-04-05T15:08:26.282Z</time></trkpt><trkpt lat="45.309765" lon="8.7872583"><ele>108.80000000000001</ele><time>2026-04-05T15:08:28.282Z</time></trkpt><trkpt lat="45.3098717" lon="8.7872467"><ele>109.2</ele><time>2026-04-05T15:08:30.281Z</time></trkpt><trkpt lat="45.309985" lon="8.7873267"><ele>109.6</ele><time>2026-04-05T15:08:32.282Z</time></trkpt><trkpt lat="45.31003" lon="8.7874067"><ele>110.0</ele><time>2026-04-05T15:08:33.282Z</time></trkpt><trkpt lat="45.3100667" lon="8.7875"><ele>109.99999999999999</ele><time>2026-04-05T15:08:34.281Z</time></trkpt><trkpt lat="45.31011" lon="8.7875833"><ele>110.0</ele><time>2026-04-05T15:08:35.282Z</time></trkpt><trkpt lat="45.3101617" lon="8.787645"><ele>110.0</ele><time>2026-04-05T15:08:36.281Z</time></trkpt><trkpt lat="45.3102233" lon="8.7877"><ele>110.0</ele><time>2026-04-05T15:08:37.282Z</time></trkpt><trkpt lat="45.310285" lon="8.7877533"><ele>110.0</ele><time>2026-04-05T15:08:38.281Z</time></trkpt><trkpt lat="45.3103433" lon="8.7878217"><ele>109.99999999999999</ele><time>2026-04-05T15:08:39.282Z</time></trkpt><trkpt lat="45.3103867" lon="8.787895"><ele>110.0</ele><time>2026-04-05T15:08:40.282Z</time></trkpt><trkpt lat="45.3104283" lon="8.787975"><ele>109.83333333333333</ele><time>2026-04-05T15:08:41.281Z</time></trkpt><trkpt lat="45.3104633" lon="8.7880517"><ele>109.66666666666666</ele><time>2026-04-05T15:08:42.282Z</time></trkpt><trkpt lat="45.3105367" lon="8.7881767"><ele>109.5</ele><time>2026-04-05T15:08:44.282Z</time></trkpt><trkpt lat="45.3106133" lon="8.7882867"><ele>109.33333333333334</ele><time>2026-04-05T15:08:46.281Z</time></trkpt><trkpt lat="45.310655" lon="8.7883567"><ele>109.16666666666667</ele><time>2026-04-05T15:08:47.282Z</time></trkpt><trkpt lat="45.3106983" lon="8.7884333"><ele>109.0</ele><time>2026-04-05T15:08:48.282Z</time></trkpt><trkpt lat="45.310735" lon="8.7885083"><ele>108.83333333333334</ele><time>2026-04-05T15:08:49.282Z</time></trkpt><trkpt lat="45.3107767" lon="8.78858"><ele>108.66666666666667</ele><time>2026-04-05T15:08:50.282Z</time></trkpt><trkpt lat="45.3108233" lon="8.7886667"><ele>108.5</ele><time>2026-04-05T15:08:51.281Z</time></trkpt><trkpt lat="45.31087" lon="8.788745"><ele>108.33333333333334</ele><time>2026-04-05T15:08:52.282Z</time></trkpt><trkpt lat="45.3109267" lon="8.7888333"><ele>108.16666666666667</ele><time>2026-04-05T15:08:53.281Z</time></trkpt><trkpt lat="45.3109867" lon="8.7889417"><ele>108.0</ele><time>2026-04-05T15:08:54.282Z</time></trkpt><trkpt lat="45.31105" lon="8.789065"><ele>108.0</ele><time>2026-04-05T15:08:55.282Z</time></trkpt><trkpt lat="45.31111" lon="8.7891967"><ele>108.00000000000001</ele><time>2026-04-05T15:08:56.281Z</time></trkpt><trkpt lat="45.3111783" lon="8.7893233"><ele>108.00000000000001</ele><time>2026-04-05T15:08:57.281Z</time></trkpt><trkpt lat="45.3112483" lon="8.7894517"><ele>108.0</ele><time>2026-04-05T15:08:58.282Z</time></trkpt><trkpt lat="45.3113067" lon="8.7895583"><ele>108.0</ele><time>2026-04-05T15:08:59.282Z</time></trkpt><trkpt lat="45.311365" lon="8.78967"><ele>107.80000000000001</ele><time>2026-04-05T15:09:00.282Z</time></trkpt><trkpt lat="45.31143" lon="8.7897833"><ele>107.60000000000001</ele><time>2026-04-05T15:09:01.282Z</time></trkpt><trkpt lat="45.3114967" lon="8.7898967"><ele>107.39999999999999</ele><time>2026-04-05T15:09:02.282Z</time></trkpt><trkpt lat="45.3115617" lon="8.7900083"><ele>107.19999999999999</ele><time>2026-04-05T15:09:03.281Z</time></trkpt><trkpt lat="45.3116333" lon="8.7901333"><ele>107.0</ele><time>2026-04-05T15:09:04.282Z</time></trkpt><trkpt lat="45.311705" lon="8.79025"><ele>107.0</ele><time>2026-04-05T15:09:05.282Z</time></trkpt><trkpt lat="45.3117767" lon="8.79038"><ele>106.99999999999999</ele><time>2026-04-05T15:09:06.282Z</time></trkpt><trkpt lat="45.3118467" lon="8.7905083"><ele>106.99999999999999</ele><time>2026-04-05T15:09:07.281Z</time></trkpt><trkpt lat="45.3119133" lon="8.7906333"><ele>107.0</ele><time>2026-04-05T15:09:08.281Z</time></trkpt><trkpt lat="45.3119767" lon="8.7907483"><ele>107.0</ele><time>2026-04-05T15:09:09.282Z</time></trkpt><trkpt lat="45.3120367" lon="8.790875"><ele>107.0</ele><time>2026-04-05T15:09:10.282Z</time></trkpt><trkpt lat="45.3120967" lon="8.7909833"><ele>106.99999999999999</ele><time>2026-04-05T15:09:11.281Z</time></trkpt><trkpt lat="45.3121583" lon="8.7910883"><ele>106.99999999999999</ele><time>2026-04-05T15:09:12.281Z</time></trkpt><trkpt lat="45.3122133" lon="8.7911883"><ele>107.0</ele><time>2026-04-05T15:09:13.282Z</time></trkpt><trkpt lat="45.3122717" lon="8.7912917"><ele>107.0</ele><time>2026-04-05T15:09:14.281Z</time></trkpt><trkpt lat="45.3123383" lon="8.7913917"><ele>106.8</ele><time>2026-04-05T15:09:15.282Z</time></trkpt><trkpt lat="45.3124033" lon="8.7915033"><ele>106.6</ele><time>2026-04-05T15:09:16.281Z</time></trkpt><trkpt lat="45.3124683" lon="8.7916217"><ele>106.39999999999999</ele><time>2026-04-05T15:09:17.281Z</time></trkpt><trkpt lat="45.3125317" lon="8.791735"><ele>106.19999999999999</ele><time>2026-04-05T15:09:18.282Z</time></trkpt><trkpt lat="45.3125967" lon="8.79185"><ele>106.0</ele><time>2026-04-05T15:09:19.281Z</time></trkpt><trkpt lat="45.3126617" lon="8.791965"><ele>106.0</ele><time>2026-04-05T15:09:20.282Z</time></trkpt><trkpt lat="45.3127233" lon="8.7920867"><ele>106.0</ele><time>2026-04-05T15:09:21.281Z</time></trkpt><trkpt lat="45.312785" lon="8.7922083"><ele>106.0</ele><time>2026-04-05T15:09:22.282Z</time></trkpt><trkpt lat="45.3128567" lon="8.79234"><ele>106.0</ele><time>2026-04-05T15:09:23.281Z</time></trkpt><trkpt lat="45.3129283" lon="8.792475"><ele>106.0</ele><time>2026-04-05T15:09:24.282Z</time></trkpt><trkpt lat="45.313005" lon="8.7926"><ele>106.0</ele><time>2026-04-05T15:09:25.281Z</time></trkpt><trkpt lat="45.3130683" lon="8.792715"><ele>106.0</ele><time>2026-04-05T15:09:26.281Z</time></trkpt><trkpt lat="45.3131367" lon="8.792835"><ele>106.0</ele><time>2026-04-05T15:09:27.282Z</time></trkpt><trkpt lat="45.3131967" lon="8.792945"><ele>106.0</ele><time>2026-04-05T15:09:28.282Z</time></trkpt><trkpt lat="45.3132533" lon="8.7930417"><ele>106.0</ele><time>2026-04-05T15:09:29.282Z</time></trkpt><trkpt lat="45.31332" lon="8.7931533"><ele>106.0</ele><time>2026-04-05T15:09:30.282Z</time></trkpt><trkpt lat="45.313385" lon="8.7932633"><ele>106.0</ele><time>2026-04-05T15:09:31.282Z</time></trkpt><trkpt lat="45.3134467" lon="8.793375"><ele>106.0</ele><time>2026-04-05T15:09:32.282Z</time></trkpt><trkpt lat="45.3135167" lon="8.7934883"><ele>106.0</ele><time>2026-04-05T15:09:33.282Z</time></trkpt><trkpt lat="45.3135817" lon="8.7936"><ele>106.0</ele><time>2026-04-05T15:09:34.281Z</time></trkpt><trkpt lat="45.31365" lon="8.7937217"><ele>106.0</ele><time>2026-04-05T15:09:35.281Z</time></trkpt><trkpt lat="45.3137217" lon="8.7938517"><ele>106.0</ele><time>2026-04-05T15:09:36.281Z</time></trkpt><trkpt lat="45.3137917" lon="8.7939783"><ele>106.0</ele><time>2026-04-05T15:09:37.282Z</time></trkpt><trkpt lat="45.31386" lon="8.794105"><ele>106.0</ele><time>2026-04-05T15:09:38.281Z</time></trkpt><trkpt lat="45.3139217" lon="8.7942233"><ele>106.0</ele><time>2026-04-05T15:09:39.282Z</time></trkpt><trkpt lat="45.3139817" lon="8.7943283"><ele>106.0</ele><time>2026-04-05T15:09:40.281Z</time></trkpt><trkpt lat="45.3140433" lon="8.7944417"><ele>106.0</ele><time>2026-04-05T15:09:41.281Z</time></trkpt><trkpt lat="45.31411" lon="8.7945533"><ele>106.0</ele><time>2026-04-05T15:09:42.281Z</time></trkpt><trkpt lat="45.3141783" lon="8.79468"><ele>106.0</ele><time>2026-04-05T15:09:43.282Z</time></trkpt><trkpt lat="45.314245" lon="8.794815"><ele>106.0</ele><time>2026-04-05T15:09:44.282Z</time></trkpt><trkpt lat="45.3143217" lon="8.7949417"><ele>106.0</ele><time>2026-04-05T15:09:45.281Z</time></trkpt><trkpt lat="45.3144" lon="8.7950717"><ele>106.0</ele><time>2026-04-05T15:09:46.281Z</time></trkpt><trkpt lat="45.3144667" lon="8.7951883"><ele>106.0</ele><time>2026-04-05T15:09:47.281Z</time></trkpt><trkpt lat="45.3145333" lon="8.7952967"><ele>106.0</ele><time>2026-04-05T15:09:48.282Z</time></trkpt><trkpt lat="45.3145967" lon="8.7954033"><ele>106.0</ele><time>2026-04-05T15:09:49.282Z</time></trkpt><trkpt lat="45.3146583" lon="8.7955083"><ele>106.16666666666667</ele><time>2026-04-05T15:09:50.281Z</time></trkpt><trkpt lat="45.3147117" lon="8.7956083"><ele>106.33333333333334</ele><time>2026-04-05T15:09:51.281Z</time></trkpt><trkpt lat="45.3147633" lon="8.7956967"><ele>106.5</ele><time>2026-04-05T15:09:52.281Z</time></trkpt><trkpt lat="45.3148133" lon="8.79578"><ele>106.66666666666666</ele><time>2026-04-05T15:09:53.281Z</time></trkpt><trkpt lat="45.3148667" lon="8.7958633"><ele>106.83333333333333</ele><time>2026-04-05T15:09:54.281Z</time></trkpt><trkpt lat="45.3149183" lon="8.7959417"><ele>107.0</ele><time>2026-04-05T15:09:55.282Z</time></trkpt><trkpt lat="45.314965" lon="8.796015"><ele>107.16666666666666</ele><time>2026-04-05T15:09:56.282Z</time></trkpt><trkpt lat="45.3150083" lon="8.7960833"><ele>107.33333333333333</ele><time>2026-04-05T15:09:57.282Z</time></trkpt><trkpt lat="45.3150533" lon="8.79615"><ele>107.5</ele><time>2026-04-05T15:09:58.282Z</time></trkpt><trkpt lat="45.3150783" lon="8.7962333"><ele>107.66666666666666</ele><time>2026-04-05T15:09:59.281Z</time></trkpt><trkpt lat="45.3150917" lon="8.7964067"><ele>107.83333333333333</ele><time>2026-04-05T15:10:01.282Z</time></trkpt><trkpt lat="45.3150767" lon="8.796505"><ele>108.0</ele><time>2026-04-05T15:10:02.282Z</time></trkpt><trkpt lat="45.3150417" lon="8.796605"><ele>108.0</ele><time>2026-04-05T15:10:03.282Z</time></trkpt><trkpt lat="45.314995" lon="8.79668"><ele>108.00000000000001</ele><time>2026-04-05T15:10:04.282Z</time></trkpt><trkpt lat="45.3149067" lon="8.79674"><ele>108.00000000000001</ele><time>2026-04-05T15:10:05.282Z</time></trkpt><trkpt lat="45.3148117" lon="8.79681"><ele>108.0</ele><time>2026-04-05T15:10:06.281Z</time></trkpt><trkpt lat="45.31472" lon="8.796885"><ele>108.0</ele><time>2026-04-05T15:10:07.281Z</time></trkpt><trkpt lat="45.3146233" lon="8.7969767"><ele>107.5</ele><time>2026-04-05T15:10:08.281Z</time></trkpt><trkpt lat="45.31452" lon="8.7970667"><ele>107.0</ele><time>2026-04-05T15:10:09.282Z</time></trkpt><trkpt lat="45.3144133" lon="8.7971533"><ele>106.5</ele><time>2026-04-05T15:10:10.282Z</time></trkpt><trkpt lat="45.31431" lon="8.7972467"><ele>106.0</ele><time>2026-04-05T15:10:11.282Z</time></trkpt><trkpt lat="45.3141983" lon="8.7973417"><ele>106.0</ele><time>2026-04-05T15:10:12.281Z</time></trkpt><trkpt lat="45.3141" lon="8.79743"><ele>106.0</ele><time>2026-04-05T15:10:13.282Z</time></trkpt><trkpt lat="45.314005" lon="8.7975133"><ele>106.0</ele><time>2026-04-05T15:10:14.281Z</time></trkpt><trkpt lat="45.3139133" lon="8.7975933"><ele>106.0</ele><time>2026-04-05T15:10:15.281Z</time></trkpt><trkpt lat="45.3138233" lon="8.7976717"><ele>106.0</ele><time>2026-04-05T15:10:16.282Z</time></trkpt><trkpt lat="45.3137367" lon="8.7977483"><ele>106.0</ele><time>2026-04-05T15:10:17.282Z</time></trkpt><trkpt lat="45.3136483" lon="8.7978217"><ele>106.0</ele><time>2026-04-05T15:10:18.281Z</time></trkpt><trkpt lat="45.3135633" lon="8.7979017"><ele>106.0</ele><time>2026-04-05T15:10:19.281Z</time></trkpt><trkpt lat="45.3134717" lon="8.7979717"><ele>106.0</ele><time>2026-04-05T15:10:20.282Z</time></trkpt><trkpt lat="45.31339" lon="8.7980417"><ele>106.0</ele><time>2026-04-05T15:10:21.281Z</time></trkpt><trkpt lat="45.3133133" lon="8.7981183"><ele>106.0</ele><time>2026-04-05T15:10:22.282Z</time></trkpt><trkpt lat="45.3132317" lon="8.7981967"><ele>106.0</ele><time>2026-04-05T15:10:23.282Z</time></trkpt><trkpt lat="45.31315" lon="8.7982733"><ele>106.0</ele><time>2026-04-05T15:10:24.282Z</time></trkpt><trkpt lat="45.3130683" lon="8.798345"><ele>106.0</ele><time>2026-04-05T15:10:25.282Z</time></trkpt><trkpt lat="45.312995" lon="8.7984117"><ele>106.0</ele><time>2026-04-05T15:10:26.282Z</time></trkpt><trkpt lat="45.312925" lon="8.7984733"><ele>106.14285714285715</ele><time>2026-04-05T15:10:27.282Z</time></trkpt><trkpt lat="45.3128533" lon="8.7985283"><ele>106.28571428571428</ele><time>2026-04-05T15:10:28.281Z</time></trkpt><trkpt lat="45.31279" lon="8.79859"><ele>106.42857142857143</ele><time>2026-04-05T15:10:29.281Z</time></trkpt><trkpt lat="45.3127233" lon="8.79864"><ele>106.57142857142858</ele><time>2026-04-05T15:10:30.281Z</time></trkpt><trkpt lat="45.3126583" lon="8.7986983"><ele>106.71428571428572</ele><time>2026-04-05T15:10:31.282Z</time></trkpt><trkpt lat="45.3125983" lon="8.79875"><ele>106.85714285714286</ele><time>2026-04-05T15:10:32.281Z</time></trkpt><trkpt lat="45.3125417" lon="8.7987917"><ele>107.0</ele><time>2026-04-05T15:10:33.281Z</time></trkpt><trkpt lat="45.31244" lon="8.7988583"><ele>106.99999999999999</ele><time>2026-04-05T15:10:35.282Z</time></trkpt><trkpt lat="45.3123917" lon="8.79894"><ele>107.0</ele><time>2026-04-05T15:10:37.282Z</time></trkpt><trkpt lat="45.3124017" lon="8.799045"><ele>107.0</ele><time>2026-04-05T15:10:39.282Z</time></trkpt><trkpt lat="45.3124267" lon="8.799135"><ele>107.0</ele><time>2026-04-05T15:10:40.281Z</time></trkpt><trkpt lat="45.3124583" lon="8.7992417"><ele>106.99999999999999</ele><time>2026-04-05T15:10:41.281Z</time></trkpt><trkpt lat="45.3124933" lon="8.7993617"><ele>107.0</ele><time>2026-04-05T15:10:42.282Z</time></trkpt><trkpt lat="45.3125317" lon="8.799495"><ele>107.0</ele><time>2026-04-05T15:10:43.281Z</time></trkpt><trkpt lat="45.3125683" lon="8.799625"><ele>106.99999999999999</ele><time>2026-04-05T15:10:44.281Z</time></trkpt><trkpt lat="45.31261" lon="8.7997617"><ele>106.99999999999999</ele><time>2026-04-05T15:10:45.282Z</time></trkpt><trkpt lat="45.3126433" lon="8.7998983"><ele>107.0</ele><time>2026-04-05T15:10:46.281Z</time></trkpt><trkpt lat="45.31268" lon="8.800025"><ele>107.0</ele><time>2026-04-05T15:10:47.282Z</time></trkpt><trkpt lat="45.31272" lon="8.8001683"><ele>107.0</ele><time>2026-04-05T15:10:48.282Z</time></trkpt><trkpt lat="45.31276" lon="8.8003033"><ele>106.99999999999999</ele><time>2026-04-05T15:10:49.281Z</time></trkpt><trkpt lat="45.3128033" lon="8.8004467"><ele>106.99999999999999</ele><time>2026-04-05T15:10:50.281Z</time></trkpt><trkpt lat="45.31284" lon="8.8005867"><ele>107.0</ele><time>2026-04-05T15:10:51.281Z</time></trkpt><trkpt lat="45.3128767" lon="8.8007233"><ele>107.0</ele><time>2026-04-05T15:10:52.282Z</time></trkpt><trkpt lat="45.3129117" lon="8.80086"><ele>107.0</ele><time>2026-04-05T15:10:53.281Z</time></trkpt><trkpt lat="45.312945" lon="8.8009833"><ele>106.99999999999999</ele><time>2026-04-05T15:10:54.281Z</time></trkpt><trkpt lat="45.3129883" lon="8.8011117"><ele>106.99999999999999</ele><time>2026-04-05T15:10:55.282Z</time></trkpt><trkpt lat="45.3130367" lon="8.8012467"><ele>107.0</ele><time>2026-04-05T15:10:56.281Z</time></trkpt><trkpt lat="45.313085" lon="8.8013883"><ele>107.0</ele><time>2026-04-05T15:10:57.281Z</time></trkpt><trkpt lat="45.3131333" lon="8.8015283"><ele>107.0</ele><time>2026-04-05T15:10:58.281Z</time></trkpt><trkpt lat="45.3131733" lon="8.801655"><ele>106.99999999999999</ele><time>2026-04-05T15:10:59.281Z</time></trkpt><trkpt lat="45.3132183" lon="8.8017783"><ele>106.99999999999999</ele><time>2026-04-05T15:11:00.281Z</time></trkpt><trkpt lat="45.3132583" lon="8.8019083"><ele>107.0</ele><time>2026-04-05T15:11:01.281Z</time></trkpt><trkpt lat="45.3133017" lon="8.8020333"><ele>107.0</ele><time>2026-04-05T15:11:02.282Z</time></trkpt><trkpt lat="45.3133433" lon="8.8021533"><ele>106.83333333333333</ele><time>2026-04-05T15:11:03.282Z</time></trkpt><trkpt lat="45.3133817" lon="8.802275"><ele>106.66666666666666</ele><time>2026-04-05T15:11:04.281Z</time></trkpt><trkpt lat="45.313415" lon="8.80239"><ele>106.5</ele><time>2026-04-05T15:11:05.282Z</time></trkpt><trkpt lat="45.3134417" lon="8.8024883"><ele>106.33333333333334</ele><time>2026-04-05T15:11:06.281Z</time></trkpt><trkpt lat="45.3134633" lon="8.8025817"><ele>106.16666666666667</ele><time>2026-04-05T15:11:07.281Z</time></trkpt><trkpt lat="45.3134933" lon="8.8027417"><ele>106.0</ele><time>2026-04-05T15:11:09.281Z</time></trkpt><trkpt lat="45.313515" lon="8.8028817"><ele>106.00000000000001</ele><time>2026-04-05T15:11:11.281Z</time></trkpt><trkpt lat="45.3135417" lon="8.8030417"><ele>106.0</ele><time>2026-04-05T15:11:13.282Z</time></trkpt><trkpt lat="45.313545" lon="8.8031433"><ele>106.0</ele><time>2026-04-05T15:11:14.282Z</time></trkpt><trkpt lat="45.313555" lon="8.8032617"><ele>106.0</ele><time>2026-04-05T15:11:15.281Z</time></trkpt><trkpt lat="45.3135583" lon="8.80338"><ele>106.00000000000001</ele><time>2026-04-05T15:11:16.281Z</time></trkpt><trkpt lat="45.3135667" lon="8.803505"><ele>106.0</ele><time>2026-04-05T15:11:17.282Z</time></trkpt><trkpt lat="45.31358" lon="8.8036333"><ele>106.0</ele><time>2026-04-05T15:11:18.282Z</time></trkpt><trkpt lat="45.313595" lon="8.8037533"><ele>106.0</ele><time>2026-04-05T15:11:19.282Z</time></trkpt><trkpt lat="45.3136167" lon="8.803855"><ele>106.0</ele><time>2026-04-05T15:11:20.282Z</time></trkpt><trkpt lat="45.3136383" lon="8.80394"><ele>106.0</ele><time>2026-04-05T15:11:21.282Z</time></trkpt><trkpt lat="45.3136633" lon="8.804025"><ele>106.0</ele><time>2026-04-05T15:11:22.281Z</time></trkpt><trkpt lat="45.313695" lon="8.80412"><ele>106.0</ele><time>2026-04-05T15:11:23.281Z</time></trkpt><trkpt lat="45.3137317" lon="8.8042217"><ele>106.0</ele><time>2026-04-05T15:11:24.281Z</time></trkpt><trkpt lat="45.3137733" lon="8.804325"><ele>106.0</ele><time>2026-04-05T15:11:25.282Z</time></trkpt><trkpt lat="45.3138133" lon="8.8044367"><ele>106.0</ele><time>2026-04-05T15:11:26.281Z</time></trkpt><trkpt lat="45.3138667" lon="8.8045617"><ele>106.0</ele><time>2026-04-05T15:11:27.281Z</time></trkpt><trkpt lat="45.31394" lon="8.8046883"><ele>106.0</ele><time>2026-04-05T15:11:28.282Z</time></trkpt><trkpt lat="45.3140233" lon="8.80482"><ele>106.0</ele><time>2026-04-05T15:11:29.281Z</time></trkpt><trkpt lat="45.3141083" lon="8.8049533"><ele>105.8</ele><time>2026-04-05T15:11:30.281Z</time></trkpt><trkpt lat="45.314185" lon="8.8050833"><ele>105.6</ele><time>2026-04-05T15:11:31.282Z</time></trkpt><trkpt lat="45.3142567" lon="8.8052083"><ele>105.4</ele><time>2026-04-05T15:11:32.282Z</time></trkpt><trkpt lat="45.314325" lon="8.805315"><ele>105.2</ele><time>2026-04-05T15:11:33.281Z</time></trkpt><trkpt lat="45.314395" lon="8.80543"><ele>105.0</ele><time>2026-04-05T15:11:34.281Z</time></trkpt><trkpt lat="45.31445" lon="8.80554"><ele>105.2</ele><time>2026-04-05T15:11:35.281Z</time></trkpt><trkpt lat="45.31451" lon="8.8056417"><ele>105.4</ele><time>2026-04-05T15:11:36.282Z</time></trkpt><trkpt lat="45.314565" lon="8.8057467"><ele>105.6</ele><time>2026-04-05T15:11:37.281Z</time></trkpt><trkpt lat="45.3146317" lon="8.8058417"><ele>105.8</ele><time>2026-04-05T15:11:38.282Z</time></trkpt><trkpt lat="45.3146967" lon="8.8059367"><ele>106.0</ele><time>2026-04-05T15:11:39.281Z</time></trkpt><trkpt lat="45.3147617" lon="8.80604"><ele>106.0</ele><time>2026-04-05T15:11:40.281Z</time></trkpt><trkpt lat="45.31483" lon="8.8061233"><ele>106.0</ele><time>2026-04-05T15:11:41.281Z</time></trkpt><trkpt lat="45.3149" lon="8.8062167"><ele>106.0</ele><time>2026-04-05T15:11:42.282Z</time></trkpt><trkpt lat="45.3149683" lon="8.8063"><ele>106.0</ele><time>2026-04-05T15:11:43.282Z</time></trkpt><trkpt lat="45.3150433" lon="8.8063983"><ele>106.0</ele><time>2026-04-05T15:11:44.282Z</time></trkpt><trkpt lat="45.3151133" lon="8.8064933"><ele>106.00000000000001</ele><time>2026-04-05T15:11:45.281Z</time></trkpt><trkpt lat="45.3151833" lon="8.80659"><ele>106.0</ele><time>2026-04-05T15:11:46.282Z</time></trkpt><trkpt lat="45.3152417" lon="8.8066867"><ele>106.0</ele><time>2026-04-05T15:11:47.282Z</time></trkpt><trkpt lat="45.31528" lon="8.8067933"><ele>106.0</ele><time>2026-04-05T15:11:48.281Z</time></trkpt><trkpt lat="45.315305" lon="8.8069083"><ele>106.00000000000001</ele><time>2026-04-05T15:11:49.282Z</time></trkpt><trkpt lat="45.315315" lon="8.8070333"><ele>106.0</ele><time>2026-04-05T15:11:50.282Z</time></trkpt><trkpt lat="45.3153283" lon="8.8071767"><ele>106.4</ele><time>2026-04-05T15:11:51.281Z</time></trkpt><trkpt lat="45.3153367" lon="8.8073167"><ele>106.8</ele><time>2026-04-05T15:11:52.282Z</time></trkpt><trkpt lat="45.31535" lon="8.8074617"><ele>107.20000000000002</ele><time>2026-04-05T15:11:53.281Z</time></trkpt><trkpt lat="45.3153633" lon="8.80758"><ele>107.60000000000001</ele><time>2026-04-05T15:11:54.282Z</time></trkpt><trkpt lat="45.3153867" lon="8.8077033"><ele>108.0</ele><time>2026-04-05T15:11:55.281Z</time></trkpt><trkpt lat="45.3154067" lon="8.80781"><ele>108.0</ele><time>2026-04-05T15:11:56.282Z</time></trkpt><trkpt lat="45.3154267" lon="8.8079217"><ele>108.0</ele><time>2026-04-05T15:11:57.282Z</time></trkpt><trkpt lat="45.3154567" lon="8.8080317"><ele>108.0</ele><time>2026-04-05T15:11:58.281Z</time></trkpt><trkpt lat="45.3154867" lon="8.8081383"><ele>108.0</ele><time>2026-04-05T15:11:59.282Z</time></trkpt><trkpt lat="45.3155317" lon="8.8082567"><ele>108.0</ele><time>2026-04-05T15:12:00.281Z</time></trkpt><trkpt lat="45.3155783" lon="8.808375"><ele>108.0</ele><time>2026-04-05T15:12:01.281Z</time></trkpt><trkpt lat="45.3156333" lon="8.8085133"><ele>107.75</ele><time>2026-04-05T15:12:02.281Z</time></trkpt><trkpt lat="45.31569" lon="8.8086617"><ele>107.5</ele><time>2026-04-05T15:12:03.282Z</time></trkpt><trkpt lat="45.3157467" lon="8.808805"><ele>107.25</ele><time>2026-04-05T15:12:04.281Z</time></trkpt><trkpt lat="45.3158017" lon="8.8089383"><ele>107.0</ele><time>2026-04-05T15:12:05.282Z</time></trkpt><trkpt lat="45.3158567" lon="8.80907"><ele>107.0</ele><time>2026-04-05T15:12:06.282Z</time></trkpt><trkpt lat="45.3159017" lon="8.809195"><ele>106.99999999999999</ele><time>2026-04-05T15:12:07.281Z</time></trkpt><trkpt lat="45.3159483" lon="8.80931"><ele>106.99999999999999</ele><time>2026-04-05T15:12:08.281Z</time></trkpt><trkpt lat="45.316" lon="8.8094217"><ele>107.0</ele><time>2026-04-05T15:12:09.281Z</time></trkpt><trkpt lat="45.316045" lon="8.80953"><ele>107.0</ele><time>2026-04-05T15:12:10.282Z</time></trkpt><trkpt lat="45.316085" lon="8.8096367"><ele>107.0</ele><time>2026-04-05T15:12:11.282Z</time></trkpt><trkpt lat="45.3161267" lon="8.80974"><ele>106.99999999999999</ele><time>2026-04-05T15:12:12.281Z</time></trkpt><trkpt lat="45.31617" lon="8.8098417"><ele>106.99999999999999</ele><time>2026-04-05T15:12:13.282Z</time></trkpt><trkpt lat="45.3162133" lon="8.8099583"><ele>107.0</ele><time>2026-04-05T15:12:14.281Z</time></trkpt><trkpt lat="45.3162567" lon="8.8100783"><ele>107.0</ele><time>2026-04-05T15:12:15.282Z</time></trkpt><trkpt lat="45.3163017" lon="8.8102033"><ele>107.19999999999999</ele><time>2026-04-05T15:12:16.282Z</time></trkpt><trkpt lat="45.316355" lon="8.8103317"><ele>107.39999999999999</ele><time>2026-04-05T15:12:17.281Z</time></trkpt><trkpt lat="45.3164067" lon="8.8104667"><ele>107.60000000000001</ele><time>2026-04-05T15:12:18.282Z</time></trkpt><trkpt lat="45.3164517" lon="8.8105983"><ele>107.80000000000001</ele><time>2026-04-05T15:12:19.282Z</time></trkpt><trkpt lat="45.31649" lon="8.8107167"><ele>108.0</ele><time>2026-04-05T15:12:20.282Z</time></trkpt><trkpt lat="45.3165233" lon="8.8108317"><ele>108.16666666666667</ele><time>2026-04-05T15:12:21.282Z</time></trkpt><trkpt lat="45.316555" lon="8.8109367"><ele>108.33333333333334</ele><time>2026-04-05T15:12:22.281Z</time></trkpt><trkpt lat="45.3165883" lon="8.8110367"><ele>108.5</ele><time>2026-04-05T15:12:23.281Z</time></trkpt><trkpt lat="45.3166217" lon="8.811145"><ele>108.66666666666667</ele><time>2026-04-05T15:12:24.282Z</time></trkpt><trkpt lat="45.31665" lon="8.8112517"><ele>108.83333333333334</ele><time>2026-04-05T15:12:25.282Z</time></trkpt><trkpt lat="45.3166783" lon="8.8113567"><ele>109.0</ele><time>2026-04-05T15:12:26.281Z</time></trkpt><trkpt lat="45.3167033" lon="8.8114417"><ele>109.0</ele><time>2026-04-05T15:12:27.282Z</time></trkpt><trkpt lat="45.31673" lon="8.8115433"><ele>109.0</ele><time>2026-04-05T15:12:29.282Z</time></trkpt><trkpt lat="45.3166367" lon="8.8115217"><ele>109.0</ele><time>2026-04-05T15:12:57.282Z</time></trkpt><trkpt lat="45.3165233" lon="8.81157"><ele>109.0</ele><time>2026-04-05T15:12:59.282Z</time></trkpt><trkpt lat="45.316445" lon="8.811605"><ele>109.0</ele><time>2026-04-05T15:13:00.282Z</time></trkpt><trkpt lat="45.3163533" lon="8.811635"><ele>108.80000000000001</ele><time>2026-04-05T15:13:01.281Z</time></trkpt><trkpt lat="45.3162567" lon="8.8116683"><ele>108.60000000000001</ele><time>2026-04-05T15:13:02.282Z</time></trkpt><trkpt lat="45.3161567" lon="8.8117067"><ele>108.4</ele><time>2026-04-05T15:13:03.281Z</time></trkpt><trkpt lat="45.3160567" lon="8.8117483"><ele>108.2</ele><time>2026-04-05T15:13:04.282Z</time></trkpt><trkpt lat="45.31596" lon="8.8117883"><ele>108.0</ele><time>2026-04-05T15:13:05.281Z</time></trkpt><trkpt lat="45.3158617" lon="8.811835"><ele>108.0</ele><time>2026-04-05T15:13:06.282Z</time></trkpt><trkpt lat="45.3157517" lon="8.81188"><ele>108.00000000000001</ele><time>2026-04-05T15:13:07.281Z</time></trkpt><trkpt lat="45.3156467" lon="8.81193"><ele>108.00000000000001</ele><time>2026-04-05T15:13:08.282Z</time></trkpt><trkpt lat="45.3155433" lon="8.8119683"><ele>108.0</ele><time>2026-04-05T15:13:09.282Z</time></trkpt><trkpt lat="45.3154467" lon="8.8120083"><ele>108.0</ele><time>2026-04-05T15:13:10.282Z</time></trkpt><trkpt lat="45.3153517" lon="8.81204"><ele>108.16666666666667</ele><time>2026-04-05T15:13:11.282Z</time></trkpt><trkpt lat="45.31527" lon="8.8120683"><ele>108.33333333333334</ele><time>2026-04-05T15:13:12.282Z</time></trkpt><trkpt lat="45.3151933" lon="8.8121"><ele>108.5</ele><time>2026-04-05T15:13:13.282Z</time></trkpt><trkpt lat="45.3151217" lon="8.812135"><ele>108.66666666666667</ele><time>2026-04-05T15:13:14.282Z</time></trkpt><trkpt lat="45.3150567" lon="8.8121733"><ele>108.83333333333334</ele><time>2026-04-05T15:13:15.281Z</time></trkpt><trkpt lat="45.314995" lon="8.8122017"><ele>109.0</ele><time>2026-04-05T15:13:16.282Z</time></trkpt><trkpt lat="45.3148983" lon="8.8123083"><ele>109.00000000000001</ele><time>2026-04-05T15:13:18.282Z</time></trkpt><trkpt lat="45.3148583" lon="8.8123867"><ele>109.0</ele><time>2026-04-05T15:13:19.282Z</time></trkpt><trkpt lat="45.31483" lon="8.8124767"><ele>109.0</ele><time>2026-04-05T15:13:20.282Z</time></trkpt><trkpt lat="45.3148033" lon="8.8125767"><ele>109.0</ele><time>2026-04-05T15:13:21.281Z</time></trkpt><trkpt lat="45.3147733" lon="8.8126933"><ele>109.00000000000001</ele><time>2026-04-05T15:13:22.281Z</time></trkpt><trkpt lat="45.314745" lon="8.8128167"><ele>109.0</ele><time>2026-04-05T15:13:23.282Z</time></trkpt><trkpt lat="45.3147283" lon="8.8129467"><ele>108.6</ele><time>2026-04-05T15:13:24.282Z</time></trkpt><trkpt lat="45.3147133" lon="8.8130833"><ele>108.2</ele><time>2026-04-05T15:13:25.281Z</time></trkpt><trkpt lat="45.314695" lon="8.8132183"><ele>107.79999999999998</ele><time>2026-04-05T15:13:26.282Z</time></trkpt><trkpt lat="45.31468" lon="8.81336"><ele>107.39999999999999</ele><time>2026-04-05T15:13:27.282Z</time></trkpt><trkpt lat="45.3146683" lon="8.8134967"><ele>107.0</ele><time>2026-04-05T15:13:28.282Z</time></trkpt><trkpt lat="45.31466" lon="8.8136283"><ele>106.99999999999999</ele><time>2026-04-05T15:13:29.282Z</time></trkpt><trkpt lat="45.3146517" lon="8.81375"><ele>107.0</ele><time>2026-04-05T15:13:30.282Z</time></trkpt><trkpt lat="45.3146417" lon="8.8138733"><ele>107.0</ele><time>2026-04-05T15:13:31.282Z</time></trkpt><trkpt lat="45.3146367" lon="8.8139883"><ele>107.0</ele><time>2026-04-05T15:13:32.282Z</time></trkpt><trkpt lat="45.31463" lon="8.8141067"><ele>106.99999999999999</ele><time>2026-04-05T15:13:33.282Z</time></trkpt><trkpt lat="45.3146217" lon="8.8142283"><ele>107.0</ele><time>2026-04-05T15:13:34.282Z</time></trkpt><trkpt lat="45.3146167" lon="8.8143517"><ele>106.99999999999999</ele><time>2026-04-05T15:13:35.282Z</time></trkpt><trkpt lat="45.3146183" lon="8.814475"><ele>107.0</ele><time>2026-04-05T15:13:36.281Z</time></trkpt><trkpt lat="45.3146133" lon="8.8145883"><ele>107.0</ele><time>2026-04-05T15:13:37.282Z</time></trkpt><trkpt lat="45.314615" lon="8.8146983"><ele>107.0</ele><time>2026-04-05T15:13:38.281Z</time></trkpt><trkpt lat="45.314625" lon="8.814805"><ele>106.99999999999999</ele><time>2026-04-05T15:13:39.281Z</time></trkpt><trkpt lat="45.3146267" lon="8.814905"><ele>107.0</ele><time>2026-04-05T15:13:40.281Z</time></trkpt><trkpt lat="45.3146267" lon="8.8150917"><ele>107.33333333333333</ele><time>2026-04-05T15:13:42.282Z</time></trkpt><trkpt lat="45.3146367" lon="8.8152133"><ele>107.66666666666666</ele><time>2026-04-05T15:13:43.281Z</time></trkpt><trkpt lat="45.314645" lon="8.8153283"><ele>108.0</ele><time>2026-04-05T15:13:44.281Z</time></trkpt><trkpt lat="45.31466" lon="8.8154483"><ele>108.33333333333334</ele><time>2026-04-05T15:13:45.281Z</time></trkpt><trkpt lat="45.3146767" lon="8.81557"><ele>108.66666666666667</ele><time>2026-04-05T15:13:46.281Z</time></trkpt><trkpt lat="45.3147067" lon="8.8157117"><ele>109.0</ele><time>2026-04-05T15:13:47.281Z</time></trkpt><trkpt lat="45.314735" lon="8.8158533"><ele>109.00000000000001</ele><time>2026-04-05T15:13:48.281Z</time></trkpt><trkpt lat="45.3147617" lon="8.815995"><ele>109.0</ele><time>2026-04-05T15:13:49.282Z</time></trkpt><trkpt lat="45.314785" lon="8.8161217"><ele>109.0</ele><time>2026-04-05T15:13:50.282Z</time></trkpt><trkpt lat="45.3148117" lon="8.816245"><ele>109.0</ele><time>2026-04-05T15:13:51.282Z</time></trkpt><trkpt lat="45.3148367" lon="8.816355"><ele>109.00000000000001</ele><time>2026-04-05T15:13:52.282Z</time></trkpt><trkpt lat="45.3148567" lon="8.8164683"><ele>109.0</ele><time>2026-04-05T15:13:53.281Z</time></trkpt><trkpt lat="45.3148867" lon="8.81659"><ele>109.0</ele><time>2026-04-05T15:13:54.282Z</time></trkpt><trkpt lat="45.314915" lon="8.81671"><ele>109.0</ele><time>2026-04-05T15:13:55.282Z</time></trkpt><trkpt lat="45.31495" lon="8.8168417"><ele>109.0</ele><time>2026-04-05T15:13:56.281Z</time></trkpt><trkpt lat="45.3149817" lon="8.816965"><ele>109.0</ele><time>2026-04-05T15:13:57.281Z</time></trkpt><trkpt lat="45.3150167" lon="8.8170833"><ele>109.0</ele><time>2026-04-05T15:13:58.282Z</time></trkpt><trkpt lat="45.3150517" lon="8.8172117"><ele>109.00000000000001</ele><time>2026-04-05T15:13:59.281Z</time></trkpt><trkpt lat="45.3150817" lon="8.8173233"><ele>109.0</ele><time>2026-04-05T15:14:00.282Z</time></trkpt><trkpt lat="45.31511" lon="8.81744"><ele>109.0</ele><time>2026-04-05T15:14:01.282Z</time></trkpt><trkpt lat="45.31514" lon="8.8175583"><ele>109.0</ele><time>2026-04-05T15:14:02.282Z</time></trkpt><trkpt lat="45.315165" lon="8.8176767"><ele>109.00000000000001</ele><time>2026-04-05T15:14:03.281Z</time></trkpt><trkpt lat="45.31519" lon="8.817785"><ele>109.0</ele><time>2026-04-05T15:14:04.281Z</time></trkpt><trkpt lat="45.3152217" lon="8.8178933"><ele>109.00000000000001</ele><time>2026-04-05T15:14:05.281Z</time></trkpt><trkpt lat="45.315245" lon="8.8180033"><ele>109.0</ele><time>2026-04-05T15:14:06.281Z</time></trkpt><trkpt lat="45.315275" lon="8.81811"><ele>109.0</ele><time>2026-04-05T15:14:07.281Z</time></trkpt><trkpt lat="45.31531" lon="8.8182267"><ele>109.0</ele><time>2026-04-05T15:14:08.281Z</time></trkpt><trkpt lat="45.31534" lon="8.8183517"><ele>109.00000000000001</ele><time>2026-04-05T15:14:09.282Z</time></trkpt><trkpt lat="45.3153667" lon="8.8184633"><ele>109.0</ele><time>2026-04-05T15:14:10.282Z</time></trkpt><trkpt lat="45.3153933" lon="8.8185783"><ele>108.83333333333334</ele><time>2026-04-05T15:14:11.281Z</time></trkpt><trkpt lat="45.31542" lon="8.8186833"><ele>108.66666666666667</ele><time>2026-04-05T15:14:12.282Z</time></trkpt><trkpt lat="45.315455" lon="8.818795"><ele>108.5</ele><time>2026-04-05T15:14:13.281Z</time></trkpt><trkpt lat="45.31549" lon="8.8189117"><ele>108.33333333333334</ele><time>2026-04-05T15:14:14.282Z</time></trkpt><trkpt lat="45.3155267" lon="8.8190217"><ele>108.16666666666667</ele><time>2026-04-05T15:14:15.281Z</time></trkpt><trkpt lat="45.31555" lon="8.8191183"><ele>108.0</ele><time>2026-04-05T15:14:16.281Z</time></trkpt><trkpt lat="45.315575" lon="8.819205"><ele>108.0</ele><time>2026-04-05T15:14:17.282Z</time></trkpt><trkpt lat="45.3156033" lon="8.8192883"><ele>108.0</ele><time>2026-04-05T15:14:18.281Z</time></trkpt><trkpt lat="45.315645" lon="8.8193933"><ele>108.0</ele><time>2026-04-05T15:14:20.281Z</time></trkpt><trkpt lat="45.315735" lon="8.8194317"><ele>108.0</ele><time>2026-04-05T15:14:22.282Z</time></trkpt><trkpt lat="45.3158467" lon="8.8193617"><ele>108.0</ele><time>2026-04-05T15:14:24.282Z</time></trkpt><trkpt lat="45.315915" lon="8.8193233"><ele>108.0</ele><time>2026-04-05T15:14:25.281Z</time></trkpt><trkpt lat="45.3159867" lon="8.8192783"><ele>108.0</ele><time>2026-04-05T15:14:26.281Z</time></trkpt><trkpt lat="45.316065" lon="8.819235"><ele>108.0</ele><time>2026-04-05T15:14:27.281Z</time></trkpt><trkpt lat="45.3161467" lon="8.8191967"><ele>108.0</ele><time>2026-04-05T15:14:28.282Z</time></trkpt><trkpt lat="45.3162333" lon="8.8191617"><ele>108.0</ele><time>2026-04-05T15:14:29.282Z</time></trkpt><trkpt lat="45.31632" lon="8.8191133"><ele>108.0</ele><time>2026-04-05T15:14:30.282Z</time></trkpt><trkpt lat="45.31641" lon="8.81907"><ele>108.0</ele><time>2026-04-05T15:14:31.281Z</time></trkpt><trkpt lat="45.3165" lon="8.8190283"><ele>108.2</ele><time>2026-04-05T15:14:32.281Z</time></trkpt><trkpt lat="45.31659" lon="8.81898"><ele>108.4</ele><time>2026-04-05T15:14:33.282Z</time></trkpt><trkpt lat="45.3166917" lon="8.818925"><ele>108.60000000000001</ele><time>2026-04-05T15:14:34.282Z</time></trkpt><trkpt lat="45.3167983" lon="8.8188633"><ele>108.80000000000001</ele><time>2026-04-05T15:14:35.282Z</time></trkpt><trkpt lat="45.3169017" lon="8.8188117"><ele>109.0</ele><time>2026-04-05T15:14:36.282Z</time></trkpt><trkpt lat="45.3170067" lon="8.8187633"><ele>109.0</ele><time>2026-04-05T15:14:37.281Z</time></trkpt><trkpt lat="45.3171083" lon="8.8187183"><ele>109.0</ele><time>2026-04-05T15:14:38.281Z</time></trkpt><trkpt lat="45.3171933" lon="8.81868"><ele>109.0</ele><time>2026-04-05T15:14:39.281Z</time></trkpt><trkpt lat="45.3172817" lon="8.8186383"><ele>109.0</ele><time>2026-04-05T15:14:40.281Z</time></trkpt><trkpt lat="45.3173717" lon="8.8186033"><ele>109.0</ele><time>2026-04-05T15:14:41.282Z</time></trkpt><trkpt lat="45.3174617" lon="8.818565"><ele>109.00000000000001</ele><time>2026-04-05T15:14:42.282Z</time></trkpt><trkpt lat="45.31754" lon="8.818525"><ele>109.0</ele><time>2026-04-05T15:14:43.282Z</time></trkpt><trkpt lat="45.3176267" lon="8.8184833"><ele>109.0</ele><time>2026-04-05T15:14:44.281Z</time></trkpt><trkpt lat="45.3177033" lon="8.8184467"><ele>109.0</ele><time>2026-04-05T15:14:45.282Z</time></trkpt><trkpt lat="45.3177767" lon="8.8184133"><ele>109.00000000000001</ele><time>2026-04-05T15:14:46.281Z</time></trkpt><trkpt lat="45.317855" lon="8.818385"><ele>109.0</ele><time>2026-04-05T15:14:47.281Z</time></trkpt><trkpt lat="45.317925" lon="8.818355"><ele>109.00000000000001</ele><time>2026-04-05T15:14:48.282Z</time></trkpt><trkpt lat="45.3179983" lon="8.8183233"><ele>109.0</ele><time>2026-04-05T15:14:49.282Z</time></trkpt><trkpt lat="45.31807" lon="8.8182917"><ele>109.0</ele><time>2026-04-05T15:14:50.281Z</time></trkpt><trkpt lat="45.3181383" lon="8.8182583"><ele>109.0</ele><time>2026-04-05T15:14:51.282Z</time></trkpt><trkpt lat="45.31824" lon="8.8182133"><ele>109.00000000000001</ele><time>2026-04-05T15:14:53.282Z</time></trkpt><trkpt lat="45.3183317" lon="8.81821"><ele>109.0</ele><time>2026-04-05T15:14:55.281Z</time></trkpt><trkpt lat="45.318375" lon="8.8182783"><ele>109.00000000000001</ele><time>2026-04-05T15:14:57.282Z</time></trkpt><trkpt lat="45.3184033" lon="8.8184183"><ele>109.0</ele><time>2026-04-05T15:14:59.281Z</time></trkpt><trkpt lat="45.318415" lon="8.81851"><ele>109.0</ele><time>2026-04-05T15:15:00.281Z</time></trkpt><trkpt lat="45.3184367" lon="8.81861"><ele>109.0</ele><time>2026-04-05T15:15:01.282Z</time></trkpt><trkpt lat="45.3184583" lon="8.8187183"><ele>109.00000000000001</ele><time>2026-04-05T15:15:02.282Z</time></trkpt><trkpt lat="45.3184917" lon="8.8188567"><ele>109.0</ele><time>2026-04-05T15:15:03.282Z</time></trkpt><trkpt lat="45.3185267" lon="8.8189817"><ele>109.2</ele><time>2026-04-05T15:15:04.282Z</time></trkpt><trkpt lat="45.3185583" lon="8.8191083"><ele>109.4</ele><time>2026-04-05T15:15:05.282Z</time></trkpt><trkpt lat="45.3185917" lon="8.8192417"><ele>109.6</ele><time>2026-04-05T15:15:06.281Z</time></trkpt><trkpt lat="45.3186233" lon="8.819375"><ele>109.8</ele><time>2026-04-05T15:15:07.281Z</time></trkpt><trkpt lat="45.318665" lon="8.8194967"><ele>110.0</ele><time>2026-04-05T15:15:08.282Z</time></trkpt><trkpt lat="45.3186917" lon="8.81962"><ele>110.0</ele><time>2026-04-05T15:15:09.281Z</time></trkpt><trkpt lat="45.3187117" lon="8.8197517"><ele>110.0</ele><time>2026-04-05T15:15:10.282Z</time></trkpt><trkpt lat="45.3187483" lon="8.819855"><ele>110.0</ele><time>2026-04-05T15:15:11.281Z</time></trkpt><trkpt lat="45.3187733" lon="8.819945"><ele>110.0</ele><time>2026-04-05T15:15:12.282Z</time></trkpt><trkpt lat="45.3188" lon="8.8200383"><ele>110.0</ele><time>2026-04-05T15:15:13.281Z</time></trkpt><trkpt lat="45.3188383" lon="8.8202"><ele>111.0</ele><time>2026-04-05T15:15:15.282Z</time></trkpt></trkseg></trk></gpx>